# Wetter Temperatur Luftdruck Luftfeuchtigkeit Sichtweite Windgeschwindigkeit Windrichtung Zeit
1 Clouds 8 1018 81 6000 3.6 250 21:39 28.01.2020
2 Clouds 8 1018 81 6000 3.6 250 21:20 28.01.2020
3 Clouds 8 1018 81 6000 6.2 260 20:46 28.01.2020
4 Clouds 8 1018 81 6000 6.2 260 20:28 28.01.2020
5 Clouds 9 1018 76 6000 4.6 240 19:58 28.01.2020
6 Clouds 9 1018 76 6000 4.6 240 19:38 28.01.2020
7 Clouds 9 1018 76 6000 4.6 240 19:19 28.01.2020
8 Haze 10 1017 76 4000 5.1 260 18:57 28.01.2020
9 Haze 10 1017 76 4000 5.1 260 18:38 28.01.2020
10 Haze 10 1017 76 4000 5.1 260 18:20 28.01.2020
11 Haze 10 1017 76 3000 6.2 270 17:55 28.01.2020
12 Haze 10 1017 76 3000 6.2 270 17:36 28.01.2020
13 Haze 10 1017 76 3000 6.2 270 17:18 28.01.2020
14 Haze 11 1017 66 3000 6.2 270 16:44 28.01.2020
15 Haze 11 1017 66 3000 6.2 270 16:26 28.01.2020
16 Haze 11 1017 66 3000 6.2 270 15:59 28.01.2020
17 Haze 11 1017 66 3000 6.2 270 15:40 28.01.2020
18 Haze 11 1017 66 3000 6.2 270 15:18 28.01.2020
19 Haze 13 1016 54 3000 4.1 250 14:44 28.01.2020
20 Haze 13 1016 54 3000 4.1 250 14:20 28.01.2020
21 Haze 13 1016 37 5000 4.1 240 13:45 28.01.2020
22 Haze 13 1016 37 5000 4.1 240 13:25 28.01.2020
23 Haze 13 1017 43 5000 3.1 240 12:59 28.01.2020
24 Haze 13 1017 43 5000 3.1 240 12:41 28.01.2020
25 Haze 13 1017 43 5000 3.1 240 12:22 28.01.2020
26 Smoke 12 1017 54 3000 2.1 210 11:48 28.01.2020
27 Smoke 12 1017 54 3000 2.1 210 11:23 28.01.2020
28 Smoke 10 1019 61 2500 3.09 134 10:58 28.01.2020
29 Smoke 10 1019 61 2500 3.09 134 10:39 28.01.2020
30 Smoke 10 1019 61 2500 3.09 134 10:20 28.01.2020
31 Smoke 8 1019 65 3000 3.09 134 09:42 28.01.2020
32 Smoke 8 1019 65 3000 3.09 134 09:21 28.01.2020
33 Smoke 6 1019 70 3000 1.5 50 08:57 28.01.2020
34 Smoke 6 1019 70 3000 1.5 50 08:39 28.01.2020
35 Smoke 6 1019 70 3000 1.5 50 08:18 28.01.2020
36 Haze 4 1019 86 3000 3.92 109 07:37 28.01.2020
37 Haze 4 1019 86 3000 3.92 109 07:37 28.01.2020
38 Haze 4 1019 80 2000 3.92 109 06:50 28.01.2020
39 Haze 4 1019 80 2000 3.92 109 06:26 28.01.2020
40 Haze 4 1019 80 2000 3.92 109 05:54 28.01.2020
41 Haze 4 1019 80 5000 3.92 109 05:26 28.01.2020
42 Haze 5 1019 75 5000 3.72 108 04:28 28.01.2020
43 Clouds 5 1020 75 7000 3.72 108 02:58 28.01.2020
44 Clouds 5 1020 75 7000 3.72 108 02:25 28.01.2020
45 Clouds 6 1020 70 6000 3.53 110 01:57 28.01.2020
46 Clouds 6 1020 70 6000 3.53 110 01:57 28.01.2020
47 Clouds 6 1020 70 6000 3.53 110 01:26 28.01.2020
48 Clouds 7 1021 50 6000 3.55 105 00:51 28.01.2020
49 Clouds 7 1021 50 6000 3.55 105 00:29 28.01.2020
50 Clouds 6 1021 75 6000 3.55 105 23:51 27.01.2020
51 Clouds 6 1021 75 6000 3.55 105 23:30 27.01.2020
52 Clouds 7 1022 70 6000 3.43 126 22:58 27.01.2020
53 Clouds 7 1022 70 6000 3.43 126 22:40 27.01.2020
54 Clouds 7 1022 70 6000 3.43 126 22:19 27.01.2020
55 Clouds 7 1022 70 6000 3.43 126 21:55 27.01.2020
56 Clouds 7 1022 70 6000 3.43 126 21:37 27.01.2020
57 Clouds 7 1022 70 6000 3.43 126 21:18 27.01.2020
58 Clouds 8 1022 75 6000 3.43 126 20:43 27.01.2020
59 Clouds 8 1022 75 6000 3.43 126 20:22 27.01.2020
60 Clouds 9 1022 70 6000 3.54 129 19:59 27.01.2020
61 Clouds 9 1022 70 6000 3.54 129 19:41 27.01.2020
62 Clouds 9 1022 70 6000 3.54 129 19:22 27.01.2020
63 Haze 9 1022 66 5000 1 10 18:56 27.01.2020
64 Haze 9 1022 66 5000 1 10 18:38 27.01.2020
65 Haze 9 1022 66 5000 1 10 18:19 27.01.2020
66 Clouds 9 1022 41 0 3.54 129 17:39 27.01.2020
67 Haze 12 1022 47 5000 3.1 90 17:21 27.01.2020
68 Haze 12 1022 47 5000 3.1 90 16:59 27.01.2020
69 Haze 12 1022 47 5000 3.1 90 16:41 27.01.2020
70 Haze 12 1022 47 5000 3.1 90 16:23 27.01.2020
71 Haze 14 1022 38 5000 2.1 150 15:55 27.01.2020
72 Haze 14 1022 38 5000 2.1 150 15:37 27.01.2020
73 Haze 14 1022 38 5000 2.1 150 15:19 27.01.2020
74 Haze 14 1022 38 5000 2.1 150 15:19 27.01.2020
75 Haze 15 1022 38 5000 1.5 150 14:54 27.01.2020
76 Haze 15 1022 38 5000 1.5 150 14:36 27.01.2020
77 Haze 15 1022 29 5000 1.5 150 14:18 27.01.2020
78 Haze 14 1023 47 5000 1.5 100 13:41 27.01.2020
79 Haze 14 1023 47 5000 1.5 100 13:20 27.01.2020
80 Haze 12 1024 54 5000 2.1 50 12:56 27.01.2020
81 Haze 12 1024 54 5000 2.1 50 12:37 27.01.2020
82 Haze 12 1024 54 5000 2.1 50 12:19 27.01.2020
83 Haze 12 1025 58 5000 1 180 11:41 27.01.2020
84 Haze 12 1025 58 5000 1 180 11:21 27.01.2020
85 Haze 9 1026 70 4000 1 100 10:43 27.01.2020
86 Haze 9 1026 70 4000 1 100 10:25 27.01.2020
87 Haze 7 1026 75 4000 1 30 09:58 27.01.2020
88 Haze 8 1026 75 4000 1 30 09:39 27.01.2020
89 Haze 7 1026 75 4000 1 30 09:18 27.01.2020
90 Haze 6 1026 87 3000 2.98 140 08:46 27.01.2020
91 Haze 6 1026 87 3000 2.98 140 08:22 27.01.2020
92 Mist 4 1026 93 4000 3.1 70 07:55 27.01.2020
93 Mist 3 1026 86 1500 1.77 124 07:35 27.01.2020
94 Mist 1 1026 93 1500 1.77 124 06:55 27.01.2020
95 Mist 1 1026 93 1500 1.77 124 06:27 27.01.2020
96 Mist 1 1026 93 3000 1.77 124 05:37 27.01.2020
97 Mist 1 1026 93 3000 1.77 124 05:37 27.01.2020
98 Mist 1 1026 100 4000 0.26 226 04:20 27.01.2020
99 Mist 2 1026 93 4000 0.26 226 03:27 27.01.2020
100 Mist 3 1026 93 4000 0.73 296 01:32 27.01.2020
101 Mist 3 1027 86 4000 1 240 00:59 27.01.2020
102 Mist 3 1027 86 4000 1 240 00:38 27.01.2020
103 Mist 3 1027 86 4000 1 240 00:19 27.01.2020
104 Mist 4 1027 86 4000 1.5 240 23:42 26.01.2020
105 Mist 4 1027 86 4000 1.5 240 23:20 26.01.2020
106 Mist 4 1027 86 4000 1 160 22:57 26.01.2020
107 Mist 4 1027 86 4000 1 160 22:37 26.01.2020
108 Mist 4 1027 86 4000 1 160 22:19 26.01.2020
109 Mist 4 1027 86 4000 1 160 22:19 26.01.2020
110 Clear 4 1028 86 6000 2.1 320 21:57 26.01.2020
111 Mist 5 1027 93 4000 1 210 21:38 26.01.2020
112 Mist 5 1027 93 4000 1 210 21:38 26.01.2020
113 Mist 5 1027 93 4000 1 210 21:20 26.01.2020
114 Haze 6 1027 81 4000 1 140 20:57 26.01.2020
115 Haze 6 1027 81 4000 1 140 20:38 26.01.2020
116 Haze 6 1027 81 4000 1 140 20:18 26.01.2020
117 Clear 6 1027 87 6000 2.96 336 19:57 26.01.2020
118 Clear 6 1027 87 6000 2.96 336 19:37 26.01.2020
119 Clear 6 1027 87 6000 2.96 336 19:18 26.01.2020
120 Clear 7 1027 81 6000 1 260 18:54 26.01.2020
121 Clear 7 1027 81 6000 1 260 18:36 26.01.2020
122 Clear 7 1027 81 6000 1 260 18:18 26.01.2020
123 Clear 8 1027 75 6000 1 110 17:54 26.01.2020
124 Clear 8 1027 75 6000 1 110 17:36 26.01.2020
125 Clear 8 1027 75 6000 1 110 17:18 26.01.2020
126 Clear 10 1027 61 6000 2.1 360 16:54 26.01.2020
127 Clear 10 1027 61 6000 2.1 360 16:36 26.01.2020
128 Clear 10 1027 61 6000 2.1 360 16:18 26.01.2020
129 Clear 10 1027 42 0 1.58 295 15:41 26.01.2020
130 Clear 10 1027 42 0 1.58 295 15:19 26.01.2020
131 Clear 10 1027 42 0 1.58 295 14:41 26.01.2020
132 Clear 10 1027 42 0 1.58 295 14:23 26.01.2020
133 Clear 11 1026 31 0 2.09 254 13:59 26.01.2020
134 Clear 11 1026 31 0 2.09 254 13:38 26.01.2020
135 Clear 11 1026 31 0 2.09 254 13:18 26.01.2020
136 Clear 11 1026 31 0 2.09 254 13:18 26.01.2020
137 Clear 12 1026 31 0 2.58 262 12:43 26.01.2020
138 Clear 12 1026 31 0 2.58 262 12:43 26.01.2020
139 Clear 12 1026 31 0 2.58 262 12:25 26.01.2020
140 Clear 12 1026 31 0 2.58 262 11:59 26.01.2020
141 Clear 12 1026 31 0 2.58 262 11:40 26.01.2020
142 Clear 9 1030 49 7000 1.5 150 11:19 26.01.2020
143 Clear 9 1030 49 7000 1.5 150 10:59 26.01.2020
144 Clear 9 1030 49 7000 1.5 150 10:39 26.01.2020
145 Clear 9 1030 49 7000 1.5 150 10:21 26.01.2020
146 Clear 7 1030 56 7000 2.42 218 09:59 26.01.2020
147 Clear 7 1030 56 7000 2.42 218 09:41 26.01.2020
148 Clear 7 1030 56 7000 2.42 218 09:22 26.01.2020
149 Smoke 5 1030 75 5000 1.5 240 08:55 26.01.2020
150 Smoke 5 1030 75 5000 1.5 240 08:37 26.01.2020
151 Smoke 5 1030 75 5000 1.5 240 08:18 26.01.2020
152 Haze 3 1030 63 2000 1.5 240 07:45 26.01.2020
153 Haze 3 1030 63 2000 1.5 240 07:45 26.01.2020
154 Haze 3 1030 63 2000 1.5 240 07:22 26.01.2020
155 Haze 1 1029 63 3000 1.5 240 06:32 26.01.2020
156 Haze 1 1029 80 5000 1.37 202 05:52 26.01.2020
157 Haze 1 1029 80 5000 1.37 202 05:22 26.01.2020
158 Haze 2 1029 78 5000 1 210 03:22 26.01.2020
159 Haze 1 1029 80 5000 0.77 290 02:23 26.01.2020
160 Haze 2 1029 72 4000 1.46 311 01:40 26.01.2020
161 Haze 2 1029 71 4000 1.46 309 01:20 26.01.2020
162 Mist 2 1029 100 3000 1 240 00:40 26.01.2020
163 Mist 2 1029 100 3000 1 240 00:20 26.01.2020
164 Clear 4 1030 71 0 1.46 309 23:38 25.01.2020
165 Clear 5 1030 65 0 2.09 325 23:20 25.01.2020
166 Clear 5 1030 65 0 2.09 325 22:44 25.01.2020
167 Clear 5 1030 65 0 2.09 325 22:21 25.01.2020
168 Clear 5 1030 65 0 2.09 325 21:59 25.01.2020
169 Clear 5 1030 65 0 2.09 325 21:59 25.01.2020
170 Clear 5 1030 65 0 2.09 325 21:41 25.01.2020
171 Clear 5 1030 65 0 2.09 325 21:22 25.01.2020
172 Clear 5 1030 65 0 2.09 325 20:55 25.01.2020
173 Clear 5 1030 65 0 2.09 325 20:36 25.01.2020
174 Clear 7 1030 52 0 1.39 294 20:18 25.01.2020
175 Clear 7 1030 65 0 2.86 298 19:42 25.01.2020
176 Clear 7 1030 65 0 2.86 298 19:20 25.01.2020
177 Clear 7 1030 65 0 2.86 298 18:56 25.01.2020
178 Clear 7 1030 52 0 1.39 294 18:38 25.01.2020
179 Clear 7 1030 52 0 1.39 294 18:20 25.01.2020
180 Clear 7 1030 65 0 2.86 298 17:40 25.01.2020
181 Clear 8 1029 45 0 1.7 324 17:19 25.01.2020
182 Clear 8 1029 45 0 1.7 324 16:58 25.01.2020
183 Clear 8 1029 45 0 1.7 324 16:38 25.01.2020
184 Clear 8 1029 45 0 1.7 324 16:19 25.01.2020
185 Clear 8 1029 45 0 1.7 324 15:47 25.01.2020
186 Clear 8 1029 45 0 1.7 324 15:25 25.01.2020
187 Clear 8 1029 45 0 1.7 324 14:59 25.01.2020
188 Clear 8 1029 45 0 1.7 324 14:40 25.01.2020
189 Clear 9 1028 34 0 2.39 313 14:18 25.01.2020
190 Clear 9 1028 34 0 2.39 313 13:42 25.01.2020
191 Clear 9 1028 34 0 2.39 313 13:42 25.01.2020
192 Clear 9 1028 34 0 2.09 308 13:23 25.01.2020
193 Clear 9 1028 34 0 2.09 308 12:45 25.01.2020
194 Clouds 8 1028 49 10000 1 360 12:26 25.01.2020
195 Clouds 8 1028 49 10000 1 360 11:45 25.01.2020
196 Clouds 8 1028 49 10000 1 360 11:22 25.01.2020
197 Clouds 7 1029 56 10000 1.5 340 10:59 25.01.2020
198 Clouds 7 1029 56 10000 1.5 340 10:40 25.01.2020
199 Clouds 7 1029 56 10000 1.5 340 10:20 25.01.2020
200 Clear 6 1028 56 10000 1 360 09:54 25.01.2020
201 Clear 6 1028 56 10000 1 360 09:36 25.01.2020
202 Clear 6 1028 56 10000 1 360 09:18 25.01.2020
203 Clear 5 1027 60 10000 2.1 360 08:42 25.01.2020
204 Smoke 3 1027 64 5000 1.5 220 07:51 25.01.2020
205 Clouds 1 1026 74 7000 1 200 06:57 25.01.2020
206 Clouds 1 1026 74 7000 1 200 06:31 25.01.2020
207 Clear 1 1026 74 7000 1 280 05:48 25.01.2020
208 Clear 1 1026 74 7000 1 280 05:28 25.01.2020
209 Clear 2 1024 69 8000 1.5 260 03:54 25.01.2020
210 Clear 2 1024 69 8000 1.5 260 03:23 25.01.2020
211 Clear 2 1023 74 8000 2.1 260 02:24 25.01.2020
212 Clear 3 1023 69 8000 3.6 280 01:53 25.01.2020
213 Clouds 2 1023 80 8000 3.1 260 00:52 25.01.2020
214 Clouds 2 1023 80 8000 3.1 260 00:27 25.01.2020
215 Clouds 2 1023 74 8000 2.1 360 23:59 24.01.2020
216 Clouds 2 1023 74 8000 2.1 360 23:41 24.01.2020
217 Clouds 2 1023 74 8000 2.1 360 23:41 24.01.2020
218 Clouds 2 1023 74 8000 2.1 360 23:23 24.01.2020
219 Clouds 2 1023 74 8000 2.1 360 23:23 24.01.2020
220 Clouds 3 1023 69 8000 2.1 350 22:46 24.01.2020
221 Clouds 3 1023 69 8000 2.1 350 22:26 24.01.2020
222 Clouds 3 1023 64 10000 3.1 330 21:57 24.01.2020
223 Clouds 3 1023 64 10000 3.1 330 21:57 24.01.2020
224 Clouds 3 1023 64 10000 3.1 330 21:39 24.01.2020
225 Clouds 3 1023 64 10000 3.1 330 21:18 24.01.2020
226 Clouds 4 1023 55 10000 5.7 320 20:43 24.01.2020
227 Clouds 4 1023 55 10000 5.7 320 20:22 24.01.2020
228 Clouds 4 1022 69 10000 6.7 320 19:58 24.01.2020
229 Clouds 4 1022 69 10000 6.7 320 19:40 24.01.2020
230 Clouds 4 1022 69 10000 6.7 320 19:21 24.01.2020
231 Clouds 5 1021 64 10000 4.1 290 18:54 24.01.2020
232 Clouds 5 1021 64 10000 4.1 290 18:36 24.01.2020
233 Clouds 5 1021 64 10000 4.1 290 18:18 24.01.2020
234 Clouds 5 1020 75 10000 6.2 300 17:42 24.01.2020
235 Clouds 5 1020 75 10000 6.2 300 17:21 24.01.2020
236 Clouds 6 1018 75 7000 6.2 290 16:43 24.01.2020
237 Clouds 6 1018 75 7000 6.2 290 16:22 24.01.2020
238 Clouds 6 1018 75 7000 6.2 290 16:22 24.01.2020
239 Clouds 7 1018 75 7000 4.1 330 15:57 24.01.2020
240 Clouds 7 1018 75 7000 4.1 330 15:39 24.01.2020
241 Clouds 7 1018 75 7000 4.1 330 15:20 24.01.2020
242 Clouds 7 1018 70 7000 7.2 270 14:41 24.01.2020
243 Clouds 6 1017 81 8000 9.3 310 14:23 24.01.2020
244 Clouds 6 1016 75 10000 9.3 310 13:57 24.01.2020
245 Clouds 6 1016 75 10000 9.3 310 13:39 24.01.2020
246 Clouds 6 1016 75 10000 9.3 310 13:19 24.01.2020
247 Clouds 6 1015 75 8000 9.3 310 12:41 24.01.2020
248 Clouds 6 1015 75 8000 9.3 310 12:18 24.01.2020
249 Mist 5 1015 93 5000 8.7 270 11:43 24.01.2020
250 Rain 5 1016 93 1000 9.3 310 11:19 24.01.2020
251 Rain 5 1015 86 1000 6.2 280 10:43 24.01.2020
252 Rain 5 1015 86 2000 5.1 310 10:23 24.01.2020
253 Rain 5 1015 86 2000 5.1 310 10:23 24.01.2020
254 Mist 5 1015 87 3000 10.3 270 09:57 24.01.2020
255 Rain 5 1014 93 4000 7.2 310 09:39 24.01.2020
256 Rain 5 1014 93 4000 7.2 310 09:21 24.01.2020
257 Rain 5 1014 93 2000 7.2 310 08:41 24.01.2020
258 Rain 6 1014 87 3000 4.1 320 08:20 24.01.2020
259 Clouds 6 1013 87 6000 2.6 250 07:53 24.01.2020
260 Rain 5 1014 100 1500 9.3 270 07:35 24.01.2020
261 Mist 6 1013 87 3000 12.9 270 06:48 24.01.2020
262 Rain 7 1013 93 3000 7.7 270 06:29 24.01.2020
263 Rain 7 1012 93 4000 9.3 270 05:59 24.01.2020
264 Rain 7 1012 87 1200 9.3 260 05:18 24.01.2020
265 Rain 7 1014 87 1200 8.7 250 02:54 24.01.2020
266 Rain 7 1014 87 1200 8.7 250 02:26 24.01.2020
267 Rain 7 1014 87 1800 8.7 250 01:49 24.01.2020
268 Rain 7 1014 87 1800 8.7 250 01:31 24.01.2020
269 Mist 7 1016 81 1800 6.7 240 00:26 24.01.2020
270 Rain 7 1016 75 2000 5.1 240 23:56 23.01.2020
271 Haze 7 1017 75 4000 5.7 230 23:37 23.01.2020
272 Haze 7 1017 75 4000 5.7 230 23:18 23.01.2020
273 Haze 7 1018 75 4000 4.1 210 22:39 23.01.2020
274 Haze 7 1018 75 4000 4.1 210 22:19 23.01.2020
275 Drizzle 6 1019 93 4000 7.2 240 21:58 23.01.2020
276 Drizzle 6 1019 93 4000 7.2 240 21:39 23.01.2020
277 Drizzle 6 1019 93 4000 7.2 240 21:21 23.01.2020
278 Rain 7 1019 87 3000 5.1 260 20:59 23.01.2020
279 Rain 7 1019 87 3000 5.1 260 20:39 23.01.2020
280 Rain 7 1019 87 3000 5.1 260 20:39 23.01.2020
281 Rain 7 1019 87 3000 5.1 260 20:20 23.01.2020
282 Rain 7 1019 87 3000 5.1 260 19:56 23.01.2020
283 Drizzle 7 1019 87 3000 6.2 280 19:38 23.01.2020
284 Drizzle 7 1019 87 3000 6.2 280 19:20 23.01.2020
285 Rain 7 1020 87 3000 6.2 280 18:56 23.01.2020
286 Rain 7 1020 87 3000 6.2 280 18:37 23.01.2020
287 Rain 7 1020 87 3000 6.2 280 18:19 23.01.2020
288 Drizzle 8 1020 81 3000 3.1 250 17:43 23.01.2020
289 Drizzle 8 1020 81 3000 3.1 250 17:20 23.01.2020
290 Haze 8 1020 81 4000 6.2 240 16:58 23.01.2020
291 Haze 8 1020 81 4000 6.2 240 16:38 23.01.2020
292 Haze 8 1020 81 4000 6.2 240 16:19 23.01.2020
293 Rain 8 1021 87 4000 6.2 240 15:57 23.01.2020
294 Haze 8 1020 81 4000 6.7 240 15:38 23.01.2020
295 Haze 8 1020 81 4000 6.7 240 15:18 23.01.2020
296 Haze 8 1020 81 5000 6.2 250 14:56 23.01.2020
297 Haze 8 1020 81 5000 6.2 250 14:56 23.01.2020
298 Haze 8 1020 81 5000 6.2 250 14:38 23.01.2020
299 Haze 8 1020 81 5000 6.2 250 14:20 23.01.2020
300 Haze 9 1020 70 4000 5.7 250 13:45 23.01.2020
301 Haze 9 1020 70 4000 5.7 250 13:21 23.01.2020
302 Haze 9 1020 75 4000 4.1 260 12:56 23.01.2020
303 Haze 9 1020 75 4000 4.1 260 12:56 23.01.2020
304 Haze 9 1020 75 4000 4.1 260 12:38 23.01.2020
305 Haze 9 1020 75 4000 4.1 260 12:20 23.01.2020
306 Drizzle 8 1021 87 4000 4.6 250 11:43 23.01.2020
307 Drizzle 8 1021 87 4000 4.6 250 11:25 23.01.2020
308 Mist 8 1022 81 4000 4.6 250 10:59 23.01.2020
309 Mist 8 1022 81 4000 4.6 250 10:41 23.01.2020
310 Mist 8 1022 81 4000 4.6 250 10:19 23.01.2020
311 Mist 7 1022 81 3500 4.6 250 09:41 23.01.2020
312 Mist 7 1022 81 3500 4.6 250 09:22 23.01.2020
313 Mist 7 1022 87 3500 2.6 220 08:57 23.01.2020
314 Drizzle 5 1022 87 3500 4.1 250 08:38 23.01.2020
315 Drizzle 5 1022 87 3500 4.1 250 08:19 23.01.2020
316 Mist 4 1021 93 4000 4.1 250 07:42 23.01.2020
317 Mist 4 1021 93 4000 4.1 250 07:21 23.01.2020
318 Mist 4 1021 93 4000 4.1 250 07:21 23.01.2020
319 Mist 3 1021 93 4000 4.1 250 06:44 23.01.2020
320 Mist 3 1021 93 4000 4.1 250 06:19 23.01.2020
321 Mist 3 1020 93 5000 3.6 240 04:25 23.01.2020
322 Mist 3 1021 93 5000 2.6 250 03:48 23.01.2020
323 Fog 3 1021 100 100 4.25 280 01:56 23.01.2020
324 Mist 4 1021 86 5000 3.6 250 00:47 23.01.2020
325 Mist 4 1021 86 5000 3.6 250 00:26 23.01.2020
326 Mist 4 1022 86 5000 2.6 250 23:47 22.01.2020
327 Mist 4 1022 86 5000 2.6 250 23:47 22.01.2020
328 Mist 4 1022 86 5000 2.6 250 23:28 22.01.2020
329 Mist 4 1022 86 5000 4.1 260 22:56 22.01.2020
330 Mist 4 1022 86 5000 4.1 260 22:38 22.01.2020
331 Mist 4 1022 86 5000 4.1 260 22:20 22.01.2020
332 Clouds 5 1022 86 6000 4.1 260 21:39 22.01.2020
333 Clouds 5 1022 86 6000 4.1 260 21:21 22.01.2020
334 Clouds 5 1021 81 6000 3.1 240 20:56 22.01.2020
335 Clouds 6 1021 81 6000 3.1 240 20:37 22.01.2020
336 Clouds 6 1021 81 6000 3.1 240 20:18 22.01.2020
337 Clouds 6 1021 81 6000 3.1 240 19:55 22.01.2020
338 Haze 6 1021 75 5000 5.7 280 19:37 22.01.2020
339 Haze 6 1021 75 5000 5.7 280 19:18 22.01.2020
340 Clouds 5 1021 100 6000 2.1 260 18:56 22.01.2020
341 Clouds 5 1021 100 6000 2.1 260 18:37 22.01.2020
342 Clouds 5 1021 100 6000 2.1 260 18:19 22.01.2020
343 Haze 6 1020 87 4000 3.6 300 17:40 22.01.2020
344 Haze 6 1020 87 4000 3.6 300 17:21 22.01.2020
345 Haze 7 1020 75 4000 4.6 270 16:58 22.01.2020
346 Haze 7 1020 75 4000 4.6 270 16:39 22.01.2020
347 Haze 7 1020 75 4000 4.6 270 16:21 22.01.2020
348 Rain 7 1020 81 4000 4.6 270 15:58 22.01.2020
349 Rain 7 1020 81 4000 4.6 270 15:38 22.01.2020
350 Rain 7 1020 81 4000 4.6 270 15:20 22.01.2020
351 Rain 7 1020 81 3000 6.2 280 14:40 22.01.2020
352 Rain 7 1020 81 3000 6.2 280 14:40 22.01.2020
353 Rain 7 1020 81 3000 6.2 280 14:40 22.01.2020
354 Rain 7 1020 81 3000 6.2 280 14:21 22.01.2020
355 Rain 8 1019 70 3000 4.1 270 13:59 22.01.2020
356 Haze 8 1019 65 5000 6.2 310 13:38 22.01.2020
357 Haze 8 1019 65 5000 6.2 310 13:19 22.01.2020
358 Haze 8 1020 70 5000 5.1 320 12:57 22.01.2020
359 Haze 8 1020 70 5000 5.1 320 12:39 22.01.2020
360 Haze 8 1020 70 5000 5.1 320 12:20 22.01.2020
361 Clouds 8 1020 70 6000 3.6 300 11:58 22.01.2020
362 Clouds 8 1020 70 6000 3.6 300 11:40 22.01.2020
363 Clouds 8 1020 70 6000 3.6 300 11:19 22.01.2020
364 Clouds 8 1021 70 6000 2.6 300 10:59 22.01.2020
365 Clouds 8 1021 70 6000 2.6 300 10:41 22.01.2020
366 Clouds 8 1021 70 6000 2.6 300 10:18 22.01.2020
367 Haze 7 1020 81 4000 4.6 300 09:42 22.01.2020
368 Haze 7 1020 81 4000 4.6 300 09:24 22.01.2020
369 Mist 6 1020 87 5000 4.1 250 08:57 22.01.2020
370 Mist 6 1020 87 5000 4.1 250 08:38 22.01.2020
371 Mist 6 1020 87 5000 4.1 250 08:20 22.01.2020
372 Mist 5 1021 93 4000 2.6 250 07:46 22.01.2020
373 Haze 5 1020 80 5000 2.6 250 07:28 22.01.2020
374 Mist 4 1019 86 5000 3.1 250 06:38 22.01.2020
375 Mist 4 1019 86 5000 3.1 250 06:20 22.01.2020
376 Clouds 3 1019 86 6000 5.1 240 05:21 22.01.2020
377 Mist 4 1018 93 5000 2.6 280 03:30 22.01.2020
378 Clouds 4 1018 93 6000 2.1 290 02:50 22.01.2020
379 Clouds 4 1018 93 6000 2.1 300 01:42 22.01.2020
380 Clouds 4 1018 93 6000 2.6 310 00:44 22.01.2020
381 Clouds 4 1018 93 6000 2.6 310 00:26 22.01.2020
382 Clouds 5 1019 93 6000 2.6 310 23:38 21.01.2020
383 Clouds 5 1019 93 6000 2.6 310 23:20 21.01.2020
384 Clouds 5 1019 93 6000 2.6 310 22:55 21.01.2020
385 Clouds 5 1019 93 6000 4.1 310 22:36 21.01.2020
386 Clouds 5 1019 93 6000 4.1 310 22:18 21.01.2020
387 Clouds 5 1019 93 6000 4.1 310 21:55 21.01.2020
388 Clouds 5 1018 93 6000 5.1 310 21:37 21.01.2020
389 Clouds 5 1018 93 6000 5.1 310 21:18 21.01.2020
390 Clouds 5 1018 86 6000 5.7 300 20:54 21.01.2020
391 Clouds 5 1018 86 6000 5.7 300 20:36 21.01.2020
392 Clouds 5 1018 86 6000 5.7 300 20:18 21.01.2020
393 Mist 5 1018 86 5000 6.2 290 19:55 21.01.2020
394 Mist 5 1018 86 5000 6.2 290 19:36 21.01.2020
395 Mist 5 1018 86 5000 6.2 290 19:18 21.01.2020
396 Mist 4 1018 86 5000 4.1 270 18:54 21.01.2020
397 Mist 4 1018 86 5000 4.1 270 18:36 21.01.2020
398 Mist 4 1018 86 5000 4.1 270 18:18 21.01.2020
399 Mist 4 1017 86 5000 5.7 270 17:42 21.01.2020
400 Mist 4 1017 86 5000 5.7 270 17:19 21.01.2020
401 Mist 4 1017 86 5000 5.7 270 17:19 21.01.2020
402 Drizzle 4 1017 93 3000 4.1 270 16:56 21.01.2020
403 Drizzle 4 1017 93 3000 4.1 270 16:36 21.01.2020
404 Drizzle 4 1017 93 3000 4.1 270 16:18 21.01.2020
405 Clouds 7 1018 71 0 8.76 297 15:39 21.01.2020
406 Drizzle 5 1017 75 5000 7.2 290 15:20 21.01.2020
407 Drizzle 5 1017 75 5000 7.2 290 14:54 21.01.2020
408 Drizzle 5 1017 75 5000 7.2 290 14:36 21.01.2020
409 Drizzle 5 1017 75 5000 7.2 290 14:18 21.01.2020
410 Haze 6 1017 75 4000 5.1 300 13:38 21.01.2020
411 Haze 6 1017 75 4000 5.1 300 13:18 21.01.2020
412 Haze 6 1016 75 3500 7.7 290 12:43 21.01.2020
413 Haze 6 1016 75 3500 7.7 290 12:24 21.01.2020
414 Haze 6 1017 75 5000 4.6 280 11:56 21.01.2020
415 Haze 6 1017 75 5000 4.6 280 11:38 21.01.2020
416 Haze 6 1017 75 5000 4.6 280 11:38 21.01.2020
417 Haze 6 1017 75 5000 4.6 280 11:38 21.01.2020
418 Haze 6 1017 75 5000 4.6 280 11:19 21.01.2020
419 Haze 6 1017 70 5000 4.6 270 10:43 21.01.2020
420 Haze 6 1017 70 5000 4.6 270 10:23 21.01.2020
421 Haze 5 1018 80 5000 6.2 280 09:57 21.01.2020
422 Haze 5 1018 80 5000 6.2 280 09:39 21.01.2020
423 Haze 5 1018 80 5000 6.2 280 09:21 21.01.2020
424 Drizzle 4 1018 86 4000 3.1 290 08:45 21.01.2020
425 Rain 4 1019 93 5000 5.1 280 08:27 21.01.2020
426 Rain 3 1018 93 4000 3.1 250 07:56 21.01.2020
427 Rain 3 1018 93 4000 3.1 250 07:37 21.01.2020
428 Rain 3 1018 93 4000 3.1 250 07:19 21.01.2020
429 Thunderstorm 5 1018 93 2500 5.7 280 06:44 21.01.2020
430 Rain 5 1017 80 4000 3.1 250 06:23 21.01.2020
431 Drizzle 6 1017 75 3000 6.2 290 05:41 21.01.2020
432 Clouds 6 1018 75 6000 4.1 250 04:39 21.01.2020
433 Drizzle 6 1019 87 6000 4.1 250 02:34 21.01.2020
434 Drizzle 6 1019 87 6000 2.1 310 01:37 21.01.2020
435 Rain 7 1021 87 6000 2.1 310 00:52 21.01.2020
436 Rain 7 1021 87 6000 2.1 310 00:29 21.01.2020
437 Rain 6 1020 87 6000 6.7 250 23:57 20.01.2020
438 Rain 6 1020 87 6000 6.7 250 23:36 20.01.2020
439 Rain 6 1020 87 6000 6.7 250 23:18 20.01.2020
440 Drizzle 7 1021 87 5000 2.6 240 22:56 20.01.2020
441 Drizzle 7 1021 87 5000 2.6 240 22:36 20.01.2020
442 Drizzle 7 1021 87 5000 2.6 240 22:18 20.01.2020
443 Rain 7 1021 87 5000 3.6 270 21:55 20.01.2020
444 Rain 7 1021 87 5000 3.6 270 21:36 20.01.2020
445 Rain 7 1021 87 5000 3.6 270 21:18 20.01.2020
446 Rain 7 1022 93 6000 5.1 230 20:54 20.01.2020
447 Drizzle 8 1021 87 4000 2.6 240 20:36 20.01.2020
448 Drizzle 8 1021 87 4000 2.6 240 20:18 20.01.2020
449 Drizzle 8 1021 87 4000 2.6 240 20:18 20.01.2020
450 Drizzle 8 1022 87 4000 3.1 250 19:54 20.01.2020
451 Drizzle 8 1022 87 4000 3.1 250 19:36 20.01.2020
452 Drizzle 8 1022 87 4000 3.1 250 19:18 20.01.2020
453 Mist 7 1022 93 5000 3.6 240 18:42 20.01.2020
454 Mist 7 1022 93 5000 3.6 240 18:21 20.01.2020
455 Rain 8 1022 87 5000 4.1 260 17:39 20.01.2020
456 Rain 8 1022 87 5000 4.1 260 17:19 20.01.2020
457 Rain 8 1022 93 3000 3.1 260 16:55 20.01.2020
458 Rain 8 1022 93 3000 3.1 260 16:36 20.01.2020
459 Rain 8 1022 93 3000 3.1 260 16:18 20.01.2020
460 Drizzle 8 1021 93 3500 6.2 250 15:41 20.01.2020
461 Drizzle 8 1021 93 3500 6.2 250 15:22 20.01.2020
462 Rain 8 1021 93 2500 4.6 250 14:59 20.01.2020
463 Rain 8 1021 93 2500 4.6 250 14:41 20.01.2020
464 Rain 8 1021 93 2500 4.6 250 14:21 20.01.2020
465 Rain 8 1022 93 3000 5.1 250 13:57 20.01.2020
466 Rain 8 1022 93 2500 6.2 250 13:38 20.01.2020
467 Rain 8 1022 93 2500 6.2 250 13:20 20.01.2020
468 Drizzle 8 1022 93 1000 4.6 250 12:44 20.01.2020
469 Drizzle 8 1022 93 1000 4.6 250 12:25 20.01.2020
470 Drizzle 8 1022 93 1000 4.6 250 12:25 20.01.2020
471 Rain 8 1022 87 1000 4.1 250 11:56 20.01.2020
472 Rain 8 1022 87 1000 4.1 250 11:37 20.01.2020
473 Rain 8 1022 87 1000 4.1 250 11:19 20.01.2020
474 Clouds 9 1024 87 6000 7.2 220 10:47 20.01.2020
475 Rain 8 1023 87 1000 4.6 250 10:21 20.01.2020
476 Rain 8 1023 87 1000 4.6 250 10:21 20.01.2020
477 Rain 8 1023 93 800 3.1 250 09:42 20.01.2020
478 Rain 8 1023 93 800 3.1 250 09:24 20.01.2020
479 Rain 8 1023 93 1000 3.1 240 08:59 20.01.2020
480 Rain 8 1023 93 1000 3.1 240 08:39 20.01.2020
481 Rain 8 1023 93 1000 3.1 240 08:20 20.01.2020
482 Drizzle 8 1022 93 1000 3.6 230 07:42 20.01.2020
483 Drizzle 8 1022 93 1000 3.6 230 07:42 20.01.2020
484 Drizzle 8 1022 93 3000 3.6 230 07:22 20.01.2020
485 Drizzle 8 1022 93 4500 6.2 240 06:45 20.01.2020
486 Drizzle 8 1022 93 4500 6.2 240 06:25 20.01.2020
487 Mist 8 1021 93 3000 7.2 240 05:41 20.01.2020
488 Mist 8 1021 93 3000 7.2 240 05:21 20.01.2020
489 Drizzle 8 1021 93 2000 3.6 240 04:34 20.01.2020
490 Drizzle 8 1022 87 4000 4.1 240 02:55 20.01.2020
491 Drizzle 8 1022 87 4000 4.1 240 02:55 20.01.2020
492 Drizzle 8 1021 93 2500 3.1 240 01:52 20.01.2020
493 Drizzle 8 1021 93 2500 3.1 240 01:26 20.01.2020
494 Drizzle 8 1021 93 3000 3.6 240 00:44 20.01.2020
495 Drizzle 8 1021 93 3000 3.6 240 00:22 20.01.2020
496 Drizzle 8 1021 93 4000 4.1 240 23:39 19.01.2020
497 Drizzle 8 1021 93 4000 4.1 240 23:20 19.01.2020
498 Drizzle 8 1021 93 4000 4.1 240 23:20 19.01.2020
499 Drizzle 8 1021 93 4000 4.1 240 23:20 19.01.2020
500 Drizzle 8 1022 100 5000 2.6 230 22:56 19.01.2020
501 Drizzle 8 1022 100 5000 2.6 230 22:56 19.01.2020
502 Drizzle 8 1021 87 3000 3.1 240 22:38 19.01.2020
503 Drizzle 8 1021 87 3000 3.1 240 22:20 19.01.2020
504 Drizzle 8 1021 87 4000 4.6 240 21:56 19.01.2020
505 Drizzle 8 1021 87 4000 4.6 240 21:38 19.01.2020
506 Drizzle 8 1021 87 4000 4.6 240 21:20 19.01.2020
507 Drizzle 8 1021 87 4000 5.1 240 20:57 19.01.2020
508 Drizzle 8 1021 87 4000 5.1 240 20:39 19.01.2020
509 Drizzle 8 1021 87 4000 5.1 240 20:20 19.01.2020
510 Mist 8 1021 93 5000 5.1 250 19:57 19.01.2020
511 Mist 8 1021 93 5000 5.1 250 19:39 19.01.2020
512 Mist 8 1021 93 5000 5.1 250 19:20 19.01.2020
513 Clouds 9 1021 87 6000 5.1 250 18:57 19.01.2020
514 Drizzle 9 1021 81 5000 4.1 240 18:38 19.01.2020
515 Drizzle 9 1021 81 5000 4.1 240 18:38 19.01.2020
516 Drizzle 9 1021 81 5000 4.1 240 18:20 19.01.2020
517 Rain 9 1020 81 5000 4.1 240 17:58 19.01.2020
518 Rain 9 1020 81 5000 4.1 240 17:40 19.01.2020
519 Rain 9 1020 81 5000 4.1 240 17:40 19.01.2020
520 Rain 9 1020 81 5000 4.1 240 17:21 19.01.2020
521 Clouds 10 1019 87 6000 6.2 230 16:59 19.01.2020
522 Drizzle 9 1019 76 5000 5.1 240 16:39 19.01.2020
523 Drizzle 9 1019 76 5000 5.1 240 16:21 19.01.2020
524 Drizzle 9 1018 81 5000 5.1 230 15:58 19.01.2020
525 Drizzle 9 1018 81 5000 5.1 230 15:38 19.01.2020
526 Drizzle 9 1018 81 5000 5.1 230 15:20 19.01.2020
527 Rain 10 1018 71 5000 5.7 240 14:58 19.01.2020
528 Rain 10 1018 71 5000 5.7 240 14:39 19.01.2020
529 Rain 10 1018 71 5000 5.7 240 14:18 19.01.2020
530 Dust 10 1017 76 5000 8.2 250 13:58 19.01.2020
531 Dust 10 1017 76 5000 8.2 250 13:38 19.01.2020
532 Dust 10 1017 76 5000 8.2 250 13:20 19.01.2020
533 Clouds 11 1018 66 6000 12.3 250 12:55 19.01.2020
534 Haze 10 1017 76 4000 7.2 250 12:37 19.01.2020
535 Haze 10 1017 76 4000 7.2 250 12:37 19.01.2020
536 Haze 10 1017 76 4000 7.2 250 12:19 19.01.2020
537 Mist 9 1017 81 4000 7.2 250 11:42 19.01.2020
538 Mist 9 1017 81 4000 7.2 250 11:21 19.01.2020
539 Rain 9 1018 81 4000 5.1 230 10:57 19.01.2020
540 Rain 9 1018 81 4000 5.1 230 10:39 19.01.2020
541 Rain 9 1018 81 4000 5.1 230 10:39 19.01.2020
542 Rain 9 1018 81 4000 5.1 230 10:19 19.01.2020
543 Rain 9 1018 81 4000 4.6 240 09:56 19.01.2020
544 Rain 9 1018 81 4000 4.6 240 09:56 19.01.2020
545 Rain 9 1018 81 4000 4.6 240 09:56 19.01.2020
546 Rain 9 1018 81 4000 4.6 240 09:56 19.01.2020
547 Rain 9 1018 81 4000 4.6 240 09:37 19.01.2020
548 Rain 9 1018 81 4000 4.6 240 09:19 19.01.2020
549 Rain 8 1018 81 2500 5.1 230 08:52 19.01.2020
550 Rain 8 1018 81 2500 5.1 230 08:30 19.01.2020
551 Rain 8 1018 81 4000 5.1 240 07:46 19.01.2020
552 Rain 8 1018 81 4000 5.1 240 07:27 19.01.2020
553 Mist 8 1017 87 4000 2.6 230 06:54 19.01.2020
554 Mist 8 1017 87 4000 2.6 230 06:21 19.01.2020
555 Rain 8 1015 93 3000 6.7 250 03:51 19.01.2020
556 Rain 8 1015 87 3000 8.7 250 02:28 19.01.2020
557 Rain 8 1016 93 2000 2.6 250 01:39 19.01.2020
558 Rain 8 1016 93 2000 2.6 250 01:18 19.01.2020
559 Rain 8 1016 93 2000 3.6 250 00:41 19.01.2020
560 Rain 8 1016 93 2000 4.6 250 00:19 19.01.2020
561 Rain 8 1016 93 2000 4.6 250 23:45 18.01.2020
562 Rain 8 1016 93 2000 4.6 250 23:25 18.01.2020
563 Rain 8 1016 93 2000 2.6 250 22:58 18.01.2020
564 Rain 8 1016 93 2000 2.6 250 22:40 18.01.2020
565 Rain 8 1016 93 2000 2.6 250 22:21 18.01.2020
566 Rain 8 1016 100 2000 3.1 260 21:58 18.01.2020
567 Rain 8 1016 100 2000 3.1 260 21:38 18.01.2020
568 Rain 8 1016 100 2000 3.1 260 21:20 18.01.2020
569 Rain 8 1016 100 2000 3.1 260 20:55 18.01.2020
570 Rain 8 1016 93 4000 3.6 250 20:36 18.01.2020
571 Rain 8 1016 93 4000 3.6 250 20:18 18.01.2020
572 Rain 9 1016 93 2500 3.6 250 19:42 18.01.2020
573 Rain 9 1016 93 2500 3.6 250 19:24 18.01.2020
574 Drizzle 9 1016 87 3000 2.6 270 18:43 18.01.2020
575 Drizzle 9 1016 87 3000 2.6 270 18:25 18.01.2020
576 Rain 8 1016 93 2500 2.6 270 17:59 18.01.2020
577 Rain 8 1016 93 2500 2.6 270 17:40 18.01.2020
578 Rain 8 1016 93 2500 2.6 270 17:20 18.01.2020
579 Rain 9 1015 93 2000 3.6 250 16:57 18.01.2020
580 Rain 9 1015 93 2000 3.6 250 16:38 18.01.2020
581 Rain 9 1015 93 2000 3.6 250 16:38 18.01.2020
582 Rain 9 1015 93 2000 3.6 250 16:38 18.01.2020
583 Rain 9 1015 93 2000 3.6 250 16:19 18.01.2020
584 Drizzle 10 1015 87 3000 4.6 250 15:47 18.01.2020
585 Drizzle 10 1015 87 3000 4.6 250 15:26 18.01.2020
586 Drizzle 10 1015 87 2500 5.1 250 14:59 18.01.2020
587 Drizzle 10 1015 87 2500 5.1 250 14:40 18.01.2020
588 Drizzle 10 1015 87 2500 5.1 250 14:19 18.01.2020
589 Rain 10 1015 87 2500 4.1 250 13:57 18.01.2020
590 Rain 10 1015 87 2500 4.1 250 13:36 18.01.2020
591 Rain 10 1015 87 2500 4.1 250 13:18 18.01.2020
592 Mist 10 1015 87 5000 7.7 240 12:41 18.01.2020
593 Drizzle 10 1015 93 2500 4.1 260 12:21 18.01.2020
594 Rain 10 1015 87 1500 4.1 250 11:57 18.01.2020
595 Mist 10 1016 87 2500 4.6 250 11:38 18.01.2020
596 Mist 10 1016 87 2500 4.6 250 11:19 18.01.2020
597 Haze 11 1016 81 4200 4.1 240 10:43 18.01.2020
598 Drizzle 10 1017 87 2500 4.1 250 10:21 18.01.2020
599 Drizzle 10 1017 87 3500 4.6 240 09:56 18.01.2020
600 Drizzle 10 1017 87 3500 4.6 240 09:38 18.01.2020
601 Drizzle 10 1017 87 3500 4.6 240 09:18 18.01.2020
602 Mist 10 1017 87 3500 5.1 270 08:42 18.01.2020
603 Mist 10 1016 87 4000 2.6 240 08:20 18.01.2020
604 Mist 10 1016 87 3500 5.1 270 07:58 18.01.2020
605 Mist 9 1016 87 5000 3.1 250 07:37 18.01.2020
606 Drizzle 8 1016 100 5000 4.1 250 06:50 18.01.2020
607 Drizzle 8 1016 100 5000 4.1 250 06:27 18.01.2020
608 Mist 9 1015 93 3000 4.1 270 05:49 18.01.2020
609 Rain 8 1015 100 900 3.91 283 04:24 18.01.2020
610 Drizzle 8 1015 100 1000 1.5 50 02:34 18.01.2020
611 Rain 8 1015 100 1000 2.1 60 01:40 18.01.2020
612 Drizzle 8 1014 100 2000 3.6 80 00:39 18.01.2020
613 Drizzle 8 1014 100 2000 3.6 80 00:19 18.01.2020
614 Drizzle 9 1014 93 3000 4.6 270 23:58 17.01.2020
615 Drizzle 9 1014 93 3000 4.6 270 23:39 17.01.2020
616 Drizzle 9 1014 93 3000 4.6 270 23:18 17.01.2020
617 Rain 9 1015 93 3000 7.2 250 22:41 17.01.2020
618 Rain 9 1015 93 3000 7.2 250 22:20 17.01.2020
619 Rain 10 1015 93 4000 4.6 260 21:56 17.01.2020
620 Rain 10 1015 93 4000 4.6 260 21:38 17.01.2020
621 Rain 10 1015 93 4000 4.6 260 21:19 17.01.2020
622 Drizzle 10 1015 93 4000 3.6 250 20:43 17.01.2020
623 Drizzle 10 1015 93 4000 3.6 250 20:21 17.01.2020
624 Rain 10 1014 87 5000 3.1 240 19:58 17.01.2020
625 Rain 10 1014 87 5000 3.1 240 19:39 17.01.2020
626 Rain 10 1014 87 5000 3.1 240 19:21 17.01.2020
627 Rain 10 1014 87 5000 3.1 240 19:21 17.01.2020
628 Drizzle 10 1015 76 5000 2.6 230 18:59 17.01.2020
629 Drizzle 10 1015 76 5000 2.6 230 18:41 17.01.2020
630 Drizzle 10 1015 76 5000 2.6 230 18:23 17.01.2020
631 Rain 9 1015 87 4000 3.1 240 17:54 17.01.2020
632 Drizzle 9 1014 87 4000 1.5 210 17:36 17.01.2020
633 Drizzle 9 1014 87 4000 1.5 210 17:18 17.01.2020
634 Rain 10 1014 71 3000 5.1 250 16:41 17.01.2020
635 Drizzle 9 1014 87 4000 1.5 210 16:19 17.01.2020
636 Rain 11 1014 66 4000 5.1 250 15:48 17.01.2020
637 Rain 11 1014 66 4000 5.1 250 15:27 17.01.2020
638 Rain 11 1014 66 3000 4.1 250 14:56 17.01.2020
639 Haze 11 1014 66 4000 3.1 250 14:37 17.01.2020
640 Haze 11 1014 66 4000 3.1 250 14:19 17.01.2020
641 Haze 12 1013 58 4000 3.6 240 13:39 17.01.2020
642 Haze 12 1013 58 4000 3.6 240 13:21 17.01.2020
643 Haze 12 1013 58 4000 3.6 240 13:21 17.01.2020
644 Haze 13 1013 50 5000 4.1 260 12:45 17.01.2020
645 Haze 13 1013 50 5000 4.1 260 12:23 17.01.2020
646 Haze 13 1014 58 5000 5.7 250 11:41 17.01.2020
647 Haze 12 1014 58 5000 5.7 250 11:19 17.01.2020
648 Haze 12 1014 58 5000 5.7 250 10:55 17.01.2020
649 Haze 12 1014 62 5000 2.1 240 10:36 17.01.2020
650 Haze 12 1014 62 5000 2.1 240 10:18 17.01.2020
651 Haze 11 1013 71 5000 2.1 310 09:42 17.01.2020
652 Haze 11 1013 71 5000 2.1 310 09:21 17.01.2020
653 Haze 8 1013 76 5000 2.6 300 08:56 17.01.2020
654 Haze 8 1013 76 5000 2.6 300 08:38 17.01.2020
655 Haze 8 1013 76 5000 2.6 300 08:19 17.01.2020
656 Haze 8 1013 76 5000 2.79 311 07:43 17.01.2020
657 Dust 7 1014 75 2000 1 240 07:25 17.01.2020
658 Haze 7 1014 65 2000 1 210 06:51 17.01.2020
659 Haze 7 1014 65 2000 1 210 06:30 17.01.2020
660 Clear 8 1013 44 0 3.13 297 04:27 17.01.2020
661 Clear 8 1013 44 0 3.13 297 03:19 17.01.2020
662 Clear 8 1013 44 0 3.13 297 02:32 17.01.2020
663 Clouds 9 1013 40 0 3.29 87 01:44 17.01.2020
664 Clouds 9 1013 40 0 3.29 87 01:25 17.01.2020
665 Clouds 9 1013 41 0 2.64 87 00:37 17.01.2020
666 Haze 11 1014 40 4000 2.64 87 00:19 17.01.2020
667 Haze 11 1014 40 4000 2.64 87 23:41 16.01.2020
668 Haze 11 1014 40 4000 2.64 87 23:22 16.01.2020
669 Haze 12 1014 34 4000 2.1 80 22:42 16.01.2020
670 Haze 12 1014 34 4000 2.1 80 22:21 16.01.2020
671 Haze 11 1014 37 4000 4.6 90 21:57 16.01.2020
672 Haze 11 1014 37 4000 4.6 90 21:38 16.01.2020
673 Haze 11 1014 37 4000 4.6 90 21:19 16.01.2020
674 Haze 12 1015 46 4000 1.5 50 20:58 16.01.2020
675 Haze 12 1015 46 4000 1.5 50 20:39 16.01.2020
676 Haze 12 1015 46 4000 1.5 50 20:19 16.01.2020
677 Haze 12 1015 40 4000 1.5 40 19:56 16.01.2020
678 Haze 12 1015 40 4000 1.5 40 19:38 16.01.2020
679 Haze 12 1015 40 4000 1.5 40 19:19 16.01.2020
680 Haze 12 1015 34 5000 7.01 86 18:55 16.01.2020
681 Haze 12 1015 34 5000 7.01 86 18:37 16.01.2020
682 Haze 12 1015 34 5000 7.01 86 18:37 16.01.2020
683 Haze 12 1015 34 5000 7.01 86 18:18 16.01.2020
684 Haze 13 1014 34 5000 1.5 90 17:42 16.01.2020
685 Haze 13 1014 34 5000 1.5 90 17:23 16.01.2020
686 Haze 15 1015 33 5000 2.6 100 16:57 16.01.2020
687 Haze 15 1015 33 5000 2.6 100 16:39 16.01.2020
688 Haze 15 1015 33 5000 2.6 100 16:21 16.01.2020
689 Haze 16 1015 31 5000 2.1 90 15:55 16.01.2020
690 Haze 16 1015 31 5000 2.1 90 15:37 16.01.2020
691 Haze 16 1015 31 5000 2.1 90 15:18 16.01.2020
692 Haze 16 1015 29 5000 2.6 100 14:41 16.01.2020
693 Haze 16 1015 29 5000 2.6 100 14:23 16.01.2020
694 Clouds 16 1015 29 6000 5.7 100 13:46 16.01.2020
695 Clouds 16 1015 29 6000 5.7 100 13:28 16.01.2020
696 Clouds 15 1016 28 6000 5.1 100 12:57 16.01.2020
697 Clouds 15 1016 28 6000 5.1 100 12:39 16.01.2020
698 Clouds 15 1016 28 6000 5.1 100 12:20 16.01.2020
699 Clouds 14 1017 28 6000 4.1 100 11:42 16.01.2020
700 Clouds 14 1017 28 6000 4.1 100 11:23 16.01.2020
701 Clouds 14 1017 28 6000 4.1 100 10:55 16.01.2020
702 Clouds 12 1019 24 6000 4.1 90 10:37 16.01.2020
703 Clouds 12 1019 24 6000 4.1 90 10:19 16.01.2020
704 Clouds 12 1019 34 6000 4.1 100 09:43 16.01.2020
705 Clouds 12 1019 34 6000 4.1 100 09:24 16.01.2020
706 Clouds 10 1020 46 6000 2.1 330 08:58 16.01.2020
707 Clouds 10 1020 46 6000 2.1 330 08:40 16.01.2020
708 Rain 10 1020 46 6000 2.1 330 08:20 16.01.2020
709 Haze 7 1020 38 4000 1 60 07:43 16.01.2020
710 Haze 7 1020 38 4000 1 60 07:24 16.01.2020
711 Haze 6 1020 38 5000 1 70 06:55 16.01.2020
712 Haze 6 1020 38 5000 1 70 06:35 16.01.2020
713 Haze 6 1019 70 5000 2.1 70 05:51 16.01.2020
714 Haze 6 1019 70 5000 2.1 70 05:25 16.01.2020
715 Rain 7 1019 70 7000 1.5 10 04:21 16.01.2020
716 Clouds 7 1019 65 7000 2.1 70 03:27 16.01.2020
717 Clouds 8 1020 61 7000 2.1 50 02:23 16.01.2020
718 Clouds 8 1020 61 7000 4.93 108 00:44 16.01.2020
719 Clouds 8 1020 61 7000 4.93 108 00:23 16.01.2020
720 Clouds 8 1021 36 6000 5.7 80 23:46 15.01.2020
721 Clouds 9 1021 53 7000 1 90 23:22 15.01.2020
722 Clouds 10 1021 36 7000 2.1 110 22:57 15.01.2020
723 Clouds 10 1021 36 7000 2.1 110 22:39 15.01.2020
724 Clouds 10 1021 36 7000 2.1 110 22:19 15.01.2020
725 Clouds 10 1021 53 7000 1 90 21:57 15.01.2020
726 Clouds 10 1021 53 7000 1 90 21:37 15.01.2020
727 Clouds 10 1021 53 7000 1 90 21:19 15.01.2020
728 Clouds 10 1021 53 7000 1 320 20:56 15.01.2020
729 Clouds 10 1021 53 7000 1 320 20:38 15.01.2020
730 Clear 10 1021 53 7000 1 320 20:19 15.01.2020
731 Clear 10 1021 57 7000 1.5 30 19:54 15.01.2020
732 Clear 10 1021 57 7000 1.5 30 19:36 15.01.2020
733 Clear 10 1021 57 7000 1.5 30 19:18 15.01.2020
734 -273 0 0 0 0 0 19:18 15.01.2020
735 Clear 11 1021 57 7000 1.5 30 18:56 15.01.2020
736 Haze 12 1021 46 5000 4.83 105 18:37 15.01.2020
737 Haze 12 1021 46 5000 4.83 105 18:19 15.01.2020
738 Haze 12 1021 46 5000 4.83 105 18:19 15.01.2020
739 Haze 12 1021 46 5000 4.83 105 18:19 15.01.2020
740 Clear 12 1021 50 6000 6.2 80 17:55 15.01.2020
741 Haze 12 1021 58 5000 1.5 90 17:37 15.01.2020
742 Haze 12 1021 58 5000 1.5 90 17:18 15.01.2020
743 Haze 14 1020 58 4000 1 80 16:40 15.01.2020
744 Haze 14 1020 58 4000 1 80 16:22 15.01.2020
745 Clear 15 1020 50 6000 2.1 150 15:57 15.01.2020
746 Clear 15 1020 50 6000 2.1 150 15:39 15.01.2020
747 Clear 15 1020 50 6000 2.1 150 15:19 15.01.2020
748 Clear 16 1021 51 6000 2.1 30 14:43 15.01.2020
749 Clouds 16 1021 51 6000 2.1 30 14:20 15.01.2020
750 Clouds 16 1021 54 7000 2.6 60 13:46 15.01.2020
751 Clouds 16 1021 54 7000 2.6 60 13:27 15.01.2020
752 Clouds 14 1020 39 6000 2.1 130 12:59 15.01.2020
753 Haze 14 1021 58 5000 2.1 70 12:40 15.01.2020
754 Haze 14 1021 58 5000 2.1 70 12:20 15.01.2020
755 Clouds 13 1022 58 6000 4.6 100 11:58 15.01.2020
756 Clouds 13 1022 58 6000 4.6 100 11:37 15.01.2020
757 Clouds 13 1022 58 6000 4.6 100 11:19 15.01.2020
758 Haze 11 1023 61 5000 2.1 80 10:46 15.01.2020
759 Haze 11 1023 61 5000 2.1 80 10:28 15.01.2020
760 Clouds 9 1023 61 6000 2.1 70 09:54 15.01.2020
761 Clouds 9 1023 61 6000 2.1 70 09:36 15.01.2020
762 Clouds 9 1023 61 6000 2.1 70 09:18 15.01.2020
763 Clouds 8 1024 65 6000 1.5 80 08:41 15.01.2020
764 Clouds 8 1024 65 6000 1.5 80 08:23 15.01.2020
765 Clouds 6 1024 48 6000 2.6 80 07:53 15.01.2020
766 Clouds 6 1024 48 6000 2.6 80 07:32 15.01.2020
767 Haze 6 1024 65 5000 1.5 120 06:47 15.01.2020
768 Haze 6 1024 65 5000 1.5 120 06:23 15.01.2020
769 Clouds 7 1023 70 10000 2.6 110 04:45 15.01.2020
770 Haze 8 1023 70 5000 4.1 90 02:40 15.01.2020
771 Clouds 9 1024 61 10000 3.1 130 01:43 15.01.2020
772 Clouds 9 1024 61 10000 3.1 130 01:20 15.01.2020
773 Clouds 8 1024 61 10000 3.6 130 00:37 15.01.2020
774 Clouds 8 1024 61 10000 3.6 130 00:19 15.01.2020
775 Clouds 8 1024 70 10000 4.5 110 23:46 14.01.2020
776 Clouds 8 1024 70 10000 4.5 110 23:24 14.01.2020
777 Clouds 8 1025 70 10000 1.5 100 22:56 14.01.2020
778 Clouds 8 1025 70 10000 1.5 100 22:38 14.01.2020
779 Clouds 8 1025 70 10000 1.5 100 22:18 14.01.2020
780 Clouds 7 1025 70 8000 1.5 120 21:55 14.01.2020
781 Clouds 7 1025 70 8000 1.5 120 21:37 14.01.2020
782 Clouds 7 1025 70 8000 1.5 120 21:19 14.01.2020
783 Clouds 8 1025 87 10000 2.1 90 20:42 14.01.2020
784 Haze 9 1025 70 5000 1.5 90 20:22 14.01.2020
785 Haze 9 1025 70 5000 1.5 90 19:57 14.01.2020
786 Haze 9 1025 70 5000 1.5 90 19:38 14.01.2020
787 Haze 9 1025 70 5000 1.5 90 19:20 14.01.2020
788 Clouds 10 1025 70 6000 2.1 80 18:59 14.01.2020
789 Clouds 10 1024 61 0 4.32 110 18:40 14.01.2020
790 Clouds 10 1025 66 6000 2.1 80 18:20 14.01.2020
791 Clouds 10 1025 66 6000 2.1 80 17:55 14.01.2020
792 Clouds 10 1025 66 6000 2.1 80 17:36 14.01.2020
793 Clear 10 1025 66 6000 2.1 80 17:18 14.01.2020
794 Haze 12 1025 62 4000 2.6 130 16:42 14.01.2020
795 Haze 12 1025 62 4000 2.6 130 16:22 14.01.2020
796 Haze 13 1024 58 5000 2.6 130 15:56 14.01.2020
797 Haze 13 1024 58 5000 2.6 130 15:38 14.01.2020
798 Haze 13 1024 58 5000 2.6 130 15:19 14.01.2020
799 Clouds 14 1024 54 6000 2.6 130 14:43 14.01.2020
800 Clouds 14 1024 54 6000 2.6 130 14:20 14.01.2020
801 Clouds 14 1024 54 6000 3.1 130 13:55 14.01.2020
802 Clouds 14 1024 54 6000 3.1 130 13:37 14.01.2020
803 Clouds 14 1024 54 6000 3.1 130 13:18 14.01.2020
804 Clouds 13 1024 58 6000 2.6 100 12:41 14.01.2020
805 Clouds 13 1024 58 6000 2.6 100 12:20 14.01.2020
806 Clouds 13 1025 58 6000 3.6 120 11:55 14.01.2020
807 Clouds 13 1025 58 6000 3.6 120 11:36 14.01.2020
808 Clouds 13 1025 58 6000 3.6 120 11:18 14.01.2020
809 Clouds 12 1026 66 6000 3.6 120 10:40 14.01.2020
810 Clouds 12 1026 66 6000 3.6 120 10:20 14.01.2020
811 Haze 11 1026 66 5000 2.1 110 09:58 14.01.2020
812 Haze 11 1026 66 5000 2.1 110 09:40 14.01.2020
813 Haze 11 1026 66 5000 2.1 110 09:21 14.01.2020
814 Mist 9 1026 87 3000 2.1 110 08:48 14.01.2020
815 Mist 9 1026 87 3000 2.1 110 08:25 14.01.2020
816 Mist 7 1025 93 2000 2.1 120 07:56 14.01.2020
817 Mist 7 1025 93 2000 2.1 120 07:34 14.01.2020
818 Mist 7 1025 93 2000 2.1 120 07:34 14.01.2020
819 Mist 6 1025 100 1500 1.5 70 06:57 14.01.2020
820 Mist 6 1025 100 1500 1.5 70 06:39 14.01.2020
821 Mist 6 1025 100 1500 1.5 70 06:39 14.01.2020
822 Mist 7 1024 93 2000 1.5 50 05:28 14.01.2020
823 Mist 7 1024 93 4000 1.77 18 04:22 14.01.2020
824 Mist 7 1024 93 3000 1.5 230 03:35 14.01.2020
825 Mist 6 1024 93 4000 2.6 290 02:26 14.01.2020
826 Mist 7 1023 87 4000 1 250 01:18 14.01.2020
827 Mist 7 1023 87 4000 1.5 240 00:38 14.01.2020
828 Mist 7 1024 87 4000 1.5 230 23:59 13.01.2020
829 Mist 7 1024 87 4000 1.5 230 23:37 13.01.2020
830 Mist 7 1024 87 4000 1.5 230 23:18 13.01.2020
831 Fog 7 1024 100 200 2.54 321 22:54 13.01.2020
832 Mist 6 1024 93 4000 3.1 240 22:36 13.01.2020
833 Mist 6 1024 93 4000 3.1 240 22:18 13.01.2020
834 Fog 7 1024 100 700 2.1 320 21:54 13.01.2020
835 Mist 8 1024 93 4000 1.5 280 21:36 13.01.2020
836 Mist 8 1024 93 4000 1.5 280 21:18 13.01.2020
837 Mist 9 1024 87 4000 3.6 260 20:41 13.01.2020
838 Mist 9 1024 87 4000 3.6 260 20:22 13.01.2020
839 Mist 9 1023 87 4000 2.6 250 19:59 13.01.2020
840 Mist 9 1023 87 4000 2.6 250 19:40 13.01.2020
841 Mist 9 1023 87 4000 2.6 250 19:20 13.01.2020
842 Mist 9 1023 87 4000 2.6 250 19:20 13.01.2020
843 Clouds 9 1023 87 4000 3.1 250 18:58 13.01.2020
844 Clouds 9 1023 87 4000 3.1 250 18:38 13.01.2020
845 Clouds 9 1023 87 4000 3.1 250 18:19 13.01.2020
846 Clouds 9 1022 81 4000 4.1 240 17:57 13.01.2020
847 Clouds 9 1022 81 4000 4.1 240 17:38 13.01.2020
848 Clouds 9 1022 81 4000 4.1 240 17:20 13.01.2020
849 Clear 11 1021 76 0 6.29 295 16:41 13.01.2020
850 Clear 11 1021 76 0 6.29 295 16:22 13.01.2020
851 Clear 11 1021 76 0 6.29 295 15:58 13.01.2020
852 Clear 11 1021 76 0 6.29 295 15:40 13.01.2020
853 Clear 11 1021 76 0 6.29 295 15:20 13.01.2020
854 Clear 11 1021 76 0 6.29 295 14:43 13.01.2020
855 Clear 11 1021 76 0 6.29 295 14:24 13.01.2020
856 Clouds 13 1020 63 0 8.21 295 13:59 13.01.2020
857 Clouds 13 1020 63 0 8.21 295 13:40 13.01.2020
858 Clouds 13 1020 63 0 8.21 295 13:40 13.01.2020
859 Clouds 13 1020 63 0 8.21 295 13:22 13.01.2020
860 Clouds 13 1020 63 0 8.28 296 12:57 13.01.2020
861 Clouds 13 1020 63 0 8.28 296 12:39 13.01.2020
862 Drizzle 11 1023 81 1500 5.1 260 12:21 13.01.2020
863 Drizzle 11 1023 81 1500 5.1 260 11:40 13.01.2020
864 Drizzle 11 1023 81 1500 5.1 260 11:20 13.01.2020
865 Drizzle 11 1023 81 1500 5.1 260 11:20 13.01.2020
866 Drizzle 11 1023 81 1500 5.1 260 11:20 13.01.2020
867 Drizzle 11 1023 81 2000 4.6 250 10:58 13.01.2020
868 Drizzle 11 1023 81 2000 4.6 250 10:58 13.01.2020
869 Drizzle 11 1023 81 2000 4.6 250 10:39 13.01.2020
870 Drizzle 11 1023 81 2000 4.6 250 10:39 13.01.2020
871 Drizzle 11 1023 81 2000 4.6 250 10:21 13.01.2020
872 Mist 10 1023 93 4000 5.7 250 09:59 13.01.2020
873 Mist 10 1023 93 4000 5.7 250 09:40 13.01.2020
874 Mist 10 1023 93 4000 5.7 250 09:22 13.01.2020
875 Mist 9 1023 87 2000 6.7 250 08:41 13.01.2020
876 Mist 9 1023 87 2000 6.7 250 08:21 13.01.2020
877 Mist 7 1023 93 1500 4.1 240 07:54 13.01.2020
878 Mist 7 1023 93 1500 4.1 240 07:35 13.01.2020
879 Mist 7 1022 93 3000 3.6 240 06:44 13.01.2020
880 Mist 7 1022 93 3000 3.6 240 06:22 13.01.2020
881 Mist 7 1022 93 4000 3.6 230 05:36 13.01.2020
882 Mist 7 1022 93 4000 3.6 230 04:25 13.01.2020
883 Mist 7 1022 87 4000 2.6 240 03:26 13.01.2020
884 Mist 7 1022 87 4000 3.1 230 02:47 13.01.2020
885 Mist 7 1022 87 4000 3.1 230 02:29 13.01.2020
886 Mist 7 1022 87 4000 4.1 230 01:23 13.01.2020
887 Mist 7 1022 87 4000 3.6 240 00:42 13.01.2020
888 Mist 7 1022 87 4000 3.6 240 00:24 13.01.2020
889 Mist 7 1023 87 4000 4.1 240 23:56 12.01.2020
890 Mist 7 1023 87 4000 4.1 240 23:37 12.01.2020
891 Mist 7 1023 87 4000 4.1 240 23:19 12.01.2020
892 Rain 8 1024 100 3000 3.1 250 22:42 12.01.2020
893 Haze 7 1023 81 4000 3.1 260 22:24 12.01.2020
894 Haze 8 1023 81 4000 3.6 230 21:57 12.01.2020
895 Haze 8 1023 81 4000 3.6 230 21:39 12.01.2020
896 Haze 8 1023 81 4000 3.6 230 21:20 12.01.2020
897 Haze 8 1023 76 4000 3.6 240 20:57 12.01.2020
898 Haze 8 1023 76 4000 3.6 240 20:39 12.01.2020
899 Haze 8 1023 76 4000 3.6 240 20:20 12.01.2020
900 Haze 8 1023 76 4000 5.1 240 19:56 12.01.2020
901 Haze 8 1023 76 4000 5.1 240 19:38 12.01.2020
902 Haze 8 1023 76 4000 5.1 240 19:19 12.01.2020
903 Haze 9 1023 81 4000 5.1 260 18:58 12.01.2020
904 Haze 9 1023 81 4000 5.1 260 18:40 12.01.2020
905 Haze 9 1023 81 4000 5.1 260 18:40 12.01.2020
906 Haze 9 1023 81 4000 5.1 260 18:21 12.01.2020
907 Haze 9 1023 81 4000 3.1 240 17:58 12.01.2020
908 Haze 9 1023 81 4000 3.1 240 17:38 12.01.2020
909 Haze 9 1023 81 4000 3.1 240 17:19 12.01.2020
910 Haze 10 1023 76 4000 3.6 250 16:56 12.01.2020
911 Haze 10 1023 76 4000 3.6 250 16:37 12.01.2020
912 Haze 10 1023 76 4000 3.6 250 16:37 12.01.2020
913 Haze 10 1023 76 4000 3.6 250 16:19 12.01.2020
914 Haze 11 1023 81 5000 5.1 270 15:43 12.01.2020
915 Haze 11 1022 71 5000 4.1 240 15:24 12.01.2020
916 Haze 11 1023 62 5000 5.1 250 14:57 12.01.2020
917 Haze 11 1023 62 5000 5.1 250 14:38 12.01.2020
918 Haze 11 1023 62 5000 5.1 250 14:20 12.01.2020
919 Haze 11 1022 71 5000 4.1 260 13:54 12.01.2020
920 Haze 11 1022 71 5000 4.1 260 13:36 12.01.2020
921 Haze 11 1022 71 5000 4.1 260 13:18 12.01.2020
922 Haze 11 1023 66 5000 4.1 260 12:42 12.01.2020
923 Haze 11 1023 66 5000 4.1 260 12:20 12.01.2020
924 Haze 10 1024 71 5000 3.6 250 11:59 12.01.2020
925 Haze 10 1024 71 5000 3.6 250 11:39 12.01.2020
926 Haze 10 1024 71 5000 3.6 250 11:20 12.01.2020
927 Haze 9 1024 76 4000 20.6 230 10:42 12.01.2020
928 Haze 9 1024 76 4000 20.6 230 10:22 12.01.2020
929 Haze 7 1025 76 4000 1.5 230 09:59 12.01.2020
930 Haze 7 1025 76 4000 1.5 230 09:41 12.01.2020
931 Haze 7 1025 76 4000 1.5 230 09:20 12.01.2020
932 Mist 7 1025 93 3500 3.36 273 08:45 12.01.2020
933 Mist 7 1025 93 3500 2.68 283 08:21 12.01.2020
934 Mist 5 1025 100 1600 2.68 283 07:44 12.01.2020
935 Mist 5 1025 87 2000 1.5 250 07:25 12.01.2020
936 Fog 4 1025 100 800 2.1 330 06:50 12.01.2020
937 Mist 3 1025 93 2000 1.5 230 06:32 12.01.2020
938 Mist 4 1024 93 2000 2.1 240 05:49 12.01.2020
939 Mist 4 1024 93 4000 2.1 230 04:52 12.01.2020
940 Mist 4 1024 93 4000 2.6 240 03:33 12.01.2020
941 Mist 4 1024 93 4000 2.1 240 02:43 12.01.2020
942 Mist 4 1024 93 4000 2.1 240 02:22 12.01.2020
943 Haze 5 1025 87 5000 3.1 230 01:30 12.01.2020
944 Mist 4 1025 93 4000 3.1 240 00:45 12.01.2020
945 Mist 4 1025 93 4000 3.1 240 00:22 12.01.2020
946 Mist 4 1025 93 4000 2.1 240 23:56 11.01.2020
947 Mist 4 1025 93 4000 2.1 240 23:37 11.01.2020
948 Mist 4 1025 93 4000 2.1 240 23:18 11.01.2020
949 Mist 5 1025 93 4000 1 180 22:56 11.01.2020
950 Mist 5 1025 93 4000 1 180 22:37 11.01.2020
951 Mist 5 1025 93 4000 1 180 22:18 11.01.2020
952 Fog 6 1026 100 500 2.2 308 21:43 11.01.2020
953 Haze 6 1026 93 5000 2.1 240 21:19 11.01.2020
954 Mist 6 1026 100 1500 2.2 308 20:56 11.01.2020
955 Haze 6 1025 87 5000 2.6 250 20:37 11.01.2020
956 Haze 6 1025 87 5000 2.6 250 20:19 11.01.2020
957 Mist 7 1025 93 2000 5.57 306 19:55 11.01.2020
958 Haze 6 1025 87 5000 2.1 310 19:37 11.01.2020
959 Haze 6 1025 87 5000 2.1 310 19:19 11.01.2020
960 Mist 7 1024 87 4000 2.6 260 18:55 11.01.2020
961 Mist 7 1024 87 4000 2.6 260 18:36 11.01.2020
962 Mist 7 1024 87 4000 2.6 260 18:18 11.01.2020
963 Mist 7 1024 87 4000 2.6 260 18:18 11.01.2020
964 Mist 7 1024 87 4000 2.6 260 18:18 11.01.2020
965 Haze 7 1024 81 4000 3.6 280 17:56 11.01.2020
966 Haze 7 1024 81 4000 3.6 280 17:56 11.01.2020
967 Haze 7 1024 81 4000 3.6 280 17:37 11.01.2020
968 Haze 7 1024 81 4000 3.6 280 17:18 11.01.2020
969 Haze 9 1024 70 4000 3.6 310 16:43 11.01.2020
970 Haze 9 1024 70 4000 3.6 310 16:24 11.01.2020
971 Haze 11 1023 61 5000 5.7 320 15:56 11.01.2020
972 Haze 11 1023 61 5000 5.7 320 15:38 11.01.2020
973 Haze 11 1023 61 5000 5.7 320 15:19 11.01.2020
974 Clouds 11 1023 66 6000 4.1 300 14:46 11.01.2020
975 Haze 12 1022 62 5000 4.6 340 14:25 11.01.2020
976 Haze 11 1022 61 5000 5.1 340 13:57 11.01.2020
977 Haze 11 1022 61 5000 5.1 340 13:38 11.01.2020
978 Haze 11 1022 61 5000 5.1 340 13:19 11.01.2020
979 Clouds 11 1022 66 6000 5.1 330 12:55 11.01.2020
980 Clouds 11 1022 66 6000 5.1 330 12:36 11.01.2020
981 Clouds 11 1022 66 6000 5.1 330 12:18 11.01.2020
982 Clouds 10 1023 66 6000 5.7 330 11:42 11.01.2020
983 Clouds 10 1023 66 6000 5.7 330 11:23 11.01.2020
984 Haze 10 1023 66 5000 5.1 300 10:46 11.01.2020
985 Clouds 10 1024 70 6000 5.7 310 10:24 11.01.2020
986 Haze 9 1024 76 5000 5.1 320 09:43 11.01.2020
987 Haze 9 1024 76 5000 5.1 320 09:21 11.01.2020
988 Haze 9 1024 76 5000 5.1 320 09:21 11.01.2020
989 Haze 6 1024 75 5000 3.1 270 08:57 11.01.2020
990 Haze 6 1024 75 5000 3.1 270 08:38 11.01.2020
991 Haze 6 1024 75 5000 3.1 270 08:19 11.01.2020
992 Haze 5 1023 87 5000 1.5 260 07:42 11.01.2020
993 Haze 5 1023 87 5000 1.5 260 07:24 11.01.2020
994 Mist 4 1022 87 4000 1.5 260 06:43 11.01.2020
995 Mist 4 1022 93 4000 3.25 302 05:30 11.01.2020
996 Mist 4 1021 100 1500 3.1 260 04:42 11.01.2020
997 Mist 4 1021 87 4000 3.09 288 04:24 11.01.2020
998 Fog 5 1021 100 300 2.1 260 02:48 11.01.2020
999 Fog 4 1021 100 300 2.1 260 01:47 11.01.2020
1000 Fog 4 1020 100 300 2.1 260 01:28 11.01.2020
1001 Fog 4 1020 100 300 2.1 260 01:28 11.01.2020
1002 Mist 4 1020 93 3000 2.6 240 00:54 11.01.2020
1003 Mist 4 1020 93 3000 2.6 240 00:29 11.01.2020
1004 Mist 4 1020 93 4000 1 230 23:59 10.01.2020
1005 Mist 4 1020 93 4000 1 230 23:39 10.01.2020
1006 Mist 4 1020 93 4000 1 230 23:20 10.01.2020
1007 Mist 4 1020 93 4000 1 230 22:54 10.01.2020
1008 Mist 5 1020 87 5000 1 240 22:36 10.01.2020
1009 Mist 5 1020 87 5000 1 240 22:18 10.01.2020
1010 Haze 5 1020 87 4000 2.6 270 21:41 10.01.2020
1011 Haze 5 1020 87 4000 2.6 270 21:21 10.01.2020
1012 Rain 5 1019 93 4000 2.1 260 20:59 10.01.2020
1013 Rain 5 1019 93 4000 2.1 260 20:41 10.01.2020
1014 Rain 5 1019 93 4000 2.1 260 20:23 10.01.2020
1015 Mist 5 1019 93 5000 1.5 280 19:54 10.01.2020
1016 Mist 5 1019 93 5000 1.5 280 19:36 10.01.2020
1017 Mist 5 1019 93 5000 1.5 280 19:18 10.01.2020
1018 Mist 5 1018 87 5000 2.6 300 18:41 10.01.2020
1019 Mist 5 1018 87 5000 2.6 300 18:19 10.01.2020
1020 Mist 6 1017 93 5000 4.1 300 17:57 10.01.2020
1021 Mist 6 1017 93 5000 2.1 280 17:38 10.01.2020
1022 Mist 6 1017 93 5000 2.1 280 17:20 10.01.2020
1023 Mist 6 1017 93 5000 2.1 280 17:20 10.01.2020
1024 Haze 7 1017 87 5000 2.6 300 16:55 10.01.2020
1025 Haze 7 1017 87 5000 2.6 300 16:37 10.01.2020
1026 Haze 7 1017 87 5000 2.6 300 16:19 10.01.2020
1027 Mist 8 1016 81 5000 4.1 230 15:55 10.01.2020
1028 Mist 8 1016 81 5000 4.1 230 15:36 10.01.2020
1029 Mist 8 1016 81 5000 4.1 230 15:36 10.01.2020
1030 Mist 8 1016 81 5000 4.1 230 15:18 10.01.2020
1031 Mist 8 1015 93 5000 1.5 350 14:54 10.01.2020
1032 Mist 8 1015 93 5000 1.5 350 14:36 10.01.2020
1033 Mist 7 1015 93 5000 1.5 350 14:18 10.01.2020
1034 Haze 7 1015 87 4000 0.73 81 13:42 10.01.2020
1035 Haze 7 1015 87 4000 2.35 303 13:23 10.01.2020
1036 Drizzle 7 1014 93 4000 2.6 330 12:58 10.01.2020
1037 Drizzle 7 1014 93 4000 2.6 330 12:39 10.01.2020
1038 Drizzle 7 1014 93 4000 2.6 330 12:39 10.01.2020
1039 Drizzle 7 1014 93 4000 2.6 330 12:19 10.01.2020
1040 Drizzle 6 1015 93 4000 2.6 230 11:55 10.01.2020
1041 Drizzle 6 1015 93 4000 2.6 230 11:37 10.01.2020
1042 Drizzle 6 1015 93 4000 2.6 230 11:18 10.01.2020
1043 Drizzle 6 1015 93 4000 2.6 230 11:18 10.01.2020
1044 Drizzle 6 1015 87 4000 3.1 250 10:57 10.01.2020
1045 Drizzle 6 1015 87 4000 3.1 250 10:36 10.01.2020
1046 Drizzle 6 1015 87 4000 3.1 250 10:18 10.01.2020
1047 Mist 6 1015 87 9000 3.6 250 09:42 10.01.2020
1048 Mist 6 1015 87 9000 3.6 250 09:23 10.01.2020
1049 Mist 6 1013 93 5000 3.1 220 08:43 10.01.2020
1050 Mist 6 1013 93 5000 3.1 220 08:24 10.01.2020
1051 Drizzle 5 1014 100 4000 3.1 220 07:47 10.01.2020
1052 Drizzle 5 1014 100 4000 3.1 220 07:28 10.01.2020
1053 Drizzle 5 1013 87 4000 3.1 220 06:56 10.01.2020
1054 Drizzle 5 1013 87 4000 3.1 220 06:27 10.01.2020
1055 Drizzle 5 1013 87 4000 3.1 220 05:52 10.01.2020
1056 Mist 6 1011 93 4000 3.1 220 03:50 10.01.2020
1057 Mist 6 1011 93 4000 3.1 220 03:31 10.01.2020
1058 Mist 6 1012 87 4000 3.1 220 02:51 10.01.2020
1059 Drizzle 6 1012 87 3000 4.1 220 01:52 10.01.2020
1060 Drizzle 6 1012 87 3000 4.1 220 01:29 10.01.2020
1061 Rain 6 1013 93 3000 2.1 190 00:49 10.01.2020
1062 Rain 6 1013 93 3000 2.1 190 00:31 10.01.2020
1063 Rain 6 1013 93 3000 2.1 190 23:55 09.01.2020
1064 Rain 6 1013 93 3000 2.1 220 23:36 09.01.2020
1065 Rain 6 1013 93 3000 2.1 220 23:18 09.01.2020
1066 Rain 6 1013 93 3000 2.1 220 22:54 09.01.2020
1067 Rain 7 1013 81 5000 2.1 220 22:36 09.01.2020
1068 Rain 6 1013 81 5000 2.1 220 22:18 09.01.2020
1069 Mist 6 1013 93 5000 3.6 230 21:54 09.01.2020
1070 Mist 6 1013 93 5000 3.6 230 21:36 09.01.2020
1071 Mist 6 1013 93 5000 3.6 230 21:18 09.01.2020
1072 Drizzle 6 1013 87 5000 3.6 230 20:54 09.01.2020
1073 Drizzle 6 1013 87 5000 3.6 230 20:36 09.01.2020
1074 Drizzle 6 1013 87 5000 3.6 230 20:18 09.01.2020
1075 Mist 7 1013 87 5000 5.1 250 19:39 09.01.2020
1076 Mist 7 1013 87 5000 5.1 250 19:20 09.01.2020
1077 Rain 7 1014 87 4000 5.1 250 18:57 09.01.2020
1078 Rain 7 1014 87 4000 5.1 250 18:39 09.01.2020
1079 Rain 7 1014 87 4000 5.1 250 18:20 09.01.2020
1080 Drizzle 7 1013 87 4000 5.1 240 17:41 09.01.2020
1081 Drizzle 7 1013 87 4000 5.1 240 17:41 09.01.2020
1082 Drizzle 7 1013 87 4000 5.1 240 17:19 09.01.2020
1083 Drizzle 7 1013 87 3000 5.1 250 16:59 09.01.2020
1084 Drizzle 7 1013 87 3000 5.1 250 16:41 09.01.2020
1085 Drizzle 7 1013 87 3000 5.1 250 16:21 09.01.2020
1086 Drizzle 7 1013 93 4000 5.1 260 15:43 09.01.2020
1087 Drizzle 7 1013 93 4000 5.1 260 15:43 09.01.2020
1088 Drizzle 6 1013 93 5000 6.7 250 15:23 09.01.2020
1089 Drizzle 7 1013 87 3500 4.1 250 14:58 09.01.2020
1090 Drizzle 7 1013 87 3500 4.1 250 14:40 09.01.2020
1091 Drizzle 7 1013 87 3500 4.1 250 14:19 09.01.2020
1092 Rain 7 1013 81 3000 6.2 240 13:55 09.01.2020
1093 Rain 7 1013 81 3000 6.2 240 13:37 09.01.2020
1094 Rain 7 1013 81 3000 6.2 240 13:19 09.01.2020
1095 Clouds 7 1013 75 5000 5.1 240 12:56 09.01.2020
1096 Clouds 7 1013 75 5000 5.1 240 12:38 09.01.2020
1097 Clouds 7 1013 75 5000 5.1 240 12:18 09.01.2020
1098 Clouds 6 1013 87 5000 5.1 240 11:42 09.01.2020
1099 Clouds 6 1013 87 5000 5.1 240 11:24 09.01.2020
1100 Clouds 7 1013 87 5000 5.1 240 10:58 09.01.2020
1101 Clouds 7 1013 87 5000 5.1 240 10:40 09.01.2020
1102 Clouds 7 1013 87 5000 5.1 240 10:21 09.01.2020
1103 Mist 7 1015 93 4000 6.2 220 09:46 09.01.2020
1104 Mist 6 1015 93 4000 6.2 220 09:25 09.01.2020
1105 Clouds 7 1014 87 5000 5.1 250 08:59 09.01.2020
1106 Clouds 7 1014 87 5000 5.1 250 08:39 09.01.2020
1107 Clouds 7 1014 87 5000 5.1 250 08:21 09.01.2020
1108 Mist 5 1013 93 4000 5.1 230 07:53 09.01.2020
1109 Mist 5 1013 93 4000 5.1 230 07:33 09.01.2020
1110 Mist 6 1012 93 5000 6.2 250 06:52 09.01.2020
1111 Mist 6 1012 93 5000 6.2 250 06:32 09.01.2020
1112 Mist 6 1012 93 5000 6.2 250 05:52 09.01.2020
1113 Mist 6 1012 93 5000 6.2 250 05:26 09.01.2020
1114 Mist 6 1012 87 5000 8.2 240 04:40 09.01.2020
1115 Rain 6 1012 100 2000 8.2 240 03:28 09.01.2020
1116 Rain 6 1013 93 1500 6.2 250 02:47 09.01.2020
1117 Rain 7 1012 93 2000 6.2 250 01:42 09.01.2020
1118 Rain 7 1012 93 2000 6.2 250 01:18 09.01.2020
1119 Rain 7 1013 93 3000 5.1 230 00:39 09.01.2020
1120 Rain 7 1013 87 4000 5.1 240 00:19 09.01.2020
1121 Thunderstorm 6 1012 87 4000 14.4 240 23:41 08.01.2020
1122 Rain 6 1012 93 4000 5.1 340 23:23 08.01.2020
1123 Rain 6 1013 93 3000 5.1 220 22:56 08.01.2020
1124 Rain 6 1013 93 3000 5.1 220 22:38 08.01.2020
1125 Rain 6 1013 93 3000 5.1 220 22:19 08.01.2020
1126 Rain 7 1014 93 2000 5.1 200 21:55 08.01.2020
1127 Rain 7 1014 93 2000 5.1 200 21:37 08.01.2020
1128 Rain 7 1014 93 2000 5.1 200 21:18 08.01.2020
1129 Thunderstorm 7 1015 93 1500 4.6 270 20:55 08.01.2020
1130 Thunderstorm 7 1015 93 1500 4.6 270 20:37 08.01.2020
1131 Thunderstorm 7 1015 93 1500 4.6 270 20:37 08.01.2020
1132 Thunderstorm 7 1015 93 1500 4.6 270 20:18 08.01.2020
1133 Rain 8 1013 87 1500 8.7 250 19:39 08.01.2020
1134 Rain 8 1013 87 1500 8.7 250 19:20 08.01.2020
1135 Rain 8 1013 87 1500 9.3 240 18:59 08.01.2020
1136 Rain 8 1013 87 1500 9.3 240 18:58 08.01.2020
1137 Rain 8 1013 87 1500 9.3 240 18:40 08.01.2020
1138 Rain 8 1013 87 1500 9.3 240 18:19 08.01.2020
1139 Rain 8 1013 87 1500 9.3 240 18:19 08.01.2020
1140 Rain 8 1013 87 1500 9.3 240 18:19 08.01.2020
1141 Rain 8 1013 87 1500 7.7 250 17:59 08.01.2020
1142 Rain 8 1013 87 1500 7.7 250 17:40 08.01.2020
1143 Rain 8 1012 75 2000 9.3 250 17:22 08.01.2020
1144 Drizzle 8 1012 70 3500 6.7 240 16:57 08.01.2020
1145 Drizzle 8 1012 70 3500 6.7 240 16:38 08.01.2020
1146 Drizzle 8 1012 70 3500 6.7 240 16:19 08.01.2020
1147 Drizzle 9 1012 70 2500 9.3 240 15:55 08.01.2020
1148 Drizzle 9 1012 70 2500 9.3 240 15:37 08.01.2020
1149 Drizzle 9 1012 70 2500 9.3 240 15:18 08.01.2020
1150 Rain 9 1012 70 2000 7.2 240 14:40 08.01.2020
1151 Dust 9 1012 70 4000 8.7 240 14:21 08.01.2020
1152 Rain 9 1012 70 4000 7.7 240 13:42 08.01.2020
1153 Rain 9 1012 70 4000 7.7 240 13:24 08.01.2020
1154 Rain 9 1013 65 3000 10.3 230 12:59 08.01.2020
1155 Rain 9 1013 65 3000 10.3 230 12:40 08.01.2020
1156 Rain 9 1013 70 5000 5.7 240 12:18 08.01.2020
1157 Rain 8 1013 70 5000 6.2 240 11:48 08.01.2020
1158 Rain 8 1013 70 5000 6.2 240 11:20 08.01.2020
1159 Rain 7 1014 81 4000 7.7 240 10:59 08.01.2020
1160 Rain 7 1014 81 4000 7.7 240 10:41 08.01.2020
1161 Rain 7 1014 81 4000 7.7 240 10:22 08.01.2020
1162 Rain 7 1014 75 4000 5.7 240 09:58 08.01.2020
1163 Rain 7 1014 75 4000 5.7 240 09:38 08.01.2020
1164 Rain 7 1014 75 4000 5.7 240 09:18 08.01.2020
1165 Rain 6 1014 80 2000 8.2 240 08:42 08.01.2020
1166 Haze 6 1014 80 5000 7.2 240 08:23 08.01.2020
1167 Clouds 6 1013 75 7000 7.7 250 07:59 08.01.2020
1168 Clouds 6 1013 75 7000 7.7 250 07:59 08.01.2020
1169 Clouds 6 1013 75 7000 7.7 250 07:41 08.01.2020
1170 Clouds 6 1013 75 7000 7.7 250 07:20 08.01.2020
1171 Clouds 5 1013 75 7000 8.2 250 06:42 08.01.2020
1172 Clouds 5 1013 75 7000 7.2 250 05:57 08.01.2020
1173 Clouds 5 1013 75 7000 7.2 250 05:27 08.01.2020
1174 Clouds 5 1013 70 8000 5.1 240 04:39 08.01.2020
1175 Haze 5 1014 70 5000 5.7 240 03:31 08.01.2020
1176 Dust 5 1014 70 4000 8.7 250 02:36 08.01.2020
1177 Dust 5 1014 70 4000 8.7 250 02:18 08.01.2020
1178 Dust 5 1014 70 4000 8.7 250 01:39 08.01.2020
1179 Dust 6 1015 70 4000 7.7 240 00:53 08.01.2020
1180 Dust 6 1015 70 4000 7.7 240 00:26 08.01.2020
1181 Haze 6 1015 71 4000 6.2 240 23:46 07.01.2020
1182 Haze 6 1015 71 4000 6.2 240 23:22 07.01.2020
1183 Haze 7 1015 70 4000 1.5 220 22:58 07.01.2020
1184 Haze 7 1015 70 4000 1.5 220 22:39 07.01.2020
1185 Haze 7 1015 70 4000 1.5 220 22:19 07.01.2020
1186 Haze 8 1015 61 4000 3.1 230 21:54 07.01.2020
1187 Haze 8 1015 61 4000 3.1 230 21:36 07.01.2020
1188 Haze 8 1015 61 4000 3.1 230 21:36 07.01.2020
1189 Haze 8 1015 61 4000 3.1 230 21:18 07.01.2020
1190 Rain 8 1015 70 4000 3.6 230 20:42 07.01.2020
1191 Rain 8 1015 70 4000 3.6 230 20:23 07.01.2020
1192 Rain 8 1015 75 4000 2.1 230 19:59 07.01.2020
1193 Rain 8 1015 75 4000 2.1 230 19:38 07.01.2020
1194 Rain 8 1015 75 4000 2.1 230 19:19 07.01.2020
1195 Rain 9 1015 75 4000 5.1 260 18:58 07.01.2020
1196 Rain 9 1015 75 4000 5.1 260 18:39 07.01.2020
1197 Rain 9 1015 75 4000 5.1 260 18:18 07.01.2020
1198 Rain 9 1015 76 4000 4.6 240 17:58 07.01.2020
1199 Rain 9 1015 76 4000 4.6 240 17:38 07.01.2020
1200 Rain 9 1015 76 4000 4.6 240 17:20 07.01.2020
1201 Haze 11 1015 57 5000 5.1 250 16:56 07.01.2020
1202 Haze 11 1015 57 5000 5.1 250 16:37 07.01.2020
1203 Haze 11 1015 57 5000 5.1 250 16:18 07.01.2020
1204 Haze 12 1015 46 5000 4.1 220 15:55 07.01.2020
1205 Haze 12 1015 46 5000 4.1 220 15:36 07.01.2020
1206 Haze 12 1015 46 5000 4.1 220 15:18 07.01.2020
1207 Clouds 13 1014 47 6000 4.1 240 14:42 07.01.2020
1208 Clouds 13 1014 47 6000 4.1 240 14:23 07.01.2020
1209 Clouds 13 1014 54 7000 6.2 240 13:56 07.01.2020
1210 Clouds 13 1014 54 7000 6.2 240 13:56 07.01.2020
1211 Clouds 13 1014 54 7000 6.2 240 13:37 07.01.2020
1212 Clouds 13 1014 54 7000 6.2 240 13:18 07.01.2020
1213 Clouds 13 1015 46 7000 5.1 240 12:41 07.01.2020
1214 Clouds 13 1015 46 7000 5.1 240 12:19 07.01.2020
1215 Clouds 12 1016 57 7000 2.6 200 11:45 07.01.2020
1216 Clouds 12 1016 57 7000 2.6 200 11:23 07.01.2020
1217 Clouds 12 1017 53 7000 2.6 200 10:59 07.01.2020
1218 Clouds 12 1017 53 7000 2.6 200 10:41 07.01.2020
1219 Clouds 12 1017 53 7000 2.6 200 10:23 07.01.2020
1220 Clouds 11 1017 57 7000 2.6 200 09:56 07.01.2020
1221 Clouds 11 1017 57 7000 2.6 200 09:38 07.01.2020
1222 Clouds 11 1017 57 7000 2.6 200 09:20 07.01.2020
1223 Haze 8 1016 61 5000 2.1 160 08:42 07.01.2020
1224 Haze 8 1016 61 5000 2.1 160 08:23 07.01.2020
1225 Haze 4 1016 75 5000 1.24 208 07:54 07.01.2020
1226 Haze 4 1016 75 5000 1.24 208 07:28 07.01.2020
1227 Haze 4 1016 75 5000 1.24 208 07:28 07.01.2020
1228 Haze 3 1016 75 5000 1.5 200 06:53 07.01.2020
1229 Haze 3 1016 75 5000 1.5 200 06:34 07.01.2020
1230 Clear 4 1016 70 6000 1.24 208 05:54 07.01.2020
1231 Clear 3 1016 70 6000 1.5 270 04:39 07.01.2020
1232 Clear 4 1016 75 6000 1.45 257 03:27 07.01.2020
1233 Clear 3 1016 75 6000 1.5 280 02:22 07.01.2020
1234 Clouds 4 1017 75 6000 2.1 240 01:52 07.01.2020
1235 Clouds 4 1017 75 6000 2.1 240 01:30 07.01.2020
1236 Clear 4 1017 70 6000 2.1 250 00:37 07.01.2020
1237 Clear 4 1017 70 6000 2.1 250 00:37 07.01.2020
1238 Clear 4 1017 70 6000 2.1 250 00:18 07.01.2020
1239 Clear 5 1017 61 6000 1 190 23:55 06.01.2020
1240 Clear 5 1017 61 6000 1 190 23:36 06.01.2020
1241 Clear 5 1017 61 6000 1 190 23:18 06.01.2020
1242 Clear 5 1017 75 6000 2.6 250 22:42 06.01.2020
1243 Clear 5 1017 75 6000 2.6 250 22:22 06.01.2020
1244 Clear 6 1017 70 6000 2.1 230 21:56 06.01.2020
1245 Clear 6 1017 70 6000 2.1 230 21:38 06.01.2020
1246 Clear 6 1017 70 6000 2.1 230 21:20 06.01.2020
1247 Clear 6 1017 70 6000 2.1 230 21:20 06.01.2020
1248 Clear 6 1017 70 6000 2.6 230 20:56 06.01.2020
1249 Clear 6 1017 70 6000 2.6 230 20:37 06.01.2020
1250 Clear 6 1017 70 6000 2.6 230 20:19 06.01.2020
1251 Haze 7 1017 66 5000 2.1 230 19:56 06.01.2020
1252 Haze 7 1017 66 5000 2.1 230 19:56 06.01.2020
1253 Haze 7 1017 66 5000 2.1 230 19:37 06.01.2020
1254 Haze 7 1017 66 5000 2.1 230 19:19 06.01.2020
1255 Haze 7 1017 66 5000 2.1 230 19:19 06.01.2020
1256 Haze 7 1017 66 5000 1.5 200 18:46 06.01.2020
1257 Haze 7 1017 66 5000 1.5 200 18:21 06.01.2020
1258 Haze 11 1017 61 5000 0.63 345 17:57 06.01.2020
1259 Haze 11 1017 61 5000 0.63 345 17:37 06.01.2020
1260 Haze 11 1017 61 5000 2.61 264 17:18 06.01.2020
1261 Clear 11 1017 46 6000 1.5 230 16:44 06.01.2020
1262 Clear 11 1017 46 6000 1.5 230 16:25 06.01.2020
1263 Clear 12 1017 43 6000 1 210 15:59 06.01.2020
1264 Clear 12 1017 43 6000 1 210 15:38 06.01.2020
1265 Clear 12 1017 43 6000 1 210 15:18 06.01.2020
1266 Clear 14 1017 47 6000 2.1 180 14:56 06.01.2020
1267 Clear 14 1017 47 6000 2.1 180 14:37 06.01.2020
1268 Clear 14 1017 47 6000 2.1 180 14:18 06.01.2020
1269 Clouds 13 1017 28 6000 2.1 200 13:41 06.01.2020
1270 Clouds 13 1017 28 6000 2.1 200 13:22 06.01.2020
1271 Clouds 13 1017 54 7000 2.1 160 12:59 06.01.2020
1272 Clouds 13 1017 54 7000 2.1 160 12:41 06.01.2020
1273 Clouds 13 1017 54 7000 2.1 160 12:20 06.01.2020
1274 Clear 12 1017 50 7000 4.1 160 11:57 06.01.2020
1275 Clear 12 1017 50 7000 4.1 160 11:38 06.01.2020
1276 Clear 12 1017 50 7000 4.1 160 11:38 06.01.2020
1277 Clear 12 1017 50 7000 4.1 160 11:20 06.01.2020
1278 Clear 12 1017 50 7000 4.1 160 11:20 06.01.2020
1279 Clouds 11 1019 53 7000 4.1 160 10:43 06.01.2020
1280 Clouds 11 1019 53 7000 4.1 160 10:43 06.01.2020
1281 Clouds 11 1019 53 7000 4.1 160 10:25 06.01.2020
1282 Clear 9 1019 41 6000 5.47 139 09:57 06.01.2020
1283 Clear 9 1019 41 6000 5.47 139 09:37 06.01.2020
1284 Clear 9 1019 41 6000 5.47 139 09:19 06.01.2020
1285 Clear 6 1019 60 7000 5.47 139 08:42 06.01.2020
1286 Clear 6 1019 60 7000 5.56 140 08:23 06.01.2020
1287 Clear 3 1019 57 6000 3.52 117 07:48 06.01.2020
1288 Clear 3 1019 57 6000 3.52 117 07:23 06.01.2020
1289 Clear 2 1018 57 6000 3.52 117 06:45 06.01.2020
1290 Clear 2 1018 57 6000 3.52 117 06:18 06.01.2020
1291 Clear 2 1017 57 6000 3.52 117 05:40 06.01.2020
1292 Clear 2 1017 80 7000 1.88 154 04:30 06.01.2020
1293 Clear 3 1017 71 7000 2.1 240 03:59 06.01.2020
1294 Clear 4 1017 80 10000 1.5 260 02:46 06.01.2020
1295 Clear 4 1017 80 10000 1.5 260 02:23 06.01.2020
1296 Clear 4 1017 75 10000 1.5 260 01:43 06.01.2020
1297 Clear 4 1017 75 10000 1.5 260 01:21 06.01.2020
1298 Clear 5 1017 75 10000 1 210 00:41 06.01.2020
1299 Clear 5 1017 75 10000 1 210 00:20 06.01.2020
1300 Clear 5 1017 70 10000 1.5 230 23:41 05.01.2020
1301 Clear 5 1017 70 10000 1.5 230 23:22 05.01.2020
1302 Clear 5 1018 75 10000 3.1 260 22:56 05.01.2020
1303 Clear 5 1018 75 10000 3.1 260 22:37 05.01.2020
1304 Clear 5 1018 75 10000 3.1 260 22:19 05.01.2020
1305 Clear 5 1018 75 10000 3.1 260 22:19 05.01.2020
1306 Clear 6 1018 70 10000 2.1 200 21:54 05.01.2020
1307 Clear 6 1018 70 10000 2.1 200 21:36 05.01.2020
1308 Clear 6 1018 70 10000 2.1 200 21:18 05.01.2020
1309 Clear 6 1017 70 10000 3.1 240 20:55 05.01.2020
1310 Clear 6 1017 70 10000 3.1 240 20:36 05.01.2020
1311 Clouds 6 1017 70 10000 3.1 240 20:18 05.01.2020
1312 Haze 7 1017 65 5000 3.1 240 19:55 05.01.2020
1313 Haze 7 1017 65 5000 3.1 240 19:37 05.01.2020
1314 Haze 7 1017 65 5000 3.1 240 19:18 05.01.2020
1315 Haze 8 1017 70 5000 2.1 220 18:54 05.01.2020
1316 Haze 8 1017 70 5000 2.1 220 18:36 05.01.2020
1317 Haze 8 1017 70 5000 2.1 220 18:18 05.01.2020
1318 Haze 8 1017 70 5000 2.1 220 18:18 05.01.2020
1319 Haze 8 1017 65 5000 4.1 240 17:55 05.01.2020
1320 Haze 8 1017 65 5000 4.1 240 17:37 05.01.2020
1321 Haze 9 1017 65 5000 4.1 240 17:18 05.01.2020
1322 Haze 9 1016 66 5000 5.1 230 16:54 05.01.2020
1323 Haze 9 1016 66 5000 5.1 230 16:36 05.01.2020
1324 Haze 9 1016 66 5000 5.1 230 16:18 05.01.2020
1325 Haze 10 1016 70 5000 6.7 240 15:36 05.01.2020
1326 Haze 10 1016 70 5000 6.7 240 15:18 05.01.2020
1327 Haze 9 1015 70 5000 7.7 240 14:54 05.01.2020
1328 Haze 9 1015 70 5000 7.7 240 14:36 05.01.2020
1329 Haze 9 1015 70 5000 7.7 240 14:18 05.01.2020
1330 Haze 9 1015 66 5000 2.6 250 13:39 05.01.2020
1331 Haze 9 1015 66 5000 2.6 250 13:21 05.01.2020
1332 Clouds 9 1015 66 7000 6.7 240 12:57 05.01.2020
1333 Clouds 9 1015 66 7000 6.7 240 12:57 05.01.2020
1334 Clouds 9 1015 66 7000 6.7 240 12:57 05.01.2020
1335 Clouds 9 1015 66 7000 6.7 240 12:39 05.01.2020
1336 Clouds 9 1015 66 7000 6.7 240 12:39 05.01.2020
1337 Clouds 9 1015 66 7000 6.7 240 12:39 05.01.2020
1338 Clouds 9 1015 66 7000 6.7 240 12:21 05.01.2020
1339 Clouds 9 1015 66 7000 6.7 240 12:21 05.01.2020
1340 Clouds 8 1015 75 6000 7.7 250 11:55 05.01.2020
1341 Clouds 8 1015 75 6000 7.7 250 11:37 05.01.2020
1342 Clouds 8 1015 75 6000 7.7 250 11:19 05.01.2020
1343 Clouds 8 1017 75 6000 7.7 240 10:55 05.01.2020
1344 Clouds 8 1017 75 6000 7.7 240 10:36 05.01.2020
1345 Clouds 8 1017 75 6000 7.7 240 10:36 05.01.2020
1346 Clouds 8 1017 75 6000 7.7 240 10:18 05.01.2020
1347 Rain 7 1017 81 4000 6.7 230 09:41 05.01.2020
1348 Rain 7 1017 81 4000 6.7 230 09:21 05.01.2020
1349 Rain 7 1016 87 4000 6.2 240 08:46 05.01.2020
1350 Rain 7 1016 87 4000 6.2 240 08:27 05.01.2020
1351 Rain 6 1016 81 4000 6.2 240 07:55 05.01.2020
1352 Rain 6 1016 81 4000 6.2 240 07:35 05.01.2020
1353 Rain 6 1016 93 3000 6.2 240 06:58 05.01.2020
1354 Rain 7 1015 93 3000 5.1 250 05:58 05.01.2020
1355 Rain 7 1015 93 3000 5.1 250 05:30 05.01.2020
1356 Rain 7 1015 93 3000 4.6 250 04:43 05.01.2020
1357 Rain 7 1015 87 4000 7.7 240 03:47 05.01.2020
1358 Rain 7 1015 87 4000 7.7 240 02:46 05.01.2020
1359 Rain 7 1015 87 4000 7.7 240 02:22 05.01.2020
1360 Mist 7 1015 93 5000 7.7 240 01:46 05.01.2020
1361 Mist 7 1015 93 5000 7.7 240 01:18 05.01.2020
1362 Rain 7 1015 93 3000 6.2 230 00:41 05.01.2020
1363 Rain 7 1015 93 3000 6.2 230 00:23 05.01.2020
1364 Drizzle 7 1016 87 5000 7.2 250 23:59 04.01.2020
1365 Drizzle 7 1016 87 5000 7.2 250 23:39 04.01.2020
1366 Rain 7 1015 93 3000 5.1 240 23:19 04.01.2020
1367 Rain 7 1015 93 4000 5.1 250 22:40 04.01.2020
1368 Rain 7 1015 93 4000 5.1 250 22:40 04.01.2020
1369 Rain 7 1015 93 4000 5.1 250 22:21 04.01.2020
1370 Rain 7 1015 93 3000 4.6 240 21:57 04.01.2020
1371 Rain 7 1015 93 3000 4.6 240 21:57 04.01.2020
1372 Rain 7 1015 93 3000 4.6 240 21:39 04.01.2020
1373 Rain 7 1015 93 3000 4.6 240 21:20 04.01.2020
1374 Rain 7 1015 93 2000 4.6 260 20:59 04.01.2020
1375 Rain 7 1015 93 2000 4.6 260 20:40 04.01.2020
1376 Rain 7 1015 93 2000 4.6 260 20:21 04.01.2020
1377 Mist 7 1014 87 5000 5.1 260 19:57 04.01.2020
1378 Mist 7 1014 87 5000 5.1 260 19:57 04.01.2020
1379 Mist 7 1014 87 5000 5.1 260 19:38 04.01.2020
1380 Mist 7 1014 87 5000 5.1 260 19:20 04.01.2020
1381 Clouds 7 1015 93 5000 5.7 250 18:55 04.01.2020
1382 Clouds 7 1015 93 5000 5.7 250 18:36 04.01.2020
1383 Clouds 7 1015 93 5000 5.7 250 18:18 04.01.2020
1384 Mist 8 1015 93 5000 4.1 240 17:41 04.01.2020
1385 Mist 8 1015 93 5000 4.1 240 17:41 04.01.2020
1386 Mist 8 1015 93 5000 4.1 240 17:23 04.01.2020
1387 Rain 7 1015 81 5000 4.6 260 16:58 04.01.2020
1388 Rain 8 1015 81 5000 4.6 260 16:39 04.01.2020
1389 Rain 8 1015 81 5000 4.6 260 16:21 04.01.2020
1390 Mist 8 1015 87 4000 5.1 260 15:55 04.01.2020
1391 Mist 8 1015 87 4000 5.1 260 15:37 04.01.2020
1392 Mist 8 1015 87 4000 5.1 260 15:18 04.01.2020
1393 Rain 8 1014 93 3000 5.7 250 14:42 04.01.2020
1394 Rain 8 1014 93 3000 5.7 250 14:42 04.01.2020
1395 Rain 8 1014 93 3000 5.7 250 14:20 04.01.2020
1396 Rain 8 1014 87 3000 6.7 250 13:59 04.01.2020
1397 Rain 8 1014 87 3000 6.7 250 13:38 04.01.2020
1398 Rain 8 1014 87 3000 6.7 250 13:19 04.01.2020
1399 Rain 8 1014 87 3000 9.3 240 12:57 04.01.2020
1400 Rain 8 1014 87 3000 9.3 240 12:39 04.01.2020
1401 Rain 8 1014 87 3000 9.3 240 12:19 04.01.2020
1402 Rain 6 1015 86 3000 9.3 230 11:57 04.01.2020
1403 Rain 6 1015 86 3000 9.3 230 11:38 04.01.2020
1404 Rain 6 1015 86 3000 9.3 230 11:38 04.01.2020
1405 Rain 6 1015 86 3000 9.3 230 11:18 04.01.2020
1406 Drizzle 7 1015 81 4000 9.3 240 10:41 04.01.2020
1407 Drizzle 7 1015 81 4000 9.3 240 10:22 04.01.2020
1408 Haze 7 1016 75 4000 6.7 250 09:50 04.01.2020
1409 Haze 7 1016 75 4000 6.7 250 09:26 04.01.2020
1410 Rain 5 1016 86 3000 6.2 230 08:57 04.01.2020
1411 Rain 5 1016 86 3000 6.2 230 08:37 04.01.2020
1412 Rain 5 1016 86 3000 6.2 230 08:19 04.01.2020
1413 Clouds 5 1016 80 3000 7.2 230 07:42 04.01.2020
1414 Rain 4 1016 75 3000 9.3 230 06:49 04.01.2020
1415 Haze 4 1015 65 5000 2.6 250 05:59 04.01.2020
1416 Haze 4 1015 65 5000 2.6 250 05:18 04.01.2020
1417 Haze 4 1015 65 5000 3.1 250 04:33 04.01.2020
1418 Haze 5 1015 60 5000 7.2 240 03:43 04.01.2020
1419 Haze 5 1015 60 5000 7.2 240 03:18 04.01.2020
1420 Haze 5 1015 70 5000 5.7 230 02:21 04.01.2020
1421 Haze 5 1015 70 5000 5.7 230 02:21 04.01.2020
1422 Haze 5 1016 60 5000 2.6 200 01:53 04.01.2020
1423 Haze 5 1016 60 5000 2.6 200 01:30 04.01.2020
1424 Haze 5 1016 70 5000 3.1 220 00:43 04.01.2020
1425 Haze 5 1016 70 5000 3.1 220 00:23 04.01.2020
1426 Haze 6 1017 70 5000 3.6 240 23:44 03.01.2020
1427 Haze 6 1017 70 5000 3.6 240 23:25 03.01.2020
1428 Haze 6 1017 65 5000 1.5 200 22:41 03.01.2020
1429 Haze 6 1017 65 5000 1.5 200 22:41 03.01.2020
1430 Haze 6 1017 65 5000 1.5 200 22:20 03.01.2020
1431 Haze 6 1018 65 5000 3.25 271 21:59 03.01.2020
1432 Haze 6 1018 65 5000 3.25 271 21:39 03.01.2020
1433 Haze 6 1018 65 5000 3.25 271 21:19 03.01.2020
1434 Haze 6 1018 65 5000 3.25 271 21:19 03.01.2020
1435 Haze 6 1018 65 5000 3.25 271 20:59 03.01.2020
1436 Haze 6 1018 65 5000 3.25 271 20:41 03.01.2020
1437 Haze 6 1018 65 5000 3.25 271 20:41 03.01.2020
1438 Haze 6 1018 65 5000 2.6 272 20:19 03.01.2020
1439 Clear 6 1018 65 6000 1 210 19:57 03.01.2020
1440 Clear 6 1018 65 6000 1 210 19:39 03.01.2020
1441 Clear 6 1018 65 6000 1 210 19:21 03.01.2020
1442 Clouds 6 1018 75 6000 3.6 230 18:44 03.01.2020
1443 Clouds 6 1018 75 6000 3.6 230 18:44 03.01.2020
1444 Clouds 6 1018 75 6000 3.6 230 18:26 03.01.2020
1445 Clouds 9 1018 61 6000 2.1 240 17:56 03.01.2020
1446 Clouds 9 1018 61 6000 2.1 240 17:38 03.01.2020
1447 Clouds 9 1018 61 6000 2.1 240 17:19 03.01.2020
1448 Clouds 9 1017 57 6000 3.6 250 16:43 03.01.2020
1449 Clouds 9 1017 57 6000 3.6 250 16:24 03.01.2020
1450 Clouds 10 1017 53 6000 5.1 250 15:58 03.01.2020
1451 Clouds 10 1017 53 6000 5.1 250 15:40 03.01.2020
1452 Clouds 10 1017 53 6000 5.1 250 15:18 03.01.2020
1453 Clouds 11 1017 50 6000 4.6 250 14:39 03.01.2020
1454 Clouds 11 1017 50 6000 4.6 250 14:20 03.01.2020
1455 Clouds 11 1018 53 6000 6.2 250 13:56 03.01.2020
1456 Clouds 11 1018 53 6000 6.2 250 13:37 03.01.2020
1457 Clouds 11 1018 53 6000 6.2 250 13:19 03.01.2020
1458 Clouds 11 1018 53 6000 8.2 230 12:40 03.01.2020
1459 Clouds 11 1018 43 6000 6.7 260 12:21 03.01.2020
1460 Clouds 10 1018 53 6000 6.7 250 11:49 03.01.2020
1461 Clouds 10 1018 53 6000 6.7 250 11:30 03.01.2020
1462 Clouds 10 1019 61 6000 3.6 240 10:48 03.01.2020
1463 Clouds 10 1019 61 6000 3.6 240 10:28 03.01.2020
1464 Haze 9 1019 61 5000 3.1 240 09:59 03.01.2020
1465 Haze 9 1019 61 5000 3.1 240 09:41 03.01.2020
1466 Haze 9 1019 61 5000 3.1 240 09:23 03.01.2020
1467 Haze 8 1019 75 5000 2.6 240 08:57 03.01.2020
1468 Haze 8 1019 75 5000 2.6 240 08:39 03.01.2020
1469 Haze 8 1019 75 5000 2.6 240 08:21 03.01.2020
1470 Haze 6 1019 81 4000 1 360 07:42 03.01.2020
1471 Haze 6 1019 81 4000 1 360 07:19 03.01.2020
1472 Haze 7 1018 87 4000 1 360 06:57 03.01.2020
1473 Haze 7 1018 87 4000 1 360 06:39 03.01.2020
1474 Clouds 8 1019 75 0 3.88 269 06:20 03.01.2020
1475 Clouds 8 1018 83 0 4.59 268 04:43 03.01.2020
1476 Haze 6 1018 93 4000 1.5 250 03:37 03.01.2020
1477 Haze 6 1018 93 4000 1 120 02:50 03.01.2020
1478 Haze 6 1018 93 4000 1 120 01:48 03.01.2020
1479 Haze 7 1018 87 4000 1 360 00:57 03.01.2020
1480 Haze 7 1018 87 4000 1 360 00:33 03.01.2020
1481 Haze 7 1018 87 4000 1.5 20 23:59 02.01.2020
1482 Haze 7 1018 87 4000 1.5 20 23:39 02.01.2020
1483 Haze 7 1018 87 4000 1.5 20 23:20 02.01.2020
1484 Haze 7 1018 87 4000 1.5 20 22:58 02.01.2020
1485 Haze 7 1018 87 4000 1.5 20 22:40 02.01.2020
1486 Haze 7 1018 87 4000 1.5 20 22:19 02.01.2020
1487 Haze 7 1018 87 4000 1 140 21:55 02.01.2020
1488 Haze 7 1018 87 4000 1 140 21:37 02.01.2020
1489 Haze 7 1018 87 4000 1 140 21:18 02.01.2020
1490 Drizzle 7 1018 87 4000 1 140 20:56 02.01.2020
1491 Drizzle 7 1018 87 4000 1 140 20:36 02.01.2020
1492 Drizzle 7 1018 87 4000 1 140 20:18 02.01.2020
1493 Dust 8 1017 87 4000 1.5 30 19:54 02.01.2020
1494 Dust 8 1017 87 4000 1.5 30 19:36 02.01.2020
1495 Dust 8 1017 87 4000 1.5 30 19:18 02.01.2020
1496 Haze 8 1017 87 4000 1.5 90 18:42 02.01.2020
1497 Haze 8 1017 87 4000 1.5 90 18:23 02.01.2020
1498 Haze 8 1017 81 4000 2.95 308 17:58 02.01.2020
1499 Haze 8 1017 81 4000 2.95 308 17:58 02.01.2020
1500 Haze 8 1017 81 4000 2.95 308 17:39 02.01.2020
1501 Haze 8 1017 81 4000 4.37 293 17:20 02.01.2020
1502 Haze 10 1017 76 4000 2.1 350 16:58 02.01.2020
1503 Haze 10 1017 76 4000 2.1 350 16:58 02.01.2020
1504 Haze 10 1017 76 4000 2.1 350 16:40 02.01.2020
1505 Haze 10 1017 76 4000 2.1 350 16:20 02.01.2020
1506 Haze 12 1016 66 5000 3.6 270 15:58 02.01.2020
1507 Haze 12 1016 66 5000 3.6 270 15:40 02.01.2020
1508 Haze 12 1016 66 5000 3.6 270 15:21 02.01.2020
1509 Haze 12 1016 62 5000 4.6 270 14:57 02.01.2020
1510 Haze 12 1016 62 5000 4.6 270 14:36 02.01.2020
1511 Haze 12 1016 62 5000 4.6 270 14:18 02.01.2020
1512 Haze 13 1015 58 5000 6.2 250 13:50 02.01.2020
1513 Haze 13 1015 58 5000 6.2 250 13:31 02.01.2020
1514 Clouds 12 1015 58 6000 5.1 280 12:46 02.01.2020
1515 Clouds 13 1016 46 6000 4.6 240 12:28 02.01.2020
1516 Clouds 13 1016 46 6000 4.6 240 11:59 02.01.2020
1517 Clouds 13 1016 46 6000 4.6 240 11:41 02.01.2020
1518 Clouds 13 1016 46 6000 4.6 240 11:20 02.01.2020
1519 Clear 12 1016 50 7000 1.5 240 10:45 02.01.2020
1520 Clear 12 1016 50 7000 1.5 240 10:26 02.01.2020
1521 Haze 11 1016 57 5000 1.91 156 09:55 02.01.2020
1522 Haze 11 1016 57 5000 1.91 156 09:34 02.01.2020
1523 Haze 7 1016 81 3000 1.91 156 08:50 02.01.2020
1524 Haze 7 1016 81 3000 1.91 156 08:28 02.01.2020
1525 Haze 5 1016 81 3000 3.02 96 07:57 02.01.2020
1526 Haze 5 1016 81 3000 3.02 96 07:31 02.01.2020
1527 Mist 4 1015 93 3000 3.02 96 06:57 02.01.2020
1528 Mist 4 1015 93 3000 3.02 96 06:57 02.01.2020
1529 Mist 4 1015 93 3000 3.02 96 06:39 02.01.2020
1530 Mist 5 1015 93 4000 3.02 96 05:37 02.01.2020
1531 Mist 5 1015 93 5000 1 89 04:34 02.01.2020
1532 Haze 5 1015 87 5000 1 89 03:23 02.01.2020
1533 Haze 5 1015 87 5000 0.25 360 02:20 02.01.2020
1534 Haze 5 1015 87 5000 0.25 360 01:48 02.01.2020
1535 Haze 5 1015 87 5000 1.07 331 01:23 02.01.2020
1536 Haze 5 1016 81 5000 1.07 331 00:38 02.01.2020
1537 Haze 5 1016 81 5000 1.07 331 00:19 02.01.2020
1538 Haze 6 1016 81 5000 1.07 331 23:41 01.01.2020
1539 Haze 6 1016 81 5000 1.06 311 23:21 01.01.2020
1540 Haze 6 1016 87 5000 1.06 311 22:39 01.01.2020
1541 Haze 6 1016 87 5000 1.06 311 22:20 01.01.2020
1542 Haze 7 1017 75 5000 1.06 311 21:58 01.01.2020
1543 Haze 7 1017 75 5000 1.06 311 21:39 01.01.2020
1544 Haze 7 1017 75 5000 1.06 311 21:20 01.01.2020
1545 Haze 7 1017 75 5000 1.06 311 20:56 01.01.2020
1546 Haze 7 1017 75 5000 1.06 311 20:38 01.01.2020
1547 Haze 7 1017 75 5000 1.06 311 20:38 01.01.2020
1548 Haze 7 1017 75 5000 2.66 332 20:19 01.01.2020
1549 Haze 8 1017 75 4000 2.66 332 19:56 01.01.2020
1550 Haze 8 1017 75 4000 2.66 332 19:37 01.01.2020
1551 Haze 8 1017 75 4000 2.66 332 19:19 01.01.2020
1552 Haze 9 1017 70 5000 2.66 332 18:56 01.01.2020
1553 Haze 9 1017 70 5000 2.66 332 18:37 01.01.2020
1554 Clouds 10 1017 66 6000 1.5 30 18:19 01.01.2020
1555 Haze 10 1017 61 5000 2.66 332 17:57 01.01.2020
1556 Haze 10 1017 61 5000 2.66 332 17:39 01.01.2020
1557 Haze 10 1017 61 5000 1.59 348 17:19 01.01.2020
1558 Haze 11 1017 50 5000 1.5 220 16:57 01.01.2020
1559 Haze 11 1017 50 5000 1.5 220 16:37 01.01.2020
1560 Haze 11 1017 50 5000 1.5 220 16:19 01.01.2020
1561 Haze 12 1016 46 5000 2.6 220 15:56 01.01.2020
1562 Haze 12 1016 46 5000 2.6 220 15:37 01.01.2020
1563 Haze 12 1016 46 5000 2.6 220 15:19 01.01.2020
1564 Haze 13 1016 43 4000 2.6 250 14:55 01.01.2020
1565 Haze 13 1016 43 4000 2.6 250 14:37 01.01.2020
1566 Haze 13 1016 43 4000 2.6 250 14:19 01.01.2020
1567 Haze 13 1016 58 4000 2.1 50 13:55 01.01.2020
1568 Haze 13 1016 58 4000 2.1 50 13:36 01.01.2020
1569 Haze 13 1016 58 4000 2.1 50 13:18 01.01.2020
1570 Haze 12 1016 50 5000 2.6 350 12:40 01.01.2020
1571 Haze 12 1016 50 5000 2.6 350 12:19 01.01.2020
1572 Haze 11 1017 54 5000 2.83 298 11:56 01.01.2020
1573 Haze 11 1017 54 5000 2.83 298 11:38 01.01.2020
1574 Haze 10 1017 54 5000 1.39 267 11:19 01.01.2020
1575 Haze 10 1018 57 4000 1.39 267 10:55 01.01.2020
1576 Haze 10 1018 57 4000 1.39 267 10:36 01.01.2020
1577 Haze 10 1018 57 4000 1.39 267 10:18 01.01.2020
1578 Haze 8 1018 76 3500 1.39 267 09:40 01.01.2020
1579 Haze 8 1018 76 3500 1.39 267 09:20 01.01.2020
1580 Haze 6 1019 81 2500 1.5 240 08:57 01.01.2020
1581 Haze 6 1019 81 2500 1.5 240 08:37 01.01.2020
1582 Haze 4 1019 81 2500 1.5 240 08:19 01.01.2020
1583 Smoke 4 1018 87 3000 1.5 240 07:57 01.01.2020
1584 Smoke 4 1018 87 3000 1.5 240 07:38 01.01.2020
1585 Mist 4 1018 87 4000 1.15 301 06:50 01.01.2020
1586 Mist 4 1018 87 4000 1.15 301 06:32 01.01.2020
1587 Mist 2 1018 86 4000 1.15 301 05:48 01.01.2020
1588 Mist 2 1018 93 4000 2.2 318 04:20 01.01.2020
1589 Mist 2 1019 86 4000 2.2 318 03:39 01.01.2020
1590 Mist 2 1019 86 4000 2.2 318 03:21 01.01.2020
1591 Mist 3 1019 86 4000 1 180 02:41 01.01.2020
1592 Mist 3 1019 86 4000 1 180 02:22 01.01.2020
1593 Mist 3 1019 86 4000 1 200 01:41 01.01.2020
1594 Mist 3 1019 86 4000 1 200 01:22 01.01.2020
1595 Mist 3 1019 86 4000 1 280 00:45 01.01.2020
1596 Mist 3 1019 86 4000 1 280 00:45 01.01.2020
1597 Mist 3 1019 86 4000 1 280 00:26 01.01.2020
1598 Mist 3 1020 93 5000 3.03 329 23:56 31.12.2019
1599 Mist 3 1020 93 5000 3.03 329 23:36 31.12.2019
1600 Mist 3 1020 93 5000 3.33 332 23:18 31.12.2019
1601 Haze 5 1020 81 5000 1 340 22:55 31.12.2019
1602 Haze 5 1020 81 5000 1 340 22:36 31.12.2019
1603 Haze 5 1020 81 5000 1 340 22:18 31.12.2019
1604 Haze 6 1021 75 5000 3.33 332 21:43 31.12.2019
1605 Haze 6 1021 75 5000 3.33 332 21:25 31.12.2019
1606 Haze 6 1021 75 5000 1.5 200 20:57 31.12.2019
1607 Haze 6 1021 75 5000 1.5 200 20:39 31.12.2019
1608 Haze 6 1021 75 5000 1.5 200 20:20 31.12.2019
1609 Haze 7 1021 70 5000 1 290 19:58 31.12.2019
1610 Haze 7 1021 70 5000 1 290 19:40 31.12.2019
1611 Haze 7 1021 70 5000 1 290 19:21 31.12.2019
1612 Haze 7 1021 70 5000 1 320 18:57 31.12.2019
1613 Haze 7 1021 70 5000 1 320 18:38 31.12.2019
1614 Haze 7 1021 70 5000 1 320 18:19 31.12.2019
1615 Haze 8 1021 57 5000 2.6 290 17:56 31.12.2019
1616 Haze 8 1021 57 5000 2.6 290 17:56 31.12.2019
1617 Haze 8 1021 57 5000 2.6 290 17:36 31.12.2019
1618 Haze 8 1021 57 5000 2.6 290 17:18 31.12.2019
1619 Haze 8 1021 57 5000 2.6 290 17:18 31.12.2019
1620 Haze 9 1021 53 5000 2.6 250 16:56 31.12.2019
1621 Haze 9 1021 53 5000 2.6 250 16:56 31.12.2019
1622 Haze 9 1021 53 5000 2.6 250 16:37 31.12.2019
1623 Haze 9 1021 53 5000 2.6 250 16:19 31.12.2019
1624 Clear 11 1020 51 6000 2.6 240 15:56 31.12.2019
1625 Clear 11 1020 51 6000 2.6 240 15:38 31.12.2019
1626 Clear 11 1020 51 6000 2.6 240 15:19 31.12.2019
1627 Clear 12 1020 34 6000 4.1 250 14:55 31.12.2019
1628 Clear 12 1020 34 6000 4.1 250 14:37 31.12.2019
1629 Clear 12 1020 34 6000 4.1 250 14:19 31.12.2019
1630 Clear 12 1020 40 7000 2.6 240 13:56 31.12.2019
1631 Clear 12 1020 40 7000 2.6 240 13:38 31.12.2019
1632 Clear 12 1020 40 7000 2.6 240 13:20 31.12.2019
1633 Clear 11 1020 43 7000 3.1 240 12:55 31.12.2019
1634 Clear 11 1020 43 7000 3.1 240 12:37 31.12.2019
1635 Clear 11 1020 43 7000 3.1 240 12:19 31.12.2019
1636 Clear 10 1021 37 7000 3.6 250 11:55 31.12.2019
1637 Clear 10 1021 37 7000 3.6 250 11:55 31.12.2019
1638 Clear 10 1021 37 7000 3.6 250 11:37 31.12.2019
1639 Clear 10 1021 37 7000 3.6 250 11:37 31.12.2019
1640 Clear 10 1021 45 7000 3.6 250 11:19 31.12.2019
1641 Clear 9 1022 53 7000 2.6 260 10:56 31.12.2019
1642 Clear 9 1022 53 7000 2.6 260 10:37 31.12.2019
1643 Clear 9 1022 53 7000 2.6 260 10:19 31.12.2019
1644 Haze 8 1023 66 5000 2.6 250 09:57 31.12.2019
1645 Haze 8 1023 66 5000 2.6 250 09:38 31.12.2019
1646 Haze 8 1023 66 5000 2.6 250 09:19 31.12.2019
1647 Haze 6 1022 65 5000 2.6 250 08:43 31.12.2019
1648 Haze 6 1022 65 5000 2.6 250 08:24 31.12.2019
1649 Haze 4 1022 75 5000 2.1 210 07:59 31.12.2019
1650 Haze 4 1022 75 5000 2.1 210 07:41 31.12.2019
1651 Haze 4 1022 75 5000 2.1 210 07:19 31.12.2019
1652 Haze 2 1021 80 4000 1.5 220 06:42 31.12.2019
1653 Mist 2 1021 86 5000 1.5 250 05:54 31.12.2019
1654 Mist 3 1020 86 5000 3.28 253 04:27 31.12.2019
1655 Clear 4 1020 81 6000 3.28 253 03:27 31.12.2019
1656 Clear 4 1020 81 7000 1.5 180 02:43 31.12.2019
1657 Clear 5 1020 87 7000 1.5 200 01:53 31.12.2019
1658 Clear 5 1020 87 7000 1.5 200 01:34 31.12.2019
1659 Clear 5 1020 81 7000 1 200 00:58 31.12.2019
1660 Clear 5 1020 81 7000 1 200 00:39 31.12.2019
1661 Clear 5 1020 81 7000 1 200 00:21 31.12.2019
1662 Clear 6 1020 81 7000 1.5 280 23:56 30.12.2019
1663 Clear 6 1020 81 7000 1.5 280 23:37 30.12.2019
1664 Clear 6 1020 81 7000 1.5 280 23:19 30.12.2019
1665 Clear 6 1020 81 6000 2.6 280 22:56 30.12.2019
1666 Clear 6 1020 81 6000 2.6 280 22:37 30.12.2019
1667 Clear 6 1020 81 6000 2.6 280 22:18 30.12.2019
1668 Clear 8 1020 75 6000 2.1 250 21:56 30.12.2019
1669 Clear 8 1020 75 6000 2.1 250 21:38 30.12.2019
1670 Clear 8 1020 75 6000 2.1 250 21:18 30.12.2019
1671 Clear 8 1020 81 7000 3.6 250 20:56 30.12.2019
1672 Clear 8 1020 81 7000 3.6 250 20:38 30.12.2019
1673 Clouds 8 1020 81 7000 3.6 250 20:19 30.12.2019
1674 Clouds 8 1019 76 7000 2.1 250 19:56 30.12.2019
1675 Clouds 8 1019 76 7000 2.1 250 19:37 30.12.2019
1676 Clouds 8 1019 76 7000 2.1 250 19:37 30.12.2019
1677 Clouds 8 1019 76 7000 2.1 250 19:19 30.12.2019
1678 Clouds 9 1019 71 7000 2.1 250 18:56 30.12.2019
1679 Clouds 9 1019 71 7000 2.1 250 18:37 30.12.2019
1680 Clouds 9 1019 71 7000 2.1 250 18:19 30.12.2019
1681 Haze 10 1018 66 5000 1.5 230 17:54 30.12.2019
1682 Haze 10 1018 66 5000 1.5 230 17:36 30.12.2019
1683 Haze 10 1018 66 5000 1.5 230 17:18 30.12.2019
1684 Haze 10 1017 62 5000 2.6 240 16:54 30.12.2019
1685 Haze 10 1017 62 5000 2.6 240 16:36 30.12.2019
1686 Haze 10 1017 62 5000 2.6 240 16:18 30.12.2019
1687 Clouds 13 1017 58 6000 3.6 240 15:54 30.12.2019
1688 Clouds 13 1017 58 6000 3.6 240 15:36 30.12.2019
1689 Clouds 13 1017 58 6000 3.6 240 15:18 30.12.2019
1690 Clouds 13 1017 54 6000 5.1 250 14:42 30.12.2019
1691 Clouds 13 1017 54 6000 5.1 250 14:19 30.12.2019
1692 Haze 13 1016 54 5000 5.1 240 13:55 30.12.2019
1693 Haze 13 1016 54 5000 5.1 240 13:37 30.12.2019
1694 Haze 13 1016 54 5000 5.1 240 13:18 30.12.2019
1695 Haze 14 1016 47 5000 4.1 230 12:42 30.12.2019
1696 Haze 14 1016 47 5000 4.1 230 12:20 30.12.2019
1697 Haze 13 1017 50 5000 3.1 220 11:59 30.12.2019
1698 Haze 13 1017 50 5000 3.1 220 11:40 30.12.2019
1699 Haze 13 1017 50 5000 3.1 220 11:19 30.12.2019
1700 Haze 12 1017 50 5000 3.6 240 10:44 30.12.2019
1701 Haze 12 1017 50 5000 3.6 240 10:22 30.12.2019
1702 Haze 9 1017 57 5000 2.1 230 09:58 30.12.2019
1703 Haze 9 1017 57 5000 2.1 230 09:40 30.12.2019
1704 Haze 9 1017 57 5000 2.1 230 09:20 30.12.2019
1705 Smoke 8 1017 61 5000 2.1 200 08:50 30.12.2019
1706 Smoke 8 1017 61 5000 2.1 200 08:23 30.12.2019
1707 Smoke 5 1017 70 5000 3.1 260 07:56 30.12.2019
1708 Smoke 5 1017 70 5000 3.1 260 07:37 30.12.2019
1709 Clouds 4 1017 70 7000 3.1 250 06:52 30.12.2019
1710 Clear 5 1016 65 10000 1.5 260 04:58 30.12.2019
1711 Haze 5 1016 87 4000 3.1 260 03:58 30.12.2019
1712 Haze 5 1016 87 4000 3.1 260 03:19 30.12.2019
1713 Haze 5 1016 75 4000 1 220 02:40 30.12.2019
1714 Haze 5 1016 75 4000 2.1 230 01:55 30.12.2019
1715 Haze 5 1016 75 4000 2.1 230 01:23 30.12.2019
1716 Haze 5 1016 87 4000 1 230 00:45 30.12.2019
1717 Haze 5 1016 87 4000 1 230 00:23 30.12.2019
1718 Haze 5 1017 81 4000 1 250 23:40 29.12.2019
1719 Haze 5 1017 81 4000 1 250 23:21 29.12.2019
1720 Haze 6 1017 70 4000 1.5 140 22:56 29.12.2019
1721 Haze 6 1017 70 4000 1.5 140 22:37 29.12.2019
1722 Haze 6 1017 70 4000 1.5 140 22:18 29.12.2019
1723 Haze 6 1017 81 4000 1 230 21:43 29.12.2019
1724 Haze 6 1017 81 4000 1 230 21:21 29.12.2019
1725 Haze 6 1017 81 4000 0.72 97 20:59 29.12.2019
1726 Haze 6 1017 81 4000 0.72 97 20:39 29.12.2019
1727 Haze 6 1017 81 4000 0.84 57 20:21 29.12.2019
1728 Haze 7 1016 81 4000 1 230 19:59 29.12.2019
1729 Haze 7 1016 81 4000 1 230 19:40 29.12.2019
1730 Haze 7 1016 81 4000 1 230 19:21 29.12.2019
1731 Haze 8 1016 70 5000 1 170 18:58 29.12.2019
1732 Haze 8 1016 70 5000 1 170 18:40 29.12.2019
1733 Haze 8 1016 70 5000 1 170 18:21 29.12.2019
1734 Haze 9 1016 61 5000 1 190 17:58 29.12.2019
1735 Haze 9 1016 61 5000 1 190 17:39 29.12.2019
1736 Haze 9 1016 61 5000 1 190 17:20 29.12.2019
1737 Haze 10 1016 61 5000 1.5 220 16:57 29.12.2019
1738 Haze 10 1016 61 5000 1.5 220 16:39 29.12.2019
1739 Haze 10 1016 61 5000 1.5 220 16:39 29.12.2019
1740 Haze 10 1016 61 5000 1.5 220 16:21 29.12.2019
1741 Clouds 13 1016 46 6000 3.1 270 15:59 29.12.2019
1742 Clouds 13 1016 46 6000 3.1 270 15:40 29.12.2019
1743 Clouds 13 1016 46 6000 3.1 270 15:20 29.12.2019
1744 Haze 13 1015 46 5000 2.6 270 14:58 29.12.2019
1745 Haze 13 1015 46 5000 2.6 270 14:39 29.12.2019
1746 Haze 13 1015 46 5000 2.6 270 14:19 29.12.2019
1747 Haze 13 1015 62 5000 3.6 230 13:59 29.12.2019
1748 Haze 13 1015 62 5000 3.6 230 13:40 29.12.2019
1749 Haze 13 1015 62 5000 3.6 230 13:22 29.12.2019
1750 Haze 13 1016 66 5000 1 200 12:57 29.12.2019
1751 Haze 13 1016 66 5000 1 200 12:38 29.12.2019
1752 Haze 13 1016 66 5000 1 200 12:20 29.12.2019
1753 Haze 13 1016 58 5000 2.1 210 11:41 29.12.2019
1754 Haze 13 1016 58 5000 2.1 210 11:21 29.12.2019
1755 Haze 12 1018 71 5000 2.6 180 10:57 29.12.2019
1756 Haze 12 1018 71 5000 2.6 180 10:39 29.12.2019
1757 Haze 12 1018 71 5000 2.6 180 10:18 29.12.2019
1758 Haze 10 1018 76 5000 2.1 150 09:46 29.12.2019
1759 Haze 10 1018 76 5000 2.1 150 09:28 29.12.2019
1760 Haze 8 1018 66 5000 2.1 240 08:56 29.12.2019
1761 Haze 8 1018 66 5000 2.1 240 08:38 29.12.2019
1762 Haze 8 1018 66 5000 2.1 240 08:20 29.12.2019
1763 Haze 5 1017 87 4000 2.1 240 07:44 29.12.2019
1764 Haze 5 1017 87 4000 2.1 240 07:25 29.12.2019
1765 Mist 4 1017 93 4000 1.5 240 06:42 29.12.2019
1766 Mist 4 1017 93 4000 1.5 240 06:19 29.12.2019
1767 Mist 4 1016 93 5000 1.63 166 05:44 29.12.2019
1768 Mist 3 1017 93 5000 1.92 179 04:33 29.12.2019
1769 Mist 4 1017 87 5000 1.92 179 03:39 29.12.2019
1770 Mist 4 1017 93 5000 1.92 179 02:36 29.12.2019
1771 Mist 4 1017 93 5000 1.22 208 02:18 29.12.2019
1772 Mist 4 1018 87 5000 1.22 208 01:31 29.12.2019
1773 Mist 5 1017 93 5000 0.8 212 00:51 29.12.2019
1774 Mist 5 1017 93 5000 0.8 212 00:25 29.12.2019
1775 Mist 5 1017 100 5000 0.8 212 23:56 28.12.2019
1776 Mist 5 1017 100 5000 0.8 212 23:37 28.12.2019
1777 Mist 5 1017 100 5000 0.56 190 23:18 28.12.2019
1778 Mist 5 1017 100 5000 0.56 190 23:18 28.12.2019
1779 Mist 5 1017 93 5000 0.56 190 22:38 28.12.2019
1780 Mist 5 1017 93 5000 0.56 190 22:38 28.12.2019
1781 Mist 5 1017 93 5000 0.56 190 22:19 28.12.2019
1782 Mist 6 1017 87 5000 0.56 190 21:57 28.12.2019
1783 Mist 6 1017 87 5000 0.56 190 21:38 28.12.2019
1784 Mist 6 1017 87 5000 0.56 190 21:38 28.12.2019
1785 Mist 6 1017 87 5000 0.56 190 21:20 28.12.2019
1786 Clear 6 1017 87 6000 0.56 190 20:55 28.12.2019
1787 Clear 6 1017 87 6000 0.56 190 20:36 28.12.2019
1788 Clouds 6 1017 87 6000 1.27 353 20:18 28.12.2019
1789 Clouds 7 1017 81 6000 2.1 250 19:54 28.12.2019
1790 Clouds 7 1017 81 6000 2.1 250 19:36 28.12.2019
1791 Clouds 7 1017 81 6000 2.1 250 19:18 28.12.2019
1792 Clouds 7 1016 75 6000 2.1 240 18:55 28.12.2019
1793 Clouds 7 1016 75 6000 2.1 240 18:37 28.12.2019
1794 Clouds 7 1016 75 6000 2.1 240 18:18 28.12.2019
1795 Clouds 9 1016 76 6000 3.1 240 17:42 28.12.2019
1796 Clouds 9 1016 76 6000 3.1 240 17:21 28.12.2019
1797 Clouds 10 1016 71 6000 5.1 240 16:58 28.12.2019
1798 Clouds 10 1016 71 6000 5.1 240 16:40 28.12.2019
1799 Clouds 10 1016 71 6000 5.1 240 16:21 28.12.2019
1800 Haze 11 1016 71 5000 6.2 230 15:43 28.12.2019
1801 Haze 11 1016 71 5000 6.2 230 15:23 28.12.2019
1802 Haze 11 1016 71 5000 5.1 240 14:56 28.12.2019
1803 Haze 11 1016 71 5000 5.1 240 14:37 28.12.2019
1804 Haze 11 1016 71 5000 5.1 240 14:19 28.12.2019
1805 Haze 11 1015 71 5000 7.2 240 13:42 28.12.2019
1806 Haze 11 1015 71 5000 7.2 240 13:21 28.12.2019
1807 Haze 11 1015 76 4000 7.2 240 12:59 28.12.2019
1808 Haze 11 1015 76 4000 7.2 240 12:40 28.12.2019
1809 Haze 11 1015 76 4000 7.2 240 12:21 28.12.2019
1810 Mist 10 1016 87 4000 4.1 230 11:54 28.12.2019
1811 Mist 10 1016 87 4000 4.1 230 11:36 28.12.2019
1812 Mist 10 1016 87 4000 4.1 230 11:18 28.12.2019
1813 Rain 9 1017 87 2000 2.6 230 10:41 28.12.2019
1814 Rain 9 1017 87 2000 2.6 230 10:20 28.12.2019
1815 Drizzle 8 1018 81 3000 2.1 200 09:56 28.12.2019
1816 Drizzle 8 1018 81 3000 2.1 200 09:38 28.12.2019
1817 Drizzle 8 1018 81 3000 2.1 200 09:18 28.12.2019
1818 Drizzle 8 1018 93 3000 2.1 200 08:43 28.12.2019
1819 Drizzle 8 1018 93 3000 2.1 200 08:25 28.12.2019
1820 Drizzle 7 1018 93 3500 2.1 210 07:49 28.12.2019
1821 Drizzle 7 1017 93 5000 2.6 220 07:27 28.12.2019
1822 Mist 6 1017 93 4000 2.1 200 05:53 28.12.2019
1823 Rain 6 1016 100 4000 2.6 250 03:59 28.12.2019
1824 Rain 6 1016 100 4000 2.6 250 03:38 28.12.2019
1825 Rain 6 1017 100 7000 2.6 240 02:48 28.12.2019
1826 Clouds 6 1017 93 7000 1 240 01:59 28.12.2019
1827 Clouds 6 1017 93 7000 1 240 01:29 28.12.2019
1828 Rain 6 1016 93 6000 3.6 240 00:54 28.12.2019
1829 Rain 6 1016 93 6000 3.6 240 00:36 28.12.2019
1830 Rain 6 1016 93 6000 3.6 240 00:18 28.12.2019
1831 Clouds 7 1016 87 6000 2.1 240 23:42 27.12.2019
1832 Clouds 7 1016 87 6000 2.1 240 23:19 27.12.2019
1833 Clouds 7 1016 87 6000 2.1 240 23:19 27.12.2019
1834 Clouds 7 1016 87 6000 2.1 240 23:19 27.12.2019
1835 Clouds 7 1016 100 6000 3.1 230 22:57 27.12.2019
1836 Clouds 7 1016 100 6000 3.1 230 22:38 27.12.2019
1837 Rain 7 1016 100 6000 3.1 240 22:20 27.12.2019
1838 Rain 7 1016 93 6000 2.6 230 21:55 27.12.2019
1839 Rain 7 1016 93 6000 2.6 230 21:37 27.12.2019
1840 Clouds 7 1016 93 6000 2.6 230 21:18 27.12.2019
1841 Clouds 7 1016 93 6000 1 230 20:41 27.12.2019
1842 Clouds 7 1016 93 6000 1 230 20:22 27.12.2019
1843 Rain 7 1016 93 6000 2.1 220 19:43 27.12.2019
1844 Rain 8 1016 93 6000 2.1 220 19:21 27.12.2019
1845 Rain 8 1016 93 4000 2.6 240 18:59 27.12.2019
1846 Rain 8 1016 93 4000 2.6 240 18:39 27.12.2019
1847 Rain 8 1016 93 4000 2.6 240 18:39 27.12.2019
1848 Rain 8 1016 93 4000 2.6 240 18:21 27.12.2019
1849 Rain 8 1016 87 4000 2.6 230 17:58 27.12.2019
1850 Rain 8 1016 87 4000 2.6 230 17:40 27.12.2019
1851 Clouds 8 1015 87 6000 2.6 240 17:19 27.12.2019
1852 Clouds 9 1014 87 6000 4.1 240 16:59 27.12.2019
1853 Clouds 9 1014 87 6000 4.1 240 16:39 27.12.2019
1854 Clouds 9 1014 87 6000 4.1 240 16:20 27.12.2019
1855 Clouds 9 1014 87 6000 3.6 250 15:45 27.12.2019
1856 Clouds 9 1014 87 6000 3.6 250 15:23 27.12.2019
1857 Clouds 8 1014 93 6000 4.6 240 14:58 27.12.2019
1858 Clouds 8 1014 93 6000 4.6 240 14:40 27.12.2019
1859 Clouds 8 1014 93 6000 4.6 240 14:21 27.12.2019
1860 Rain 9 1013 81 3000 6.2 240 13:57 27.12.2019
1861 Rain 9 1013 81 3000 6.2 240 13:39 27.12.2019
1862 Rain 9 1013 81 3000 6.2 240 13:21 27.12.2019
1863 Rain 8 1013 87 3000 4.6 250 12:44 27.12.2019
1864 Rain 8 1013 87 3000 4.6 250 12:25 27.12.2019
1865 Rain 7 1012 93 4000 12.9 250 11:55 27.12.2019
1866 Rain 7 1012 93 4000 12.9 250 11:37 27.12.2019
1867 Rain 9 1013 87 3000 7.2 250 11:18 27.12.2019
1868 Rain 8 1012 87 2000 7.2 250 10:41 27.12.2019
1869 Rain 8 1012 87 2000 7.2 250 10:23 27.12.2019
1870 Rain 7 1012 87 4000 6.2 240 09:49 27.12.2019
1871 Rain 7 1012 87 4000 6.2 240 09:22 27.12.2019
1872 Rain 7 1012 87 4000 6.2 240 09:22 27.12.2019
1873 Rain 7 1012 87 3000 10.3 250 08:59 27.12.2019
1874 Rain 7 1012 87 3000 10.3 250 08:40 27.12.2019
1875 Rain 7 1012 87 3000 10.3 250 08:18 27.12.2019
1876 Rain 6 1012 100 2000 9.3 240 07:38 27.12.2019
1877 Rain 6 1011 100 2000 8.2 240 06:59 27.12.2019
1878 Rain 6 1011 100 2000 8.2 240 06:23 27.12.2019
1879 Rain 6 1010 100 2000 8.2 240 04:37 27.12.2019
1880 Rain 6 1009 81 5000 8.7 240 02:28 27.12.2019
1881 Rain 6 1010 93 3000 8.7 240 01:44 27.12.2019
1882 Rain 6 1010 93 3000 8.7 240 01:21 27.12.2019
1883 Rain 6 1011 87 2000 9.3 290 00:47 27.12.2019
1884 Rain 7 1011 87 3000 10.3 250 00:25 27.12.2019
1885 Mist 7 1011 87 4000 10.3 240 23:56 26.12.2019
1886 Mist 7 1011 87 4000 10.3 240 23:37 26.12.2019
1887 Rain 8 1011 87 5000 6.7 240 23:19 26.12.2019
1888 Rain 8 1011 93 2000 12.9 250 22:40 26.12.2019
1889 Rain 8 1011 93 2000 12.9 250 22:18 26.12.2019
1890 Rain 9 1011 87 2000 10.3 240 21:40 26.12.2019
1891 Rain 9 1011 87 2000 11.3 250 21:21 26.12.2019
1892 Rain 9 1011 93 1000 9.3 250 20:59 26.12.2019
1893 Rain 9 1011 93 1000 9.3 250 20:40 26.12.2019
1894 Rain 9 1011 93 1000 9.3 250 20:22 26.12.2019
1895 Rain 9 1010 93 1000 8.2 250 19:56 26.12.2019
1896 Rain 9 1010 93 1000 8.2 250 19:38 26.12.2019
1897 Rain 9 1010 93 1000 8.2 250 19:20 26.12.2019
1898 Rain 9 1010 93 1000 8.2 250 18:57 26.12.2019
1899 Rain 9 1010 93 1000 8.2 250 18:37 26.12.2019
1900 Rain 9 1010 93 1000 8.2 250 18:18 26.12.2019
1901 Rain 9 1010 93 1000 9.8 250 17:42 26.12.2019
1902 Rain 9 1010 93 1000 9.8 250 17:22 26.12.2019
1903 Rain 10 1009 93 2000 7.7 270 16:54 26.12.2019
1904 Rain 10 1009 93 2000 7.7 270 16:36 26.12.2019
1905 Rain 10 1009 93 2000 7.7 270 16:18 26.12.2019
1906 Rain 10 1009 76 3000 12.9 240 15:40 26.12.2019
1907 Mist 11 1009 87 2000 8.7 250 15:19 26.12.2019
1908 Mist 11 1009 87 4000 8.2 240 14:54 26.12.2019
1909 Mist 11 1009 87 4000 8.2 240 14:36 26.12.2019
1910 Mist 11 1009 87 4000 8.2 240 14:36 26.12.2019
1911 Mist 11 1009 87 4000 8.2 240 14:18 26.12.2019
1912 Mist 11 1009 87 3000 7.2 250 13:42 26.12.2019
1913 Rain 10 1009 66 3000 15.4 240 13:20 26.12.2019
1914 Rain 11 1009 87 2000 10.3 240 12:56 26.12.2019
1915 Rain 11 1009 87 2000 10.3 240 12:37 26.12.2019
1916 Rain 11 1009 87 2000 10.3 240 12:19 26.12.2019
1917 Rain 12 1008 66 2000 12.9 240 11:56 26.12.2019
1918 Rain 12 1008 66 2000 12.9 240 11:37 26.12.2019
1919 Rain 12 1008 66 2000 12.9 240 11:19 26.12.2019
1920 Rain 10 1009 76 2500 12.9 240 10:41 26.12.2019
1921 Dust 11 1009 71 3000 10.3 240 10:18 26.12.2019
1922 Dust 11 1010 61 3000 10.3 240 09:45 26.12.2019
1923 Dust 11 1010 61 3000 10.3 240 09:26 26.12.2019
1924 Rain 10 1010 70 3000 8.2 240 08:42 26.12.2019
1925 Rain 10 1010 70 3000 8.2 240 08:24 26.12.2019
1926 Rain 10 1010 70 3000 6.2 230 07:53 26.12.2019
1927 Rain 10 1010 70 3000 6.2 230 07:27 26.12.2019
1928 Rain 9 1010 61 3000 10.3 240 06:53 26.12.2019
1929 Rain 9 1010 61 3000 10.3 240 06:32 26.12.2019
1930 Dust 9 1009 70 4000 9.3 240 05:45 26.12.2019
1931 Rain 9 1009 81 3000 9.3 230 04:59 26.12.2019
1932 Rain 9 1009 81 3000 9.3 230 04:30 26.12.2019
1933 Rain 10 1011 61 4000 5.1 250 02:58 26.12.2019
1934 Rain 10 1011 61 4000 5.1 250 02:38 26.12.2019
1935 Rain 10 1011 61 4000 5.1 250 02:19 26.12.2019
1936 Dust 10 1010 61 3000 10.3 250 01:41 26.12.2019
1937 Dust 10 1010 61 3000 10.3 250 01:22 26.12.2019
1938 Rain 10 1010 61 4000 11.8 240 00:41 26.12.2019
1939 Rain 10 1010 61 4000 6.2 240 00:22 26.12.2019
1940 Dust 10 1011 57 4000 5.1 220 23:42 25.12.2019
1941 Dust 10 1011 57 4000 5.1 220 23:21 25.12.2019
1942 Rain 10 1012 66 4000 5.1 240 22:59 25.12.2019
1943 Rain 10 1012 66 4000 5.1 240 22:40 25.12.2019
1944 Rain 10 1012 66 4000 5.1 240 22:22 25.12.2019
1945 Rain 10 1012 66 4000 5.1 230 21:59 25.12.2019
1946 Rain 10 1012 66 4000 5.1 230 21:40 25.12.2019
1947 Dust 10 1012 57 2500 5.1 230 21:21 25.12.2019
1948 Dust 10 1012 57 2500 5.1 230 21:21 25.12.2019
1949 Rain 10 1012 57 2500 7.7 230 20:57 25.12.2019
1950 Rain 10 1012 57 2500 7.7 230 20:39 25.12.2019
1951 Rain 10 1012 57 2500 7.7 230 20:18 25.12.2019
1952 Dust 11 1012 57 2500 7.7 230 19:44 25.12.2019
1953 Dust 11 1012 57 2500 7.7 230 19:25 25.12.2019
1954 Dust 12 1012 53 2000 6.2 230 18:59 25.12.2019
1955 Dust 12 1012 53 2000 6.2 230 18:38 25.12.2019
1956 Dust 12 1012 53 2000 6.2 230 18:20 25.12.2019
1957 Dust 12 1012 53 1500 6.7 240 17:43 25.12.2019
1958 Dust 12 1012 53 1500 6.7 240 17:21 25.12.2019
1959 Dust 12 1012 53 1500 7.7 250 16:59 25.12.2019
1960 Dust 12 1012 53 1500 7.7 250 16:39 25.12.2019
1961 Dust 12 1012 53 1500 7.7 250 16:19 25.12.2019
1962 Dust 12 1011 50 1500 7.7 250 15:57 25.12.2019
1963 Dust 12 1011 50 1500 7.7 250 15:57 25.12.2019
1964 Dust 12 1011 50 1500 7.7 250 15:39 25.12.2019
1965 Dust 12 1011 50 1500 7.7 250 15:39 25.12.2019
1966 Dust 12 1011 50 1500 7.7 250 15:21 25.12.2019
1967 Dust 12 1011 46 2500 8.2 250 14:58 25.12.2019
1968 Dust 12 1011 46 2500 8.2 250 14:40 25.12.2019
1969 Dust 12 1011 46 2500 8.2 250 14:21 25.12.2019
1970 Dust 12 1011 46 2500 8.2 250 14:21 25.12.2019
1971 Dust 12 1011 46 2500 8.2 250 14:21 25.12.2019
1972 Dust 12 1011 46 2500 8.2 250 14:21 25.12.2019
1973 Dust 13 1011 46 2000 7.7 230 13:57 25.12.2019
1974 Dust 13 1011 46 2000 7.7 230 13:38 25.12.2019
1975 Dust 13 1011 46 2000 7.7 230 13:19 25.12.2019
1976 Dust 13 1011 38 1000 8.7 230 12:40 25.12.2019
1977 Dust 13 1011 38 1000 8.7 230 12:20 25.12.2019
1978 Dust 13 1011 46 1500 8.2 230 11:56 25.12.2019
1979 Dust 13 1011 46 1500 8.2 230 11:56 25.12.2019
1980 Dust 13 1011 46 1500 8.2 230 11:38 25.12.2019
1981 Dust 13 1011 46 1500 8.2 230 11:18 25.12.2019
1982 Dust 13 1012 46 1500 8.2 230 10:38 25.12.2019
1983 Dust 13 1012 46 1500 8.2 230 10:20 25.12.2019
1984 Dust 12 1012 43 1500 8.7 230 09:51 25.12.2019
1985 Dust 12 1012 43 1500 8.7 230 09:32 25.12.2019
1986 Dust 11 1012 43 1500 8.2 230 08:51 25.12.2019
1987 Dust 11 1012 53 3000 7.7 240 08:31 25.12.2019
1988 Dust 10 1012 53 3000 7.7 240 07:52 25.12.2019
1989 Dust 10 1012 53 3000 7.7 240 07:34 25.12.2019
1990 Dust 9 1012 61 2000 7.7 240 06:58 25.12.2019
1991 Dust 9 1012 61 2000 7.7 240 06:23 25.12.2019
1992 Dust 8 1011 61 2000 8.7 240 05:31 25.12.2019
1993 Dust 9 1011 61 2000 8.7 240 04:39 25.12.2019
1994 Dust 9 1011 61 2000 8.7 240 04:39 25.12.2019
1995 Dust 9 1011 61 2000 8.7 240 04:20 25.12.2019
1996 Dust 9 1011 61 2000 8.7 240 04:20 25.12.2019
1997 Dust 9 1011 61 3000 8.2 240 03:43 25.12.2019
1998 Dust 10 1012 61 3000 9.3 240 02:57 25.12.2019
1999 Dust 10 1012 61 3000 9.3 240 02:28 25.12.2019
2000 Dust 10 1012 61 3000 9.3 240 01:36 25.12.2019
2001 Haze 10 1012 50 4000 5.7 240 01:18 25.12.2019
2002 Dust 11 1012 53 4000 8.2 250 00:40 25.12.2019
2003 Dust 11 1012 53 4000 8.2 250 00:22 25.12.2019
2004 Dust 11 1012 53 4000 8.2 240 23:39 24.12.2019
2005 Dust 11 1012 53 4000 8.2 240 23:20 24.12.2019
2006 Dust 9 1013 53 4000 8.2 240 22:42 24.12.2019
2007 Dust 9 1013 53 4000 8.2 240 22:23 24.12.2019
2008 Dust 10 1012 50 4000 7.7 240 21:57 24.12.2019
2009 Dust 10 1012 50 4000 7.7 240 21:37 24.12.2019
2010 Dust 10 1012 50 4000 7.7 240 21:19 24.12.2019
2011 Haze 11 1012 46 5000 3.6 240 20:42 24.12.2019
2012 Haze 11 1012 46 5000 3.6 240 20:22 24.12.2019
2013 Haze 11 1012 47 5000 3.1 230 19:49 24.12.2019
2014 Haze 11 1012 47 5000 3.1 230 19:22 24.12.2019
2015 Haze 12 1012 44 4000 5.1 240 18:59 24.12.2019
2016 Haze 12 1012 44 4000 5.1 240 18:40 24.12.2019
2017 Haze 12 1012 44 4000 5.1 240 18:18 24.12.2019
2018 Haze 13 1012 43 4000 5.1 240 17:44 24.12.2019
2019 Haze 13 1012 43 4000 5.1 240 17:22 24.12.2019
2020 Haze 15 1012 38 4000 6.2 240 16:58 24.12.2019
2021 Haze 15 1012 38 4000 6.2 240 16:39 24.12.2019
2022 Haze 15 1012 38 4000 6.2 240 16:21 24.12.2019
2023 Dust 16 1012 37 4000 6.2 240 15:57 24.12.2019
2024 Dust 16 1012 37 4000 6.2 240 15:37 24.12.2019
2025 Dust 16 1012 37 4000 6.2 240 15:19 24.12.2019
2026 Dust 16 1012 37 4000 8.2 240 14:58 24.12.2019
2027 Dust 16 1012 37 4000 8.2 240 14:40 24.12.2019
2028 Dust 16 1012 37 4000 8.2 240 14:40 24.12.2019
2029 Dust 16 1012 28 4000 8.2 240 14:21 24.12.2019
2030 Dust 17 1012 28 5000 8.2 190 13:56 24.12.2019
2031 Dust 17 1012 28 5000 8.2 190 13:38 24.12.2019
2032 Dust 17 1012 28 5000 8.2 190 13:20 24.12.2019
2033 Dust 17 1013 36 5000 7.7 240 12:56 24.12.2019
2034 Dust 17 1013 36 5000 7.7 240 12:38 24.12.2019
2035 Dust 17 1013 36 5000 7.7 240 12:19 24.12.2019
2036 Dust 16 1013 38 5000 7.7 240 11:56 24.12.2019
2037 Dust 16 1013 38 5000 7.7 240 11:37 24.12.2019
2038 Dust 16 1013 38 5000 7.7 240 11:19 24.12.2019
2039 Clear 14 1014 26 6000 4.1 220 10:56 24.12.2019
2040 Clear 14 1014 26 6000 4.1 220 10:38 24.12.2019
2041 Clear 14 1014 26 6000 4.1 220 10:20 24.12.2019
2042 Clear 14 1014 26 6000 4.1 220 10:19 24.12.2019
2043 Clear 14 1015 41 6000 2.1 210 09:56 24.12.2019
2044 Clear 14 1015 41 6000 2.1 210 09:38 24.12.2019
2045 Clear 14 1015 41 6000 2.1 210 09:20 24.12.2019
2046 Haze 11 1015 46 5000 1 170 08:47 24.12.2019
2047 Haze 11 1015 46 5000 1 170 08:24 24.12.2019
2048 Haze 7 1014 36 5000 2.49 220 07:56 24.12.2019
2049 Haze 7 1014 36 5000 2.49 220 07:38 24.12.2019
2050 Haze 7 1014 36 5000 2.49 220 07:20 24.12.2019
2051 Haze 4 1014 56 5000 2.49 220 06:39 24.12.2019
2052 Haze 4 1014 56 5000 2.49 220 06:19 24.12.2019
2053 Haze 5 1014 49 5000 1.5 240 05:51 24.12.2019
2054 Haze 5 1014 49 5000 1.5 240 05:19 24.12.2019
2055 Clear 4 1014 48 6000 2.21 218 04:21 24.12.2019
2056 Clear 5 1014 52 6000 2.21 218 03:46 24.12.2019
2057 Clear 6 1014 42 6000 2.21 218 02:29 24.12.2019
2058 Clear 5 1014 42 7000 1 310 01:55 24.12.2019
2059 Clear 5 1014 42 7000 1 310 01:26 24.12.2019
2060 Clear 6 1014 42 7000 2.93 245 00:58 24.12.2019
2061 Clear 6 1014 42 7000 2.93 245 00:39 24.12.2019
2062 Clear 6 1014 42 7000 2.93 245 00:20 24.12.2019
2063 Clear 6 1014 39 7000 2.6 270 23:43 23.12.2019
2064 Clear 6 1014 39 7000 2.6 270 23:24 23.12.2019
2065 Clear 7 1014 37 6000 1.5 260 22:57 23.12.2019
2066 Clear 7 1014 37 6000 1.5 260 22:38 23.12.2019
2067 Clear 7 1014 37 6000 1.5 260 22:20 23.12.2019
2068 Clear 9 1015 34 6000 1.5 210 21:57 23.12.2019
2069 Clear 9 1015 34 6000 1.5 210 21:37 23.12.2019
2070 Clear 9 1015 34 6000 1.5 210 21:19 23.12.2019
2071 Haze 9 1015 32 5000 2.6 260 20:59 23.12.2019
2072 Haze 9 1015 32 5000 2.6 260 20:40 23.12.2019
2073 Haze 9 1015 32 5000 2.6 260 20:19 23.12.2019
2074 Haze 10 1015 32 5000 2.1 220 19:58 23.12.2019
2075 Haze 10 1015 32 5000 2.1 220 19:40 23.12.2019
2076 Haze 10 1015 32 5000 2.1 220 19:21 23.12.2019
2077 Haze 11 1015 37 5000 2.51 246 18:58 23.12.2019
2078 Haze 11 1015 37 5000 2.51 246 18:39 23.12.2019
2079 Haze 11 1015 37 5000 2.51 246 18:21 23.12.2019
2080 Clear 12 1014 50 6000 2.51 246 17:59 23.12.2019
2081 Clear 12 1014 50 6000 2.51 246 17:40 23.12.2019
2082 Clear 12 1014 50 6000 3.52 250 17:19 23.12.2019
2083 Haze 13 1015 31 5000 3.1 250 16:58 23.12.2019
2084 Haze 13 1015 31 5000 3.1 250 16:40 23.12.2019
2085 Haze 13 1015 31 5000 3.1 250 16:19 23.12.2019
2086 Haze 16 1014 31 5000 5.7 280 15:58 23.12.2019
2087 Haze 16 1014 31 5000 5.7 280 15:37 23.12.2019
2088 Haze 16 1014 31 5000 5.7 280 15:19 23.12.2019
2089 Clear 18 1014 22 6000 4.1 240 14:57 23.12.2019
2090 Clear 18 1014 22 6000 4.1 240 14:39 23.12.2019
2091 Clear 18 1014 22 6000 4.1 240 14:19 23.12.2019
2092 Clear 20 1014 22 6000 6.7 260 13:57 23.12.2019
2093 Clear 20 1014 22 6000 6.7 260 13:39 23.12.2019
2094 Clear 20 1014 22 6000 6.7 260 13:39 23.12.2019
2095 Clear 20 1014 22 6000 6.7 260 13:20 23.12.2019
2096 Clear 20 1014 22 6000 6.7 260 13:20 23.12.2019
2097 Clear 20 1015 24 6000 3.6 210 12:55 23.12.2019
2098 Clear 20 1015 24 6000 3.6 210 12:36 23.12.2019
2099 Clear 20 1015 24 6000 3.6 210 12:18 23.12.2019
2100 Dust 17 1015 31 5000 3.1 230 11:42 23.12.2019
2101 Dust 17 1016 31 4000 1.5 60 11:24 23.12.2019
2102 Dust 16 1017 35 3000 1.5 80 10:56 23.12.2019
2103 Dust 16 1017 35 3000 1.5 80 10:38 23.12.2019
2104 Dust 16 1017 35 3000 1.5 80 10:38 23.12.2019
2105 Dust 16 1017 35 3000 1.5 80 10:20 23.12.2019
2106 Dust 13 1018 40 3000 1.5 70 09:58 23.12.2019
2107 Dust 13 1018 40 3000 1.5 70 09:39 23.12.2019
2108 Dust 13 1018 40 3000 1.5 70 09:39 23.12.2019
2109 Dust 13 1018 40 3000 1.5 70 09:20 23.12.2019
2110 Smoke 10 1018 45 4000 1 70 08:55 23.12.2019
2111 Smoke 10 1018 45 4000 1 70 08:37 23.12.2019
2112 Smoke 10 1018 45 4000 1 70 08:18 23.12.2019
2113 Smoke 7 1018 56 4000 4.45 117 07:43 23.12.2019
2114 Smoke 7 1018 56 4000 4.45 117 07:19 23.12.2019
2115 Smoke 5 1018 56 5000 4.45 117 06:50 23.12.2019
2116 Smoke 5 1018 56 5000 4.45 117 06:23 23.12.2019
2117 Clear 4 1018 60 8000 4.45 117 05:49 23.12.2019
2118 Clear 4 1018 60 8000 4.74 110 05:19 23.12.2019
2119 Clear 5 1018 52 8000 4.74 110 04:20 23.12.2019
2120 Clear 7 1019 49 6000 4.74 110 02:55 23.12.2019
2121 Clear 7 1019 49 6000 4.74 110 02:25 23.12.2019
2122 Clear 8 1019 39 6000 1 30 01:55 23.12.2019
2123 Clear 8 1019 39 6000 1 30 01:36 23.12.2019
2124 Clear 8 1019 39 6000 1 30 01:18 23.12.2019
2125 Clear 8 1019 32 6000 3.1 130 00:35 23.12.2019
2126 Haze 8 1020 45 5000 3.65 114 23:58 22.12.2019
2127 Haze 8 1020 45 5000 3.65 114 23:39 22.12.2019
2128 Haze 8 1020 45 5000 3.22 120 23:20 22.12.2019
2129 Haze 8 1020 49 5000 1 280 22:58 22.12.2019
2130 Haze 8 1020 49 5000 1 280 22:38 22.12.2019
2131 Haze 8 1020 49 5000 1 280 22:19 22.12.2019
2132 Haze 9 1021 45 5000 1 280 21:57 22.12.2019
2133 Haze 9 1021 45 5000 1 280 21:39 22.12.2019
2134 Haze 9 1021 45 5000 1 280 21:20 22.12.2019
2135 Haze 9 1021 46 5000 1 220 20:56 22.12.2019
2136 Haze 9 1021 46 5000 1 220 20:38 22.12.2019
2137 Haze 9 1021 46 5000 1 220 20:18 22.12.2019
2138 Haze 10 1021 40 5000 1 310 19:55 22.12.2019
2139 Haze 10 1021 40 5000 1 310 19:37 22.12.2019
2140 Haze 10 1021 40 5000 1 310 19:18 22.12.2019
2141 Haze 10 1021 43 5000 2.33 127 18:40 22.12.2019
2142 Haze 10 1021 43 5000 2.33 127 18:22 22.12.2019
2143 Haze 11 1021 37 5000 2.33 127 17:55 22.12.2019
2144 Haze 11 1021 37 5000 2.33 127 17:37 22.12.2019
2145 Haze 11 1021 37 5000 2.66 131 17:18 22.12.2019
2146 Haze 13 1021 28 4000 2.1 110 16:56 22.12.2019
2147 Haze 13 1021 28 4000 2.1 110 16:37 22.12.2019
2148 Haze 13 1021 28 4000 2.1 110 16:19 22.12.2019
2149 Haze 17 1020 25 4000 2.6 70 15:56 22.12.2019
2150 Haze 17 1020 25 4000 2.6 70 15:36 22.12.2019
2151 Haze 17 1020 25 4000 2.6 70 15:36 22.12.2019
2152 Haze 17 1020 25 4000 2.6 70 15:18 22.12.2019
2153 Haze 17 1020 23 5000 3.6 30 14:54 22.12.2019
2154 Haze 17 1020 23 5000 3.6 30 14:36 22.12.2019
2155 Haze 17 1020 23 5000 3.6 30 14:36 22.12.2019
2156 Haze 17 1020 23 5000 3.6 30 14:18 22.12.2019
2157 Clear 18 1020 23 7000 3.1 50 13:55 22.12.2019
2158 Clear 18 1020 23 7000 3.1 50 13:36 22.12.2019
2159 Clear 18 1020 23 7000 3.1 50 13:18 22.12.2019
2160 Clear 18 1020 23 7000 3.1 50 13:18 22.12.2019
2161 Haze 17 1021 26 5000 3.1 50 12:54 22.12.2019
2162 Haze 17 1021 26 5000 3.1 50 12:54 22.12.2019
2163 Haze 17 1021 26 5000 3.1 50 12:36 22.12.2019
2164 Haze 17 1021 26 5000 3.1 50 12:18 22.12.2019
2165 Haze 17 1021 26 5000 3.1 50 11:39 22.12.2019
2166 Haze 17 1021 26 5000 3.1 50 11:21 22.12.2019
2167 Haze 17 1022 26 5000 2.1 60 10:59 22.12.2019
2168 Haze 17 1022 26 5000 2.1 60 10:40 22.12.2019
2169 Haze 17 1022 26 5000 2.1 60 10:21 22.12.2019
2170 Smoke 13 1023 37 4000 1.5 30 09:59 22.12.2019
2171 Smoke 13 1023 37 4000 1.5 30 09:40 22.12.2019
2172 Smoke 13 1023 37 4000 1.5 30 09:22 22.12.2019
2173 Smoke 11 1023 43 3000 3.37 125 08:59 22.12.2019
2174 Smoke 11 1023 43 3000 3.37 125 08:38 22.12.2019
2175 Smoke 8 1023 43 3000 2.14 119 08:20 22.12.2019
2176 Haze 6 1023 56 3000 2.1 220 07:39 22.12.2019
2177 Haze 6 1023 56 3000 2.1 220 07:20 22.12.2019
2178 Haze 4 1023 65 4000 1.5 200 06:41 22.12.2019
2179 Haze 4 1022 56 5000 2.14 119 05:54 22.12.2019
2180 Haze 4 1022 56 5000 2.14 119 05:23 22.12.2019
2181 Haze 4 1022 60 5000 2.17 125 04:30 22.12.2019
2182 Haze 5 1022 40 5000 2.17 125 03:56 22.12.2019
2183 Haze 5 1022 60 5000 2.17 125 02:42 22.12.2019
2184 Haze 5 1022 60 5000 2.17 125 02:42 22.12.2019
2185 Haze 5 1022 56 5000 2.13 127 01:51 22.12.2019
2186 Haze 5 1022 56 5000 1.98 127 01:30 22.12.2019
2187 Haze 5 1022 70 4000 1.98 127 00:48 22.12.2019
2188 Haze 5 1022 70 4000 1.98 127 00:26 22.12.2019
2189 Haze 6 1023 39 4000 1.98 127 23:57 21.12.2019
2190 Haze 6 1023 39 4000 1.98 127 23:38 21.12.2019
2191 Haze 6 1023 35 4000 2.61 128 23:19 21.12.2019
2192 Haze 7 1022 52 4000 2.61 128 22:46 21.12.2019
2193 Haze 7 1022 52 4000 2.61 128 22:20 21.12.2019
2194 Haze 7 1023 49 4000 2.61 128 21:58 21.12.2019
2195 Haze 7 1023 49 4000 2.61 128 21:39 21.12.2019
2196 Haze 7 1023 49 4000 2.61 128 21:20 21.12.2019
2197 Haze 8 1023 52 4000 2.61 128 20:59 21.12.2019
2198 Haze 8 1023 52 4000 2.61 128 20:41 21.12.2019
2199 Haze 8 1023 52 4000 2.76 110 20:22 21.12.2019
2200 Haze 9 1022 49 5000 2.76 110 19:59 21.12.2019
2201 Haze 9 1022 49 5000 2.76 110 19:59 21.12.2019
2202 Haze 9 1022 49 5000 2.76 110 19:40 21.12.2019
2203 Haze 9 1022 49 5000 2.76 110 19:20 21.12.2019
2204 Clouds 10 1022 39 6000 2.76 110 18:56 21.12.2019
2205 Clouds 10 1022 39 6000 2.76 110 18:38 21.12.2019
2206 Clouds 10 1022 39 6000 2.76 110 18:20 21.12.2019
2207 Clouds 11 1022 34 6000 2.76 110 17:55 21.12.2019
2208 Clouds 11 1022 34 6000 2.76 110 17:37 21.12.2019
2209 Clouds 11 1022 34 6000 4.01 93 17:18 21.12.2019
2210 Haze 13 1021 28 5000 3.1 140 16:54 21.12.2019
2211 Haze 13 1021 28 5000 3.1 140 16:36 21.12.2019
2212 Haze 13 1021 28 5000 3.1 140 16:36 21.12.2019
2213 Haze 13 1021 28 5000 3.1 140 16:18 21.12.2019
2214 Haze 17 1021 23 5000 2.6 130 15:54 21.12.2019
2215 Haze 17 1021 23 5000 2.6 130 15:36 21.12.2019
2216 Haze 17 1021 23 5000 2.6 130 15:18 21.12.2019
2217 Haze 19 1021 20 5000 2.1 140 14:40 21.12.2019
2218 Haze 19 1021 20 5000 2.1 140 14:22 21.12.2019
2219 Clear 19 1022 20 7000 2.1 140 13:57 21.12.2019
2220 Clear 19 1022 20 7000 2.1 140 13:39 21.12.2019
2221 Clear 19 1022 20 7000 2.1 140 13:19 21.12.2019
2222 Clear 17 1022 20 7000 2.1 150 12:56 21.12.2019
2223 Clear 17 1022 20 7000 2.1 150 12:37 21.12.2019
2224 Clear 17 1022 20 7000 2.1 150 12:19 21.12.2019
2225 Haze 16 1023 28 5000 1.5 80 11:45 21.12.2019
2226 Haze 16 1023 28 5000 1.5 80 11:26 21.12.2019
2227 Haze 14 1024 30 5000 1.5 60 10:57 21.12.2019
2228 Haze 14 1024 30 5000 1.5 60 10:39 21.12.2019
2229 Smoke 14 1024 35 4000 2.1 70 10:21 21.12.2019
2230 Smoke 13 1024 34 4000 2.1 90 09:57 21.12.2019
2231 Smoke 13 1024 34 4000 2.1 90 09:39 21.12.2019
2232 Smoke 13 1024 34 4000 2.1 90 09:19 21.12.2019
2233 Haze 11 1024 43 4000 1 70 08:47 21.12.2019
2234 Haze 11 1024 43 4000 1 70 08:27 21.12.2019
2235 Haze 7 1025 60 5000 3.55 113 07:47 21.12.2019
2236 Haze 4 1025 60 5000 3.55 113 07:23 21.12.2019
2237 Clear 4 1024 56 7000 3.55 113 06:58 21.12.2019
2238 Clear 4 1024 56 7000 3.55 113 06:40 21.12.2019
2239 Clear 4 1024 56 7000 3.55 113 06:21 21.12.2019
2240 Clear 4 1024 60 6000 3.55 113 05:25 21.12.2019
2241 Clear 5 1023 56 6000 1.5 270 04:34 21.12.2019
2242 Clear 6 1023 65 7000 3.88 111 03:56 21.12.2019
2243 Clear 5 1023 60 8000 1.5 270 02:25 21.12.2019
2244 Clear 5 1023 60 8000 1.5 270 02:25 21.12.2019
2245 Clear 6 1024 52 8000 1 170 01:48 21.12.2019
2246 Clear 6 1024 52 8000 1 170 01:25 21.12.2019
2247 Clear 6 1024 56 8000 1.5 180 00:45 21.12.2019
2248 Clear 6 1024 56 8000 1.5 180 00:26 21.12.2019
2249 Clear 7 1024 52 8000 3.22 119 23:39 20.12.2019
2250 Clear 7 1024 52 8000 2.91 126 23:21 20.12.2019
2251 Clear 7 1024 36 7000 2.91 126 22:59 20.12.2019
2252 Clear 7 1024 36 7000 2.91 126 22:39 20.12.2019
2253 Clear 7 1024 36 7000 2.91 126 22:19 20.12.2019
2254 Clear 8 1024 49 7000 1 50 21:42 20.12.2019
2255 Clear 8 1024 49 7000 1 50 21:21 20.12.2019
2256 Clear 8 1025 49 7000 1.5 60 20:59 20.12.2019
2257 Clear 8 1025 49 7000 1.5 60 20:38 20.12.2019
2258 Clear 8 1025 49 7000 1.5 60 20:19 20.12.2019
2259 Clear 9 1025 46 7000 1 80 19:57 20.12.2019
2260 Clear 9 1025 46 7000 1 80 19:38 20.12.2019
2261 Clear 9 1025 46 7000 1 80 19:19 20.12.2019
2262 Clear 10 1025 46 7000 2.1 80 18:42 20.12.2019
2263 Clear 10 1025 46 7000 2.1 80 18:23 20.12.2019
2264 Clear 12 1024 40 7000 2.1 90 17:58 20.12.2019
2265 Clear 12 1024 40 7000 2.1 90 17:40 20.12.2019
2266 Clear 12 1024 40 7000 2.1 90 17:20 20.12.2019
2267 Clear 14 1024 35 7000 2.1 80 16:59 20.12.2019
2268 Clear 14 1024 35 7000 2.1 80 16:59 20.12.2019
2269 Clear 14 1024 35 7000 2.1 80 16:38 20.12.2019
2270 Clear 14 1024 35 7000 2.1 80 16:20 20.12.2019
2271 Clear 14 1024 35 7000 2.1 80 16:20 20.12.2019
2272 Clear 17 1024 29 7000 1.5 100 15:56 20.12.2019
2273 Clear 17 1024 29 7000 1.5 100 15:38 20.12.2019
2274 Clear 17 1024 29 7000 1.5 100 15:19 20.12.2019
2275 Clear 18 1024 29 7000 2.6 130 14:43 20.12.2019
2276 Clear 18 1024 29 7000 2.6 130 14:25 20.12.2019
2277 Clear 18 1024 22 7000 3.1 140 13:59 20.12.2019
2278 Clear 18 1024 22 7000 3.1 140 13:41 20.12.2019
2279 Clear 18 1024 22 7000 3.1 140 13:20 20.12.2019
2280 Clear 18 1024 23 7000 3.1 130 12:57 20.12.2019
2281 Clear 18 1024 23 7000 3.1 130 12:38 20.12.2019
2282 Clear 18 1024 23 7000 3.1 130 12:19 20.12.2019
2283 Clear 16 1025 26 8000 3.1 130 11:58 20.12.2019
2284 Clear 16 1025 29 7000 7.7 140 11:39 20.12.2019
2285 Clear 15 1025 29 7000 7.7 140 11:19 20.12.2019
2286 Clear 15 1026 28 8000 3.6 120 10:57 20.12.2019
2287 Clear 15 1026 28 8000 3.6 120 10:39 20.12.2019
2288 Clear 15 1026 28 8000 3.6 120 10:39 20.12.2019
2289 Clear 15 1026 28 8000 3.6 120 10:20 20.12.2019
2290 Clear 13 1027 47 8000 1.5 50 09:54 20.12.2019
2291 Clear 13 1027 47 8000 1.5 50 09:36 20.12.2019
2292 Clear 13 1027 47 8000 1.5 50 09:18 20.12.2019
2293 Clear 10 1027 61 8000 4.1 130 08:42 20.12.2019
2294 Clear 10 1027 61 8000 4.1 130 08:22 20.12.2019
2295 Clear 7 1027 60 8000 4.1 130 07:58 20.12.2019
2296 Clear 7 1027 60 8000 4.1 130 07:40 20.12.2019
2297 Clear 7 1027 60 8000 4.1 130 07:19 20.12.2019
2298 Clear 4 1027 60 8000 4.1 130 06:50 20.12.2019
2299 Clear 4 1027 65 8000 2.1 130 06:31 20.12.2019
2300 Clear 5 1027 60 8000 2.1 130 05:52 20.12.2019
2301 Clear 5 1027 60 8000 2.1 130 05:34 20.12.2019
2302 Clear 7 1027 39 8000 2.6 130 03:57 20.12.2019
2303 Clear 9 1027 39 8000 2.6 130 03:29 20.12.2019
2304 Clear 9 1027 39 8000 2.6 130 02:41 20.12.2019
2305 Clear 7 1027 39 8000 2.6 130 01:47 20.12.2019
2306 Clear 7 1027 39 8000 2.6 130 01:29 20.12.2019
2307 Clear 7 1028 36 8000 2.6 130 00:42 20.12.2019
2308 Clear 7 1028 36 8000 2.6 130 00:20 20.12.2019
2309 Clear 7 1028 36 8000 2.6 130 23:43 19.12.2019
2310 Clear 7 1028 49 8000 1.5 100 23:24 19.12.2019
2311 Clear 7 1028 49 8000 1.5 100 22:59 19.12.2019
2312 Clear 8 1028 49 8000 1.5 100 22:36 19.12.2019
2313 Clear 7 1028 49 8000 1.5 100 22:18 19.12.2019
2314 Clear 7 1028 49 8000 1.5 100 22:18 19.12.2019
2315 Clear 7 1028 49 8000 1.5 100 21:55 19.12.2019
2316 Clear 7 1028 49 8000 1.5 100 21:37 19.12.2019
2317 Clear 7 1028 49 8000 1.5 100 21:18 19.12.2019
2318 Clear 8 1029 45 8000 2.1 110 20:55 19.12.2019
2319 Clear 8 1029 45 8000 2.1 110 20:36 19.12.2019
2320 Clear 8 1029 45 8000 2.1 110 20:18 19.12.2019
2321 Clear 8 1028 48 6000 3.6 80 19:54 19.12.2019
2322 Clear 8 1028 48 6000 3.6 80 19:54 19.12.2019
2323 Clear 9 1029 49 8000 2.1 110 19:36 19.12.2019
2324 Clear 9 1029 49 8000 2.1 110 19:18 19.12.2019
2325 Clear 9 1029 35 7000 2.1 110 18:41 19.12.2019
2326 Clear 9 1029 35 7000 2.1 110 18:22 19.12.2019
2327 Clear 12 1028 39 6000 4.1 70 17:57 19.12.2019
2328 Clear 11 1028 43 7000 2.1 110 17:39 19.12.2019
2329 Clear 11 1028 43 7000 2.1 110 17:19 19.12.2019
2330 Clear 13 1028 31 7000 2.1 110 16:57 19.12.2019
2331 Clear 13 1028 31 7000 2.1 110 16:39 19.12.2019
2332 Clear 13 1028 31 7000 2.1 110 16:21 19.12.2019
2333 Clear 17 1028 31 7000 2.1 110 15:59 19.12.2019
2334 Clear 17 1028 31 7000 2.1 110 15:39 19.12.2019
2335 Clear 17 1028 31 7000 2.1 110 15:20 19.12.2019
2336 Clear 17 1028 31 7000 2.1 110 15:20 19.12.2019
2337 Clear 17 1028 29 7000 2.6 110 14:59 19.12.2019
2338 Clear 17 1028 29 7000 2.6 110 14:41 19.12.2019
2339 Clear 17 1028 29 7000 2.6 110 14:19 19.12.2019
2340 Clear 17 1028 25 7000 3.6 100 13:57 19.12.2019
2341 Clear 17 1028 25 7000 3.6 100 13:37 19.12.2019
2342 Clear 17 1028 25 7000 3.6 100 13:18 19.12.2019
2343 Clear 17 1029 31 7000 3.6 100 12:55 19.12.2019
2344 Clear 17 1029 31 7000 3.6 100 12:55 19.12.2019
2345 Clear 17 1029 31 7000 3.6 100 12:37 19.12.2019
2346 Clear 17 1029 31 7000 3.6 100 12:18 19.12.2019
2347 Clear 17 1029 31 7000 3.6 100 12:18 19.12.2019
2348 Clear 17 1029 31 7000 3.6 100 12:18 19.12.2019
2349 Clear 16 1029 33 7000 3.6 100 11:57 19.12.2019
2350 Clear 16 1029 33 7000 3.6 100 11:38 19.12.2019
2351 Clear 16 1029 33 7000 3.6 100 11:18 19.12.2019
2352 Clear 16 1030 30 6000 4.1 100 10:55 19.12.2019
2353 Clear 16 1030 30 6000 4.1 100 10:36 19.12.2019
2354 Clear 16 1030 30 6000 4.1 100 10:18 19.12.2019
2355 Clear 16 1030 30 6000 4.1 100 10:18 19.12.2019
2356 Clear 16 1030 30 6000 4.1 100 10:18 19.12.2019
2357 Dust 12 1031 53 3000 1.5 50 09:38 19.12.2019
2358 Dust 12 1031 53 3000 1.5 50 09:20 19.12.2019
2359 Dust 12 1031 53 3000 1.5 50 09:20 19.12.2019
2360 Dust 12 1031 53 3000 1.5 50 09:20 19.12.2019
2361 Dust 12 1031 53 3000 1.5 50 09:20 19.12.2019
2362 Haze 10 1031 61 3000 4.18 125 08:58 19.12.2019
2363 Haze 10 1031 61 3000 4.18 125 08:40 19.12.2019
2364 Haze 10 1031 61 3000 2.43 119 08:19 19.12.2019
2365 Haze 7 1031 70 2000 1.5 70 07:57 19.12.2019
2366 Haze 7 1031 70 2000 1.5 70 07:38 19.12.2019
2367 Haze 7 1031 70 2000 1.5 70 07:19 19.12.2019
2368 Haze 5 1030 70 3000 2.43 119 06:49 19.12.2019
2369 Haze 5 1030 70 3000 2.43 119 06:29 19.12.2019
2370 Haze 4 1030 75 3000 2.43 119 05:55 19.12.2019
2371 Haze 4 1030 75 5000 2.43 119 05:33 19.12.2019
2372 Haze 5 1030 75 5000 2.44 125 04:51 19.12.2019
2373 Haze 5 1029 81 5000 1 260 03:21 19.12.2019
2374 Haze 5 1029 75 5000 2.87 117 02:22 19.12.2019
2375 Haze 6 1030 70 4000 2.87 117 01:22 19.12.2019
2376 Haze 5 1029 70 4000 2.96 120 00:43 19.12.2019
2377 Haze 5 1029 70 4000 2.96 120 00:24 19.12.2019
2378 Haze 6 1030 70 4000 2.96 120 23:57 18.12.2019
2379 Haze 6 1030 70 4000 2.96 120 23:38 18.12.2019
2380 Haze 6 1030 70 4000 2.92 86 23:18 18.12.2019
2381 Haze 7 1030 70 4000 2.92 86 22:55 18.12.2019
2382 Haze 7 1030 70 4000 2.92 86 22:37 18.12.2019
2383 Haze 7 1030 70 4000 2.92 86 22:19 18.12.2019
2384 Haze 7 1030 61 4000 2.92 86 21:56 18.12.2019
2385 Haze 7 1030 61 4000 2.92 86 21:38 18.12.2019
2386 Haze 7 1030 61 4000 2.92 86 21:19 18.12.2019
2387 Haze 8 1030 61 5000 1 160 20:55 18.12.2019
2388 Haze 8 1030 61 5000 1 160 20:37 18.12.2019
2389 Haze 8 1030 61 5000 1 160 20:19 18.12.2019
2390 Haze 10 1030 57 5000 0.5 180 19:55 18.12.2019
2391 Haze 10 1030 57 5000 0.5 180 19:37 18.12.2019
2392 Haze 10 1030 57 5000 0.5 180 19:18 18.12.2019
2393 Haze 10 1030 57 5000 0.5 180 19:18 18.12.2019
2394 Haze 10 1029 53 5000 0.97 165 18:44 18.12.2019
2395 Haze 10 1029 53 5000 0.97 165 18:25 18.12.2019
2396 Haze 12 1029 54 5000 1.5 150 17:57 18.12.2019
2397 Haze 12 1029 54 5000 1.5 150 17:39 18.12.2019
2398 Haze 12 1029 54 5000 1.5 150 17:19 18.12.2019
2399 Haze 12 1029 54 5000 1.5 150 17:19 18.12.2019
2400 Clear 13 1029 54 6000 2.1 80 16:57 18.12.2019
2401 Haze 14 1029 50 4000 1.5 70 16:38 18.12.2019
2402 Haze 14 1029 50 4000 1.5 70 16:20 18.12.2019
2403 Haze 16 1029 38 5000 2.1 60 15:55 18.12.2019
2404 Haze 16 1029 38 5000 2.1 60 15:37 18.12.2019
2405 Haze 16 1029 38 5000 2.1 60 15:37 18.12.2019
2406 Haze 16 1029 38 5000 2.1 60 15:19 18.12.2019
2407 Haze 17 1028 38 5000 0.88 19 14:42 18.12.2019
2408 Haze 17 1028 38 5000 0.67 149 14:22 18.12.2019
2409 Haze 17 1028 36 5000 0.67 149 13:57 18.12.2019
2410 Haze 17 1028 36 5000 0.67 149 13:39 18.12.2019
2411 Haze 17 1028 36 5000 0.67 149 13:20 18.12.2019
2412 Haze 17 1028 45 5000 0.44 180 12:59 18.12.2019
2413 Haze 17 1028 45 5000 0.44 180 12:39 18.12.2019
2414 Haze 17 1028 45 5000 0.44 180 12:20 18.12.2019
2415 Haze 15 1029 51 5000 2.6 50 11:56 18.12.2019
2416 Haze 15 1029 51 5000 2.6 50 11:38 18.12.2019
2417 Haze 15 1029 51 5000 2.6 50 11:20 18.12.2019
2418 Haze 14 1029 51 5000 1.81 152 10:57 18.12.2019
2419 Haze 14 1029 51 5000 1.81 152 10:39 18.12.2019
2420 Haze 14 1029 51 5000 1.81 152 10:20 18.12.2019
2421 Haze 11 1030 62 5000 2.1 60 09:57 18.12.2019
2422 Haze 11 1030 62 5000 2.1 60 09:19 18.12.2019
2423 Smoke 8 1030 66 5000 1.5 40 08:42 18.12.2019
2424 Smoke 8 1030 66 5000 1.5 40 08:42 18.12.2019
2425 Smoke 7 1030 76 3000 1.81 152 08:24 18.12.2019
2426 Smoke 5 1029 87 2500 1.5 240 07:57 18.12.2019
2427 Smoke 5 1029 87 2500 1.5 240 07:39 18.12.2019
2428 Smoke 5 1029 87 2500 1.5 240 07:19 18.12.2019
2429 Mist 4 1028 93 3000 1.08 125 06:51 18.12.2019
2430 Mist 4 1028 93 3000 1.08 125 06:23 18.12.2019
2431 Mist 4 1028 93 3000 1.5 220 05:34 18.12.2019
2432 Mist 4 1027 93 4000 0.95 298 03:49 18.12.2019
2433 Mist 5 1027 93 4000 0.95 298 02:46 18.12.2019
2434 Mist 5 1027 93 4000 0.95 298 02:27 18.12.2019
2435 Mist 6 1027 93 4000 1.82 319 01:44 18.12.2019
2436 Mist 6 1027 93 4000 1.86 319 01:25 18.12.2019
2437 Mist 6 1027 93 4000 1.86 319 00:55 18.12.2019
2438 Mist 6 1027 93 4000 1.86 319 00:36 18.12.2019
2439 Mist 6 1027 93 4000 1.86 319 00:18 18.12.2019
2440 Mist 6 1027 87 4000 1.86 319 23:43 17.12.2019
2441 Mist 6 1027 87 4000 1.86 319 23:23 17.12.2019
2442 Haze 7 1027 81 4000 2.6 130 22:57 17.12.2019
2443 Haze 7 1027 81 4000 2.6 130 22:39 17.12.2019
2444 Haze 7 1027 81 4000 2.6 130 22:20 17.12.2019
2445 Haze 7 1027 81 4000 3.09 329 21:57 17.12.2019
2446 Haze 7 1027 81 4000 3.09 329 21:39 17.12.2019
2447 Haze 7 1027 81 4000 3.09 329 21:20 17.12.2019
2448 Haze 7 1027 81 4000 3.09 329 21:20 17.12.2019
2449 Haze 7 1027 81 4000 3.09 329 21:20 17.12.2019
2450 Haze 9 1027 81 4000 3.09 329 20:59 17.12.2019
2451 Haze 9 1027 81 4000 3.09 329 20:40 17.12.2019
2452 Haze 9 1027 81 4000 3.75 336 20:19 17.12.2019
2453 Haze 10 1027 76 5000 2.1 290 19:59 17.12.2019
2454 Haze 10 1027 76 5000 2.1 290 19:41 17.12.2019
2455 Haze 10 1027 76 5000 2.1 290 19:20 17.12.2019
2456 Haze 10 1027 76 5000 2.1 290 18:57 17.12.2019
2457 Haze 10 1027 76 5000 2.1 290 18:39 17.12.2019
2458 Haze 10 1027 76 5000 2.1 290 18:20 17.12.2019
2459 Haze 11 1026 71 5000 2.1 290 17:55 17.12.2019
2460 Haze 11 1026 71 5000 2.1 290 17:37 17.12.2019
2461 Haze 11 1026 71 5000 2.1 290 17:18 17.12.2019
2462 Haze 13 1025 50 5000 2.6 310 16:55 17.12.2019
2463 Haze 13 1025 50 5000 2.6 310 16:55 17.12.2019
2464 Haze 13 1025 50 5000 2.6 310 16:37 17.12.2019
2465 Haze 13 1025 50 5000 2.6 310 16:18 17.12.2019
2466 Haze 13 1025 50 5000 2.6 310 16:18 17.12.2019
2467 Haze 15 1025 44 5000 2.6 280 15:54 17.12.2019
2468 Haze 15 1025 44 5000 2.6 280 15:36 17.12.2019
2469 Haze 15 1025 44 5000 2.6 280 15:18 17.12.2019
2470 Haze 15 1024 41 5000 3.6 340 14:54 17.12.2019
2471 Haze 15 1024 41 5000 3.6 340 14:36 17.12.2019
2472 Haze 15 1024 41 5000 3.6 340 14:18 17.12.2019
2473 Haze 17 1025 33 5000 3.6 260 13:54 17.12.2019
2474 Haze 17 1025 33 5000 3.6 260 13:36 17.12.2019
2475 Haze 17 1025 34 5000 3.6 260 13:18 17.12.2019
2476 Haze 16 1024 34 5000 3.14 306 12:39 17.12.2019
2477 Haze 16 1024 34 5000 3.14 306 12:19 17.12.2019
2478 Haze 14 1025 47 5000 3.14 306 11:59 17.12.2019
2479 Haze 14 1025 47 5000 3.14 306 11:37 17.12.2019
2480 Haze 14 1025 47 5000 3.14 306 11:37 17.12.2019
2481 Haze 14 1025 47 5000 2.77 302 11:19 17.12.2019
2482 Haze 13 1025 44 5000 2.77 302 10:59 17.12.2019
2483 Haze 13 1025 44 5000 2.77 302 10:40 17.12.2019
2484 Haze 13 1025 44 5000 2.77 302 10:21 17.12.2019
2485 Haze 11 1026 50 5000 2.77 302 09:59 17.12.2019
2486 Haze 11 1026 50 5000 2.77 302 09:41 17.12.2019
2487 Haze 11 1026 50 5000 2.77 302 09:20 17.12.2019
2488 Haze 8 1026 61 4000 2.77 302 08:56 17.12.2019
2489 Haze 8 1026 61 4000 2.77 302 08:38 17.12.2019
2490 Haze 8 1026 61 4000 1.59 325 08:19 17.12.2019
2491 Smoke 6 1025 75 4000 1.59 325 07:46 17.12.2019
2492 Smoke 6 1025 75 4000 1.59 325 07:26 17.12.2019
2493 Haze 5 1024 70 4000 2.1 240 06:56 17.12.2019
2494 Haze 5 1024 70 5000 2.1 230 06:35 17.12.2019
2495 Haze 5 1024 61 5000 1.5 210 05:53 17.12.2019
2496 Haze 8 1024 61 5000 1.5 210 05:35 17.12.2019
2497 Haze 5 1023 66 5000 2.1 230 04:30 17.12.2019
2498 Haze 8 1023 75 5000 1.72 316 02:34 17.12.2019
2499 Haze 8 1023 81 5000 1.81 297 01:55 17.12.2019
2500 Haze 7 1023 81 5000 1.8 303 00:59 17.12.2019
2501 Haze 7 1023 81 5000 1.8 303 00:38 17.12.2019
2502 Haze 7 1023 81 5000 1.8 303 00:19 17.12.2019
2503 Haze 7 1023 81 5000 1.8 303 23:41 16.12.2019
2504 Haze 7 1023 81 5000 1.31 342 23:19 16.12.2019
2505 Haze 7 1023 81 5000 1.31 342 23:19 16.12.2019
2506 Haze 7 1023 81 5000 1.31 342 23:19 16.12.2019
2507 Haze 8 1023 76 5000 1.31 342 22:56 16.12.2019
2508 Haze 8 1023 76 5000 1.31 342 22:37 16.12.2019
2509 Haze 8 1023 76 5000 1.31 342 22:19 16.12.2019
2510 Haze 8 1023 76 5000 1.31 342 22:19 16.12.2019
2511 Haze 8 1023 76 5000 1.31 342 22:19 16.12.2019
2512 Haze 8 1023 76 5000 1.31 342 21:55 16.12.2019
2513 Haze 8 1023 76 5000 1.31 342 21:55 16.12.2019
2514 Haze 8 1023 76 5000 1.31 342 21:37 16.12.2019
2515 Haze 8 1023 76 5000 1.31 342 21:19 16.12.2019
2516 Haze 9 1023 71 5000 1.31 342 20:57 16.12.2019
2517 Haze 9 1023 71 5000 1.31 342 20:37 16.12.2019
2518 Haze 9 1023 71 5000 1.81 53 20:19 16.12.2019
2519 Haze 10 1023 66 5000 1.81 53 19:56 16.12.2019
2520 Haze 10 1023 66 5000 1.81 53 19:37 16.12.2019
2521 Haze 10 1023 66 5000 1.81 53 19:19 16.12.2019
2522 Haze 10 1023 66 5000 2.1 30 18:56 16.12.2019
2523 Haze 10 1023 66 5000 2.1 30 18:56 16.12.2019
2524 Haze 10 1023 66 5000 2.1 30 18:38 16.12.2019
2525 Haze 10 1023 66 5000 2.1 30 18:19 16.12.2019
2526 Haze 11 1022 62 5000 2.1 30 17:57 16.12.2019
2527 Haze 11 1022 62 5000 2.1 30 17:38 16.12.2019
2528 Haze 11 1022 62 5000 2.1 30 17:20 16.12.2019
2529 Haze 13 1022 50 5000 0.38 327 16:57 16.12.2019
2530 Haze 13 1022 50 5000 0.38 327 16:38 16.12.2019
2531 Haze 13 1022 50 5000 0.38 327 16:19 16.12.2019
2532 Haze 14 1022 47 5000 2.1 300 15:57 16.12.2019
2533 Haze 14 1022 47 5000 2.1 300 15:38 16.12.2019
2534 Haze 14 1022 47 5000 2.1 300 15:20 16.12.2019
2535 Haze 15 1022 47 5000 1.5 360 14:55 16.12.2019
2536 Haze 15 1022 47 5000 1.5 360 14:37 16.12.2019
2537 Haze 15 1022 47 5000 1.5 360 14:19 16.12.2019
2538 Haze 15 1021 51 5000 2.54 283 13:56 16.12.2019
2539 Haze 15 1021 51 5000 2.54 283 13:37 16.12.2019
2540 Haze 15 1021 51 5000 2.51 308 13:19 16.12.2019
2541 Haze 14 1021 50 5000 1 300 12:57 16.12.2019
2542 Haze 14 1021 50 5000 1 300 12:39 16.12.2019
2543 Haze 14 1021 50 5000 1 300 12:18 16.12.2019
2544 Clouds 13 1022 50 6000 2.16 349 11:58 16.12.2019
2545 Clouds 13 1022 50 6000 2.51 308 11:40 16.12.2019
2546 Haze 14 1022 50 5000 2.1 80 11:19 16.12.2019
2547 Haze 14 1022 50 5000 2.1 80 11:19 16.12.2019
2548 Haze 13 1023 54 5000 1 60 10:56 16.12.2019
2549 Haze 13 1023 54 5000 1 60 10:37 16.12.2019
2550 Haze 13 1023 54 5000 1 60 10:19 16.12.2019
2551 Haze 12 1022 62 5000 1.5 70 09:45 16.12.2019
2552 Haze 12 1022 62 5000 1.5 70 09:26 16.12.2019
2553 Haze 10 1022 61 5000 0.82 170 08:41 16.12.2019
2554 Haze 10 1022 61 5000 1 293 08:21 16.12.2019
2555 Smoke 9 1021 70 5000 1 293 07:59 16.12.2019
2556 Smoke 9 1021 70 5000 1 293 07:41 16.12.2019
2557 Smoke 9 1021 70 5000 1 293 07:20 16.12.2019
2558 Haze 4 1021 59 5000 1 293 06:41 16.12.2019
2559 Haze 6 1021 59 5000 1 293 06:22 16.12.2019
2560 Haze 5 1021 75 5000 1 293 05:47 16.12.2019
2561 Haze 5 1021 75 5000 1 293 05:29 16.12.2019
2562 Haze 6 1020 61 5000 1.5 260 04:21 16.12.2019
2563 Haze 8 1019 61 5000 2.48 354 01:58 16.12.2019
2564 Haze 8 1019 61 5000 2.48 354 01:40 16.12.2019
2565 Haze 8 1019 65 5000 2.75 339 00:42 16.12.2019
2566 Haze 8 1019 65 5000 2.75 339 00:24 16.12.2019
2567 Haze 8 1019 61 5000 1.5 200 23:58 15.12.2019
2568 Haze 8 1019 61 5000 1.5 200 23:38 15.12.2019
2569 Haze 8 1019 61 5000 1.5 200 23:19 15.12.2019
2570 Haze 9 1019 61 5000 1 280 22:55 15.12.2019
2571 Haze 9 1019 61 5000 1 280 22:37 15.12.2019
2572 Haze 9 1019 61 5000 1 280 22:18 15.12.2019
2573 Haze 9 1019 61 5000 1 280 22:18 15.12.2019
2574 Haze 9 1019 57 5000 3.84 26 21:55 15.12.2019
2575 Haze 9 1019 57 5000 3.84 26 21:37 15.12.2019
2576 Haze 9 1019 57 5000 3.84 26 21:19 15.12.2019
2577 Haze 10 1019 61 5000 3.84 26 20:56 15.12.2019
2578 Haze 10 1019 61 5000 3.84 26 20:37 15.12.2019
2579 Haze 10 1019 61 5000 0.48 75 20:18 15.12.2019
2580 Haze 11 1019 61 4000 1.5 210 19:56 15.12.2019
2581 Haze 11 1019 61 4000 1.5 210 19:38 15.12.2019
2582 Haze 11 1019 61 4000 1.5 210 19:18 15.12.2019
2583 Haze 10 1018 57 4000 3.13 334 18:56 15.12.2019
2584 Haze 10 1018 57 4000 0.48 75 18:56 15.12.2019
2585 Haze 10 1018 57 4000 0.48 75 18:38 15.12.2019
2586 Haze 10 1018 57 4000 0.48 75 18:18 15.12.2019
2587 Haze 10 1018 57 4000 0.48 75 18:18 15.12.2019
2588 Haze 11 1018 57 4000 3.13 334 17:56 15.12.2019
2589 Haze 11 1018 57 4000 0.48 75 17:37 15.12.2019
2590 Haze 11 1018 57 4000 1.35 2 17:18 15.12.2019
2591 Haze 12 1017 57 3000 1.5 360 16:55 15.12.2019
2592 Haze 12 1017 57 3000 1.5 360 16:55 15.12.2019
2593 Haze 12 1017 57 3000 1.5 360 16:37 15.12.2019
2594 Clouds 13 1017 54 6000 2.1 350 16:19 15.12.2019
2595 Haze 14 1017 47 3000 1.5 60 15:54 15.12.2019
2596 Haze 14 1017 47 3000 1.5 60 15:36 15.12.2019
2597 Haze 14 1017 47 3000 1.5 60 15:18 15.12.2019
2598 Haze 15 1017 50 3000 1.5 360 14:55 15.12.2019
2599 Haze 15 1017 50 3000 1.5 360 14:36 15.12.2019
2600 Haze 15 1017 50 3000 1.5 360 14:18 15.12.2019
2601 Haze 14 1016 54 3000 0.32 94 13:54 15.12.2019
2602 Haze 14 1016 54 3000 0.31 66 13:36 15.12.2019
2603 Haze 14 1016 54 3000 0.31 66 13:18 15.12.2019
2604 Haze 14 1016 54 3000 0.31 66 13:18 15.12.2019
2605 Haze 13 1017 53 3000 2.6 50 12:55 15.12.2019
2606 Haze 13 1017 53 3000 2.6 50 12:37 15.12.2019
2607 Haze 13 1017 53 3000 2.6 50 12:19 15.12.2019
2608 Haze 14 1016 46 3000 2.6 60 11:38 15.12.2019
2609 Haze 14 1016 46 3000 2.6 60 11:19 15.12.2019
2610 Haze 14 1017 30 5000 2.6 180 10:58 15.12.2019
2611 Haze 14 1017 30 5000 2.6 180 10:40 15.12.2019
2612 Haze 14 1017 30 5000 2.6 180 10:19 15.12.2019
2613 Haze 13 1017 33 4000 3.28 131 09:58 15.12.2019
2614 Haze 13 1017 33 4000 3.28 131 09:37 15.12.2019
2615 Haze 13 1017 33 4000 3.28 131 09:37 15.12.2019
2616 Haze 13 1017 33 4000 3.28 131 09:19 15.12.2019
2617 Haze 10 1017 57 3000 3.28 131 08:55 15.12.2019
2618 Haze 10 1017 57 3000 3.28 131 08:37 15.12.2019
2619 Haze 10 1017 57 3000 1.23 131 08:19 15.12.2019
2620 Haze 7 1017 44 5000 1.23 131 07:53 15.12.2019
2621 Haze 6 1017 70 2000 1.23 131 07:31 15.12.2019
2622 Haze 3 1017 75 3000 1.23 131 06:30 15.12.2019
2623 Haze 3 1016 75 4000 1.23 131 05:49 15.12.2019
2624 Haze 3 1016 75 4000 0.96 156 05:22 15.12.2019
2625 Haze 4 1016 65 4000 0.96 156 04:22 15.12.2019
2626 Haze 5 1016 70 5000 0.96 156 02:59 15.12.2019
2627 Haze 5 1016 70 5000 0.96 156 02:32 15.12.2019
2628 Haze 4 1017 70 5000 2.6 250 01:42 15.12.2019
2629 Haze 6 1017 70 5000 2.6 250 01:19 15.12.2019
2630 Haze 6 1017 58 5000 0.46 234 00:51 15.12.2019
2631 Haze 6 1017 58 5000 0.46 234 00:33 15.12.2019
2632 Haze 6 1017 58 5000 0.46 234 23:56 14.12.2019
2633 Haze 7 1018 52 5000 0.46 234 23:38 14.12.2019
2634 Haze 7 1018 52 5000 1.73 246 23:18 14.12.2019
2635 Haze 7 1018 58 5000 1.73 246 22:56 14.12.2019
2636 Haze 7 1018 58 5000 1.73 246 22:37 14.12.2019
2637 Haze 7 1018 58 5000 1.73 246 22:18 14.12.2019
2638 Haze 7 1018 61 5000 1.73 246 21:55 14.12.2019
2639 Haze 7 1018 61 5000 1.73 246 21:37 14.12.2019
2640 Haze 7 1018 61 5000 1.73 246 21:18 14.12.2019
2641 Haze 8 1018 57 5000 1.73 246 20:42 14.12.2019
2642 Haze 8 1018 57 5000 2.79 262 20:21 14.12.2019
2643 Haze 10 1017 57 5000 2.1 200 19:59 14.12.2019
2644 Haze 10 1017 57 5000 2.1 200 19:39 14.12.2019
2645 Haze 10 1017 57 5000 2.1 200 19:21 14.12.2019
2646 Haze 10 1017 57 5000 2.1 200 19:21 14.12.2019
2647 Haze 11 1017 54 5000 2.1 200 18:57 14.12.2019
2648 Haze 11 1017 54 5000 2.1 200 18:39 14.12.2019
2649 Haze 11 1017 54 5000 2.1 200 18:21 14.12.2019
2650 Haze 11 1016 50 5000 2.6 220 17:58 14.12.2019
2651 Haze 11 1016 50 5000 2.6 220 17:40 14.12.2019
2652 Haze 11 1016 50 5000 2.6 220 17:21 14.12.2019
2653 Haze 12 1016 50 5000 2.6 230 16:41 14.12.2019
2654 Haze 12 1016 50 5000 2.6 230 16:19 14.12.2019
2655 Haze 14 1016 47 5000 4.6 240 15:56 14.12.2019
2656 Haze 14 1016 47 5000 4.6 240 15:38 14.12.2019
2657 Haze 14 1016 47 5000 4.6 240 15:19 14.12.2019
2658 Haze 14 1016 44 4000 5.1 220 14:57 14.12.2019
2659 Haze 14 1016 44 4000 5.1 220 14:37 14.12.2019
2660 Haze 14 1016 44 4000 5.1 220 14:18 14.12.2019
2661 Clouds 15 1016 38 6000 4.1 220 13:44 14.12.2019
2662 Clouds 15 1016 36 6000 4.1 220 13:19 14.12.2019
2663 Haze 15 1016 44 5000 4.1 200 12:58 14.12.2019
2664 Haze 15 1016 44 5000 4.1 200 12:40 14.12.2019
2665 Haze 15 1016 44 5000 4.1 200 12:20 14.12.2019
2666 Haze 14 1017 47 5000 4.6 170 11:58 14.12.2019
2667 Haze 14 1017 47 5000 4.6 170 11:58 14.12.2019
2668 Haze 14 1017 47 5000 4.6 170 11:39 14.12.2019
2669 Haze 14 1017 47 5000 4.6 170 11:19 14.12.2019
2670 Dust 14 1018 58 4000 3.6 200 10:57 14.12.2019
2671 Dust 14 1018 58 4000 3.6 200 10:39 14.12.2019
2672 Dust 14 1018 58 4000 3.6 200 10:20 14.12.2019
2673 Dust 11 1018 58 3500 3.6 200 09:55 14.12.2019
2674 Dust 11 1018 58 3500 3.6 200 09:37 14.12.2019
2675 Dust 11 1018 58 3500 3.6 200 09:18 14.12.2019
2676 Dust 10 1018 62 3000 3.09 216 08:42 14.12.2019
2677 Dust 10 1018 62 3000 1.63 149 08:19 14.12.2019
2678 Dust 6 1018 87 3000 1.63 149 07:44 14.12.2019
2679 Dust 6 1018 87 3000 1.63 149 07:23 14.12.2019
2680 Dust 6 1018 81 3000 1.63 149 06:56 14.12.2019
2681 Dust 6 1018 81 3000 1.63 149 06:37 14.12.2019
2682 Dust 5 1017 87 3000 1.63 149 05:57 14.12.2019
2683 Mist 5 1017 87 4000 1.26 240 04:47 14.12.2019
2684 Mist 6 1016 87 4000 1.26 240 02:31 14.12.2019
2685 Dust 7 1016 81 4000 1.5 230 01:56 14.12.2019
2686 Dust 7 1016 81 4000 1.5 230 01:37 14.12.2019
2687 Dust 8 1016 76 3500 1 220 00:47 14.12.2019
2688 Dust 8 1016 76 3500 1 220 00:27 14.12.2019
2689 Dust 8 1017 81 3500 1.5 170 23:56 13.12.2019
2690 Dust 8 1017 81 3500 1.5 170 23:37 13.12.2019
2691 Dust 8 1017 81 3500 1.5 170 23:18 13.12.2019
2692 Dust 9 1017 76 3000 1.5 240 22:40 13.12.2019
2693 Dust 9 1017 76 3000 1.5 240 22:19 13.12.2019
2694 Dust 9 1017 76 3000 2.1 280 21:56 13.12.2019
2695 Dust 9 1017 76 3000 2.1 280 21:38 13.12.2019
2696 Dust 9 1017 76 3000 2.1 280 21:20 13.12.2019
2697 Dust 10 1017 66 3000 3.1 250 20:43 13.12.2019
2698 Dust 10 1017 66 3000 2.6 230 20:24 13.12.2019
2699 Dust 10 1017 66 3000 2.6 230 19:59 13.12.2019
2700 Dust 10 1017 66 3000 2.6 230 19:41 13.12.2019
2701 Dust 10 1017 66 3000 2.6 230 19:41 13.12.2019
2702 Dust 10 1017 66 3000 2.6 230 19:23 13.12.2019
2703 Dust 10 1016 71 3000 2.1 200 18:59 13.12.2019
2704 Dust 10 1016 71 3000 2.1 200 18:41 13.12.2019
2705 Dust 10 1016 71 3000 2.1 200 18:19 13.12.2019
2706 Dust 11 1016 66 3000 2.6 240 17:57 13.12.2019
2707 Dust 11 1016 66 3000 2.6 240 17:39 13.12.2019
2708 Dust 11 1016 66 3000 2.6 240 17:18 13.12.2019
2709 Haze 12 1016 66 5000 5.1 240 16:54 13.12.2019
2710 Dust 12 1015 66 3000 4.1 250 16:36 13.12.2019
2711 Dust 12 1015 66 3000 4.1 250 16:18 13.12.2019
2712 Dust 13 1015 62 3000 3.6 260 15:40 13.12.2019
2713 Dust 13 1015 62 3000 3.6 260 15:20 13.12.2019
2714 Dust 13 1015 62 2000 6.7 240 14:56 13.12.2019
2715 Dust 13 1015 62 2000 6.7 240 14:36 13.12.2019
2716 Dust 13 1015 62 2000 6.7 240 14:18 13.12.2019
2717 Dust 13 1015 62 4000 7.7 250 13:43 13.12.2019
2718 Dust 13 1015 66 2000 4.1 230 13:23 13.12.2019
2719 Dust 13 1015 66 2000 4.1 230 12:54 13.12.2019
2720 Dust 13 1015 62 3000 6.2 230 12:36 13.12.2019
2721 Dust 13 1015 62 3000 6.2 230 12:18 13.12.2019
2722 Dust 13 1015 62 3000 6.2 230 12:18 13.12.2019
2723 Dust 12 1015 66 4000 7.7 50 11:42 13.12.2019
2724 Dust 12 1015 66 4000 7.7 50 11:24 13.12.2019
2725 Haze 11 1016 62 4000 6.2 230 10:56 13.12.2019
2726 Haze 11 1016 62 4000 6.2 230 10:38 13.12.2019
2727 Haze 11 1016 62 4000 6.2 230 10:19 13.12.2019
2728 Haze 11 1016 62 4000 5.7 230 09:42 13.12.2019
2729 Haze 11 1016 62 4000 5.7 230 09:21 13.12.2019
2730 Haze 9 1016 61 4000 5.1 240 08:45 13.12.2019
2731 Haze 9 1016 61 4000 5.1 240 08:45 13.12.2019
2732 Haze 9 1016 61 4000 5.1 240 08:26 13.12.2019
2733 Haze 9 1015 66 4000 4.1 230 07:50 13.12.2019
2734 Haze 9 1015 66 4000 4.1 230 07:26 13.12.2019
2735 Haze 9 1014 76 4000 4.1 240 06:57 13.12.2019
2736 Haze 9 1014 76 4000 4.1 240 06:32 13.12.2019
2737 Haze 9 1014 66 5000 6.2 240 05:52 13.12.2019
2738 Haze 9 1013 76 4000 5.1 240 05:33 13.12.2019
2739 Haze 9 1013 76 4000 5.1 240 04:54 13.12.2019
2740 Rain 9 1012 81 4000 6.7 240 03:52 13.12.2019
2741 Rain 9 1012 76 5000 5.1 240 02:35 13.12.2019
2742 Rain 9 1012 71 5000 5.1 240 01:54 13.12.2019
2743 Rain 9 1012 71 5000 5.1 240 01:27 13.12.2019
2744 Rain 9 1011 76 5000 8.2 240 00:47 13.12.2019
2745 Rain 9 1011 76 5000 8.2 240 00:26 13.12.2019
2746 Rain 9 1012 71 5000 7.2 240 23:42 12.12.2019
2747 Rain 9 1012 71 5000 7.2 240 23:24 12.12.2019
2748 Rain 10 1012 71 5000 6.2 250 22:56 12.12.2019
2749 Rain 10 1012 71 5000 6.2 250 22:38 12.12.2019
2750 Rain 10 1012 71 5000 6.2 250 22:38 12.12.2019
2751 Rain 10 1012 71 5000 6.2 250 22:20 12.12.2019
2752 Haze 9 1012 71 5000 6.2 250 21:56 12.12.2019
2753 Haze 9 1012 71 5000 6.2 250 21:37 12.12.2019
2754 Haze 9 1012 71 5000 6.2 250 21:19 12.12.2019
2755 Haze 9 1012 71 5000 5.1 280 20:59 12.12.2019
2756 Haze 9 1012 71 5000 5.1 280 20:40 12.12.2019
2757 Haze 9 1012 71 5000 5.1 280 20:21 12.12.2019
2758 Haze 10 1012 76 5000 5.1 250 19:56 12.12.2019
2759 Dust 10 1012 71 5000 8.2 280 19:37 12.12.2019
2760 Dust 10 1012 71 5000 8.2 280 19:18 12.12.2019
2761 Dust 11 1012 71 5000 8.2 280 18:56 12.12.2019
2762 Dust 11 1011 71 4000 8.7 280 18:37 12.12.2019
2763 Dust 11 1011 71 4000 8.7 280 18:37 12.12.2019
2764 Dust 11 1011 71 4000 8.7 280 18:19 12.12.2019
2765 Haze 11 1010 81 3000 6.7 250 17:56 12.12.2019
2766 Haze 11 1010 81 3000 6.7 250 17:38 12.12.2019
2767 Haze 11 1010 81 3000 6.7 250 17:19 12.12.2019
2768 Haze 11 1010 76 3000 6.2 280 16:55 12.12.2019
2769 Haze 11 1010 76 3000 6.2 280 16:36 12.12.2019
2770 Haze 11 1010 76 3000 6.2 280 16:18 12.12.2019
2771 Haze 13 1010 66 3000 9.3 250 15:42 12.12.2019
2772 Haze 13 1010 66 3000 9.3 250 15:20 12.12.2019
2773 Dust 15 1009 67 4000 7.2 230 14:59 12.12.2019
2774 Dust 15 1009 67 4000 7.2 230 14:38 12.12.2019
2775 Dust 15 1009 67 4000 7.2 230 14:19 12.12.2019
2776 Dust 16 1009 55 4000 8.2 230 13:57 12.12.2019
2777 Clouds 16 1009 55 6000 5.1 230 13:38 12.12.2019
2778 Clouds 16 1009 55 6000 5.1 230 13:20 12.12.2019
2779 Haze 17 1009 48 4000 2.1 210 12:57 12.12.2019
2780 Haze 17 1009 48 4000 2.1 210 12:38 12.12.2019
2781 Haze 17 1009 48 4000 2.1 210 12:38 12.12.2019
2782 Haze 17 1009 48 4000 2.1 210 12:19 12.12.2019
2783 Haze 17 1009 48 4000 2.1 210 12:19 12.12.2019
2784 Haze 16 1009 44 4000 3.1 170 11:55 12.12.2019
2785 Haze 16 1009 44 4000 3.1 170 11:37 12.12.2019
2786 Haze 16 1009 44 4000 3.1 170 11:19 12.12.2019
2787 Smoke 15 1011 62 4000 2.6 80 10:42 12.12.2019
2788 Smoke 15 1011 62 4000 2.6 80 10:24 12.12.2019
2789 Smoke 13 1012 67 3000 2.1 40 09:59 12.12.2019
2790 Smoke 13 1012 67 3000 2.1 40 09:41 12.12.2019
2791 Smoke 13 1012 67 3000 2.1 40 09:23 12.12.2019
2792 Smoke 12 1012 71 3000 1.43 174 08:56 12.12.2019
2793 Smoke 12 1012 71 3000 1.43 174 08:38 12.12.2019
2794 Smoke 12 1012 71 3000 1.43 174 08:38 12.12.2019
2795 Smoke 12 1012 71 3000 3.03 113 08:19 12.12.2019
2796 Mist 9 1012 81 3000 3.03 113 07:42 12.12.2019
2797 Mist 9 1012 81 3000 3.03 113 07:24 12.12.2019
2798 Mist 8 1012 87 3000 3.03 113 06:48 12.12.2019
2799 Mist 8 1012 87 3000 3.03 113 06:48 12.12.2019
2800 Mist 8 1012 87 3000 3.03 113 06:30 12.12.2019
2801 Mist 7 1012 87 3000 1.5 110 05:36 12.12.2019
2802 Mist 7 1012 93 3000 2.18 132 04:51 12.12.2019
2803 Mist 7 1012 93 3000 2.18 132 04:51 12.12.2019
2804 Mist 8 1013 87 4000 2.1 260 03:24 12.12.2019
2805 Mist 8 1014 87 3000 2.1 240 02:38 12.12.2019
2806 Mist 8 1014 87 3000 2.1 240 02:19 12.12.2019
2807 Mist 8 1014 93 3000 1 280 01:37 12.12.2019
2808 Mist 8 1014 93 3000 1 280 01:19 12.12.2019
2809 Mist 9 1014 93 2000 1 210 00:46 12.12.2019
2810 Mist 9 1014 93 2000 1 210 00:19 12.12.2019
2811 Mist 9 1015 93 2000 1.35 138 23:44 11.12.2019
2812 Mist 9 1015 93 2000 1.03 97 23:21 11.12.2019
2813 Mist 10 1015 87 2000 1.03 97 22:57 11.12.2019
2814 Mist 10 1015 87 2000 1.03 97 22:38 11.12.2019
2815 Mist 10 1015 87 2000 1.03 97 22:20 11.12.2019
2816 Mist 10 1016 87 2000 1.03 97 21:57 11.12.2019
2817 Mist 10 1016 87 2000 1.03 97 21:38 11.12.2019
2818 Mist 10 1016 87 2000 1.03 97 21:19 11.12.2019
2819 Dust 11 1016 81 3000 0.5 200 20:56 11.12.2019
2820 Dust 11 1016 81 3000 0.5 200 20:37 11.12.2019
2821 Dust 11 1016 81 3000 0.5 200 20:37 11.12.2019
2822 Dust 11 1016 81 3000 0.5 200 20:19 11.12.2019
2823 Dust 11 1016 93 3000 1.5 50 19:58 11.12.2019
2824 Dust 11 1016 93 3000 1.5 50 19:39 11.12.2019
2825 Dust 11 1016 93 3000 1.5 50 19:19 11.12.2019
2826 Dust 12 1016 87 3000 1.39 134 18:42 11.12.2019
2827 Dust 12 1016 87 3000 1.39 134 18:22 11.12.2019
2828 Dust 13 1015 76 3000 1.39 134 17:57 11.12.2019
2829 Dust 13 1015 76 3000 1.39 134 17:39 11.12.2019
2830 Dust 13 1015 76 3000 1.63 77 17:19 11.12.2019
2831 Dust 14 1015 71 3000 1.5 70 16:58 11.12.2019
2832 Dust 14 1015 71 3000 1.5 70 16:40 11.12.2019
2833 Dust 14 1015 71 3000 1.5 70 16:22 11.12.2019
2834 Haze 16 1015 67 3000 1.5 50 15:59 11.12.2019
2835 Haze 16 1015 67 3000 1.5 50 15:41 11.12.2019
2836 Haze 16 1015 67 3000 1.5 50 15:23 11.12.2019
2837 Haze 16 1015 67 3000 2.1 60 14:56 11.12.2019
2838 Haze 16 1015 67 3000 2.1 60 14:38 11.12.2019
2839 Haze 16 1015 67 3000 2.1 60 14:20 11.12.2019
2840 Dust 16 1015 67 3000 2.1 50 13:56 11.12.2019
2841 Dust 16 1015 67 3000 2.1 50 13:38 11.12.2019
2842 Dust 16 1015 67 3000 2.1 50 13:19 11.12.2019
2843 Clouds 15 1015 72 6000 3.1 80 12:56 11.12.2019
2844 Haze 15 1015 71 4000 2.1 40 12:38 11.12.2019
2845 Haze 15 1015 71 4000 2.1 40 12:19 11.12.2019
2846 Haze 15 1015 71 4000 2.1 40 12:19 11.12.2019
2847 Haze 15 1016 71 4000 2.1 50 11:57 11.12.2019
2848 Haze 15 1016 71 4000 2.1 50 11:38 11.12.2019
2849 Haze 15 1016 71 4000 2.1 50 11:38 11.12.2019
2850 Haze 15 1016 71 4000 2.1 50 11:18 11.12.2019
2851 Haze 15 1016 71 4000 2.1 50 11:18 11.12.2019
2852 Haze 15 1016 71 4000 2.1 50 10:55 11.12.2019
2853 Haze 15 1017 76 4000 1.5 50 10:37 11.12.2019
2854 Haze 15 1017 76 4000 1.5 50 10:19 11.12.2019
2855 Haze 13 1017 76 5000 4.85 126 09:40 11.12.2019
2856 Haze 12 1017 76 5000 4.85 126 09:21 11.12.2019
2857 Mist 11 1018 87 3000 4.85 126 08:58 11.12.2019
2858 Mist 11 1018 87 3000 4.85 126 08:38 11.12.2019
2859 Mist 11 1018 87 3000 4.01 112 08:19 11.12.2019
2860 Mist 9 1018 87 3000 4.01 112 07:55 11.12.2019
2861 Mist 9 1017 87 3000 4.01 112 07:37 11.12.2019
2862 Mist 9 1017 87 3000 4.01 112 07:18 11.12.2019
2863 Mist 6 1017 100 3000 4.01 112 06:44 11.12.2019
2864 Mist 6 1017 100 3000 4.01 112 06:22 11.12.2019
2865 Mist 7 1017 93 4000 4.01 112 05:41 11.12.2019
2866 Mist 7 1017 93 4000 3.03 118 05:20 11.12.2019
2867 Mist 7 1017 93 4000 3.03 118 04:38 11.12.2019
2868 Mist 8 1017 93 4000 3.03 118 02:49 11.12.2019
2869 Mist 8 1017 93 4000 2.49 114 01:26 11.12.2019
2870 Mist 8 1017 93 4000 2.49 114 00:49 11.12.2019
2871 Mist 8 1017 93 4000 2.49 114 00:23 11.12.2019
2872 Mist 8 1017 93 4000 2.49 114 23:58 10.12.2019
2873 Mist 8 1017 93 4000 2.49 114 23:39 10.12.2019
2874 Mist 8 1017 93 4000 1.28 113 23:21 10.12.2019
2875 Mist 9 1017 93 4000 1.28 113 22:41 10.12.2019
2876 Mist 9 1017 93 4000 1.28 113 22:22 10.12.2019
2877 Mist 9 1018 87 4000 1.28 113 21:57 10.12.2019
2878 Mist 9 1018 87 4000 1.28 113 21:39 10.12.2019
2879 Mist 9 1018 87 4000 1.28 113 21:21 10.12.2019
2880 Clouds 10 1017 93 6000 2.1 90 20:57 10.12.2019
2881 Mist 10 1017 81 4000 1.28 113 20:38 10.12.2019
2882 Mist 10 1017 81 4000 1.55 309 20:19 10.12.2019
2883 Mist 10 1017 81 4000 1.55 309 20:19 10.12.2019
2884 Mist 10 1017 81 4000 1 317 20:19 10.12.2019
2885 Mist 10 1017 81 4000 1 317 19:55 10.12.2019
2886 Haze 10 1017 81 5000 1 317 19:37 10.12.2019
2887 Haze 10 1017 81 5000 1 317 19:19 10.12.2019
2888 Haze 11 1017 81 5000 1 317 18:42 10.12.2019
2889 Haze 11 1017 81 5000 1 317 18:21 10.12.2019
2890 Haze 12 1017 76 5000 1 317 17:59 10.12.2019
2891 Haze 12 1017 76 5000 1 317 17:41 10.12.2019
2892 Haze 12 1017 76 5000 0.98 319 17:22 10.12.2019
2893 Haze 12 1016 71 5000 2.1 230 16:57 10.12.2019
2894 Haze 12 1016 71 5000 2.1 230 16:39 10.12.2019
2895 Haze 12 1016 71 5000 2.1 230 16:19 10.12.2019
2896 Haze 15 1016 62 5000 3.1 230 15:39 10.12.2019
2897 Haze 15 1016 62 5000 3.1 230 15:18 10.12.2019
2898 Clouds 15 1015 67 6000 3.1 270 14:56 10.12.2019
2899 Haze 15 1016 62 5000 2.1 260 14:38 10.12.2019
2900 Haze 15 1016 62 5000 2.1 260 14:20 10.12.2019
2901 Clouds 15 1015 62 6000 3.1 220 13:58 10.12.2019
2902 Haze 16 1015 67 5000 3.1 230 13:40 10.12.2019
2903 Haze 16 1015 67 5000 3.1 230 13:20 10.12.2019
2904 Haze 15 1015 62 5000 4.6 230 12:49 10.12.2019
2905 Haze 15 1015 62 5000 4.6 230 12:28 10.12.2019
2906 Haze 15 1016 71 5000 4.6 240 11:58 10.12.2019
2907 Haze 15 1016 71 5000 4.6 240 11:40 10.12.2019
2908 Haze 15 1016 71 5000 4.6 240 11:21 10.12.2019
2909 Clouds 14 1016 71 6000 4.6 240 10:43 10.12.2019
2910 Mist 13 1017 87 5000 5.1 210 10:24 10.12.2019
2911 Mist 12 1017 87 3000 2.1 220 09:57 10.12.2019
2912 Mist 12 1017 87 3000 2.1 220 09:39 10.12.2019
2913 Mist 12 1017 87 3000 2.1 220 09:20 10.12.2019
2914 Mist 11 1017 87 3000 1.5 200 08:58 10.12.2019
2915 Mist 11 1017 87 3000 1.5 200 08:39 10.12.2019
2916 Mist 11 1017 87 3000 1.5 200 08:21 10.12.2019
2917 Rain 11 1017 100 2000 2.6 220 07:54 10.12.2019
2918 Mist 10 1016 87 3500 1 230 07:36 10.12.2019
2919 Mist 10 1016 87 3500 1 230 07:18 10.12.2019
2920 Mist 10 1016 93 3000 2.44 232 06:42 10.12.2019
2921 Mist 10 1016 93 3000 2.44 232 06:19 10.12.2019
2922 Mist 10 1016 93 4000 2.44 232 05:51 10.12.2019
2923 Mist 10 1015 87 5000 2.6 240 04:50 10.12.2019
2924 Rain 10 1015 93 5000 1.5 220 03:31 10.12.2019
2925 Rain 11 1016 93 5000 1 250 02:36 10.12.2019
2926 Rain 11 1016 87 6000 3.6 240 01:42 10.12.2019
2927 Rain 11 1016 87 6000 3.6 240 01:19 10.12.2019
2928 Rain 11 1015 93 6000 2.6 240 00:40 10.12.2019
2929 Rain 10 1015 93 6000 2.6 240 00:19 10.12.2019
2930 Rain 10 1016 93 6000 2.6 240 23:41 09.12.2019
2931 Rain 10 1016 93 6000 2.6 240 23:41 09.12.2019
2932 Rain 10 1016 93 6000 2.6 240 23:22 09.12.2019
2933 Rain 10 1016 93 4000 1.5 220 22:58 09.12.2019
2934 Rain 11 1016 93 4000 1.5 220 22:39 09.12.2019
2935 Rain 10 1016 93 4000 1.5 220 22:19 09.12.2019
2936 Rain 10 1016 87 4000 4.1 240 21:56 09.12.2019
2937 Rain 10 1016 87 4000 4.1 240 21:38 09.12.2019
2938 Rain 10 1016 87 4000 4.1 240 21:18 09.12.2019
2939 Rain 10 1016 87 4000 5.7 280 20:56 09.12.2019
2940 Rain 10 1016 87 4000 5.7 280 20:38 09.12.2019
2941 Rain 10 1016 87 4000 5.7 280 20:20 09.12.2019
2942 Rain 11 1016 93 4000 5.7 240 19:55 09.12.2019
2943 Rain 11 1016 93 4000 5.7 240 19:37 09.12.2019
2944 Rain 11 1016 93 4000 5.7 240 19:19 09.12.2019
2945 Rain 11 1016 87 4000 7.2 260 18:56 09.12.2019
2946 Rain 11 1016 87 4000 7.2 260 18:37 09.12.2019
2947 Rain 11 1016 87 4000 7.2 260 18:19 09.12.2019
2948 Rain 11 1015 87 4000 3.1 260 17:57 09.12.2019
2949 Rain 11 1015 87 4000 3.1 260 17:38 09.12.2019
2950 Rain 11 1015 87 4000 3.1 260 17:20 09.12.2019
2951 Drizzle 10 1014 87 3500 4.1 240 16:56 09.12.2019
2952 Drizzle 10 1014 87 3500 4.1 240 16:37 09.12.2019
2953 Drizzle 10 1014 87 3500 4.1 240 16:19 09.12.2019
2954 Drizzle 11 1014 81 4000 6.7 250 15:55 09.12.2019
2955 Drizzle 11 1014 81 4000 6.7 250 15:37 09.12.2019
2956 Drizzle 11 1014 81 4000 6.7 250 15:19 09.12.2019
2957 Rain 13 1015 76 4000 6.2 250 14:42 09.12.2019
2958 Drizzle 14 1014 76 4000 5.1 250 14:19 09.12.2019
2959 Haze 14 1014 82 4000 5.1 250 13:59 09.12.2019
2960 Haze 14 1014 82 4000 5.1 250 13:39 09.12.2019
2961 Haze 14 1014 82 4000 5.1 250 13:20 09.12.2019
2962 Haze 14 1014 76 5000 7.2 220 12:58 09.12.2019
2963 Haze 14 1014 76 5000 5.1 260 12:39 09.12.2019
2964 Haze 14 1014 76 5000 5.1 260 12:21 09.12.2019
2965 Haze 14 1014 76 5000 5.1 260 11:59 09.12.2019
2966 Rain 14 1015 76 5000 4.1 240 11:39 09.12.2019
2967 Rain 14 1015 76 5000 4.1 240 11:39 09.12.2019
2968 Rain 14 1015 76 5000 4.1 240 11:21 09.12.2019
2969 Rain 13 1015 76 5000 5.1 250 10:56 09.12.2019
2970 Clouds 13 1015 76 6000 5.1 250 10:38 09.12.2019
2971 Clouds 13 1015 76 6000 5.1 250 10:19 09.12.2019
2972 Mist 13 1016 87 5000 5.1 230 09:41 09.12.2019
2973 Mist 13 1016 87 5000 5.1 230 09:23 09.12.2019
2974 Haze 12 1015 87 4000 4.1 240 08:55 09.12.2019
2975 Haze 12 1015 87 4000 4.1 240 08:37 09.12.2019
2976 Haze 12 1015 87 4000 4.1 240 08:19 09.12.2019
2977 Drizzle 11 1015 87 5000 2.6 240 07:48 09.12.2019
2978 Drizzle 11 1015 87 5000 2.6 240 07:30 09.12.2019
2979 Clouds 10 1015 87 6000 3.1 240 06:55 09.12.2019
2980 Clouds 10 1015 87 6000 3.1 240 06:29 09.12.2019
2981 Mist 10 1015 93 5000 1.5 230 05:31 09.12.2019
2982 Mist 9 1015 93 5000 2.6 240 04:58 09.12.2019
2983 Mist 9 1015 93 5000 2.6 240 04:25 09.12.2019
2984 Mist 10 1015 93 5000 3.1 240 02:28 09.12.2019
2985 Mist 11 1015 93 4000 3.1 210 01:46 09.12.2019
2986 Mist 9 1015 93 5000 3.6 260 00:57 09.12.2019
2987 Mist 9 1015 93 5000 3.6 260 00:33 09.12.2019
2988 Mist 9 1016 93 5000 1.5 180 23:55 08.12.2019
2989 Mist 9 1016 93 5000 1.5 180 23:55 08.12.2019
2990 Rain 9 1016 93 2000 1.5 180 23:37 08.12.2019
2991 Rain 9 1016 93 2000 1.5 180 23:19 08.12.2019
2992 Rain 9 1016 93 2000 2.6 290 22:56 08.12.2019
2993 Rain 9 1016 93 2000 2.6 290 22:38 08.12.2019
2994 Rain 9 1016 93 2000 2.6 290 22:18 08.12.2019
2995 Rain 9 1016 93 2000 2.6 290 21:56 08.12.2019
2996 Rain 9 1016 93 5000 2.6 220 21:37 08.12.2019
2997 Rain 9 1016 93 5000 2.6 220 21:19 08.12.2019
2998 Rain 9 1016 93 5000 2.6 220 21:19 08.12.2019
2999 Clouds 9 1016 93 6000 2.73 248 20:55 08.12.2019
3000 Clouds 9 1016 93 6000 2.73 248 20:37 08.12.2019
3001 Clouds 9 1016 93 6000 2.54 262 20:19 08.12.2019
3002 Drizzle 10 1017 93 4000 3.1 250 19:55 08.12.2019
3003 Drizzle 10 1017 93 4000 3.1 250 19:36 08.12.2019
3004 Drizzle 10 1017 93 4000 3.1 250 19:18 08.12.2019
3005 Drizzle 10 1017 93 4000 3.1 250 19:18 08.12.2019
3006 Drizzle 10 1017 93 4000 4.6 260 18:54 08.12.2019
3007 Drizzle 10 1017 93 4000 4.6 260 18:54 08.12.2019
3008 Drizzle 10 1017 93 4000 4.6 260 18:36 08.12.2019
3009 Drizzle 10 1017 93 4000 4.6 260 18:18 08.12.2019
3010 Rain 11 1017 93 5000 3.1 250 17:55 08.12.2019
3011 Rain 10 1016 81 3000 5.1 240 17:36 08.12.2019
3012 Rain 10 1016 81 3000 5.1 240 17:18 08.12.2019
3013 Haze 11 1016 81 4000 5.7 250 16:55 08.12.2019
3014 Haze 11 1016 81 4000 5.7 250 16:37 08.12.2019
3015 Haze 11 1016 81 4000 5.7 250 16:18 08.12.2019
3016 Haze 12 1016 81 4000 5.7 240 15:38 08.12.2019
3017 Haze 12 1016 81 4000 5.7 240 15:19 08.12.2019
3018 Haze 12 1016 81 4000 5.1 240 14:58 08.12.2019
3019 Haze 12 1016 81 4000 5.1 240 14:39 08.12.2019
3020 Haze 12 1016 81 4000 5.1 240 14:20 08.12.2019
3021 Mist 12 1016 87 4000 5.7 240 13:54 08.12.2019
3022 Mist 12 1016 87 4000 5.7 240 13:36 08.12.2019
3023 Mist 12 1016 87 4000 5.7 240 13:18 08.12.2019
3024 Mist 12 1016 87 4000 4.1 240 12:41 08.12.2019
3025 Mist 12 1016 87 4000 4.1 240 12:23 08.12.2019
3026 Mist 10 1017 87 3000 4.1 240 12:00 08.12.2019
3027 Mist 10 1017 87 3000 4.1 240 11:38 08.12.2019
3028 Mist 10 1017 87 3000 4.1 240 11:19 08.12.2019
3029 Drizzle 9 1018 87 2600 4.1 240 10:58 08.12.2019
3030 Drizzle 9 1018 87 2600 4.1 240 10:38 08.12.2019
3031 Drizzle 9 1018 87 2600 4.1 240 10:19 08.12.2019
3032 Rain 9 1018 87 3500 3.1 200 09:56 08.12.2019
3033 Rain 9 1018 87 3500 3.1 200 09:37 08.12.2019
3034 Rain 9 1018 87 3500 3.1 200 09:19 08.12.2019
3035 Drizzle 9 1019 93 1500 2.1 50 08:57 08.12.2019
3036 Rain 8 1018 93 2000 2.1 190 08:37 08.12.2019
3037 Rain 8 1018 93 2000 2.1 190 08:19 08.12.2019
3038 Rain 8 1018 100 1500 2.6 260 07:43 08.12.2019
3039 Rain 7 1018 87 2000 4.6 230 07:20 08.12.2019
3040 Mist 5 1018 93 2000 2.6 260 06:50 08.12.2019
3041 Mist 6 1018 93 2000 2.6 260 06:22 08.12.2019
3042 Mist 5 1017 93 3000 3.1 220 05:48 08.12.2019
3043 Mist 5 1017 93 3000 3.1 220 05:18 08.12.2019
3044 Mist 6 1017 93 4000 2.43 278 03:50 08.12.2019
3045 Mist 5 1017 93 4000 2.43 278 03:23 08.12.2019
3046 Mist 6 1017 81 4000 2.43 278 02:39 08.12.2019
3047 Mist 6 1018 87 3500 2.63 287 01:56 08.12.2019
3048 Mist 6 1018 87 3500 2.63 287 01:23 08.12.2019
3049 Mist 8 1019 87 5000 2.72 287 00:40 08.12.2019
3050 Mist 8 1019 87 5000 2.72 287 00:20 08.12.2019
3051 Mist 8 1019 87 5000 2.72 287 00:20 08.12.2019
3052 Mist 8 1019 93 5000 2.72 287 23:41 07.12.2019
3053 Mist 8 1019 93 5000 3.79 286 23:21 07.12.2019
3054 Haze 8 1019 76 5000 3.79 286 22:58 07.12.2019
3055 Haze 8 1019 76 5000 3.79 286 22:40 07.12.2019
3056 Haze 8 1019 76 5000 3.79 286 22:40 07.12.2019
3057 Haze 8 1019 76 5000 3.79 286 22:40 07.12.2019
3058 Haze 8 1019 76 5000 3.79 286 22:40 07.12.2019
3059 Haze 8 1019 76 5000 3.79 286 22:40 07.12.2019
3060 Haze 8 1019 76 5000 3.79 286 22:22 07.12.2019
3061 Haze 7 1019 81 5000 3.79 286 21:56 07.12.2019
3062 Haze 9 1019 81 5000 3.79 286 21:38 07.12.2019
3063 Haze 9 1019 81 5000 3.79 286 21:38 07.12.2019
3064 Haze 8 1019 81 5000 3.79 286 21:20 07.12.2019
3065 Haze 8 1019 87 5000 1.5 230 20:59 07.12.2019
3066 Haze 8 1019 87 5000 1.5 230 20:37 07.12.2019
3067 Haze 8 1019 87 5000 1.5 230 20:19 07.12.2019
3068 Haze 8 1019 81 5000 3.1 240 19:56 07.12.2019
3069 Haze 8 1019 81 5000 3.1 240 19:38 07.12.2019
3070 Haze 8 1019 81 5000 3.1 240 19:20 07.12.2019
3071 Haze 9 1019 76 5000 3.6 260 18:55 07.12.2019
3072 Haze 9 1019 76 5000 3.6 260 18:36 07.12.2019
3073 Haze 9 1019 76 5000 3.6 260 18:18 07.12.2019
3074 Clouds 10 1019 65 6000 3.57 291 17:55 07.12.2019
3075 Haze 10 1018 66 5000 3.6 260 17:36 07.12.2019
3076 Haze 10 1018 66 5000 3.6 260 17:18 07.12.2019
3077 Haze 12 1018 62 5000 3.1 300 16:54 07.12.2019
3078 Haze 12 1018 62 5000 3.1 300 16:36 07.12.2019
3079 Haze 12 1018 62 5000 3.1 300 16:18 07.12.2019
3080 Haze 13 1018 54 5000 5.1 310 15:40 07.12.2019
3081 Haze 13 1018 54 5000 5.1 310 15:22 07.12.2019
3082 Clouds 14 1018 58 6000 7.7 300 14:43 07.12.2019
3083 Clouds 14 1018 58 6000 7.7 300 14:19 07.12.2019
3084 Clouds 15 1018 47 6000 7.7 300 13:59 07.12.2019
3085 Clouds 15 1018 47 6000 7.7 300 13:39 07.12.2019
3086 Clouds 15 1018 47 6000 7.7 300 13:39 07.12.2019
3087 Clouds 15 1018 47 6000 7.7 300 13:39 07.12.2019
3088 Clouds 15 1018 47 6000 7.7 300 13:19 07.12.2019
3089 Clouds 14 1018 50 6000 7.2 300 12:55 07.12.2019
3090 Clouds 14 1018 50 6000 7.2 300 12:36 07.12.2019
3091 Clouds 14 1018 50 6000 7.2 300 12:18 07.12.2019
3092 Haze 14 1018 50 5000 7.2 300 11:41 07.12.2019
3093 Haze 14 1018 50 5000 7.2 300 11:41 07.12.2019
3094 Haze 14 1018 50 5000 7.2 300 11:23 07.12.2019
3095 Clouds 13 1019 47 6000 7.2 300 10:56 07.12.2019
3096 Clouds 13 1019 47 6000 7.2 300 10:36 07.12.2019
3097 Clouds 13 1019 47 6000 7.2 300 10:18 07.12.2019
3098 Haze 12 1019 58 5000 5.1 300 09:39 07.12.2019
3099 Haze 12 1019 58 5000 5.1 300 09:21 07.12.2019
3100 Haze 12 1019 58 5000 5.1 300 08:46 07.12.2019
3101 Haze 12 1019 58 5000 5.1 300 08:46 07.12.2019
3102 Haze 11 1019 62 5000 4.6 270 08:25 07.12.2019
3103 Haze 11 1019 62 5000 4.6 270 08:25 07.12.2019
3104 Haze 11 1019 62 5000 4.6 270 08:25 07.12.2019
3105 Haze 11 1019 62 5000 4.6 270 08:25 07.12.2019
3106 Haze 8 1019 76 5000 3.1 250 07:53 07.12.2019
3107 Haze 8 1019 76 5000 3.1 250 07:53 07.12.2019
3108 Mist 8 1019 93 5000 0.98 295 07:29 07.12.2019
3109 Haze 6 1019 75 5000 3.1 260 06:53 07.12.2019
3110 Haze 6 1019 75 5000 3.1 260 06:53 07.12.2019
3111 Haze 6 1019 75 5000 3.1 260 06:28 07.12.2019
3112 Haze 6 1018 75 5000 1 280 05:50 07.12.2019
3113 Haze 6 1018 81 5000 1.5 350 04:48 07.12.2019
3114 Haze 6 1018 81 5000 1.5 350 04:48 07.12.2019
3115 Haze 7 1018 75 5000 1.5 350 03:51 07.12.2019
3116 Haze 7 1018 75 5000 1.5 340 02:47 07.12.2019
3117 Haze 7 1018 75 5000 1.5 340 02:18 07.12.2019
3118 Clear 7 1018 81 6000 2.6 300 01:25 07.12.2019
3119 Clear 8 1018 76 6000 4.1 290 00:42 07.12.2019
3120 Clear 8 1018 76 6000 4.1 290 00:18 07.12.2019
3121 Clear 8 1019 76 6000 4.6 290 23:45 06.12.2019
3122 Clear 8 1019 76 6000 4.6 290 23:23 06.12.2019
3123 Clouds 9 1018 87 6000 4.1 270 22:58 06.12.2019
3124 Clouds 9 1018 87 6000 4.1 270 22:58 06.12.2019
3125 Clouds 9 1019 71 6000 3.6 290 22:37 06.12.2019
3126 Clouds 9 1019 71 6000 3.6 290 22:18 06.12.2019
3127 Clear 9 1019 76 6000 4.1 300 21:56 06.12.2019
3128 Clear 9 1019 76 6000 4.1 300 21:37 06.12.2019
3129 Clear 9 1019 76 6000 4.1 300 21:19 06.12.2019
3130 Clear 10 1019 66 6000 3.1 300 20:42 06.12.2019
3131 Clear 10 1019 66 6000 3.1 300 20:22 06.12.2019
3132 Clear 10 1019 76 8000 3.1 280 19:57 06.12.2019
3133 Clear 10 1019 76 8000 3.1 280 19:38 06.12.2019
3134 Clear 10 1019 76 8000 3.1 280 19:20 06.12.2019
3135 Clouds 10 1019 87 6000 3.1 280 18:44 06.12.2019
3136 Clouds 11 1019 76 7000 2.1 290 18:23 06.12.2019
3137 Clouds 11 1019 71 6000 3.1 300 17:58 06.12.2019
3138 Clouds 12 1018 76 7000 3.1 320 17:40 06.12.2019
3139 Clouds 12 1018 76 7000 3.1 320 17:22 06.12.2019
3140 Clouds 12 1018 66 7000 6.2 270 16:59 06.12.2019
3141 Clouds 12 1018 66 7000 6.2 270 16:40 06.12.2019
3142 Clouds 12 1018 66 7000 6.2 270 16:21 06.12.2019
3143 Clouds 13 1018 54 7000 7.2 290 15:56 06.12.2019
3144 Clouds 13 1018 54 7000 7.2 290 15:38 06.12.2019
3145 Clouds 13 1018 54 7000 7.2 290 15:38 06.12.2019
3146 Clouds 13 1018 54 7000 7.2 290 15:18 06.12.2019
3147 Clouds 13 1018 54 7000 7.2 290 15:18 06.12.2019
3148 Clouds 14 1018 50 7000 6.2 290 14:41 06.12.2019
3149 Clouds 14 1018 50 7000 6.2 290 14:20 06.12.2019
3150 Clouds 13 1018 62 6000 5.1 290 13:58 06.12.2019
3151 Haze 13 1018 66 5000 1.5 340 13:40 06.12.2019
3152 Haze 13 1018 66 5000 1.5 340 13:22 06.12.2019
3153 Haze 13 1018 66 5000 3.1 240 12:41 06.12.2019
3154 Haze 13 1018 66 5000 3.1 240 12:22 06.12.2019
3155 Rain 12 1019 87 5000 4.1 300 11:56 06.12.2019
3156 Rain 12 1019 87 5000 4.1 300 11:37 06.12.2019
3157 Rain 12 1019 87 5000 4.1 300 11:19 06.12.2019
3158 Rain 14 1019 66 5000 5.1 240 10:42 06.12.2019
3159 Rain 14 1019 66 5000 5.1 240 10:21 06.12.2019
3160 Clouds 14 1020 66 7000 3.1 240 09:57 06.12.2019
3161 Clouds 14 1020 66 7000 3.1 240 09:37 06.12.2019
3162 Clouds 14 1020 66 7000 3.1 240 09:19 06.12.2019
3163 Clouds 13 1019 76 7000 3.1 240 08:45 06.12.2019
3164 Clouds 13 1019 76 7000 3.1 240 08:26 06.12.2019
3165 Clouds 12 1019 81 6000 3.1 240 07:44 06.12.2019
3166 Clouds 12 1019 81 6000 3.1 240 07:23 06.12.2019
3167 Mist 11 1019 81 4000 5.1 240 06:58 06.12.2019
3168 Mist 11 1019 81 4000 5.1 240 06:26 06.12.2019
3169 Mist 12 1018 81 4000 5.1 240 05:52 06.12.2019
3170 Mist 12 1018 81 4000 5.1 240 05:21 06.12.2019
3171 Haze 11 1018 76 5000 7.7 240 02:19 06.12.2019
3172 Haze 11 1018 76 5000 8.2 230 01:29 06.12.2019
3173 Haze 12 1018 66 5000 8.2 240 00:40 06.12.2019
3174 Haze 12 1018 66 5000 8.2 240 00:20 06.12.2019
3175 Haze 12 1018 71 5000 8.2 240 23:45 05.12.2019
3176 Haze 12 1018 71 5000 8.2 240 23:19 05.12.2019
3177 Haze 13 1018 71 5000 7.7 260 22:57 05.12.2019
3178 Haze 13 1018 71 5000 7.7 260 22:37 05.12.2019
3179 Haze 13 1018 71 5000 7.7 260 22:18 05.12.2019
3180 Haze 14 1019 71 5000 8.2 260 21:44 05.12.2019
3181 Haze 14 1019 71 5000 8.2 260 21:25 05.12.2019
3182 Haze 14 1019 71 5000 8.2 260 20:59 05.12.2019
3183 Haze 14 1018 76 5000 8.7 250 20:40 05.12.2019
3184 Haze 14 1018 76 5000 8.7 250 20:21 05.12.2019
3185 Haze 14 1018 76 5000 3.6 250 19:58 05.12.2019
3186 Haze 14 1018 76 5000 3.6 250 19:58 05.12.2019
3187 Haze 14 1018 76 5000 3.6 250 19:40 05.12.2019
3188 Haze 14 1018 76 5000 3.6 250 19:20 05.12.2019
3189 Haze 14 1018 71 5000 3.6 220 18:57 05.12.2019
3190 Haze 14 1018 71 5000 3.6 220 18:38 05.12.2019
3191 Haze 14 1018 71 5000 3.6 220 18:20 05.12.2019
3192 Haze 14 1018 67 5000 5.1 250 17:39 05.12.2019
3193 Haze 14 1018 67 5000 5.1 250 17:20 05.12.2019
3194 Haze 15 1017 67 5000 7.2 230 16:57 05.12.2019
3195 Haze 15 1017 67 5000 7.2 230 16:39 05.12.2019
3196 Haze 15 1017 67 5000 7.2 230 16:21 05.12.2019
3197 Haze 16 1018 62 4500 7.2 240 15:58 05.12.2019
3198 Haze 16 1018 62 4500 7.2 240 15:38 05.12.2019
3199 Haze 16 1018 62 4500 7.2 240 15:20 05.12.2019
3200 Haze 17 1018 59 5000 7.2 270 14:56 05.12.2019
3201 Haze 17 1018 59 5000 7.2 270 14:37 05.12.2019
3202 Haze 17 1018 59 5000 7.2 270 14:19 05.12.2019
3203 Haze 17 1018 59 5000 7.2 270 14:19 05.12.2019
3204 Haze 18 1017 59 3500 7.2 260 13:56 05.12.2019
3205 Haze 18 1017 59 3500 7.2 260 13:38 05.12.2019
3206 Haze 18 1018 55 5000 5.1 270 13:19 05.12.2019
3207 Clouds 18 1018 55 7000 4.6 270 12:57 05.12.2019
3208 Clouds 18 1018 55 7000 4.6 270 12:38 05.12.2019
3209 Clouds 18 1018 55 7000 4.6 270 12:20 05.12.2019
3210 Clouds 18 1018 55 7000 4.6 270 12:20 05.12.2019
3211 Haze 17 1019 55 5000 4.1 250 11:39 05.12.2019
3212 Haze 17 1019 55 5000 4.1 250 11:21 05.12.2019
3213 Haze 16 1020 62 5000 3.1 240 10:58 05.12.2019
3214 Haze 16 1020 62 5000 3.1 240 10:40 05.12.2019
3215 Haze 16 1020 62 5000 3.1 240 10:40 05.12.2019
3216 Haze 16 1020 62 5000 3.1 240 10:19 05.12.2019
3217 Haze 13 1021 62 5000 2.6 230 09:55 05.12.2019
3218 Haze 13 1021 62 5000 2.6 230 09:37 05.12.2019
3219 Haze 13 1021 62 5000 2.6 230 09:18 05.12.2019
3220 Haze 11 1021 71 5000 1.5 230 08:39 05.12.2019
3221 Haze 11 1021 71 5000 1.5 230 08:21 05.12.2019
3222 Haze 11 1021 71 5000 1.5 230 08:21 05.12.2019
3223 Haze 9 1021 76 4000 2.1 170 07:59 05.12.2019
3224 Haze 9 1021 76 4000 2.1 170 07:40 05.12.2019
3225 Haze 9 1021 76 4000 2.1 170 07:21 05.12.2019
3226 Haze 7 1020 81 4000 1.24 306 06:47 05.12.2019
3227 Haze 7 1020 81 4000 1.24 306 06:23 05.12.2019
3228 Mist 6 1021 93 3000 1.24 306 05:53 05.12.2019
3229 Mist 6 1020 87 4000 1.24 306 05:24 05.12.2019
3230 Mist 7 1021 87 4000 2.17 320 04:37 05.12.2019
3231 Mist 6 1020 87 4000 2.17 320 03:33 05.12.2019
3232 Mist 6 1020 87 4000 2.17 320 02:41 05.12.2019
3233 Mist 6 1020 87 4000 2.24 343 02:21 05.12.2019
3234 Mist 9 1020 87 4000 2.24 343 01:50 05.12.2019
3235 Mist 8 1020 87 4000 2.52 338 01:23 05.12.2019
3236 Mist 8 1020 87 4000 2.52 338 00:43 05.12.2019
3237 Mist 8 1020 87 4000 2.52 338 00:20 05.12.2019
3238 Mist 8 1020 87 4000 2.52 338 23:46 04.12.2019
3239 Mist 8 1020 87 4000 2.98 344 23:22 04.12.2019
3240 Mist 9 1020 81 4000 2.98 344 22:59 04.12.2019
3241 Mist 9 1020 81 4000 2.98 344 22:38 04.12.2019
3242 Mist 9 1020 81 4000 2.98 344 22:19 04.12.2019
3243 Haze 9 1020 81 4000 2.98 344 21:57 04.12.2019
3244 Haze 9 1020 81 4000 2.98 344 21:38 04.12.2019
3245 Haze 9 1020 81 4000 2.98 344 21:19 04.12.2019
3246 Haze 10 1020 71 5000 2.98 344 20:57 04.12.2019
3247 Haze 10 1020 71 5000 2.98 344 20:39 04.12.2019
3248 Haze 10 1020 71 5000 1.89 320 20:20 04.12.2019
3249 Haze 10 1020 71 5000 1.36 312 19:55 04.12.2019
3250 Haze 10 1020 71 5000 1.36 312 19:37 04.12.2019
3251 Haze 10 1020 71 5000 1.36 312 19:19 04.12.2019
3252 Haze 11 1020 66 5000 1.36 312 18:42 04.12.2019
3253 Haze 11 1020 66 5000 1.36 312 18:24 04.12.2019
3254 Haze 12 1019 66 5000 1 280 17:59 04.12.2019
3255 Haze 12 1019 66 5000 1 280 17:39 04.12.2019
3256 Haze 12 1019 66 5000 1 280 17:39 04.12.2019
3257 Haze 12 1019 66 5000 1 280 17:20 04.12.2019
3258 Haze 14 1019 51 5000 2.6 320 16:56 04.12.2019
3259 Haze 14 1019 51 5000 2.6 320 16:38 04.12.2019
3260 Haze 14 1019 51 5000 2.6 320 16:19 04.12.2019
3261 Haze 14 1019 51 5000 2.6 320 16:19 04.12.2019
3262 Haze 16 1019 54 5000 3.6 330 15:55 04.12.2019
3263 Haze 16 1019 54 5000 3.6 330 15:36 04.12.2019
3264 Haze 16 1019 54 5000 3.6 330 15:18 04.12.2019
3265 Haze 17 1019 55 4000 2.1 240 14:43 04.12.2019
3266 Haze 17 1019 55 4000 2.1 240 14:23 04.12.2019
3267 Haze 17 1019 48 5000 1.5 240 13:57 04.12.2019
3268 Haze 17 1019 48 5000 1.5 240 13:38 04.12.2019
3269 Haze 17 1019 48 5000 1.5 240 13:19 04.12.2019
3270 Haze 17 1019 45 5000 1 220 12:44 04.12.2019
3271 Haze 17 1019 45 5000 1 220 12:24 04.12.2019
3272 Haze 16 1020 51 5000 1 350 11:55 04.12.2019
3273 Haze 16 1020 51 5000 1 350 11:37 04.12.2019
3274 Haze 16 1020 51 5000 1 350 11:19 04.12.2019
3275 Haze 14 1021 54 5000 1 230 10:43 04.12.2019
3276 Haze 14 1021 54 5000 1 230 10:23 04.12.2019
3277 Haze 14 1021 54 5000 1 230 10:23 04.12.2019
3278 Haze 12 1021 58 5000 2.1 320 09:56 04.12.2019
3279 Haze 12 1021 58 5000 2.1 320 09:37 04.12.2019
3280 Haze 12 1021 58 5000 2.1 320 09:18 04.12.2019
3281 Smoke 9 1021 76 4000 1.91 289 08:40 04.12.2019
3282 Smoke 9 1021 76 4000 1.37 299 08:21 04.12.2019
3283 Smoke 7 1021 76 4000 1.52 309 07:48 04.12.2019
3284 Smoke 7 1021 76 4000 1.52 309 07:30 04.12.2019
3285 Smoke 6 1020 76 4000 1.52 309 06:43 04.12.2019
3286 Smoke 6 1020 76 4000 1.52 309 06:24 04.12.2019
3287 Smoke 5 1019 70 5000 1.52 309 05:42 04.12.2019
3288 Haze 5 1019 76 5000 1.5 190 04:30 04.12.2019
3289 Haze 7 1019 66 5000 3.1 310 02:59 04.12.2019
3290 -273 0 0 0 0 0 00:53 04.12.2019
3291 Haze 7 1020 76 5000 1 180 00:28 04.12.2019
3292 Haze 8 1020 71 5000 1 190 23:59 03.12.2019
3293 Haze 8 1020 71 5000 1 190 23:41 03.12.2019
3294 Haze 8 1020 71 5000 1 190 23:19 03.12.2019
3295 Haze 8 1020 71 5000 3.44 332 22:54 03.12.2019
3296 Haze 8 1020 71 5000 3.44 332 22:36 03.12.2019
3297 Haze 8 1020 71 5000 3.44 332 22:18 03.12.2019
3298 Haze 10 1020 62 5000 2.6 320 21:39 03.12.2019
3299 Haze 10 1020 62 5000 2.6 320 21:19 03.12.2019
3300 Haze 10 1020 66 5000 1 290 20:58 03.12.2019
3301 Haze 10 1020 66 5000 1 290 20:40 03.12.2019
3302 Haze 10 1020 66 5000 1 290 20:19 03.12.2019
3303 Haze 10 1020 66 5000 1.5 290 19:56 03.12.2019
3304 Haze 10 1020 66 5000 1.5 290 19:37 03.12.2019
3305 Haze 10 1020 66 5000 1.5 290 19:19 03.12.2019
3306 Haze 12 1019 66 5000 1.5 280 18:57 03.12.2019
3307 Haze 12 1019 66 5000 1.5 280 18:57 03.12.2019
3308 Haze 12 1019 66 5000 1.5 280 18:57 03.12.2019
3309 Haze 12 1019 66 5000 1.5 280 18:39 03.12.2019
3310 Haze 12 1019 66 5000 1.5 280 18:21 03.12.2019
3311 Haze 12 1019 66 5000 1.5 280 18:21 03.12.2019
3312 Haze 12 1019 62 5000 2.6 290 17:57 03.12.2019
3313 Haze 12 1019 62 5000 2.6 290 17:38 03.12.2019
3314 Haze 12 1019 62 5000 2.6 290 17:38 03.12.2019
3315 Haze 12 1019 62 5000 2.6 290 17:18 03.12.2019
3316 Haze 13 1019 62 5000 2.6 300 16:57 03.12.2019
3317 Haze 13 1019 62 5000 2.6 300 16:38 03.12.2019
3318 Haze 13 1019 62 5000 2.6 300 16:20 03.12.2019
3319 Clouds 14 1019 58 7000 3.1 330 15:56 03.12.2019
3320 Clouds 14 1019 58 7000 3.1 330 15:38 03.12.2019
3321 Clouds 14 1019 58 7000 3.1 330 15:18 03.12.2019
3322 Clear 15 1019 54 7000 3.1 300 14:42 03.12.2019
3323 Clear 15 1019 54 7000 3.1 300 14:20 03.12.2019
3324 Clouds 15 1019 58 7000 3.6 300 13:56 03.12.2019
3325 Clouds 15 1019 58 7000 3.6 300 13:37 03.12.2019
3326 Clouds 15 1019 58 7000 3.6 300 13:18 03.12.2019
3327 Clouds 14 1019 54 6000 2.1 330 12:41 03.12.2019
3328 Clouds 14 1019 54 6000 2.1 330 12:19 03.12.2019
3329 Clouds 13 1019 58 8000 1.98 291 11:58 03.12.2019
3330 Clouds 13 1019 58 8000 1.98 291 11:39 03.12.2019
3331 Clouds 13 1019 58 8000 1.29 297 11:21 03.12.2019
3332 Clouds 13 1020 58 8000 2.6 270 10:59 03.12.2019
3333 Clouds 13 1020 58 8000 2.6 270 10:41 03.12.2019
3334 Clouds 13 1020 58 8000 2.6 270 10:20 03.12.2019
3335 Clouds 12 1021 58 6000 2.1 340 09:56 03.12.2019
3336 Clouds 12 1021 58 6000 2.1 340 09:38 03.12.2019
3337 Clouds 12 1021 58 6000 2.1 340 09:19 03.12.2019
3338 Haze 11 1021 66 5000 1.5 30 08:41 03.12.2019
3339 Haze 11 1021 66 5000 1.5 30 08:22 03.12.2019
3340 Haze 10 1020 71 5000 1.38 315 07:57 03.12.2019
3341 Haze 10 1020 71 5000 1.38 315 07:39 03.12.2019
3342 Haze 10 1020 71 5000 1.38 315 07:20 03.12.2019
3343 Haze 8 1020 76 5000 1.38 315 06:23 03.12.2019
3344 Mist 8 1020 87 5000 1.38 315 05:58 03.12.2019
3345 Mist 8 1019 87 5000 1.91 323 04:49 03.12.2019
3346 Clear 7 1019 81 6000 1.91 323 03:39 03.12.2019
3347 Clear 7 1019 81 6000 1.91 323 03:19 03.12.2019
3348 Clear 8 1019 81 6000 1.91 323 02:47 03.12.2019
3349 Clear 8 1019 81 6000 1.91 323 02:26 03.12.2019
3350 Clear 9 1019 81 6000 3.07 324 01:42 03.12.2019
3351 Clear 8 1019 81 6000 3.07 324 01:23 03.12.2019
3352 Clouds 8 1020 81 6000 2.81 315 00:56 03.12.2019
3353 Clouds 8 1020 81 6000 2.81 315 00:37 03.12.2019
3354 Clouds 8 1020 81 6000 2.81 315 00:19 03.12.2019
3355 Clouds 8 1019 71 6000 2.81 315 23:42 02.12.2019
3356 Clouds 8 1019 71 6000 3.48 308 23:19 02.12.2019
3357 Clear 8 1020 76 6000 3.48 308 22:42 02.12.2019
3358 Clear 8 1020 76 6000 3.48 308 22:23 02.12.2019
3359 Clear 8 1020 81 6000 3.48 308 21:59 02.12.2019
3360 Clear 8 1020 81 6000 3.48 308 21:37 02.12.2019
3361 Clear 8 1020 81 6000 3.48 308 21:19 02.12.2019
3362 Clear 8 1020 81 6000 3.48 308 21:19 02.12.2019
3363 Clear 9 1019 76 6000 3.48 308 20:56 02.12.2019
3364 Clear 9 1019 76 6000 3.48 308 20:38 02.12.2019
3365 Clouds 9 1019 76 6000 5.19 307 20:20 02.12.2019
3366 Clouds 10 1019 76 6000 3.1 320 19:55 02.12.2019
3367 Clouds 10 1019 76 6000 3.1 320 19:55 02.12.2019
3368 Clouds 10 1019 76 6000 3.1 320 19:36 02.12.2019
3369 Clouds 10 1019 76 6000 3.1 320 19:18 02.12.2019
3370 Haze 12 1019 66 5000 4.1 320 18:42 02.12.2019
3371 Haze 12 1019 66 5000 4.1 320 18:20 02.12.2019
3372 Clouds 13 1018 58 6000 5.1 320 17:58 02.12.2019
3373 Clouds 13 1018 58 6000 5.1 320 17:40 02.12.2019
3374 Clouds 13 1018 58 6000 5.1 320 17:40 02.12.2019
3375 Clouds 13 1018 58 6000 5.1 320 17:20 02.12.2019
3376 Clouds 15 1018 54 6000 6.2 290 16:54 02.12.2019
3377 Clouds 15 1018 54 6000 6.2 290 16:36 02.12.2019
3378 Clouds 15 1018 54 6000 6.2 290 16:18 02.12.2019
3379 Clouds 15 1017 51 7000 5.7 290 15:55 02.12.2019
3380 Clouds 15 1017 51 7000 5.7 290 15:36 02.12.2019
3381 Clouds 15 1017 51 7000 5.7 290 15:18 02.12.2019
3382 Clouds 16 1017 55 7000 5.1 270 14:39 02.12.2019
3383 Clouds 16 1017 55 7000 5.1 270 14:20 02.12.2019
3384 Clouds 16 1017 55 7000 5.1 270 14:20 02.12.2019
3385 Clouds 16 1017 67 8000 6.2 340 13:58 02.12.2019
3386 Clouds 16 1017 67 8000 6.2 340 13:39 02.12.2019
3387 Clouds 16 1017 67 8000 6.2 340 13:20 02.12.2019
3388 Clouds 16 1017 55 7000 6.7 240 12:57 02.12.2019
3389 Clouds 16 1017 55 7000 6.7 240 12:38 02.12.2019
3390 Clouds 16 1017 55 7000 6.7 240 12:20 02.12.2019
3391 Clouds 16 1017 59 7000 7.7 310 11:56 02.12.2019
3392 Clouds 16 1017 59 7000 7.7 310 11:37 02.12.2019
3393 Clouds 16 1017 59 7000 7.7 310 11:18 02.12.2019
3394 Clouds 16 1017 67 8000 4.6 300 10:55 02.12.2019
3395 Clouds 16 1017 67 8000 4.6 300 10:37 02.12.2019
3396 Rain 15 1017 62 7000 8.2 270 10:18 02.12.2019
3397 Clouds 15 1017 62 8000 7.7 280 09:41 02.12.2019
3398 Clouds 15 1017 62 8000 7.7 280 09:19 02.12.2019
3399 Clouds 14 1018 67 8000 7.2 280 08:57 02.12.2019
3400 Clouds 14 1018 67 8000 7.2 280 08:38 02.12.2019
3401 Clouds 14 1018 67 8000 7.2 280 08:20 02.12.2019
3402 Clouds 14 1017 76 10000 5.1 290 07:44 02.12.2019
3403 Clouds 14 1017 76 10000 5.1 290 07:21 02.12.2019
3404 Drizzle 13 1016 87 7000 3.6 310 06:56 02.12.2019
3405 Drizzle 13 1016 87 7000 3.6 310 06:37 02.12.2019
3406 Drizzle 12 1016 87 7000 3.6 310 05:34 02.12.2019
3407 Rain 12 1016 87 5000 3.1 270 04:26 02.12.2019
3408 Mist 12 1015 87 5000 3.6 250 02:53 02.12.2019
3409 Mist 12 1015 87 5000 3.6 250 02:31 02.12.2019
3410 Mist 11 1016 87 5000 4.6 240 01:26 02.12.2019
3411 Mist 11 1016 87 5000 2.6 240 00:58 02.12.2019
3412 Mist 11 1016 87 5000 2.6 240 00:25 02.12.2019
3413 Mist 11 1016 87 5000 5.1 240 23:55 01.12.2019
3414 Mist 11 1016 87 5000 5.1 240 23:37 01.12.2019
3415 Mist 11 1016 87 5000 5.1 240 23:19 01.12.2019
3416 Haze 11 1016 87 5000 2.1 230 22:55 01.12.2019
3417 Haze 11 1016 87 5000 2.1 230 22:37 01.12.2019
3418 Haze 11 1016 87 5000 2.1 230 22:18 01.12.2019
3419 Haze 12 1017 82 5000 2.6 280 21:55 01.12.2019
3420 Haze 12 1017 82 5000 2.6 280 21:37 01.12.2019
3421 Haze 12 1017 82 5000 2.6 280 21:18 01.12.2019
3422 Haze 12 1017 82 5000 2.6 290 20:56 01.12.2019
3423 Haze 12 1017 82 5000 2.6 290 20:37 01.12.2019
3424 Haze 12 1017 82 5000 2.6 290 20:19 01.12.2019
3425 Haze 13 1017 76 5000 2.6 320 19:55 01.12.2019
3426 Haze 13 1017 76 5000 2.6 320 19:36 01.12.2019
3427 Haze 13 1017 76 5000 2.6 320 19:18 01.12.2019
3428 Haze 14 1017 67 5000 5.1 290 18:55 01.12.2019
3429 Haze 14 1017 67 5000 5.1 290 18:55 01.12.2019
3430 Haze 14 1017 67 5000 5.1 290 18:36 01.12.2019
3431 Haze 14 1017 67 5000 5.1 290 18:18 01.12.2019
3432 Haze 15 1016 62 5000 4.1 290 17:55 01.12.2019
3433 Haze 15 1016 62 5000 4.1 290 17:37 01.12.2019
3434 Haze 15 1016 62 5000 4.1 290 17:19 01.12.2019
3435 Haze 16 1016 59 5000 2.6 270 16:43 01.12.2019
3436 Haze 16 1016 59 5000 2.6 270 16:23 01.12.2019
3437 Haze 18 1016 51 5000 6.2 300 15:53 01.12.2019
3438 Haze 18 1016 51 5000 6.2 300 15:33 01.12.2019
3439 Haze 19 1015 42 5000 3.1 270 14:58 01.12.2019
3440 Haze 19 1015 42 5000 3.1 270 14:58 01.12.2019
3441 Haze 19 1015 42 5000 3.1 270 14:58 01.12.2019
3442 Haze 19 1015 42 5000 3.1 270 14:37 01.12.2019
3443 Haze 19 1015 42 5000 3.1 270 14:19 01.12.2019
3444 Haze 21 1015 45 5000 2.6 340 13:40 01.12.2019
3445 Haze 21 1015 45 5000 2.6 340 13:40 01.12.2019
3446 Haze 21 1015 45 5000 2.6 340 13:21 01.12.2019
3447 Haze 20 1015 40 5000 2.6 350 12:47 01.12.2019
3448 Haze 20 1015 40 5000 2.6 350 12:19 01.12.2019
3449 Haze 20 1016 45 5000 2.1 40 11:44 01.12.2019
3450 Haze 20 1016 45 5000 2.1 40 11:24 01.12.2019
3451 Haze 18 1017 51 4000 1 50 10:55 01.12.2019
3452 Haze 18 1017 51 4000 1 50 10:37 01.12.2019
3453 Haze 18 1017 51 4000 1 50 10:18 01.12.2019
3454 Haze 17 1017 58 3500 1 50 09:41 01.12.2019
3455 Haze 17 1017 58 3500 1 50 09:21 01.12.2019
3456 Haze 15 1017 58 3000 1 30 08:49 01.12.2019
3457 Haze 15 1017 58 3000 1 30 08:23 01.12.2019
3458 Haze 12 1017 71 3000 2.11 126 07:54 01.12.2019
3459 Haze 12 1017 71 3000 2.11 126 07:36 01.12.2019
3460 Haze 12 1017 71 3000 2.11 126 07:18 01.12.2019
3461 Haze 9 1017 70 3000 2.11 126 06:49 01.12.2019
3462 Haze 9 1016 76 3000 2.11 126 05:58 01.12.2019
3463 Haze 9 1017 76 5000 2.77 109 04:54 01.12.2019
3464 Haze 9 1017 76 5000 2.77 109 04:27 01.12.2019
3465 Haze 12 1017 66 5000 2.1 80 02:44 01.12.2019
3466 Haze 11 1017 66 5000 2.1 80 02:26 01.12.2019
3467 Haze 12 1017 62 5000 2.38 108 01:53 01.12.2019
3468 Haze 12 1017 62 5000 2.59 110 01:30 01.12.2019
3469 Haze 12 1018 58 5000 2.1 280 00:45 01.12.2019
3470 Haze 12 1018 58 5000 2.1 280 00:26 01.12.2019
3471 Haze 12 1018 58 5000 1.5 290 23:56 30.11.2019
3472 Haze 12 1018 58 5000 1.5 290 23:37 30.11.2019
3473 Haze 12 1018 58 5000 1.5 290 23:18 30.11.2019
3474 Haze 12 1018 62 5000 3.07 120 22:41 30.11.2019
3475 Haze 12 1018 62 5000 3.07 120 22:23 30.11.2019
3476 Clear 11 1018 62 6000 3.07 120 21:48 30.11.2019
3477 Clear 11 1018 62 6000 3.07 120 21:29 30.11.2019
3478 Haze 12 1018 62 5000 3.07 120 20:58 30.11.2019
3479 Haze 12 1018 62 5000 3.07 120 20:40 30.11.2019
3480 Haze 13 1018 62 5000 3.71 104 20:20 30.11.2019
3481 Haze 13 1018 54 5000 3.71 104 19:57 30.11.2019
3482 Haze 13 1018 54 5000 3.71 104 19:39 30.11.2019
3483 Haze 13 1018 54 5000 3.71 104 19:21 30.11.2019
3484 Haze 15 1019 58 5000 3.71 104 18:59 30.11.2019
3485 Haze 15 1019 58 5000 3.71 104 18:39 30.11.2019
3486 Haze 15 1019 58 4000 3.71 104 18:21 30.11.2019
3487 Haze 17 1019 41 4000 1.5 60 17:59 30.11.2019
3488 Haze 17 1019 41 4000 1.5 60 17:41 30.11.2019
3489 Haze 17 1019 41 4000 1.5 60 17:22 30.11.2019
3490 Haze 18 1018 45 4000 2.1 80 16:59 30.11.2019
3491 Haze 18 1018 45 4000 2.1 80 16:59 30.11.2019
3492 Haze 18 1018 45 4000 2.1 80 16:40 30.11.2019
3493 Haze 18 1018 45 4000 2.1 80 16:21 30.11.2019
3494 Haze 21 1018 34 5000 1.5 70 15:54 30.11.2019
3495 Haze 21 1018 34 5000 1.5 70 15:36 30.11.2019
3496 Haze 21 1018 34 5000 1.5 70 15:18 30.11.2019
3497 Haze 22 1018 32 5000 3.1 150 14:55 30.11.2019
3498 Haze 22 1018 32 5000 3.1 150 14:36 30.11.2019
3499 Haze 22 1018 32 5000 3.1 150 14:18 30.11.2019
3500 Clouds 22 1019 30 6000 2.6 40 13:42 30.11.2019
3501 Clouds 22 1019 30 6000 2.6 40 13:24 30.11.2019
3502 Haze 21 1019 34 5000 2.6 40 12:57 30.11.2019
3503 Haze 21 1019 34 5000 2.6 40 12:39 30.11.2019
3504 Haze 21 1019 34 5000 2.6 40 12:18 30.11.2019
3505 Haze 19 1020 36 5000 2.1 30 11:41 30.11.2019
3506 Haze 19 1020 36 5000 2.1 30 11:19 30.11.2019
3507 Haze 18 1021 41 4000 3.1 30 10:55 30.11.2019
3508 Haze 18 1021 41 4000 3.1 30 10:37 30.11.2019
3509 Haze 18 1021 41 4000 3.1 30 10:18 30.11.2019
3510 Haze 15 1022 47 4000 2.6 50 09:46 30.11.2019
3511 Haze 15 1022 47 4000 2.6 50 09:23 30.11.2019
3512 Smoke 14 1022 50 4000 1 70 08:44 30.11.2019
3513 Smoke 14 1022 50 4000 1 70 08:21 30.11.2019
3514 Smoke 11 1022 66 4000 3.82 120 07:58 30.11.2019
3515 Smoke 11 1022 66 4000 3.82 120 07:39 30.11.2019
3516 Haze 8 1022 70 5000 3.82 120 06:56 30.11.2019
3517 Haze 8 1022 70 5000 3.82 120 06:29 30.11.2019
3518 Haze 8 1022 70 5000 3.82 120 05:50 30.11.2019
3519 Haze 8 1021 66 5000 2.73 123 03:53 30.11.2019
3520 Haze 8 1021 61 5000 2.73 123 02:47 30.11.2019
3521 Haze 8 1021 61 5000 1.71 135 02:22 30.11.2019
3522 Clouds 9 1021 71 6000 1 170 01:25 30.11.2019
3523 Clouds 10 1021 62 6000 1.65 138 00:51 30.11.2019
3524 Clouds 10 1021 62 6000 1.65 138 00:32 30.11.2019
3525 Haze 10 1021 71 5000 1.65 138 23:59 29.11.2019
3526 Haze 10 1021 71 5000 1.65 138 23:41 29.11.2019
3527 Haze 10 1021 71 5000 2.1 139 23:23 29.11.2019
3528 Haze 11 1021 62 4000 2.1 139 22:46 29.11.2019
3529 Haze 11 1021 62 4000 2.1 139 22:46 29.11.2019
3530 Haze 11 1021 62 4000 2.1 139 22:26 29.11.2019
3531 Haze 11 1021 66 4000 2.1 139 21:45 29.11.2019
3532 Haze 11 1021 66 4000 2.1 139 21:25 29.11.2019
3533 Haze 11 1021 66 4000 2.1 139 20:59 29.11.2019
3534 Haze 11 1021 66 4000 2.1 139 20:39 29.11.2019
3535 Haze 11 1021 66 4000 3.29 142 20:21 29.11.2019
3536 Haze 13 1021 58 4000 2.88 138 19:58 29.11.2019
3537 Haze 13 1021 58 4000 2.88 138 19:58 29.11.2019
3538 Haze 13 1021 58 4000 2.88 138 19:39 29.11.2019
3539 Haze 13 1021 58 4000 2.88 138 19:20 29.11.2019
3540 Haze 14 1021 58 5000 2.88 138 18:58 29.11.2019
3541 Haze 14 1021 58 5000 2.88 138 18:40 29.11.2019
3542 Haze 14 1021 58 5000 2.88 138 18:21 29.11.2019
3543 Haze 16 1021 51 5000 2.88 138 17:45 29.11.2019
3544 Haze 16 1021 51 5000 2.88 138 17:27 29.11.2019
3545 Haze 18 1021 37 5000 1.64 19 16:59 29.11.2019
3546 Haze 18 1021 37 5000 1.64 19 16:41 29.11.2019
3547 Haze 18 1021 37 5000 1.64 19 16:20 29.11.2019
3548 Clouds 20 1021 34 6000 1.64 19 15:43 29.11.2019
3549 Clouds 20 1021 34 6000 1.64 19 15:24 29.11.2019
3550 Clouds 20 1021 32 6000 2.6 160 14:58 29.11.2019
3551 Clouds 20 1021 32 6000 2.6 160 14:40 29.11.2019
3552 Clear 20 1021 32 6000 2.6 160 14:21 29.11.2019
3553 Clouds 20 1021 32 6000 3.1 240 13:55 29.11.2019
3554 Clouds 20 1021 32 6000 3.1 240 13:37 29.11.2019
3555 Clear 21 1020 34 7000 3.6 200 13:19 29.11.2019
3556 Haze 20 1021 35 5000 2.6 100 12:41 29.11.2019
3557 Haze 20 1021 35 5000 2.6 100 12:23 29.11.2019
3558 Clear 19 1018 37 0 1.64 205 11:55 29.11.2019
3559 Clear 19 1018 37 0 1.64 205 11:55 29.11.2019
3560 Clear 19 1018 37 0 1.64 205 11:37 29.11.2019
3561 Clear 17 1020 44 0 1.87 144 11:18 29.11.2019
3562 Clear 17 1020 44 0 1.87 144 10:57 29.11.2019
3563 Clear 17 1020 44 0 1.87 144 10:38 29.11.2019
3564 Clear 17 1020 44 0 1.87 144 10:19 29.11.2019
3565 Clear 17 1020 44 0 1.87 144 09:57 29.11.2019
3566 Clear 17 1020 44 0 1.87 144 09:38 29.11.2019
3567 Clear 17 1020 44 0 1.87 144 09:19 29.11.2019
3568 Clear 17 1020 44 0 1.87 144 08:54 29.11.2019
3569 Clear 17 1020 44 0 1.87 144 08:36 29.11.2019
3570 Clear 14 1020 57 0 1.16 152 08:18 29.11.2019
3571 Clear 14 1020 57 0 1.16 152 07:41 29.11.2019
3572 Clear 14 1020 57 0 1.16 152 07:22 29.11.2019
3573 Clear 14 1020 57 0 1.16 152 06:46 29.11.2019
3574 Clear 14 1020 57 0 1.16 152 06:23 29.11.2019
3575 Clear 14 1020 57 0 1.16 152 05:32 29.11.2019
3576 Clear 14 1020 57 0 1.16 152 05:32 29.11.2019
3577 Clear 11 1020 76 0 0.3 20 04:49 29.11.2019
3578 Clear 11 1020 76 0 0.3 20 03:23 29.11.2019
3579 Clear 11 1020 76 0 0.3 20 02:53 29.11.2019
3580 Clear 12 1019 70 0 2.25 341 02:21 29.11.2019
3581 Clear 12 1019 70 0 2.25 341 01:27 29.11.2019
3582 Clear 12 1019 68 0 1.8 343 00:51 29.11.2019
3583 Clear 12 1019 68 0 1.8 343 00:23 29.11.2019
3584 Clear 12 1019 68 0 1.8 343 23:58 28.11.2019
3585 Clear 12 1019 68 0 1.8 343 23:39 28.11.2019
3586 Clear 13 1020 64 0 3.09 329 23:21 28.11.2019
3587 Clear 13 1020 64 0 3.09 329 23:20 28.11.2019
3588 Clear 13 1020 64 0 3.09 329 22:56 28.11.2019
3589 Clear 13 1020 64 0 3.09 329 22:37 28.11.2019
3590 Clear 13 1020 64 0 3.09 329 22:18 28.11.2019
3591 Clear 13 1020 64 0 3.09 329 21:54 28.11.2019
3592 Clear 13 1020 64 0 3.09 329 21:36 28.11.2019
3593 Clear 13 1020 64 0 3.09 329 21:18 28.11.2019
3594 Clear 13 1020 64 0 3.09 329 20:41 28.11.2019
3595 Clear 14 1019 63 0 3.16 324 20:22 28.11.2019
3596 Clear 14 1019 63 0 3.16 324 19:57 28.11.2019
3597 Clear 14 1019 63 0 3.16 324 19:38 28.11.2019
3598 Haze 13 1020 54 5000 2.1 280 19:19 28.11.2019
3599 Haze 13 1020 54 5000 2.1 280 18:58 28.11.2019
3600 Haze 13 1020 54 5000 2.1 280 18:39 28.11.2019
3601 Haze 13 1020 54 5000 2.1 280 18:18 28.11.2019
3602 Haze 14 1020 58 5000 2.1 280 17:59 28.11.2019
3603 Haze 14 1020 58 5000 2.1 280 17:40 28.11.2019
3604 Haze 14 1020 58 5000 2.1 280 17:21 28.11.2019
3605 Haze 16 1019 51 5000 2.1 280 16:55 28.11.2019
3606 Haze 16 1019 51 5000 2.1 280 16:37 28.11.2019
3607 Haze 16 1019 51 5000 2.1 280 16:18 28.11.2019
3608 Haze 18 1019 52 4800 2.1 280 15:41 28.11.2019
3609 Haze 18 1019 52 4800 2.1 280 15:20 28.11.2019
3610 Haze 19 1019 45 4000 2.1 280 14:59 28.11.2019
3611 Haze 19 1019 45 4000 2.1 280 14:40 28.11.2019
3612 Haze 19 1019 45 4000 2.1 280 14:21 28.11.2019
3613 Haze 19 1019 32 4000 2.1 100 13:56 28.11.2019
3614 Haze 19 1019 32 4000 2.1 100 13:38 28.11.2019
3615 Haze 19 1019 32 4000 2.1 100 13:20 28.11.2019
3616 Haze 19 1019 39 4000 2.1 100 12:43 28.11.2019
3617 Haze 19 1019 39 4000 2.1 100 12:23 28.11.2019
3618 Haze 18 1019 51 4000 2.1 60 11:57 28.11.2019
3619 Haze 18 1019 51 4000 2.1 60 11:57 28.11.2019
3620 Haze 18 1019 51 4000 2.1 60 11:39 28.11.2019
3621 Haze 18 1019 51 4000 2.1 60 11:20 28.11.2019
3622 Dust 17 1019 51 4000 2.1 70 10:43 28.11.2019
3623 Dust 17 1019 51 4000 2.1 70 10:23 28.11.2019
3624 Haze 15 1020 55 5000 1.5 80 09:59 28.11.2019
3625 Haze 15 1020 55 5000 1.5 80 09:40 28.11.2019
3626 Haze 15 1020 55 5000 1.5 80 09:21 28.11.2019
3627 Smoke 13 1020 62 4000 3.29 313 08:55 28.11.2019
3628 Smoke 13 1020 62 4000 3.29 313 08:36 28.11.2019
3629 Smoke 13 1020 62 4000 2.48 316 08:18 28.11.2019
3630 Smoke 10 1019 66 4000 1 0 07:41 28.11.2019
3631 Smoke 10 1019 66 4000 1 0 07:23 28.11.2019
3632 Smoke 8 1019 71 5000 1.5 90 06:44 28.11.2019
3633 Smoke 8 1019 71 5000 1.5 90 06:44 28.11.2019
3634 Smoke 8 1019 71 5000 1.5 90 06:22 28.11.2019
3635 Haze 7 1018 76 5000 2.6 230 05:46 28.11.2019
3636 Haze 8 1018 66 5000 2.6 230 04:58 28.11.2019
3637 Haze 8 1018 57 5000 2.1 220 02:37 28.11.2019
3638 Clear 8 1018 66 6000 3.36 309 01:40 28.11.2019
3639 Clear 7 1018 61 6000 1.5 210 00:44 28.11.2019
3640 Clear 7 1018 61 6000 1.5 210 00:22 28.11.2019
3641 Clear 8 1018 57 6000 0.5 90 23:55 27.11.2019
3642 Clear 8 1018 57 6000 0.5 90 23:36 27.11.2019
3643 Clear 8 1018 57 6000 0.5 90 23:18 27.11.2019
3644 Clear 9 1017 53 6000 3.1 250 22:39 27.11.2019
3645 Clear 9 1017 53 6000 3.1 250 22:20 27.11.2019
3646 Clear 10 1017 50 6000 1 250 21:56 27.11.2019
3647 Clear 10 1017 50 6000 1 250 21:37 27.11.2019
3648 Clear 10 1017 50 6000 1 250 21:19 27.11.2019
3649 Haze 11 1017 47 5000 1.5 240 20:58 27.11.2019
3650 Haze 11 1017 47 5000 1.5 240 20:58 27.11.2019
3651 Haze 11 1017 47 5000 1.5 240 20:39 27.11.2019
3652 Haze 11 1017 47 5000 1.5 240 20:21 27.11.2019
3653 Haze 13 1017 42 5000 5.1 240 19:57 27.11.2019
3654 Haze 13 1017 42 5000 5.1 240 19:39 27.11.2019
3655 Haze 13 1017 42 5000 5.1 240 19:21 27.11.2019
3656 Haze 13 1016 42 5000 5.1 260 18:59 27.11.2019
3657 Haze 13 1016 42 5000 5.1 260 18:37 27.11.2019
3658 Haze 13 1016 42 5000 5.1 260 18:19 27.11.2019
3659 Haze 14 1016 42 5000 4.6 270 17:57 27.11.2019
3660 Haze 14 1016 42 5000 4.6 270 17:38 27.11.2019
3661 Haze 14 1016 42 5000 4.6 270 17:38 27.11.2019
3662 Haze 14 1016 40 5000 4.6 270 17:20 27.11.2019
3663 Haze 16 1016 41 5000 5.1 240 16:56 27.11.2019
3664 Haze 16 1016 41 5000 5.1 240 16:56 27.11.2019
3665 Haze 16 1016 41 5000 5.1 240 16:38 27.11.2019
3666 Haze 16 1016 41 5000 5.1 240 16:19 27.11.2019
3667 Haze 18 1015 31 4000 6.2 270 15:57 27.11.2019
3668 Haze 18 1015 31 4000 6.2 270 15:38 27.11.2019
3669 Haze 18 1015 31 4000 6.2 270 15:20 27.11.2019
3670 Haze 19 1015 37 4000 6.2 260 14:57 27.11.2019
3671 Haze 19 1015 37 4000 6.2 260 14:38 27.11.2019
3672 Haze 19 1015 37 4000 6.2 260 14:38 27.11.2019
3673 Haze 19 1015 37 4000 6.2 260 14:20 27.11.2019
3674 Haze 20 1015 29 5000 4.1 250 13:56 27.11.2019
3675 Haze 20 1015 29 5000 4.1 250 13:38 27.11.2019
3676 Haze 20 1015 29 5000 4.1 250 13:19 27.11.2019
3677 Haze 20 1015 29 5000 4.1 250 13:19 27.11.2019
3678 Haze 20 1015 32 5000 5.1 250 12:54 27.11.2019
3679 Haze 20 1015 32 5000 5.1 250 12:36 27.11.2019
3680 Haze 20 1015 32 5000 5.1 250 12:18 27.11.2019
3681 Haze 20 1016 34 5000 5.7 240 11:38 27.11.2019
3682 Haze 20 1016 34 5000 5.7 240 11:19 27.11.2019
3683 Haze 19 1016 39 5000 5.1 250 10:55 27.11.2019
3684 Haze 19 1016 39 5000 5.1 250 10:37 27.11.2019
3685 Haze 19 1016 39 5000 5.1 250 10:19 27.11.2019
3686 Haze 18 1016 48 4000 4.6 260 09:43 27.11.2019
3687 Haze 18 1016 48 4000 4.6 260 09:24 27.11.2019
3688 Haze 16 1017 55 4000 3.6 250 08:43 27.11.2019
3689 Haze 16 1017 55 4000 3.6 250 08:25 27.11.2019
3690 Smoke 13 1016 62 4000 2.1 260 07:59 27.11.2019
3691 Smoke 13 1016 62 4000 2.1 260 07:41 27.11.2019
3692 Smoke 13 1016 62 4000 2.1 260 07:21 27.11.2019
3693 Haze 10 1015 66 4000 2.33 258 06:46 27.11.2019
3694 Haze 10 1015 66 4000 2.33 258 06:26 27.11.2019
3695 Haze 10 1015 62 4000 2.1 240 05:27 27.11.2019
3696 Haze 11 1015 58 5000 2.1 240 04:59 27.11.2019
3697 Haze 11 1015 58 5000 2.1 240 04:39 27.11.2019
3698 Haze 12 1015 51 5000 1.5 220 03:51 27.11.2019
3699 Haze 12 1015 51 5000 1.5 220 03:22 27.11.2019
3700 Haze 12 1015 54 5000 1.5 240 02:54 27.11.2019
3701 Haze 12 1016 54 5000 1.5 250 01:35 27.11.2019
3702 Haze 13 1016 44 5000 2.1 210 00:44 27.11.2019
3703 Haze 13 1016 44 5000 2.1 210 00:25 27.11.2019
3704 Haze 13 1016 41 5000 2.1 210 23:48 26.11.2019
3705 Haze 12 1016 41 5000 2.1 210 23:26 26.11.2019
3706 Haze 14 1016 42 5000 1.91 275 22:57 26.11.2019
3707 Haze 14 1016 42 5000 1.91 275 22:38 26.11.2019
3708 Haze 14 1016 42 5000 1.91 275 22:19 26.11.2019
3709 Haze 15 1016 48 4000 2.1 230 21:58 26.11.2019
3710 Haze 15 1016 48 4000 2.1 230 21:37 26.11.2019
3711 Haze 15 1016 48 4000 2.1 230 21:19 26.11.2019
3712 Haze 15 1016 51 4000 2.1 240 20:54 26.11.2019
3713 Haze 15 1016 51 4000 2.1 240 20:36 26.11.2019
3714 Haze 15 1016 51 4000 2.1 240 20:18 26.11.2019
3715 Haze 17 1016 36 4000 3.1 240 19:54 26.11.2019
3716 Haze 17 1016 36 4000 3.1 240 19:36 26.11.2019
3717 Haze 17 1016 36 4000 3.1 240 19:18 26.11.2019
3718 Haze 17 1016 36 4000 3.1 240 19:18 26.11.2019
3719 Haze 18 1016 34 5000 1.5 220 18:56 26.11.2019
3720 Haze 18 1016 34 5000 1.5 220 18:38 26.11.2019
3721 Haze 18 1016 34 5000 1.5 220 18:19 26.11.2019
3722 Haze 20 1016 34 4000 2.6 280 17:54 26.11.2019
3723 Haze 20 1016 34 4000 2.6 280 17:36 26.11.2019
3724 Haze 20 1016 34 4000 2.6 280 17:18 26.11.2019
3725 Smoke 21 1015 28 4000 2.1 270 16:54 26.11.2019
3726 Smoke 21 1015 28 4000 2.1 270 16:36 26.11.2019
3727 Smoke 21 1015 28 4000 2.1 270 16:18 26.11.2019
3728 Haze 23 1014 23 5000 2.1 200 15:56 26.11.2019
3729 Haze 23 1014 23 5000 2.1 200 15:56 26.11.2019
3730 Haze 23 1014 23 5000 2.1 200 15:37 26.11.2019
3731 Haze 23 1014 23 5000 2.1 200 15:18 26.11.2019
3732 Haze 25 1015 30 5000 2.6 220 14:43 26.11.2019
3733 Haze 25 1015 30 5000 2.6 220 14:24 26.11.2019
3734 Dust 24 1015 32 4000 5.73 114 13:43 26.11.2019
3735 Dust 24 1015 32 4000 5.73 114 13:24 26.11.2019
3736 Dust 22 1015 29 3500 5.8 114 12:57 26.11.2019
3737 Dust 22 1015 29 3500 5.8 114 12:36 26.11.2019
3738 Dust 22 1015 29 3500 5.8 114 12:18 26.11.2019
3739 Dust 24 1015 29 3500 5.8 114 11:55 26.11.2019
3740 Dust 21 1017 48 3000 5.8 114 11:37 26.11.2019
3741 Dust 21 1017 48 3000 5.62 126 11:18 26.11.2019
3742 Dust 19 1017 51 3000 5.62 126 10:56 26.11.2019
3743 Dust 19 1017 51 3000 5.62 126 10:37 26.11.2019
3744 Dust 19 1017 51 3000 5.62 126 10:19 26.11.2019
3745 Smoke 17 1017 50 4000 5.62 126 09:42 26.11.2019
3746 Smoke 17 1017 50 4000 5.62 126 09:23 26.11.2019
3747 Smoke 14 1017 71 4000 5.62 126 08:50 26.11.2019
3748 Smoke 14 1017 71 4000 5.62 126 08:31 26.11.2019
3749 Smoke 10 1017 66 4000 1 70 07:58 26.11.2019
3750 Smoke 10 1017 66 4000 1 70 07:40 26.11.2019
3751 Smoke 10 1017 66 4000 1 70 07:21 26.11.2019
3752 Smoke 9 1016 57 4000 6.73 118 06:50 26.11.2019
3753 Smoke 7 1016 65 4000 1.5 100 05:59 26.11.2019
3754 Smoke 7 1016 65 4000 1.5 100 05:26 26.11.2019
3755 Haze 8 1016 61 5000 5.37 109 03:22 26.11.2019
3756 Haze 8 1016 61 5000 5.37 109 03:22 26.11.2019
3757 Haze 8 1016 61 5000 5.73 112 01:42 26.11.2019
3758 Haze 8 1016 61 5000 5.73 112 01:42 26.11.2019
3759 Haze 8 1016 61 5000 5.97 112 01:22 26.11.2019
3760 Haze 9 1017 57 5000 1 110 00:41 26.11.2019
3761 Haze 9 1017 57 5000 1 110 00:18 26.11.2019
3762 Haze 12 1017 46 5000 2.1 90 23:39 25.11.2019
3763 Haze 11 1017 46 5000 2.1 90 23:19 25.11.2019
3764 Clear 13 1017 31 6000 2.1 170 22:54 25.11.2019
3765 Clear 13 1017 31 6000 2.1 170 22:36 25.11.2019
3766 Clear 13 1017 31 6000 2.1 170 22:18 25.11.2019
3767 Clear 13 1017 33 7000 3.6 170 21:54 25.11.2019
3768 Clear 13 1017 33 7000 3.6 170 21:36 25.11.2019
3769 Clear 13 1017 33 7000 3.6 170 21:18 25.11.2019
3770 Clear 13 1017 33 7000 4.6 150 20:54 25.11.2019
3771 Clear 13 1017 33 7000 4.6 150 20:36 25.11.2019
3772 Clear 13 1017 33 7000 4.6 150 20:18 25.11.2019
3773 Haze 14 1017 38 5000 1.5 150 19:54 25.11.2019
3774 Haze 14 1017 38 5000 1.5 150 19:36 25.11.2019
3775 Haze 14 1017 38 5000 1.5 150 19:18 25.11.2019
3776 Haze 17 1017 36 5000 3.1 130 18:54 25.11.2019
3777 Haze 17 1017 36 5000 3.1 130 18:36 25.11.2019
3778 Haze 17 1017 36 5000 3.1 130 18:36 25.11.2019
3779 Haze 17 1017 36 5000 3.1 130 18:18 25.11.2019
3780 Haze 17 1017 36 5000 3.1 130 17:54 25.11.2019
3781 Smoke 17 1017 38 4000 2.1 60 17:36 25.11.2019
3782 Smoke 17 1017 34 4000 2.1 60 17:18 25.11.2019
3783 Smoke 19 1016 34 4000 1.5 140 16:41 25.11.2019
3784 Haze 19 1017 34 5000 1.5 140 16:23 25.11.2019
3785 Haze 22 1016 19 5000 2.1 170 15:57 25.11.2019
3786 Haze 22 1016 19 5000 2.1 170 15:37 25.11.2019
3787 Haze 22 1016 19 5000 2.1 170 15:19 25.11.2019
3788 Haze 23 1016 18 5000 3.1 150 14:56 25.11.2019
3789 Haze 23 1016 18 5000 3.1 150 14:56 25.11.2019
3790 Haze 23 1016 18 5000 3.1 150 14:37 25.11.2019
3791 Haze 23 1016 18 5000 3.1 150 14:19 25.11.2019
3792 Haze 22 1017 30 5000 2.1 80 13:39 25.11.2019
3793 Haze 22 1017 30 5000 2.1 80 13:20 25.11.2019
3794 Haze 21 1017 32 5000 2.1 110 12:59 25.11.2019
3795 Haze 21 1017 32 5000 2.1 110 12:40 25.11.2019
3796 Haze 21 1017 32 5000 2.1 110 12:40 25.11.2019
3797 Haze 21 1017 32 5000 2.1 110 12:20 25.11.2019
3798 Haze 20 1018 34 5000 2.1 130 11:56 25.11.2019
3799 Haze 20 1018 34 5000 2.1 130 11:38 25.11.2019
3800 Haze 20 1018 34 5000 2.1 130 11:19 25.11.2019
3801 Haze 17 1020 30 4000 2.1 50 10:42 25.11.2019
3802 Haze 17 1020 30 4000 2.1 50 10:22 25.11.2019
3803 Haze 14 1020 32 4000 3.6 120 09:55 25.11.2019
3804 Haze 14 1020 32 4000 3.6 120 09:37 25.11.2019
3805 Haze 14 1020 32 4000 3.6 120 09:18 25.11.2019
3806 Haze 13 1019 32 3500 2.1 60 08:40 25.11.2019
3807 Haze 13 1019 40 3500 2.1 60 08:21 25.11.2019
3808 Haze 9 1019 61 3000 4.14 107 07:42 25.11.2019
3809 Haze 9 1019 61 3000 4.14 107 07:24 25.11.2019
3810 Haze 7 1018 61 3000 4.14 107 06:48 25.11.2019
3811 Haze 7 1018 61 3000 4.14 107 06:21 25.11.2019
3812 Haze 6 1018 40 4000 4.14 107 05:39 25.11.2019
3813 Haze 6 1018 45 5000 1.5 80 04:52 25.11.2019
3814 Haze 7 1018 57 5000 0.5 270 03:18 25.11.2019
3815 Haze 7 1018 45 4500 2.38 120 02:28 25.11.2019
3816 Smoke 8 1018 53 4000 1.5 230 01:41 25.11.2019
3817 Smoke 8 1018 53 4000 1.5 230 01:22 25.11.2019
3818 Smoke 9 1019 50 4000 1.5 230 00:24 25.11.2019
3819 Smoke 8 1019 57 4000 0.5 180 00:00 25.11.2019
3820 Smoke 8 1019 57 4000 0.5 180 00:00 25.11.2019
3821 Smoke 8 1019 57 4000 0.5 180 23:41 24.11.2019
3822 Smoke 8 1019 57 4000 0.5 180 23:20 24.11.2019
3823 Smoke 9 1019 57 4000 1 210 22:56 24.11.2019
3824 Smoke 9 1019 57 4000 1 210 22:37 24.11.2019
3825 Smoke 9 1019 57 4000 1 210 22:18 24.11.2019
3826 Smoke 10 1019 57 4000 1 150 21:54 24.11.2019
3827 Smoke 10 1019 57 4000 1 150 21:36 24.11.2019
3828 Smoke 10 1019 57 4000 1 150 21:18 24.11.2019
3829 Haze 11 1019 58 4000 1 160 20:54 24.11.2019
3830 Haze 11 1019 58 4000 1 160 20:36 24.11.2019
3831 Haze 11 1019 58 4000 1 160 20:18 24.11.2019
3832 Haze 12 1019 50 4000 1.5 190 19:54 24.11.2019
3833 Haze 12 1019 50 4000 1.5 190 19:36 24.11.2019
3834 Haze 12 1019 50 4000 1.5 190 19:18 24.11.2019
3835 Haze 13 1019 54 4000 0.44 91 18:54 24.11.2019
3836 Haze 13 1019 54 4000 0.44 91 18:36 24.11.2019
3837 Haze 13 1019 54 4000 0.44 91 18:18 24.11.2019
3838 Haze 14 1018 47 4000 0.44 91 17:42 24.11.2019
3839 Haze 14 1018 47 4000 0.67 65 17:23 24.11.2019
3840 Haze 16 1018 51 4000 0.67 65 16:59 24.11.2019
3841 Haze 16 1018 51 4000 0.67 65 16:41 24.11.2019
3842 Haze 16 1018 51 4000 0.67 65 16:23 24.11.2019
3843 Haze 18 1018 31 4000 2.6 60 15:57 24.11.2019
3844 Haze 18 1018 31 4000 2.6 60 15:39 24.11.2019
3845 Haze 18 1018 31 4000 2.6 60 15:21 24.11.2019
3846 Haze 19 1018 29 4000 1.5 70 14:40 24.11.2019
3847 Haze 19 1018 29 4000 1.5 70 14:20 24.11.2019
3848 Haze 19 1018 29 4000 1.5 70 14:20 24.11.2019
3849 Haze 19 1018 31 5000 0.58 245 13:59 24.11.2019
3850 Haze 19 1018 31 5000 0.58 245 13:38 24.11.2019
3851 Haze 19 1018 31 5000 0.44 276 13:20 24.11.2019
3852 Haze 19 1018 31 5000 0.44 276 12:57 24.11.2019
3853 Haze 19 1018 31 4000 3.1 40 12:39 24.11.2019
3854 Haze 19 1018 31 4000 3.1 40 12:18 24.11.2019
3855 Haze 19 1018 31 4000 3.1 40 12:18 24.11.2019
3856 Haze 19 1019 21 5000 2.1 360 11:55 24.11.2019
3857 Haze 19 1019 21 5000 2.1 360 11:36 24.11.2019
3858 Haze 19 1019 25 5000 2.1 360 11:18 24.11.2019
3859 Haze 17 1019 17 5000 1 50 10:44 24.11.2019
3860 Haze 17 1019 17 5000 1 50 10:26 24.11.2019
3861 Haze 17 1019 17 5000 1 50 10:26 24.11.2019
3862 Haze 17 1020 32 5000 1 120 09:54 24.11.2019
3863 Haze 17 1020 32 5000 1 120 09:54 24.11.2019
3864 Haze 17 1020 32 5000 1 120 09:36 24.11.2019
3865 Haze 17 1020 32 5000 1 120 09:18 24.11.2019
3866 Haze 15 1020 32 5000 1 320 08:43 24.11.2019
3867 Smoke 12 1019 54 3000 1.5 320 08:21 24.11.2019
3868 Haze 10 1019 66 3000 1.83 179 07:53 24.11.2019
3869 Haze 10 1019 66 3000 1.83 179 07:34 24.11.2019
3870 Haze 6 1019 70 3000 1.83 179 06:57 24.11.2019
3871 Haze 7 1019 69 5000 1.83 179 05:59 24.11.2019
3872 Haze 6 1018 76 4000 1.12 186 04:47 24.11.2019
3873 Haze 6 1018 76 4000 1.12 186 03:25 24.11.2019
3874 Haze 7 1019 66 4000 1 240 01:58 24.11.2019
3875 Haze 7 1019 66 4000 1 240 01:39 24.11.2019
3876 Haze 7 1019 66 4000 1 240 01:20 24.11.2019
3877 Haze 8 1019 66 4000 1 200 00:47 24.11.2019
3878 Haze 8 1019 66 4000 1 200 00:23 24.11.2019
3879 Haze 8 1019 66 4000 1 150 23:45 23.11.2019
3880 Haze 8 1019 66 4000 1 150 23:22 23.11.2019
3881 Haze 9 1018 71 4000 0.83 89 22:59 23.11.2019
3882 Haze 9 1018 71 4000 0.83 89 22:59 23.11.2019
3883 Haze 9 1018 71 4000 0.83 89 22:40 23.11.2019
3884 Haze 9 1018 71 4000 0.83 89 22:22 23.11.2019
3885 Haze 9 1019 57 4000 1.5 150 21:59 23.11.2019
3886 Haze 9 1019 57 4000 1.5 150 21:40 23.11.2019
3887 Haze 9 1019 57 4000 1.5 150 21:22 23.11.2019
3888 Haze 10 1019 57 5000 0.83 89 20:57 23.11.2019
3889 Haze 10 1019 57 5000 0.83 89 20:36 23.11.2019
3890 Haze 10 1019 57 5000 2.62 337 20:18 23.11.2019
3891 Haze 11 1019 54 5000 2.62 337 19:54 23.11.2019
3892 Haze 11 1019 54 5000 2.62 337 19:36 23.11.2019
3893 Haze 11 1019 54 5000 2.62 337 19:18 23.11.2019
3894 Haze 12 1019 47 5000 2.62 337 18:40 23.11.2019
3895 Haze 12 1019 47 5000 2.62 337 18:40 23.11.2019
3896 Haze 12 1019 47 5000 2.62 337 18:20 23.11.2019
3897 Haze 12 1019 47 5000 2.62 337 18:20 23.11.2019
3898 Haze 13 1019 47 5000 2.62 337 17:55 23.11.2019
3899 Haze 13 1019 47 5000 1.5 280 17:37 23.11.2019
3900 Haze 13 1019 47 5000 1.5 280 17:19 23.11.2019
3901 Haze 15 1018 44 4000 1.5 320 16:55 23.11.2019
3902 Haze 15 1018 44 4000 1.5 320 16:37 23.11.2019
3903 Haze 15 1018 44 4000 1.5 320 16:18 23.11.2019
3904 Haze 17 1018 36 4000 2.6 340 15:56 23.11.2019
3905 Haze 17 1018 36 4000 2.6 340 15:38 23.11.2019
3906 Haze 17 1018 36 4000 2.6 340 15:18 23.11.2019
3907 Haze 18 1018 34 4000 2.6 360 14:43 23.11.2019
3908 Haze 18 1018 34 4000 2.6 360 14:21 23.11.2019
3909 Haze 19 1018 34 5000 2.48 304 13:59 23.11.2019
3910 Haze 19 1018 34 5000 2.48 304 13:40 23.11.2019
3911 Haze 19 1018 34 5000 2.51 298 13:19 23.11.2019
3912 Clear 18 1017 32 6000 2.6 260 12:44 23.11.2019
3913 Haze 18 1019 39 4000 2.6 90 12:24 23.11.2019
3914 Haze 16 1019 42 5000 2.1 80 11:58 23.11.2019
3915 Haze 16 1019 42 5000 2.1 80 11:40 23.11.2019
3916 Haze 16 1019 42 5000 2.1 80 11:18 23.11.2019
3917 Haze 16 1019 44 4000 2.1 350 10:43 23.11.2019
3918 Haze 16 1019 44 4000 2.1 350 10:21 23.11.2019
3919 Haze 14 1019 54 4000 1.5 20 09:41 23.11.2019
3920 Haze 14 1019 54 4000 1.5 20 09:20 23.11.2019
3921 Haze 12 1020 47 4000 2.26 328 08:42 23.11.2019
3922 Haze 12 1020 47 4000 2.6 314 08:19 23.11.2019
3923 Haze 8 1020 76 3000 2.6 314 07:52 23.11.2019
3924 Haze 8 1020 76 3000 2.6 314 07:34 23.11.2019
3925 Haze 7 1019 81 3500 2.6 314 06:45 23.11.2019
3926 Haze 7 1019 81 3500 2.6 314 06:19 23.11.2019
3927 Haze 7 1019 38 5000 2.6 314 05:50 23.11.2019
3928 Haze 4 1019 75 4000 2.6 314 05:29 23.11.2019
3929 Haze 5 1018 33 5000 1.73 315 04:48 23.11.2019
3930 Haze 5 1018 33 5000 1.73 315 04:27 23.11.2019
3931 Haze 6 1018 49 5000 1 260 02:45 23.11.2019
3932 Haze 6 1018 49 5000 1 210 01:51 23.11.2019
3933 Haze 6 1018 49 5000 1 210 01:32 23.11.2019
3934 Haze 6 1018 49 5000 1 170 00:40 23.11.2019
3935 Haze 6 1018 49 5000 1 170 00:18 23.11.2019
3936 Haze 7 1019 43 5000 1 260 23:42 22.11.2019
3937 Haze 7 1019 43 5000 1 260 23:20 22.11.2019
3938 Dust 8 1018 43 4000 1.5 210 22:57 22.11.2019
3939 Dust 8 1018 43 4000 1.5 210 22:38 22.11.2019
3940 Dust 8 1018 43 4000 1.5 210 22:38 22.11.2019
3941 Dust 8 1018 43 4000 1.5 210 22:38 22.11.2019
3942 Dust 8 1018 43 4000 1.5 210 22:20 22.11.2019
3943 Dust 8 1018 43 4000 1.5 210 22:20 22.11.2019
3944 Dust 9 1018 43 3000 1 230 21:59 22.11.2019
3945 Dust 9 1018 43 3000 1 230 21:39 22.11.2019
3946 Dust 9 1018 43 3000 1 230 21:20 22.11.2019
3947 Dust 9 1018 43 3000 1 210 20:43 22.11.2019
3948 Dust 9 1018 43 3000 1 210 20:22 22.11.2019
3949 Dust 10 1018 37 3000 1 180 19:58 22.11.2019
3950 Dust 10 1018 37 3000 1 180 19:38 22.11.2019
3951 Dust 10 1018 37 3000 1 180 19:19 22.11.2019
3952 Haze 13 1017 37 4000 1 170 18:58 22.11.2019
3953 Haze 13 1017 37 4000 1 170 18:36 22.11.2019
3954 Haze 13 1017 37 4000 1 170 18:18 22.11.2019
3955 Haze 14 1017 37 5000 1.88 142 17:41 22.11.2019
3956 Haze 14 1017 37 5000 1.66 63 17:22 22.11.2019
3957 Haze 15 1017 33 4800 1.66 63 16:48 22.11.2019
3958 Haze 15 1017 33 4800 1.66 63 16:29 22.11.2019
3959 Haze 15 1017 33 4800 1.66 63 16:29 22.11.2019
3960 Haze 19 1016 27 5000 1.66 63 15:55 22.11.2019
3961 Haze 19 1016 27 5000 1.66 63 15:37 22.11.2019
3962 Haze 19 1016 27 5000 1.66 63 15:19 22.11.2019
3963 -273 0 0 0 0 0 14:54 22.11.2019
3964 Haze 20 1016 22 5000 1 80 14:36 22.11.2019
3965 Haze 20 1016 22 5000 1 80 14:18 22.11.2019
3966 Haze 19 1016 23 5000 1.5 70 13:38 22.11.2019
3967 Haze 19 1016 23 5000 1.5 70 13:19 22.11.2019
3968 Haze 18 1016 36 4000 1.5 70 12:58 22.11.2019
3969 Haze 18 1016 36 4000 1.5 70 12:40 22.11.2019
3970 Haze 18 1016 36 4000 1.5 70 12:19 22.11.2019
3971 Haze 18 1017 51 4000 2.1 20 11:57 22.11.2019
3972 Haze 18 1017 51 4000 2.1 20 11:37 22.11.2019
3973 Haze 18 1017 51 4000 2.1 20 11:18 22.11.2019
3974 Haze 15 1018 22 4000 3.81 116 10:54 22.11.2019
3975 Haze 15 1018 22 4000 3.81 116 10:36 22.11.2019
3976 Haze 15 1018 22 4000 3.81 116 10:18 22.11.2019
3977 Haze 13 1018 34 4000 3.81 116 09:41 22.11.2019
3978 Haze 12 1018 34 4000 3.81 116 09:21 22.11.2019
3979 Haze 11 1019 43 4000 3.81 116 08:58 22.11.2019
3980 Haze 11 1019 43 4000 3.81 116 08:38 22.11.2019
3981 Haze 11 1019 43 4000 3.81 116 08:38 22.11.2019
3982 Haze 11 1019 43 4000 4.82 113 08:20 22.11.2019
3983 Smoke 8 1018 48 4000 5.08 115 07:42 22.11.2019
3984 Smoke 8 1018 48 4000 5.08 115 07:20 22.11.2019
3985 Haze 7 1018 48 5000 5.08 115 06:48 22.11.2019
3986 Haze 7 1018 48 5000 5.08 115 06:27 22.11.2019
3987 Haze 6 1018 52 5000 5.08 115 05:37 22.11.2019
3988 Haze 7 1018 48 5000 4.12 113 03:26 22.11.2019
3989 Haze 8 1018 45 5000 4.12 113 02:45 22.11.2019
3990 Haze 8 1018 45 5000 4.12 113 02:26 22.11.2019
3991 Haze 8 1018 45 5000 4.13 112 01:43 22.11.2019
3992 Haze 8 1018 45 5000 4.27 114 01:18 22.11.2019
3993 Haze 7 1018 56 5000 4.27 114 00:45 22.11.2019
3994 Haze 7 1018 56 5000 4.27 114 00:22 22.11.2019
3995 Haze 8 1018 56 5000 4.27 114 23:44 21.11.2019
3996 Haze 8 1018 56 5000 4.27 114 23:25 21.11.2019
3997 Haze 8 1019 39 5000 2.1 80 22:58 21.11.2019
3998 Haze 8 1019 39 5000 2.1 80 22:38 21.11.2019
3999 Haze 8 1019 39 5000 2.1 80 22:20 21.11.2019
4000 Haze 9 1019 31 5000 2.1 80 21:56 21.11.2019
4001 Haze 9 1019 31 5000 2.1 80 21:37 21.11.2019
4002 Haze 9 1019 31 5000 2.1 80 21:18 21.11.2019
4003 Haze 9 1018 27 5000 1.5 80 20:57 21.11.2019
4004 Haze 9 1018 27 5000 1.5 80 20:38 21.11.2019
4005 Haze 9 1018 27 5000 1.5 80 20:19 21.11.2019
4006 Haze 11 1019 22 5000 2.1 150 19:58 21.11.2019
4007 Haze 11 1019 22 5000 2.1 150 19:58 21.11.2019
4008 Haze 11 1019 22 5000 2.1 150 19:39 21.11.2019
4009 Haze 11 1019 22 5000 2.1 150 19:21 21.11.2019
4010 Haze 12 1019 19 5000 2.6 170 18:56 21.11.2019
4011 Haze 12 1019 19 5000 2.6 170 18:37 21.11.2019
4012 Haze 12 1019 19 5000 2.6 170 18:18 21.11.2019
4013 Haze 13 1019 18 5000 1.5 180 17:57 21.11.2019
4014 Haze 13 1019 18 5000 1.5 180 17:38 21.11.2019
4015 Haze 13 1019 18 5000 1.5 180 17:19 21.11.2019
4016 Clouds 15 1018 10 6000 2.1 130 16:41 21.11.2019
4017 Clouds 15 1018 10 6000 2.1 130 16:21 21.11.2019
4018 Clouds 18 1018 12 7000 2.6 170 15:57 21.11.2019
4019 Clouds 18 1018 12 7000 2.6 170 15:38 21.11.2019
4020 Clouds 18 1018 12 7000 2.6 170 15:19 21.11.2019
4021 Clouds 19 1018 10 7000 2.1 130 14:55 21.11.2019
4022 Clouds 19 1018 10 7000 2.1 130 14:36 21.11.2019
4023 Clouds 19 1018 10 7000 2.1 130 14:18 21.11.2019
4024 Clouds 19 1018 7 6000 4.1 150 13:39 21.11.2019
4025 Clouds 19 1018 7 6000 4.1 150 13:20 21.11.2019
4026 Haze 19 1019 6 5000 4.1 140 12:57 21.11.2019
4027 Haze 19 1019 6 5000 4.1 140 12:38 21.11.2019
4028 Haze 18 1019 6 5000 4.1 140 12:19 21.11.2019
4029 Haze 18 1019 10 5000 3.6 140 11:41 21.11.2019
4030 Haze 18 1019 10 5000 3.6 140 11:21 21.11.2019
4031 Haze 17 1020 17 5000 3.1 190 10:59 21.11.2019
4032 Haze 17 1020 17 5000 3.1 190 10:41 21.11.2019
4033 Haze 17 1020 17 5000 3.1 190 10:22 21.11.2019
4034 Haze 15 1021 18 5000 3.6 160 09:56 21.11.2019
4035 Haze 15 1021 18 5000 3.6 160 09:38 21.11.2019
4036 Haze 15 1021 18 5000 3.6 160 09:19 21.11.2019
4037 Haze 13 1021 28 5000 6.28 135 08:41 21.11.2019
4038 Haze 13 1021 28 5000 4.91 127 08:20 21.11.2019
4039 Smoke 9 1021 27 5000 1 80 07:42 21.11.2019
4040 Smoke 9 1021 27 5000 1 80 07:18 21.11.2019
4041 Haze 7 1021 26 5000 2.6 150 06:57 21.11.2019
4042 Haze 7 1021 26 5000 2.6 150 06:34 21.11.2019
4043 Clear 5 1021 45 6000 4.91 127 05:37 21.11.2019
4044 Clear 6 1020 45 6000 4.21 119 03:34 21.11.2019
4045 Clear 6 1021 45 6000 4.21 119 02:42 21.11.2019
4046 Clear 6 1021 45 6000 2.85 130 02:20 21.11.2019
4047 Clear 6 1021 45 6000 2.85 130 01:42 21.11.2019
4048 Clear 6 1021 45 6000 2.73 129 01:19 21.11.2019
4049 Clear 7 1021 39 6000 2.73 129 00:37 21.11.2019
4050 Clear 7 1021 39 6000 2.73 129 00:18 21.11.2019
4051 Clear 7 1021 39 8000 0.5 300 23:40 20.11.2019
4052 Clear 7 1021 39 8000 0.5 300 23:21 20.11.2019
4053 Clear 9 1021 31 8000 1 110 22:56 20.11.2019
4054 Clear 9 1021 31 8000 1 110 22:37 20.11.2019
4055 Clear 9 1021 31 8000 1 110 22:19 20.11.2019
4056 Clear 8 1021 36 10000 0.5 300 21:57 20.11.2019
4057 Clear 8 1021 36 10000 0.5 300 21:38 20.11.2019
4058 Clear 8 1021 36 10000 0.5 300 21:19 20.11.2019
4059 Clear 9 1022 34 8000 3.1 130 20:55 20.11.2019
4060 Clear 9 1022 34 8000 3.1 130 20:55 20.11.2019
4061 Clear 9 1022 34 8000 3.1 130 20:37 20.11.2019
4062 Clear 9 1022 34 8000 3.1 130 20:19 20.11.2019
4063 Clear 10 1021 32 10000 1.5 130 19:55 20.11.2019
4064 Clear 10 1021 32 10000 1.5 130 19:36 20.11.2019
4065 Clear 10 1021 32 10000 1.5 130 19:18 20.11.2019
4066 Clear 11 1021 34 10000 3.1 90 18:57 20.11.2019
4067 Clear 11 1021 34 10000 3.1 90 18:38 20.11.2019
4068 Clear 11 1021 34 10000 3.1 90 18:20 20.11.2019
4069 Clear 12 1021 27 6000 3.1 90 17:55 20.11.2019
4070 Clear 12 1021 27 6000 3.1 90 17:37 20.11.2019
4071 Clear 12 1021 27 6000 3.1 90 17:18 20.11.2019
4072 Clear 13 1021 22 6000 3.1 100 16:41 20.11.2019
4073 Clear 13 1021 22 6000 3.1 100 16:20 20.11.2019
4074 Clear 17 1021 18 6000 3.6 100 15:58 20.11.2019
4075 Clear 17 1021 18 6000 3.6 100 15:40 20.11.2019
4076 Clear 17 1021 18 6000 3.6 100 15:20 20.11.2019
4077 Clear 18 1021 16 6000 3.6 100 14:58 20.11.2019
4078 Clear 18 1021 16 6000 3.6 100 14:39 20.11.2019
4079 Clear 18 1021 16 6000 3.6 100 14:21 20.11.2019
4080 Clear 17 1021 21 6000 4.6 110 13:57 20.11.2019
4081 Clear 17 1021 21 6000 4.6 110 13:38 20.11.2019
4082 Clear 17 1021 21 6000 4.6 110 13:19 20.11.2019
4083 Clear 17 1022 19 6000 4.6 110 12:43 20.11.2019
4084 Clear 17 1022 19 6000 4.6 110 12:24 20.11.2019
4085 Clear 17 1022 18 6000 3.1 130 11:58 20.11.2019
4086 Clear 17 1022 18 6000 3.1 130 11:38 20.11.2019
4087 Clear 17 1022 18 6000 3.1 130 11:20 20.11.2019
4088 Clear 16 1022 21 6000 3.6 120 10:55 20.11.2019
4089 Clear 16 1022 21 6000 3.6 120 10:37 20.11.2019
4090 Clear 16 1022 21 6000 3.6 120 10:19 20.11.2019
4091 Haze 14 1023 28 5000 4.6 130 09:43 20.11.2019
4092 Haze 14 1023 28 5000 4.6 130 09:21 20.11.2019
4093 Haze 13 1023 34 5000 4.6 120 08:56 20.11.2019
4094 Haze 13 1023 34 5000 4.6 120 08:37 20.11.2019
4095 Haze 13 1023 34 5000 4.6 120 08:19 20.11.2019
4096 Haze 8 1022 56 5000 3.36 121 07:45 20.11.2019
4097 Smoke 8 1022 56 4000 3.36 121 07:25 20.11.2019
4098 Haze 5 1021 26 4000 3.36 121 06:48 20.11.2019
4099 Haze 5 1021 26 4000 3.36 121 06:22 20.11.2019
4100 Haze 4 1021 69 5000 3.36 121 05:26 20.11.2019
4101 Clear 4 1021 60 6000 1 130 03:36 20.11.2019
4102 Clear 5 1021 60 6000 1.5 80 02:21 20.11.2019
4103 Clear 6 1021 56 6000 1 80 01:33 20.11.2019
4104 Clear 8 1022 43 6000 1.5 80 00:41 20.11.2019
4105 Clear 8 1021 43 6000 3.1 160 23:55 19.11.2019
4106 Clear 8 1021 43 6000 3.1 160 23:26 19.11.2019
4107 Clear 8 1021 39 6000 3.1 140 22:59 19.11.2019
4108 Clear 8 1021 39 6000 3.1 140 22:41 19.11.2019
4109 Clear 8 1021 39 6000 3.1 140 22:19 19.11.2019
4110 Clear 8 1021 39 6000 3.1 140 22:19 19.11.2019
4111 Clear 8 1022 46 6000 2.1 140 21:57 19.11.2019
4112 Clear 8 1022 46 6000 2.1 140 21:38 19.11.2019
4113 Clear 8 1022 46 6000 2.1 140 21:20 19.11.2019
4114 Clear 9 1022 37 6000 2.6 150 20:57 19.11.2019
4115 Clear 9 1022 37 6000 2.6 150 20:39 19.11.2019
4116 Clear 9 1022 37 6000 2.6 150 20:20 19.11.2019
4117 Haze 9 1022 40 5000 2.6 120 19:57 19.11.2019
4118 Haze 9 1022 40 5000 2.6 120 19:57 19.11.2019
4119 Haze 9 1022 40 5000 2.6 120 19:39 19.11.2019
4120 Haze 9 1022 40 5000 2.6 120 19:19 19.11.2019
4121 Haze 10 1022 39 5000 1.5 90 18:56 19.11.2019
4122 Haze 10 1022 39 5000 1.5 90 18:38 19.11.2019
4123 Haze 10 1022 39 5000 1.5 90 18:18 19.11.2019
4124 Haze 11 1022 40 5000 2.1 90 17:56 19.11.2019
4125 Haze 11 1022 40 5000 2.1 90 17:37 19.11.2019
4126 Haze 11 1022 40 5000 2.1 90 17:18 19.11.2019
4127 Haze 14 1021 32 5000 2.6 90 16:54 19.11.2019
4128 Haze 14 1021 32 5000 2.6 90 16:36 19.11.2019
4129 Haze 14 1021 32 5000 2.6 90 16:18 19.11.2019
4130 Haze 16 1021 28 5000 4.1 100 15:41 19.11.2019
4131 Haze 16 1021 28 5000 4.1 100 15:23 19.11.2019
4132 Haze 17 1021 25 5000 4.6 100 14:56 19.11.2019
4133 Haze 17 1021 25 5000 4.6 100 14:37 19.11.2019
4134 Haze 17 1021 25 5000 4.6 100 14:19 19.11.2019
4135 Clear 17 1021 25 6000 4.1 110 13:41 19.11.2019
4136 Clear 17 1021 25 6000 4.1 110 13:41 19.11.2019
4137 Clear 17 1021 25 6000 4.1 110 13:20 19.11.2019
4138 Clear 17 1021 25 6000 4.1 110 13:20 19.11.2019
4139 Clear 17 1021 25 6000 4.1 110 13:20 19.11.2019
4140 Clear 17 1022 18 6000 4.1 120 12:42 19.11.2019
4141 Clear 17 1022 18 6000 4.1 120 12:23 19.11.2019
4142 Clear 16 1022 22 6000 7.7 130 11:59 19.11.2019
4143 Clear 16 1022 22 6000 7.7 130 11:39 19.11.2019
4144 Clear 16 1022 22 6000 7.7 130 11:20 19.11.2019
4145 Clear 16 1023 24 6000 4.1 120 10:56 19.11.2019
4146 Clear 16 1023 24 6000 4.1 120 10:38 19.11.2019
4147 Clear 16 1023 24 6000 4.1 120 10:38 19.11.2019
4148 Clear 16 1023 24 6000 4.1 120 10:20 19.11.2019
4149 Clear 15 1024 24 6000 3.1 130 09:42 19.11.2019
4150 Clear 15 1024 24 6000 3.1 130 09:19 19.11.2019
4151 Clear 15 1024 24 6000 3.1 130 09:19 19.11.2019
4152 Clear 12 1024 30 6000 4.1 120 08:55 19.11.2019
4153 Clear 12 1024 30 6000 4.1 120 08:37 19.11.2019
4154 Clear 12 1024 30 6000 4.1 120 08:37 19.11.2019
4155 Clear 12 1024 30 6000 4.1 120 08:19 19.11.2019
4156 Clear 9 1024 34 6000 2.6 120 07:42 19.11.2019
4157 Clear 9 1024 34 6000 2.6 120 07:23 19.11.2019
4158 Clear 4 1023 48 6000 5.62 123 06:54 19.11.2019
4159 Clear 4 1023 48 6000 5.62 123 06:35 19.11.2019
4160 Clear 4 1023 60 8000 1 90 05:49 19.11.2019
4161 Clear 4 1023 56 10000 4.3 108 04:46 19.11.2019
4162 Clear 4 1023 52 10000 1 70 03:35 19.11.2019
4163 Clear 5 1023 52 10000 1 80 02:59 19.11.2019
4164 Clear 5 1023 52 10000 1 80 02:33 19.11.2019
4165 Clear 6 1023 45 10000 1.5 60 01:45 19.11.2019
4166 Clear 6 1022 42 10000 1 70 00:37 19.11.2019
4167 Clear 6 1022 42 10000 1 70 00:18 19.11.2019
4168 Clear 7 1022 36 10000 1.5 90 23:37 18.11.2019
4169 Clear 7 1022 36 10000 1.5 90 23:19 18.11.2019
4170 Clear 8 1022 34 10000 3.1 110 22:46 18.11.2019
4171 Clear 8 1022 34 10000 3.1 110 22:24 18.11.2019
4172 Clear 7 1022 36 10000 2.6 100 21:57 18.11.2019
4173 Clear 7 1022 36 10000 2.6 100 21:39 18.11.2019
4174 Clear 7 1022 36 10000 2.6 100 21:20 18.11.2019
4175 Clear 9 1022 25 10000 2.6 120 20:57 18.11.2019
4176 Clear 9 1022 25 10000 2.6 120 20:39 18.11.2019
4177 Clouds 9 1022 25 10000 2.6 120 20:18 18.11.2019
4178 Clouds 9 1022 20 6000 2.6 120 19:56 18.11.2019
4179 Clouds 9 1022 20 6000 2.6 120 19:37 18.11.2019
4180 Clouds 9 1022 20 6000 2.6 120 19:19 18.11.2019
4181 Clouds 9 1022 20 6000 2.6 120 19:19 18.11.2019
4182 Haze 10 1022 25 5000 2.6 120 18:55 18.11.2019
4183 Haze 10 1022 25 5000 2.6 120 18:37 18.11.2019
4184 Haze 10 1022 25 5000 2.6 120 18:19 18.11.2019
4185 Clouds 11 1022 25 6000 2.6 120 17:55 18.11.2019
4186 Clouds 11 1022 25 6000 2.6 120 17:55 18.11.2019
4187 Clouds 11 1022 25 6000 2.6 120 17:36 18.11.2019
4188 Clouds 11 1022 25 6000 2.6 120 17:18 18.11.2019
4189 Clouds 12 1021 22 6000 2.6 120 16:42 18.11.2019
4190 Clouds 12 1021 22 6000 2.6 120 16:23 18.11.2019
4191 Clouds 15 1021 58 6000 2.6 110 15:56 18.11.2019
4192 Clouds 15 1021 58 6000 2.6 110 15:56 18.11.2019
4193 Clouds 15 1021 58 6000 2.6 110 15:38 18.11.2019
4194 Clouds 15 1021 58 6000 2.6 110 15:20 18.11.2019
4195 Clouds 16 1021 17 6000 2.6 110 14:43 18.11.2019
4196 Clouds 16 1021 17 6000 2.6 110 14:24 18.11.2019
4197 Clouds 16 1021 17 6000 2.6 110 14:24 18.11.2019
4198 Clear 16 1021 13 6000 5.1 120 13:57 18.11.2019
4199 Clear 16 1021 13 6000 5.1 120 13:39 18.11.2019
4200 Clear 16 1021 13 6000 5.1 120 13:21 18.11.2019
4201 Clouds 16 1021 15 6000 4.1 120 12:40 18.11.2019
4202 Clouds 16 1021 15 6000 4.1 120 12:20 18.11.2019
4203 Clouds 15 1022 18 6000 4.6 110 11:55 18.11.2019
4204 Clouds 15 1022 18 6000 4.6 110 11:37 18.11.2019
4205 Clouds 15 1022 18 6000 4.6 110 11:19 18.11.2019
4206 Clouds 14 1023 17 6000 5.7 90 10:42 18.11.2019
4207 Clouds 14 1023 17 6000 5.7 90 10:23 18.11.2019
4208 Clouds 13 1023 22 6000 3.6 120 09:57 18.11.2019
4209 Clouds 13 1023 22 6000 3.6 120 09:38 18.11.2019
4210 Clouds 13 1023 22 6000 3.6 120 09:19 18.11.2019
4211 Clouds 13 1023 22 6000 3.6 120 09:19 18.11.2019
4212 Haze 10 1023 25 5000 3.1 120 08:46 18.11.2019
4213 Haze 10 1023 25 5000 3.1 120 08:24 18.11.2019
4214 Smoke 8 1022 26 5000 2.6 110 07:55 18.11.2019
4215 Smoke 8 1022 26 5000 2.6 110 07:37 18.11.2019
4216 Smoke 8 1022 26 5000 2.6 110 07:19 18.11.2019
4217 Clouds 5 1022 33 6000 2.6 90 06:41 18.11.2019
4218 Clouds 5 1022 33 6000 2.6 90 06:21 18.11.2019
4219 Clouds 5 1022 30 7000 2.6 100 05:26 18.11.2019
4220 Clouds 6 1021 33 8000 2.1 100 03:53 18.11.2019
4221 Clear 7 1022 31 10000 2.6 90 01:40 18.11.2019
4222 Clouds 8 1022 36 10000 3.6 90 00:53 18.11.2019
4223 Clouds 8 1022 36 10000 3.6 90 00:18 18.11.2019
4224 Clouds 9 1022 27 0 3.6 100 23:40 17.11.2019
4225 Clear 9 1022 27 0 3.6 100 23:21 17.11.2019
4226 Clear 10 1022 25 0 3.6 100 22:57 17.11.2019
4227 Clear 10 1022 25 0 3.6 100 22:39 17.11.2019
4228 Clear 10 1022 25 0 3.6 100 22:39 17.11.2019
4229 Clear 10 1022 25 0 3.6 100 22:20 17.11.2019
4230 Clear 10 1021 29 8000 2.1 90 21:55 17.11.2019
4231 Clear 10 1021 29 8000 2.1 90 21:36 17.11.2019
4232 Clear 10 1021 29 8000 2.1 90 21:18 17.11.2019
4233 Clear 11 1021 37 7000 2.1 90 20:54 17.11.2019
4234 Clear 11 1021 37 7000 2.1 90 20:36 17.11.2019
4235 Clear 11 1021 37 7000 2.1 90 20:18 17.11.2019
4236 Haze 12 1021 30 5000 4.1 90 19:54 17.11.2019
4237 Haze 12 1021 30 5000 4.1 90 19:36 17.11.2019
4238 Haze 12 1021 30 5000 4.1 90 19:18 17.11.2019
4239 Haze 13 1021 26 5000 3.1 80 18:54 17.11.2019
4240 Haze 13 1021 26 5000 3.1 80 18:36 17.11.2019
4241 Haze 13 1021 26 5000 3.1 80 18:18 17.11.2019
4242 Haze 15 1020 28 5000 3.6 100 17:56 17.11.2019
4243 Haze 15 1020 28 5000 3.6 100 17:38 17.11.2019
4244 Haze 15 1020 28 5000 3.6 100 17:18 17.11.2019
4245 Haze 16 1020 23 5000 3.6 80 16:42 17.11.2019
4246 Haze 16 1020 23 5000 3.6 80 16:22 17.11.2019
4247 Haze 18 1019 20 5000 5.1 80 15:57 17.11.2019
4248 Haze 18 1019 20 5000 5.1 80 15:39 17.11.2019
4249 Haze 18 1019 20 5000 5.1 80 15:19 17.11.2019
4250 Clear 19 1019 20 6000 6.2 90 14:57 17.11.2019
4251 Clear 19 1019 20 6000 6.2 90 14:39 17.11.2019
4252 Clear 19 1019 20 6000 6.2 90 14:20 17.11.2019
4253 Clear 19 1019 22 7000 4.1 90 13:59 17.11.2019
4254 Clear 19 1019 22 7000 4.1 90 13:59 17.11.2019
4255 Clear 19 1019 22 7000 4.1 90 13:40 17.11.2019
4256 Clear 19 1019 22 7000 4.1 90 13:20 17.11.2019
4257 Clear 18 1019 23 7000 6.7 90 12:45 17.11.2019
4258 Clear 18 1019 23 7000 6.7 90 12:24 17.11.2019
4259 Clouds 18 1019 23 7000 7.2 90 11:59 17.11.2019
4260 Clouds 18 1019 23 7000 7.2 90 11:40 17.11.2019
4261 Dust 16 1019 23 4000 8.7 90 11:21 17.11.2019
4262 Clear 16 1020 41 7000 5.1 100 10:59 17.11.2019
4263 Clear 16 1020 41 7000 5.1 100 10:40 17.11.2019
4264 Clear 16 1020 41 7000 5.1 100 10:21 17.11.2019
4265 Dust 15 1020 48 3000 11.3 100 09:42 17.11.2019
4266 Haze 15 1021 50 5000 3.1 90 09:24 17.11.2019
4267 Haze 15 1021 62 5000 2.6 90 08:44 17.11.2019
4268 Haze 15 1021 62 5000 2.6 90 08:44 17.11.2019
4269 Haze 15 1021 62 5000 2.6 90 08:26 17.11.2019
4270 Haze 13 1019 71 5000 3.1 130 07:58 17.11.2019
4271 Haze 13 1019 71 5000 3.1 130 07:58 17.11.2019
4272 Haze 13 1019 71 5000 3.1 130 07:40 17.11.2019
4273 Haze 13 1019 71 5000 3.1 130 07:20 17.11.2019
4274 Haze 11 1019 76 4000 3.1 100 06:53 17.11.2019
4275 Haze 11 1019 76 4000 3.1 100 06:29 17.11.2019
4276 Mist 10 1018 87 4000 2.1 80 05:24 17.11.2019
4277 Mist 11 1017 81 4000 7.37 76 04:00 17.11.2019
4278 Mist 11 1017 81 4000 7.37 76 03:37 17.11.2019
4279 Mist 11 1017 81 4000 7.37 76 03:19 17.11.2019
4280 Mist 12 1017 87 3000 3.6 110 01:59 17.11.2019
4281 Mist 12 1017 87 3000 3.6 110 01:21 17.11.2019
4282 Mist 12 1017 93 3000 1.5 80 00:41 17.11.2019
4283 Mist 12 1017 93 3000 1.5 80 00:21 17.11.2019
4284 Mist 12 1017 93 3000 1.5 100 23:42 16.11.2019
4285 Mist 12 1017 93 3000 1.5 100 23:19 16.11.2019
4286 Mist 12 1017 87 3000 1.5 80 22:54 16.11.2019
4287 Mist 12 1017 87 3000 1.5 80 22:36 16.11.2019
4288 Mist 12 1017 93 4000 1.5 90 22:18 16.11.2019
4289 Mist 12 1017 87 4000 2.1 90 21:41 16.11.2019
4290 Mist 13 1017 87 4000 2.1 90 21:23 16.11.2019
4291 Mist 13 1017 87 4000 2.1 80 20:58 16.11.2019
4292 Mist 13 1017 87 4000 2.1 80 20:39 16.11.2019
4293 Mist 13 1017 87 4000 2.1 80 20:19 16.11.2019
4294 Clouds 14 1017 93 6000 6.02 94 19:56 16.11.2019
4295 Clouds 14 1017 93 6000 6.02 94 19:38 16.11.2019
4296 Clouds 14 1017 93 6000 6.02 94 19:19 16.11.2019
4297 Haze 14 1017 87 5000 1 130 18:43 16.11.2019
4298 Haze 14 1017 87 5000 1 130 18:25 16.11.2019
4299 Clouds 14 1017 82 7000 1.5 90 17:56 16.11.2019
4300 Clouds 14 1017 82 7000 1.5 90 17:37 16.11.2019
4301 Clouds 14 1017 82 7000 1.5 90 17:18 16.11.2019
4302 Mist 15 1017 87 5000 1.5 60 16:46 16.11.2019
4303 Rain 15 1016 93 4000 2.1 0 16:28 16.11.2019
4304 Rain 16 1016 87 5000 2.1 0 15:56 16.11.2019
4305 Rain 16 1016 87 5000 2.1 0 15:38 16.11.2019
4306 Rain 16 1016 87 5000 2.1 0 15:19 16.11.2019
4307 Thunderstorm 16 1016 93 5000 2.1 0 14:41 16.11.2019
4308 Thunderstorm 16 1016 82 3500 2.6 0 14:22 16.11.2019
4309 Dust 17 1015 52 5000 7.7 90 13:58 16.11.2019
4310 Dust 17 1015 52 5000 7.7 90 13:39 16.11.2019
4311 Dust 17 1015 52 5000 7.7 90 13:39 16.11.2019
4312 Thunderstorm 18 1016 67 4000 1.5 190 13:19 16.11.2019
4313 Thunderstorm 18 1016 67 3500 3.1 140 12:59 16.11.2019
4314 Thunderstorm 18 1016 67 3500 3.1 140 12:41 16.11.2019
4315 Thunderstorm 18 1016 67 3500 3.1 140 12:20 16.11.2019
4316 Thunderstorm 18 1016 67 3500 3.1 140 12:20 16.11.2019
4317 Clouds 17 1017 77 3500 1.5 220 11:47 16.11.2019
4318 Clouds 17 1017 77 3500 1.5 220 11:28 16.11.2019
4319 Thunderstorm 18 1017 72 3000 3.1 260 10:59 16.11.2019
4320 Thunderstorm 18 1017 72 3000 3.1 260 10:41 16.11.2019
4321 Thunderstorm 18 1017 72 3000 3.1 260 10:22 16.11.2019
4322 Thunderstorm 17 1018 87 3500 2.1 50 09:56 16.11.2019
4323 Thunderstorm 17 1018 87 3500 2.1 50 09:38 16.11.2019
4324 Thunderstorm 17 1018 87 3500 2.1 50 09:19 16.11.2019
4325 Haze 16 1017 63 4000 2.1 60 08:40 16.11.2019
4326 Mist 15 1018 87 3500 2.6 80 08:20 16.11.2019
4327 Mist 13 1018 93 3500 4.26 325 07:43 16.11.2019
4328 Mist 13 1018 93 3500 4.26 325 07:22 16.11.2019
4329 Mist 12 1018 100 3500 1.5 110 06:57 16.11.2019
4330 Mist 12 1018 100 3500 1.5 110 06:39 16.11.2019
4331 Mist 12 1018 100 3500 1.5 110 06:19 16.11.2019
4332 Mist 13 1017 93 5000 2.1 360 04:21 16.11.2019
4333 Mist 13 1017 93 5000 2.1 360 04:21 16.11.2019
4334 Mist 15 1017 93 5000 4.47 336 03:26 16.11.2019
4335 Mist 15 1017 93 5000 1 80 02:36 16.11.2019
4336 Rain 15 1017 87 4000 3.25 324 01:38 16.11.2019
4337 Mist 16 1018 93 5000 2.1 340 00:48 16.11.2019
4338 Rain 16 1018 87 4000 4.1 360 00:29 16.11.2019
4339 Haze 15 1018 87 5000 3.76 337 23:44 15.11.2019
4340 Haze 15 1018 87 5000 3.76 337 23:25 15.11.2019
4341 Haze 16 1018 82 5000 1.5 70 22:59 15.11.2019
4342 Haze 16 1018 82 5000 1.5 70 22:40 15.11.2019
4343 Haze 16 1018 82 5000 1.5 70 22:20 15.11.2019
4344 Haze 17 1018 82 5000 2.1 320 21:57 15.11.2019
4345 Haze 17 1018 82 5000 2.1 320 21:38 15.11.2019
4346 Haze 17 1018 82 5000 2.1 320 21:20 15.11.2019
4347 Haze 17 1018 82 5000 4.1 300 20:56 15.11.2019
4348 Haze 17 1018 82 5000 4.1 300 20:38 15.11.2019
4349 Haze 17 1018 82 5000 4.1 300 20:20 15.11.2019
4350 Haze 18 1018 82 5000 4.1 310 19:57 15.11.2019
4351 Haze 18 1018 82 5000 4.1 310 19:38 15.11.2019
4352 Haze 18 1018 82 5000 4.1 310 19:19 15.11.2019
4353 Haze 18 1018 88 5000 4.1 290 18:55 15.11.2019
4354 Haze 18 1018 88 5000 4.1 290 18:37 15.11.2019
4355 Haze 18 1018 88 5000 4.1 290 18:19 15.11.2019
4356 Thunderstorm 19 1017 82 4000 1 120 17:41 15.11.2019
4357 Thunderstorm 19 1017 82 4000 1 120 17:23 15.11.2019
4358 Thunderstorm 21 1017 60 3500 3.1 320 16:56 15.11.2019
4359 Thunderstorm 21 1017 60 3500 3.1 320 16:37 15.11.2019
4360 Clouds 21 1016 56 6000 5.1 290 16:18 15.11.2019
4361 Haze 22 1017 60 4000 2.1 270 15:38 15.11.2019
4362 Haze 22 1017 60 4000 2.1 270 15:20 15.11.2019
4363 Haze 23 1017 46 4000 2.1 50 14:57 15.11.2019
4364 Haze 23 1017 46 4000 2.1 50 14:38 15.11.2019
4365 Haze 23 1017 46 4000 2.1 50 14:19 15.11.2019
4366 Thunderstorm 24 1017 50 5000 1 230 13:57 15.11.2019
4367 Thunderstorm 24 1017 50 5000 1 230 13:39 15.11.2019
4368 Thunderstorm 24 1017 50 5000 1 230 13:20 15.11.2019
4369 Haze 23 1017 50 5000 1.5 170 12:57 15.11.2019
4370 Haze 23 1017 50 5000 1.5 170 12:39 15.11.2019
4371 Haze 23 1017 50 5000 1.5 170 12:20 15.11.2019
4372 Haze 23 1018 50 5000 1.5 230 11:56 15.11.2019
4373 Haze 23 1018 50 5000 1.5 230 11:38 15.11.2019
4374 Haze 23 1018 50 5000 1.5 230 11:19 15.11.2019
4375 Haze 20 1018 60 5000 1 210 10:41 15.11.2019
4376 Haze 20 1018 60 5000 1 210 10:22 15.11.2019
4377 Haze 20 1019 56 5000 1.5 120 09:58 15.11.2019
4378 Haze 20 1019 56 5000 1.5 120 09:40 15.11.2019
4379 Haze 20 1019 56 5000 1.5 120 09:19 15.11.2019
4380 Haze 18 1019 63 5000 2.1 120 08:44 15.11.2019
4381 Haze 18 1019 63 5000 2.1 120 08:23 15.11.2019
4382 Haze 15 1019 77 5000 3.57 108 07:49 15.11.2019
4383 Haze 15 1019 77 5000 3.57 108 07:28 15.11.2019
4384 Haze 14 1019 77 5000 3.57 108 06:50 15.11.2019
4385 Haze 14 1019 77 5000 3.57 108 06:31 15.11.2019
4386 Haze 13 1018 82 5000 3.57 108 05:42 15.11.2019
4387 Haze 13 1018 82 5000 3.57 108 05:23 15.11.2019
4388 Haze 14 1017 82 5000 3.08 97 03:56 15.11.2019
4389 Haze 14 1017 82 5000 3.08 97 03:24 15.11.2019
4390 Haze 15 1017 77 5000 2.77 119 02:20 15.11.2019
4391 Haze 16 1017 82 5000 1 70 01:33 15.11.2019
4392 Haze 16 1017 72 5000 6.2 80 00:54 15.11.2019
4393 Haze 16 1017 72 5000 6.2 80 00:33 15.11.2019
4394 Haze 16 1017 72 4000 2.6 90 23:57 14.11.2019
4395 Haze 16 1017 72 4000 2.6 90 23:38 14.11.2019
4396 Haze 16 1017 72 4000 2.6 90 23:18 14.11.2019
4397 Haze 17 1017 63 4000 2.1 80 22:40 14.11.2019
4398 Haze 17 1017 63 4000 2.1 80 22:21 14.11.2019
4399 Haze 17 1017 63 4000 3.6 120 21:57 14.11.2019
4400 Haze 17 1017 63 4000 3.6 120 21:38 14.11.2019
4401 Haze 17 1017 63 4000 3.6 120 21:38 14.11.2019
4402 Haze 17 1017 63 4000 3.6 120 21:20 14.11.2019
4403 Haze 20 1016 60 3000 1.5 180 20:42 14.11.2019
4404 Haze 20 1016 60 3000 1.5 180 20:24 14.11.2019
4405 Haze 20 1016 64 3000 2.1 300 19:59 14.11.2019
4406 Haze 20 1016 64 3000 2.1 300 19:41 14.11.2019
4407 Haze 20 1016 64 3000 2.1 300 19:18 14.11.2019
4408 Rain 21 1015 56 7000 2.1 360 18:56 14.11.2019
4409 Rain 21 1015 56 7000 2.1 360 18:56 14.11.2019
4410 Rain 20 1014 59 0 3.09 98 18:38 14.11.2019
4411 Haze 22 1015 56 4000 3.09 98 18:20 14.11.2019
4412 Haze 22 1015 56 4000 3.09 98 17:56 14.11.2019
4413 Haze 22 1015 56 4000 3.09 98 17:37 14.11.2019
4414 Haze 22 1015 56 4000 2.43 169 17:19 14.11.2019
4415 Haze 23 1015 53 4000 2.1 120 16:57 14.11.2019
4416 Haze 23 1015 53 4000 2.1 120 16:37 14.11.2019
4417 Haze 23 1015 53 4000 2.1 120 16:18 14.11.2019
4418 Haze 26 1015 44 5000 1.5 110 15:56 14.11.2019
4419 Haze 26 1015 44 5000 1.5 110 15:56 14.11.2019
4420 Haze 26 1015 44 5000 1.5 110 15:38 14.11.2019
4421 Haze 26 1015 44 5000 1.5 110 15:38 14.11.2019
4422 Haze 26 1015 44 5000 1.5 110 15:19 14.11.2019
4423 Haze 26 1015 41 5000 2.1 140 14:44 14.11.2019
4424 Haze 26 1015 41 5000 2.1 140 14:22 14.11.2019
4425 Haze 27 1015 44 5000 2.6 90 13:57 14.11.2019
4426 Haze 27 1015 44 5000 2.6 90 13:38 14.11.2019
4427 Haze 27 1015 44 4000 2.1 160 13:19 14.11.2019
4428 Haze 25 1015 47 4000 2.6 80 12:56 14.11.2019
4429 Haze 25 1015 47 4000 2.6 80 12:37 14.11.2019
4430 Haze 25 1015 47 4000 2.6 80 12:18 14.11.2019
4431 Haze 25 1016 47 4000 3.6 70 11:39 14.11.2019
4432 Haze 25 1016 47 4000 3.6 70 11:20 14.11.2019
4433 Haze 25 1016 47 4000 3.6 70 11:20 14.11.2019
4434 Haze 25 1016 47 4000 3.6 70 11:20 14.11.2019
4435 Haze 23 1016 50 4000 2.1 100 10:58 14.11.2019
4436 Haze 23 1016 50 4000 2.1 100 10:40 14.11.2019
4437 Haze 23 1016 50 4000 2.1 100 10:20 14.11.2019
4438 Haze 21 1017 64 3000 5.41 135 09:56 14.11.2019
4439 Clouds 25 1013 42 0 5.41 135 09:38 14.11.2019
4440 Haze 20 1017 63 3000 2.6 60 09:19 14.11.2019
4441 Haze 20 1017 63 3000 2.6 60 08:47 14.11.2019
4442 Haze 20 1017 63 3000 2.6 60 08:25 14.11.2019
4443 Haze 18 1016 77 3000 2.1 40 07:57 14.11.2019
4444 Haze 18 1016 77 3000 2.1 40 07:38 14.11.2019
4445 Haze 18 1016 77 3000 2.1 40 07:19 14.11.2019
4446 Haze 16 1016 82 3000 1.5 90 06:43 14.11.2019
4447 Haze 16 1016 82 3000 1.5 90 06:19 14.11.2019
4448 Haze 15 1016 82 5000 4.28 110 04:42 14.11.2019
4449 Haze 15 1016 77 5000 1.5 80 04:23 14.11.2019
4450 Haze 16 1016 72 5000 1 110 02:47 14.11.2019
4451 Haze 16 1016 72 5000 1 110 02:28 14.11.2019
4452 Haze 17 1016 72 5000 1 110 01:33 14.11.2019
4453 Haze 17 1017 72 5000 1.5 0 00:55 14.11.2019
4454 Haze 17 1017 72 5000 1.5 0 00:33 14.11.2019
4455 Haze 18 1017 68 5000 0.5 230 23:58 13.11.2019
4456 Haze 18 1017 68 5000 0.5 230 23:37 13.11.2019
4457 Haze 18 1017 68 5000 0.5 230 23:18 13.11.2019
4458 Haze 19 1016 68 5000 0.5 280 22:41 13.11.2019
4459 Haze 19 1016 68 5000 0.5 280 22:22 13.11.2019
4460 Haze 19 1016 63 5000 0.5 110 21:57 13.11.2019
4461 Haze 19 1016 63 5000 0.5 110 21:39 13.11.2019
4462 Haze 19 1016 63 5000 0.5 110 21:20 13.11.2019
4463 Haze 19 1016 68 5000 2.1 100 20:58 13.11.2019
4464 Haze 19 1016 68 5000 2.1 100 20:58 13.11.2019
4465 Haze 19 1016 68 5000 2.1 100 20:38 13.11.2019
4466 Haze 19 1016 68 5000 2.1 100 20:19 13.11.2019
4467 Haze 19 1016 63 5000 3.66 109 19:59 13.11.2019
4468 Haze 19 1016 63 5000 3.66 109 19:40 13.11.2019
4469 Haze 19 1016 63 5000 3.66 109 19:18 13.11.2019
4470 Haze 20 1016 64 5000 1 100 18:55 13.11.2019
4471 Haze 20 1016 64 5000 1 100 18:37 13.11.2019
4472 Haze 20 1016 64 5000 1 100 18:18 13.11.2019
4473 Haze 21 1016 64 5000 2.1 70 17:56 13.11.2019
4474 Haze 21 1016 64 5000 2.1 70 17:38 13.11.2019
4475 Haze 21 1016 64 5000 2.1 70 17:19 13.11.2019
4476 Haze 22 1015 56 5000 2.1 90 16:56 13.11.2019
4477 Haze 22 1015 56 5000 2.1 90 16:37 13.11.2019
4478 Haze 22 1015 19 4000 3.1 100 16:19 13.11.2019
4479 Haze 24 1015 49 4000 3.1 110 15:57 13.11.2019
4480 Haze 24 1015 49 4000 3.1 110 15:37 13.11.2019
4481 Haze 24 1015 49 4000 3.1 110 15:18 13.11.2019
4482 Haze 25 1015 47 3000 3.1 110 14:41 13.11.2019
4483 Haze 25 1015 47 3000 3.1 110 14:21 13.11.2019
4484 Haze 25 1015 47 3000 3.1 110 13:54 13.11.2019
4485 Haze 25 1015 47 5000 4.1 90 13:36 13.11.2019
4486 Haze 25 1015 47 5000 4.1 90 13:18 13.11.2019
4487 Haze 25 1016 47 5000 3.6 100 12:42 13.11.2019
4488 Haze 25 1016 47 5000 3.6 100 12:23 13.11.2019
4489 Haze 24 1017 53 5000 3.6 90 11:58 13.11.2019
4490 Haze 24 1017 53 5000 3.6 90 11:38 13.11.2019
4491 Haze 24 1017 53 5000 3.6 90 11:19 13.11.2019
4492 Haze 22 1017 53 5000 3.6 100 10:56 13.11.2019
4493 Haze 22 1017 53 5000 3.6 100 10:38 13.11.2019
4494 Haze 22 1017 53 5000 3.6 100 10:19 13.11.2019
4495 Haze 20 1018 64 5000 2.1 100 09:43 13.11.2019
4496 Haze 20 1018 64 5000 2.1 100 09:21 13.11.2019
4497 Haze 20 1018 64 5000 2.1 100 09:21 13.11.2019
4498 Haze 20 1018 64 5000 2.1 100 09:21 13.11.2019
4499 Haze 20 1018 64 5000 2.1 100 09:21 13.11.2019
4500 Haze 20 1018 64 5000 2.1 100 09:21 13.11.2019
4501 Haze 18 1018 68 5000 2.6 50 08:46 13.11.2019
4502 Haze 18 1018 68 5000 2.6 50 08:28 13.11.2019
4503 Haze 15 1018 82 5000 2.1 60 07:59 13.11.2019
4504 Haze 15 1018 82 5000 2.1 60 07:41 13.11.2019
4505 Haze 15 1018 82 5000 2.1 60 07:20 13.11.2019
4506 Haze 14 1018 82 5000 3.1 120 06:43 13.11.2019
4507 Haze 14 1018 82 5000 3.1 120 06:19 13.11.2019
4508 Haze 14 1018 82 5000 3.1 120 06:19 13.11.2019
4509 Haze 14 1018 82 5000 3.1 120 06:19 13.11.2019
4510 Haze 14 1018 82 5000 3.1 120 06:19 13.11.2019
4511 Haze 14 1018 82 5000 3.1 120 06:19 13.11.2019
4512 Haze 13 1017 76 5000 5.1 110 05:51 13.11.2019
4513 Haze 13 1017 76 5000 5.1 110 05:30 13.11.2019
4514 Haze 14 1017 76 5000 5.1 110 04:21 13.11.2019
4515 Haze 15 1018 72 5000 6.2 110 02:18 13.11.2019
4516 Haze 16 1018 63 5000 6.2 110 01:41 13.11.2019
4517 Haze 16 1018 72 5000 4.1 110 00:44 13.11.2019
4518 Haze 16 1018 72 5000 4.1 110 00:19 13.11.2019
4519 Haze 17 1018 63 5000 4.1 100 23:41 12.11.2019
4520 Haze 17 1018 63 5000 4.1 100 23:41 12.11.2019
4521 Haze 17 1018 63 5000 4.1 100 23:21 12.11.2019
4522 Haze 17 1018 63 5000 4.1 100 23:21 12.11.2019
4523 Haze 18 1018 63 5000 4.1 100 22:54 12.11.2019
4524 Haze 18 1018 63 5000 4.1 100 22:36 12.11.2019
4525 Haze 18 1018 63 5000 4.1 100 22:18 12.11.2019
4526 Haze 19 1017 59 5000 1.5 90 21:43 12.11.2019
4527 Haze 19 1017 59 5000 1.5 90 21:24 12.11.2019
4528 Haze 18 1017 59 5000 1.5 90 20:57 12.11.2019
4529 Haze 18 1017 59 5000 1.5 90 20:37 12.11.2019
4530 Haze 18 1017 59 5000 1.5 90 20:19 12.11.2019
4531 Haze 18 1018 55 5000 1.5 80 19:57 12.11.2019
4532 Haze 18 1018 55 5000 1.5 80 19:39 12.11.2019
4533 Haze 18 1018 55 5000 1.5 80 19:19 12.11.2019
4534 Haze 18 1017 55 5000 1.5 70 18:58 12.11.2019
4535 Haze 18 1017 55 5000 1.5 70 18:39 12.11.2019
4536 Haze 18 1017 55 5000 1.5 70 18:21 12.11.2019
4537 Haze 19 1017 52 5000 1.5 70 17:57 12.11.2019
4538 Haze 19 1017 52 5000 1.5 70 17:39 12.11.2019
4539 Haze 19 1017 52 5000 1.5 70 17:21 12.11.2019
4540 Haze 21 1017 49 4000 1.5 90 16:57 12.11.2019
4541 Haze 21 1017 49 4000 1.5 90 16:39 12.11.2019
4542 Haze 21 1017 49 4000 1.5 90 16:20 12.11.2019
4543 Haze 22 1017 43 4000 4.1 110 15:41 12.11.2019
4544 Haze 22 1017 43 4000 4.1 110 15:21 12.11.2019
4545 Haze 23 1017 40 5000 3.6 90 14:56 12.11.2019
4546 Haze 23 1017 40 5000 3.6 90 14:37 12.11.2019
4547 Haze 23 1017 40 5000 3.6 90 14:18 12.11.2019
4548 Haze 24 1017 35 5000 4.1 90 13:56 12.11.2019
4549 Haze 24 1017 35 5000 4.1 90 13:37 12.11.2019
4550 Haze 24 1017 35 5000 4.1 90 13:18 12.11.2019
4551 Clear 23 1017 27 6000 3.1 90 12:42 12.11.2019
4552 Clear 23 1017 27 6000 3.1 90 12:42 12.11.2019
4553 Clear 23 1017 27 6000 3.1 90 12:19 12.11.2019
4554 Clear 23 1018 30 6000 5.64 119 11:58 12.11.2019
4555 Clear 23 1018 30 6000 5.64 119 11:40 12.11.2019
4556 Clear 23 1018 30 6000 6.13 109 11:21 12.11.2019
4557 Haze 22 1019 28 5000 3.6 70 10:56 12.11.2019
4558 Haze 22 1019 28 5000 3.6 70 10:37 12.11.2019
4559 Haze 22 1019 28 5000 3.6 70 10:19 12.11.2019
4560 Haze 20 1020 22 5000 3.1 70 09:40 12.11.2019
4561 Haze 20 1020 22 5000 3.1 70 09:21 12.11.2019
4562 Haze 18 1020 25 5000 2.6 80 08:52 12.11.2019
4563 Smoke 16 1019 23 4000 6.13 109 08:30 12.11.2019
4564 Smoke 16 1019 26 4000 6.49 105 07:55 12.11.2019
4565 Smoke 16 1019 26 4000 6.49 105 07:36 12.11.2019
4566 Smoke 16 1019 26 4000 6.49 105 07:18 12.11.2019
4567 Smoke 12 1019 43 10000 6.49 105 06:39 12.11.2019
4568 Smoke 12 1019 43 10000 6.49 105 06:21 12.11.2019
4569 Clear 12 1019 35 6000 6.49 105 05:46 12.11.2019
4570 Clear 12 1019 35 8000 4.3 106 04:44 12.11.2019
4571 Clear 12 1019 40 8000 4.3 106 03:39 12.11.2019
4572 Clear 13 1019 33 6000 4.71 97 01:47 12.11.2019
4573 Clear 13 1019 33 6000 4.84 94 01:22 12.11.2019
4574 Clear 14 1019 24 6000 1 350 00:47 12.11.2019
4575 Clear 14 1019 24 6000 1 350 00:24 12.11.2019
4576 Clear 15 1019 19 7000 2.1 100 23:44 11.11.2019
4577 Clear 15 1019 19 7000 2.1 100 23:23 11.11.2019
4578 Clear 15 1019 17 7000 3.1 110 22:57 11.11.2019
4579 Clear 15 1019 17 7000 3.1 110 22:36 11.11.2019
4580 Clear 15 1019 17 7000 3.1 110 22:36 11.11.2019
4581 Clear 15 1019 17 7000 3.1 110 22:18 11.11.2019
4582 Clear 15 1019 17 7000 3.1 110 22:18 11.11.2019
4583 Haze 16 1019 21 5000 1 90 21:56 11.11.2019
4584 Haze 16 1019 21 5000 1 90 21:38 11.11.2019
4585 Haze 16 1019 21 5000 1 90 21:19 11.11.2019
4586 Haze 16 1019 23 5000 1.5 80 20:42 11.11.2019
4587 Haze 16 1019 23 5000 1.5 80 20:20 11.11.2019
4588 Haze 17 1019 17 5000 3.1 100 19:58 11.11.2019
4589 Haze 17 1019 17 5000 3.1 100 19:40 11.11.2019
4590 Haze 17 1019 17 5000 3.1 100 19:18 11.11.2019
4591 Haze 18 1018 20 5000 3.1 120 18:55 11.11.2019
4592 Haze 18 1018 20 5000 3.1 120 18:37 11.11.2019
4593 Haze 18 1018 20 5000 3.1 120 18:19 11.11.2019
4594 Haze 19 1018 18 5000 2.1 110 17:42 11.11.2019
4595 Haze 19 1018 18 5000 2.1 110 17:24 11.11.2019
4596 Haze 22 1018 19 5000 2.1 110 16:42 11.11.2019
4597 Haze 22 1018 19 5000 2.1 110 16:24 11.11.2019
4598 Haze 24 1018 14 5000 4.1 100 15:59 11.11.2019
4599 Haze 24 1018 14 5000 4.1 100 15:40 11.11.2019
4600 Haze 24 1018 14 5000 4.1 100 15:19 11.11.2019
4601 Haze 24 1018 14 5000 4.1 100 15:19 11.11.2019
4602 Haze 24 1018 14 5000 4.1 100 15:19 11.11.2019
4603 Haze 25 1018 14 5000 4.1 100 14:44 11.11.2019
4604 Clear 25 1018 15 6000 7.2 80 14:25 11.11.2019
4605 Clouds 25 1019 15 6000 4.1 90 13:58 11.11.2019
4606 Clouds 25 1019 15 6000 4.1 90 13:38 11.11.2019
4607 Clouds 25 1019 15 6000 4.1 90 13:19 11.11.2019
4608 Haze 25 1019 17 5000 4.1 100 12:57 11.11.2019
4609 Haze 25 1019 17 5000 4.1 100 12:39 11.11.2019
4610 Haze 25 1019 17 5000 4.1 100 12:39 11.11.2019
4611 Haze 25 1019 17 5000 4.1 100 12:21 11.11.2019
4612 Haze 24 1020 17 5000 3.1 80 11:43 11.11.2019
4613 Haze 24 1020 17 5000 3.1 80 11:22 11.11.2019
4614 Haze 23 1021 18 5000 3.6 90 10:58 11.11.2019
4615 Haze 23 1021 18 5000 3.6 90 10:39 11.11.2019
4616 Haze 23 1021 18 5000 3.6 90 10:18 11.11.2019
4617 Haze 20 1022 18 5000 2.6 60 09:56 11.11.2019
4618 Haze 20 1022 18 5000 2.6 60 09:36 11.11.2019
4619 Haze 20 1022 18 5000 2.6 60 09:18 11.11.2019
4620 Haze 18 1021 20 5000 1.5 60 08:39 11.11.2019
4621 Haze 18 1021 20 5000 1.5 60 08:20 11.11.2019
4622 Smoke 16 1021 27 5000 1 0 07:56 11.11.2019
4623 Smoke 16 1021 27 5000 1 0 07:36 11.11.2019
4624 Smoke 16 1021 27 5000 1 0 07:18 11.11.2019
4625 Smoke 15 1021 44 5000 6.48 109 06:44 11.11.2019
4626 Smoke 15 1021 44 5000 6.48 109 06:21 11.11.2019
4627 Clouds 13 1021 50 6000 6.48 109 05:50 11.11.2019
4628 Clouds 13 1021 47 10000 4.57 102 04:29 11.11.2019
4629 Clouds 13 1021 47 10000 4.57 102 03:23 11.11.2019
4630 Clouds 13 1021 47 10000 4.44 97 02:22 11.11.2019
4631 Clouds 14 1021 30 10000 4.44 97 01:55 11.11.2019
4632 Clouds 14 1021 30 10000 4.42 95 01:34 11.11.2019
4633 Clouds 15 1021 33 10000 1 300 00:48 11.11.2019
4634 Clouds 16 1021 33 10000 1 300 00:20 11.11.2019
4635 Clouds 16 1020 21 10000 2.1 100 23:39 10.11.2019
4636 Clouds 16 1020 21 10000 2.1 100 23:20 10.11.2019
4637 Clouds 18 1020 15 10000 2.6 100 22:58 10.11.2019
4638 Clouds 18 1020 15 10000 2.6 100 22:38 10.11.2019
4639 Clouds 19 1020 15 10000 2.6 100 22:20 10.11.2019
4640 Clouds 19 1020 13 10000 3.1 100 21:58 10.11.2019
4641 Clouds 19 1020 13 10000 3.1 100 21:58 10.11.2019
4642 Clouds 19 1020 13 10000 3.1 100 21:58 10.11.2019
4643 Clouds 19 1020 13 10000 3.1 100 21:39 10.11.2019
4644 Clouds 19 1020 13 10000 3.1 100 21:21 10.11.2019
4645 Clouds 20 1019 16 10000 3.1 100 20:58 10.11.2019
4646 Clouds 20 1019 16 10000 3.1 100 20:38 10.11.2019
4647 Clouds 20 1019 16 10000 3.1 100 20:20 10.11.2019
4648 Haze 20 1019 21 5000 1.5 90 19:55 10.11.2019
4649 Haze 20 1019 21 5000 1.5 90 19:37 10.11.2019
4650 Haze 20 1019 21 5000 1.5 90 19:18 10.11.2019
4651 Haze 21 1019 19 5000 2.6 150 18:54 10.11.2019
4652 Haze 21 1019 19 5000 2.6 150 18:36 10.11.2019
4653 Haze 21 1019 19 5000 2.6 150 18:18 10.11.2019
4654 Haze 22 1019 17 5000 2.1 130 17:55 10.11.2019
4655 Haze 22 1019 17 5000 2.1 130 17:37 10.11.2019
4656 Haze 22 1019 17 5000 2.1 130 17:19 10.11.2019
4657 Smoke 23 1018 17 4000 2.1 110 16:44 10.11.2019
4658 Smoke 23 1018 17 4000 2.1 110 16:25 10.11.2019
4659 Haze 25 1018 14 5000 4.1 100 15:57 10.11.2019
4660 Haze 25 1018 14 5000 4.1 100 15:38 10.11.2019
4661 Haze 25 1018 14 5000 4.1 100 15:19 10.11.2019
4662 Haze 25 1018 14 5000 4.1 100 15:19 10.11.2019
4663 Haze 26 1018 14 5000 4.1 110 14:58 10.11.2019
4664 Haze 26 1018 14 5000 4.1 110 14:38 10.11.2019
4665 Haze 26 1018 14 5000 4.1 110 14:20 10.11.2019
4666 Haze 25 1018 16 5000 6.2 120 13:56 10.11.2019
4667 Haze 25 1018 16 5000 6.2 120 13:38 10.11.2019
4668 Haze 25 1018 16 5000 6.2 120 13:19 10.11.2019
4669 Clouds 26 1018 13 7000 4.1 120 12:41 10.11.2019
4670 Clouds 26 1018 13 7000 4.1 120 12:20 10.11.2019
4671 Haze 26 1019 16 5000 3.6 110 11:57 10.11.2019
4672 Haze 26 1019 16 5000 3.6 110 11:38 10.11.2019
4673 Haze 26 1019 16 5000 3.6 110 11:20 10.11.2019
4674 Haze 25 1020 13 5000 4.1 100 10:55 10.11.2019
4675 Haze 25 1020 13 5000 4.1 100 10:37 10.11.2019
4676 Haze 25 1020 13 5000 4.1 100 10:18 10.11.2019
4677 Haze 23 1020 18 5000 3.1 100 09:41 10.11.2019
4678 Haze 23 1020 18 5000 3.1 100 09:22 10.11.2019
4679 Haze 21 1020 20 5000 2.6 90 08:40 10.11.2019
4680 Haze 21 1020 20 5000 2.6 90 08:21 10.11.2019
4681 Haze 19 1020 29 4000 1.5 90 07:56 10.11.2019
4682 Haze 19 1020 29 4000 1.5 90 07:37 10.11.2019
4683 Haze 19 1020 29 4000 1.5 90 07:18 10.11.2019
4684 Haze 14 1019 30 4000 1.5 290 06:22 10.11.2019
4685 Haze 14 1019 41 5000 5.9 110 04:46 10.11.2019
4686 Haze 15 1018 38 5000 1.5 80 02:59 10.11.2019
4687 Haze 15 1018 41 5000 1.5 80 01:43 10.11.2019
4688 Haze 15 1018 41 5000 1.5 80 01:19 10.11.2019
4689 Haze 17 1019 36 5000 1 70 00:39 10.11.2019
4690 Haze 19 1019 39 5000 3.1 100 23:43 09.11.2019
4691 Haze 19 1019 39 5000 3.1 100 23:21 09.11.2019
4692 Haze 19 1018 28 5000 2.6 30 22:59 09.11.2019
4693 Haze 19 1018 28 5000 2.6 30 22:40 09.11.2019
4694 Haze 19 1018 28 5000 2.6 30 22:19 09.11.2019
4695 Haze 20 1019 24 5000 3.1 120 21:55 09.11.2019
4696 Haze 20 1019 24 5000 3.1 120 21:37 09.11.2019
4697 Haze 20 1019 24 5000 3.1 120 21:19 09.11.2019
4698 Haze 20 1018 42 5000 3.1 120 20:41 09.11.2019
4699 Haze 20 1018 42 5000 3.1 120 20:41 09.11.2019
4700 Haze 20 1018 42 5000 3.1 120 20:22 09.11.2019
4701 Haze 20 1018 43 5000 1.5 100 19:57 09.11.2019
4702 Haze 20 1018 43 5000 1.5 100 19:38 09.11.2019
4703 Haze 20 1018 43 5000 1.5 100 19:20 09.11.2019
4704 Clear 21 1018 37 6000 2.1 120 18:54 09.11.2019
4705 Clear 21 1018 37 6000 2.1 120 18:36 09.11.2019
4706 Clear 21 1018 37 6000 2.1 120 18:18 09.11.2019
4707 Haze 22 1018 35 5000 1.5 120 17:41 09.11.2019
4708 Haze 22 1018 35 5000 1.5 120 17:22 09.11.2019
4709 Haze 24 1017 27 5000 2.1 110 16:43 09.11.2019
4710 Haze 24 1017 27 5000 2.1 110 16:22 09.11.2019
4711 Haze 26 1018 25 5000 3.1 100 15:59 09.11.2019
4712 Haze 26 1018 25 5000 3.1 100 15:41 09.11.2019
4713 Haze 26 1018 25 5000 3.1 100 15:23 09.11.2019
4714 Haze 27 1018 24 5000 4.6 110 14:45 09.11.2019
4715 Haze 27 1018 24 5000 4.6 110 14:22 09.11.2019
4716 Haze 27 1018 26 5000 2.6 100 13:58 09.11.2019
4717 Haze 27 1018 26 5000 2.6 100 13:39 09.11.2019
4718 Haze 27 1018 26 5000 2.6 100 13:21 09.11.2019
4719 Haze 26 1018 27 5000 2.6 120 12:57 09.11.2019
4720 Haze 26 1018 27 5000 2.6 120 12:39 09.11.2019
4721 Haze 26 1018 27 5000 2.6 120 12:20 09.11.2019
4722 Haze 25 1019 27 5000 4.1 110 11:48 09.11.2019
4723 Haze 25 1019 27 5000 4.1 110 11:22 09.11.2019
4724 Haze 25 1020 27 5000 4.1 110 10:57 09.11.2019
4725 Haze 25 1020 27 5000 4.1 110 10:39 09.11.2019
4726 Haze 25 1020 27 5000 4.1 110 10:18 09.11.2019
4727 Haze 22 1020 28 5000 7.19 119 09:44 09.11.2019
4728 Haze 22 1020 28 5000 7.19 119 09:21 09.11.2019
4729 Haze 19 1020 30 4000 7.19 119 08:57 09.11.2019
4730 Haze 19 1020 30 4000 7.19 119 08:38 09.11.2019
4731 Haze 19 1020 30 4000 6.09 111 08:19 09.11.2019
4732 Haze 17 1020 55 4000 6.09 111 07:43 09.11.2019
4733 Haze 17 1020 55 4000 6.09 111 07:22 09.11.2019
4734 Haze 15 1020 51 5000 6.09 111 06:48 09.11.2019
4735 Haze 15 1020 51 5000 6.09 111 06:30 09.11.2019
4736 Haze 15 1020 51 5000 6.09 111 05:42 09.11.2019
4737 Haze 15 1019 54 5000 4.39 105 04:51 09.11.2019
4738 Haze 16 1019 51 5000 4.39 105 03:35 09.11.2019
4739 Haze 17 1018 48 5000 4.39 105 02:41 09.11.2019
4740 Haze 18 1019 39 5000 4.81 97 01:55 09.11.2019
4741 Haze 17 1018 39 5000 1 100 00:49 09.11.2019
4742 Haze 17 1018 39 5000 1 100 00:31 09.11.2019
4743 Haze 17 1018 48 5000 4.34 95 23:57 08.11.2019
4744 Haze 17 1018 48 5000 4.34 95 23:38 08.11.2019
4745 Haze 17 1018 48 5000 5.68 106 23:19 08.11.2019
4746 Haze 18 1018 52 5000 5.68 106 22:47 08.11.2019
4747 Haze 18 1018 52 5000 5.68 106 22:22 08.11.2019
4748 Haze 18 1018 48 5000 5.68 106 21:56 08.11.2019
4749 Haze 18 1018 48 5000 5.68 106 21:38 08.11.2019
4750 Haze 18 1018 48 5000 5.68 106 21:18 08.11.2019
4751 Haze 18 1017 48 5000 5.68 106 20:42 08.11.2019
4752 Haze 18 1017 48 5000 1.6 45 20:22 08.11.2019
4753 Haze 19 1018 42 5000 1.6 45 19:59 08.11.2019
4754 Haze 19 1018 42 5000 1.6 45 19:39 08.11.2019
4755 Haze 19 1018 42 5000 1.6 45 19:18 08.11.2019
4756 Haze 21 1017 42 5000 1.6 45 18:56 08.11.2019
4757 Haze 21 1017 42 5000 1.6 45 18:56 08.11.2019
4758 Haze 21 1017 42 5000 1.6 45 18:38 08.11.2019
4759 Haze 21 1017 42 5000 1.6 45 18:38 08.11.2019
4760 Haze 21 1017 42 5000 1.6 45 18:19 08.11.2019
4761 Haze 22 1017 40 5000 1.5 90 17:56 08.11.2019
4762 Haze 22 1017 40 5000 1.5 90 17:37 08.11.2019
4763 Haze 22 1017 40 5000 1.5 90 17:19 08.11.2019
4764 Haze 24 1017 40 5000 1.5 90 16:58 08.11.2019
4765 Haze 24 1017 40 5000 1.5 90 16:58 08.11.2019
4766 Haze 24 1017 40 5000 1.5 90 16:39 08.11.2019
4767 Haze 24 1017 40 5000 1.5 90 16:19 08.11.2019
4768 Haze 24 1017 40 5000 1.5 90 16:19 08.11.2019
4769 Haze 26 1016 33 5000 2.1 70 15:58 08.11.2019
4770 Haze 26 1016 33 5000 2.1 70 15:40 08.11.2019
4771 Haze 26 1016 33 5000 2.1 70 15:21 08.11.2019
4772 Haze 27 1017 29 5000 3.1 100 14:56 08.11.2019
4773 Haze 27 1017 29 5000 3.1 100 14:37 08.11.2019
4774 Haze 27 1017 29 5000 3.1 100 14:18 08.11.2019
4775 Haze 26 1017 31 5000 3.1 100 13:57 08.11.2019
4776 Haze 26 1017 31 5000 3.1 100 13:38 08.11.2019
4777 Haze 26 1017 31 5000 3.1 100 13:19 08.11.2019
4778 Haze 26 1017 31 5000 3.6 110 12:43 08.11.2019
4779 Haze 26 1017 31 5000 3.6 110 12:24 08.11.2019
4780 Clear 24 1017 31 7000 2.6 120 11:57 08.11.2019
4781 Clear 24 1017 31 7000 2.6 120 11:38 08.11.2019
4782 Clear 24 1017 31 7000 2.6 120 11:20 08.11.2019
4783 Clear 24 1017 31 7000 2.6 120 11:20 08.11.2019
4784 Clear 23 1018 38 7000 1.5 90 10:56 08.11.2019
4785 Clear 23 1018 38 7000 1.5 90 10:38 08.11.2019
4786 Clear 23 1018 38 7000 1.5 90 10:20 08.11.2019
4787 Clear 21 1019 43 8000 2.6 50 09:42 08.11.2019
4788 Clear 21 1019 43 8000 2.6 50 09:24 08.11.2019
4789 Clouds 19 1018 52 8000 2.1 60 08:59 08.11.2019
4790 Clouds 19 1018 52 8000 2.1 60 08:38 08.11.2019
4791 Clouds 19 1018 52 8000 2.1 60 08:19 08.11.2019
4792 Haze 16 1019 63 5000 6.89 109 07:41 08.11.2019
4793 Haze 16 1019 63 5000 6.89 109 07:22 08.11.2019
4794 Haze 15 1018 58 5000 2.1 90 06:41 08.11.2019
4795 Haze 15 1017 62 4000 5.1 70 06:23 08.11.2019
4796 Haze 15 1018 62 5000 1.5 90 05:55 08.11.2019
4797 Haze 15 1018 62 5000 1.5 90 05:24 08.11.2019
4798 Haze 14 1017 67 5000 1.5 80 03:58 08.11.2019
4799 Haze 14 1017 67 5000 1.5 80 03:36 08.11.2019
4800 Haze 14 1017 58 5000 1.5 50 02:52 08.11.2019
4801 Haze 15 1017 55 5000 2.1 10 01:49 08.11.2019
4802 Haze 15 1017 55 5000 2.1 10 01:30 08.11.2019
4803 Haze 16 1017 51 5000 2.1 60 00:37 08.11.2019
4804 Haze 16 1017 51 5000 2.1 60 00:19 08.11.2019
4805 Haze 16 1017 45 5000 1.5 140 23:43 07.11.2019
4806 Haze 17 1017 45 5000 1.5 140 23:24 07.11.2019
4807 Haze 17 1017 42 5000 3.1 90 22:55 07.11.2019
4808 Haze 17 1017 42 5000 3.1 90 22:36 07.11.2019
4809 Haze 17 1017 42 5000 3.1 90 22:18 07.11.2019
4810 Haze 17 1017 48 5000 2.6 100 21:38 07.11.2019
4811 Haze 17 1017 48 5000 2.6 100 21:20 07.11.2019
4812 Haze 18 1017 55 5000 1.5 80 20:58 07.11.2019
4813 Haze 18 1017 55 5000 1.5 80 20:40 07.11.2019
4814 Haze 18 1017 55 5000 1.5 80 20:21 07.11.2019
4815 Haze 20 1016 37 5000 1 100 19:57 07.11.2019
4816 Haze 20 1016 37 5000 1 100 19:57 07.11.2019
4817 Haze 20 1016 37 5000 1 100 19:38 07.11.2019
4818 Haze 20 1016 37 5000 1 100 19:20 07.11.2019
4819 Haze 23 1016 33 5000 1.5 130 18:57 07.11.2019
4820 Haze 23 1016 33 5000 1.5 130 18:38 07.11.2019
4821 Haze 22 1016 33 5000 1.5 130 18:19 07.11.2019
4822 Haze 22 1016 33 5000 1.5 200 17:54 07.11.2019
4823 Haze 22 1016 33 5000 1.5 200 17:36 07.11.2019
4824 Haze 23 1016 35 5000 1.5 90 17:18 07.11.2019
4825 Haze 23 1016 35 5000 1.5 90 16:54 07.11.2019
4826 Haze 23 1016 35 5000 1.5 90 16:36 07.11.2019
4827 Haze 23 1016 35 5000 1.5 90 16:18 07.11.2019
4828 Haze 25 1016 27 5000 3.1 120 15:40 07.11.2019
4829 Haze 25 1016 27 5000 3.1 120 15:20 07.11.2019
4830 Haze 26 1016 27 5000 4.1 100 14:57 07.11.2019
4831 Haze 26 1016 27 5000 4.1 100 14:37 07.11.2019
4832 Haze 26 1016 27 5000 4.1 100 14:19 07.11.2019
4833 Haze 25 1016 23 5000 3.6 90 13:55 07.11.2019
4834 Haze 25 1016 23 5000 3.6 90 13:36 07.11.2019
4835 Haze 25 1016 23 5000 3.6 90 13:18 07.11.2019
4836 Haze 25 1016 31 5000 4.1 80 12:55 07.11.2019
4837 Haze 25 1016 31 5000 4.1 80 12:37 07.11.2019
4838 Haze 25 1016 31 5000 4.1 80 12:18 07.11.2019
4839 Haze 25 1016 31 5000 4.1 80 12:18 07.11.2019
4840 Haze 24 1017 31 5000 3.6 80 11:41 07.11.2019
4841 Haze 24 1017 31 5000 3.6 80 11:22 07.11.2019
4842 Haze 23 1017 33 5000 4.6 70 10:42 07.11.2019
4843 Haze 23 1017 33 5000 4.6 70 10:42 07.11.2019
4844 Haze 23 1017 33 5000 4.6 70 10:19 07.11.2019
4845 Haze 23 1017 33 5000 4.6 70 10:19 07.11.2019
4846 Haze 21 1018 37 5000 4.1 90 09:55 07.11.2019
4847 Haze 21 1018 37 5000 4.1 90 09:37 07.11.2019
4848 Haze 21 1018 37 5000 4.1 90 09:19 07.11.2019
4849 Haze 20 1018 40 5000 4.1 90 08:43 07.11.2019
4850 Haze 20 1018 40 5000 4.1 90 08:22 07.11.2019
4851 Haze 17 1018 45 4000 3.1 80 07:57 07.11.2019
4852 Haze 17 1018 45 4000 3.1 80 07:39 07.11.2019
4853 Haze 17 1018 45 4000 3.1 80 07:38 07.11.2019
4854 Haze 17 1018 45 4000 3.1 80 07:20 07.11.2019
4855 Haze 16 1017 51 4000 2.1 70 06:45 07.11.2019
4856 Haze 16 1017 51 4000 2.1 70 06:25 07.11.2019
4857 Haze 16 1017 55 5000 2.1 330 05:50 07.11.2019
4858 Haze 16 1017 55 5000 2.1 330 05:31 07.11.2019
4859 Haze 15 1017 51 5000 3.1 80 04:52 07.11.2019
4860 Haze 15 1017 51 5000 3.1 80 04:30 07.11.2019
4861 Haze 17 1016 51 5000 6.7 60 01:49 07.11.2019
4862 Haze 18 1017 42 5000 3.1 80 00:46 07.11.2019
4863 Haze 18 1017 42 5000 3.1 80 00:19 07.11.2019
4864 Haze 18 1017 42 5000 2.6 90 23:47 06.11.2019
4865 Haze 18 1017 42 5000 2.6 90 23:21 06.11.2019
4866 Dust 19 1017 37 4000 3.1 80 22:56 06.11.2019
4867 Dust 19 1017 37 4000 3.1 80 22:37 06.11.2019
4868 Dust 19 1017 37 4000 3.1 80 22:18 06.11.2019
4869 Dust 19 1017 37 4000 3.1 80 22:18 06.11.2019
4870 Dust 20 1017 40 3500 4.1 80 21:42 06.11.2019
4871 Dust 20 1017 40 3500 4.1 80 21:21 06.11.2019
4872 Dust 21 1017 35 3500 3.1 80 20:59 06.11.2019
4873 Dust 21 1017 35 3500 3.1 80 20:40 06.11.2019
4874 Dust 21 1017 35 3500 3.1 80 20:22 06.11.2019
4875 Dust 21 1016 40 3500 2.1 60 19:59 06.11.2019
4876 Dust 21 1016 40 3500 2.1 60 19:40 06.11.2019
4877 Dust 21 1016 40 3500 2.1 60 19:21 06.11.2019
4878 Dust 21 1016 40 3500 2.1 60 18:58 06.11.2019
4879 Dust 20 1016 37 3000 2.1 50 18:39 06.11.2019
4880 Dust 20 1016 37 3000 2.1 50 18:19 06.11.2019
4881 Dust 22 1016 35 2000 2.6 70 17:58 06.11.2019
4882 Dust 22 1016 35 2000 2.6 70 17:40 06.11.2019
4883 Dust 22 1016 35 2000 2.6 70 17:21 06.11.2019
4884 Dust 23 1015 31 1500 2.6 70 16:55 06.11.2019
4885 Dust 23 1015 31 1500 2.6 70 16:37 06.11.2019
4886 Dust 23 1015 29 800 4.1 70 16:18 06.11.2019
4887 Dust 25 1015 25 2500 4.1 70 15:56 06.11.2019
4888 Dust 25 1015 25 2500 4.1 70 15:37 06.11.2019
4889 Dust 25 1015 25 2500 4.1 70 15:18 06.11.2019
4890 Dust 26 1015 27 2500 7.2 80 14:56 06.11.2019
4891 Dust 26 1015 27 2500 7.2 80 14:56 06.11.2019
4892 Dust 26 1015 27 2500 7.2 80 14:38 06.11.2019
4893 Dust 26 1015 27 2500 7.2 80 14:19 06.11.2019
4894 Dust 26 1015 27 1500 7.2 70 13:41 06.11.2019
4895 Dust 25 1015 26 4000 7.7 80 13:22 06.11.2019
4896 Dust 25 1016 25 4000 6.2 70 12:58 06.11.2019
4897 Dust 25 1016 25 4000 6.2 70 12:40 06.11.2019
4898 Dust 25 1016 25 4000 6.2 70 12:21 06.11.2019
4899 Dust 25 1016 25 4000 6.2 70 12:21 06.11.2019
4900 Dust 24 1016 27 5000 6.7 90 11:58 06.11.2019
4901 Dust 24 1016 27 5000 6.7 90 11:38 06.11.2019
4902 Dust 24 1016 27 5000 6.7 90 11:19 06.11.2019
4903 Haze 23 1017 28 5000 5.1 100 10:57 06.11.2019
4904 Haze 23 1017 28 5000 5.1 100 10:57 06.11.2019
4905 Haze 23 1017 28 5000 5.1 100 10:39 06.11.2019
4906 Haze 23 1017 28 5000 5.1 100 10:39 06.11.2019
4907 Haze 23 1017 28 5000 5.1 100 10:20 06.11.2019
4908 Dust 22 1018 30 5000 7.7 100 09:57 06.11.2019
4909 Dust 22 1018 30 5000 7.7 100 09:38 06.11.2019
4910 Dust 22 1018 30 5000 7.7 100 09:19 06.11.2019
4911 Haze 20 1018 39 5000 7.48 110 08:54 06.11.2019
4912 Haze 20 1018 39 5000 7.48 110 08:36 06.11.2019
4913 Haze 20 1018 39 5000 6.46 104 08:18 06.11.2019
4914 Haze 20 1018 39 5000 6.62 104 08:18 06.11.2019
4915 Haze 18 1018 48 5000 6.46 104 07:41 06.11.2019
4916 Haze 18 1018 48 5000 6.46 104 07:22 06.11.2019
4917 Haze 16 1018 54 5000 6.46 104 06:47 06.11.2019
4918 Haze 16 1018 54 4000 6.46 104 06:28 06.11.2019
4919 Haze 15 1017 58 4000 4.53 98 04:53 06.11.2019
4920 Haze 16 1018 51 4000 4.53 98 02:54 06.11.2019
4921 Haze 17 1018 45 4000 1 140 01:41 06.11.2019
4922 Haze 17 1018 45 4000 1.5 70 00:46 06.11.2019
4923 Dust 18 1018 45 3000 1.5 330 23:59 05.11.2019
4924 Dust 18 1018 45 3000 1.5 330 23:40 05.11.2019
4925 Dust 18 1018 45 3000 1.5 330 23:21 05.11.2019
4926 Dust 19 1018 42 3000 6.2 90 22:55 05.11.2019
4927 Dust 19 1018 42 3000 6.2 90 22:37 05.11.2019
4928 Dust 19 1018 42 3000 6.2 90 22:18 05.11.2019
4929 Dust 19 1018 37 3000 2.6 100 21:42 05.11.2019
4930 Dust 19 1018 37 3000 2.6 100 21:21 05.11.2019
4931 Dust 20 1018 35 3000 1.5 80 20:59 05.11.2019
4932 Dust 20 1018 35 3000 1.5 80 20:39 05.11.2019
4933 Dust 20 1018 35 3000 1.5 80 20:21 05.11.2019
4934 Haze 20 1018 35 3500 1 90 19:59 05.11.2019
4935 Haze 20 1018 35 3500 1 90 19:40 05.11.2019
4936 Haze 20 1018 35 3500 1 90 19:22 05.11.2019
4937 Haze 21 1018 30 4000 2.6 110 18:58 05.11.2019
4938 Haze 21 1018 30 4000 2.6 110 18:39 05.11.2019
4939 Haze 21 1018 30 4000 2.6 110 18:20 05.11.2019
4940 Haze 23 1017 28 4000 2.6 110 17:58 05.11.2019
4941 Haze 23 1017 28 4000 2.6 110 17:39 05.11.2019
4942 Haze 23 1017 28 4000 2.6 110 17:19 05.11.2019
4943 Haze 25 1017 29 5000 2.6 110 16:56 05.11.2019
4944 Haze 25 1017 29 5000 2.6 110 16:38 05.11.2019
4945 Haze 25 1017 29 5000 2.6 110 16:19 05.11.2019
4946 Haze 26 1017 27 5000 2.6 110 15:39 05.11.2019
4947 Haze 26 1017 27 5000 2.6 110 15:20 05.11.2019
4948 Haze 28 1017 22 5000 2.6 110 14:58 05.11.2019
4949 Haze 28 1017 22 5000 2.6 110 14:40 05.11.2019
4950 Haze 28 1017 22 5000 2.6 110 14:21 05.11.2019
4951 Haze 27 1018 24 5000 2.6 110 13:58 05.11.2019
4952 Haze 27 1018 24 5000 2.6 110 13:58 05.11.2019
4953 Haze 27 1018 24 5000 2.6 110 13:39 05.11.2019
4954 Haze 27 1018 24 5000 2.6 110 13:21 05.11.2019
4955 Haze 27 1018 29 5000 2.6 120 12:40 05.11.2019
4956 Haze 27 1018 29 5000 2.6 120 12:21 05.11.2019
4957 Haze 26 1020 29 5000 4.1 120 11:56 05.11.2019
4958 Haze 26 1020 29 5000 4.1 120 11:38 05.11.2019
4959 Haze 26 1020 29 5000 4.1 120 11:19 05.11.2019
4960 Dust 25 1021 36 5000 4.1 120 10:48 05.11.2019
4961 Dust 25 1021 36 5000 4.1 120 10:27 05.11.2019
4962 Dust 22 1021 40 5000 2.6 90 09:59 05.11.2019
4963 Dust 22 1021 40 5000 2.6 90 09:41 05.11.2019
4964 Dust 22 1021 40 5000 2.6 90 09:21 05.11.2019
4965 Haze 20 1022 42 4000 1.5 80 08:59 05.11.2019
4966 Haze 20 1022 42 4000 1.5 80 08:59 05.11.2019
4967 Haze 20 1022 42 4000 1.5 80 08:37 05.11.2019
4968 Haze 20 1022 42 4000 1.5 80 08:19 05.11.2019
4969 Smoke 17 1021 45 4000 1.5 50 07:55 05.11.2019
4970 Smoke 17 1021 45 4000 1.5 50 07:36 05.11.2019
4971 Smoke 17 1021 45 4000 1.5 50 07:18 05.11.2019
4972 Smoke 14 1021 54 4000 6.65 122 06:40 05.11.2019
4973 Haze 12 1021 58 5000 6.65 122 05:51 05.11.2019
4974 Haze 12 1021 58 5000 4.39 105 05:21 05.11.2019
4975 Haze 12 1021 54 5000 4.39 105 04:24 05.11.2019
4976 Haze 12 1020 47 5000 4.39 105 03:33 05.11.2019
4977 Clear 12 1020 50 6000 4.39 105 02:43 05.11.2019
4978 Clear 12 1020 47 6000 4.51 109 01:57 05.11.2019
4979 Haze 14 1020 47 5000 1 40 00:49 05.11.2019
4980 Haze 14 1020 47 5000 1 40 00:27 05.11.2019
4981 Haze 15 1021 44 5000 4.16 116 23:55 04.11.2019
4982 Haze 15 1021 44 5000 4.16 116 23:36 04.11.2019
4983 Haze 15 1021 44 5000 4.18 83 23:18 04.11.2019
4984 Haze 15 1021 44 5000 4.18 83 23:18 04.11.2019
4985 Haze 15 1021 48 5000 4.18 83 22:41 04.11.2019
4986 Haze 15 1021 48 5000 4.18 83 22:23 04.11.2019
4987 Haze 15 1021 48 5000 4.18 83 22:23 04.11.2019
4988 Haze 16 1021 45 5000 1 290 21:56 04.11.2019
4989 Haze 16 1021 45 5000 1 290 21:37 04.11.2019
4990 Haze 16 1021 45 5000 1 290 21:19 04.11.2019
4991 Haze 17 1021 39 5000 4.18 83 20:58 04.11.2019
4992 Haze 17 1021 39 5000 4.18 83 20:39 04.11.2019
4993 Haze 17 1021 39 5000 1.21 52 20:21 04.11.2019
4994 Haze 18 1021 29 5000 1.21 52 19:59 04.11.2019
4995 Haze 18 1021 29 5000 1.21 52 19:40 04.11.2019
4996 Haze 18 1021 29 5000 1.21 52 19:21 04.11.2019
4997 Haze 19 1021 34 5000 1.21 52 18:57 04.11.2019
4998 Haze 19 1021 34 5000 1.21 52 18:38 04.11.2019
4999 Haze 19 1021 34 5000 1.21 52 18:19 04.11.2019
5000 Haze 21 1020 32 5000 1.21 52 17:39 04.11.2019
5001 Haze 21 1020 32 5000 1.74 121 17:21 04.11.2019
5002 Clear 22 1020 29 6000 1.74 121 16:57 04.11.2019
5003 Clear 22 1020 29 6000 1.74 121 16:39 04.11.2019
5004 Clear 22 1020 29 6000 1.74 121 16:21 04.11.2019
5005 Clear 24 1020 29 7000 1.74 121 15:56 04.11.2019
5006 Clear 24 1020 29 7000 1.74 121 15:38 04.11.2019
5007 Clear 24 1020 29 7000 1.74 121 15:19 04.11.2019
5008 Clear 24 1020 29 7000 1.74 121 15:19 04.11.2019
5009 Clear 25 1020 17 7000 2.1 150 14:54 04.11.2019
5010 Clear 25 1020 17 7000 2.1 150 14:36 04.11.2019
5011 Clear 25 1020 17 7000 2.1 150 14:18 04.11.2019
5012 Haze 25 1021 23 5000 3.1 100 13:54 04.11.2019
5013 Haze 25 1021 23 5000 3.1 100 13:36 04.11.2019
5014 Haze 25 1021 23 5000 3.1 100 13:18 04.11.2019
5015 Haze 24 1021 29 5000 2.1 130 12:41 04.11.2019
5016 Haze 24 1021 29 5000 2.1 130 12:23 04.11.2019
5017 Haze 23 1021 36 5000 3.1 70 11:57 04.11.2019
5018 Haze 23 1021 36 5000 3.1 70 11:38 04.11.2019
5019 Haze 23 1021 36 5000 3.1 70 11:20 04.11.2019
5020 Haze 22 1022 38 5000 1 60 10:45 04.11.2019
5021 Haze 22 1022 38 5000 1 60 10:26 04.11.2019
5022 Haze 20 1022 43 5000 2.6 80 09:55 04.11.2019
5023 Haze 20 1022 43 5000 2.6 80 09:37 04.11.2019
5024 Haze 20 1022 43 5000 2.6 80 09:18 04.11.2019
5025 Haze 19 1022 49 5000 3.1 80 08:41 04.11.2019
5026 Haze 19 1022 49 5000 3.1 80 08:21 04.11.2019
5027 Haze 19 1022 49 5000 3.1 80 08:21 04.11.2019
5028 Haze 16 1023 63 4000 0.5 250 07:45 04.11.2019
5029 Haze 16 1023 63 4000 0.5 250 07:25 04.11.2019
5030 Haze 12 1022 67 4000 1 209 06:59 04.11.2019
5031 Haze 12 1022 67 4000 1 209 06:38 04.11.2019
5032 Haze 12 1021 67 4000 1 209 05:59 04.11.2019
5033 Haze 12 1021 67 4000 1.26 314 05:23 04.11.2019
5034 Clear 11 1021 67 6000 1.26 314 04:25 04.11.2019
5035 Haze 12 1021 58 5000 1.5 190 03:29 04.11.2019
5036 Haze 13 1021 58 5000 0.5 200 01:23 04.11.2019
5037 Haze 13 1021 58 5000 0.5 200 00:54 04.11.2019
5038 Haze 13 1021 58 5000 0.5 200 00:22 04.11.2019
5039 Haze 14 1021 51 5000 1.5 160 23:58 03.11.2019
5040 Haze 14 1021 51 5000 1.5 160 23:58 03.11.2019
5041 Haze 14 1021 51 5000 1.5 160 23:37 03.11.2019
5042 Haze 14 1021 51 5000 1.5 160 23:18 03.11.2019
5043 Haze 14 1021 51 5000 1.5 160 23:18 03.11.2019
5044 Haze 14 1021 51 5000 1.5 160 23:18 03.11.2019
5045 Haze 14 1021 51 5000 1.5 160 23:18 03.11.2019
5046 Haze 14 1021 51 5000 1.5 160 23:18 03.11.2019
5047 Haze 14 1021 51 5000 1 160 22:56 03.11.2019
5048 Haze 14 1021 51 5000 1 160 22:38 03.11.2019
5049 Haze 14 1021 51 5000 1 160 22:18 03.11.2019
5050 Haze 16 1021 48 5000 1 80 21:42 03.11.2019
5051 Haze 16 1021 48 5000 1 80 21:21 03.11.2019
5052 Haze 16 1021 51 5000 0.5 140 20:58 03.11.2019
5053 Haze 16 1021 51 5000 0.5 140 20:37 03.11.2019
5054 Haze 16 1021 51 5000 0.5 140 20:19 03.11.2019
5055 Haze 17 1020 52 5000 1 40 19:57 03.11.2019
5056 Haze 17 1020 52 5000 1 40 19:38 03.11.2019
5057 Haze 17 1020 52 5000 1 40 19:20 03.11.2019
5058 Haze 18 1020 45 5000 4.13 341 18:56 03.11.2019
5059 Haze 18 1020 45 5000 4.13 341 18:37 03.11.2019
5060 Haze 18 1020 45 5000 4.13 341 18:18 03.11.2019
5061 Haze 20 1020 34 5000 2.6 280 17:42 03.11.2019
5062 Haze 20 1020 34 5000 2.6 280 17:20 03.11.2019
5063 Haze 21 1018 33 5000 2.1 290 16:59 03.11.2019
5064 Haze 21 1018 33 5000 2.1 290 16:40 03.11.2019
5065 Haze 21 1018 33 5000 2.1 290 16:21 03.11.2019
5066 Haze 23 1018 33 5000 3.1 250 15:58 03.11.2019
5067 Haze 23 1018 33 5000 3.1 250 15:58 03.11.2019
5068 Haze 23 1018 33 5000 3.1 250 15:39 03.11.2019
5069 Haze 23 1018 33 5000 3.1 250 15:21 03.11.2019
5070 Haze 24 1018 31 5000 5.1 260 14:43 03.11.2019
5071 Haze 24 1018 31 5000 5.1 260 14:20 03.11.2019
5072 Haze 25 1018 29 5000 1 290 13:59 03.11.2019
5073 Haze 25 1018 29 5000 1 290 13:59 03.11.2019
5074 Haze 25 1018 29 5000 1 290 13:41 03.11.2019
5075 Haze 25 1018 29 5000 1 290 13:18 03.11.2019
5076 Haze 24 1018 29 5000 2.1 190 12:55 03.11.2019
5077 Haze 24 1018 29 5000 2.1 190 12:36 03.11.2019
5078 Haze 24 1018 29 5000 2.1 190 12:18 03.11.2019
5079 Haze 24 1019 46 5000 1.5 180 11:42 03.11.2019
5080 Haze 24 1019 46 5000 1.5 180 11:22 03.11.2019
5081 Haze 23 1020 46 5000 1.5 160 10:55 03.11.2019
5082 Haze 23 1020 46 5000 1.5 160 10:37 03.11.2019
5083 Haze 23 1020 46 5000 1.5 160 10:19 03.11.2019
5084 Haze 21 1020 56 5000 1 70 09:43 03.11.2019
5085 Haze 21 1020 56 5000 1 70 09:25 03.11.2019
5086 Haze 18 1020 63 4000 1.5 100 08:56 03.11.2019
5087 Haze 18 1020 63 4000 1.5 100 08:37 03.11.2019
5088 Haze 18 1020 63 4000 1.5 100 08:19 03.11.2019
5089 Haze 16 1020 87 4000 1.56 114 07:45 03.11.2019
5090 Haze 16 1020 87 4000 1.56 114 07:22 03.11.2019
5091 Mist 13 1019 93 3000 1.56 114 06:39 03.11.2019
5092 Mist 11 1019 93 3000 1.56 114 05:57 03.11.2019
5093 Mist 11 1019 93 3000 1.56 114 05:38 03.11.2019
5094 Mist 11 1019 93 3000 1.56 114 05:38 03.11.2019
5095 Mist 11 1019 93 4000 1.77 312 04:55 03.11.2019
5096 Mist 11 1019 93 4000 1.77 312 04:26 03.11.2019
5097 Mist 10 1019 93 5000 1.77 312 03:28 03.11.2019
5098 Mist 11 1019 93 5000 1.77 312 02:30 03.11.2019
5099 Mist 12 1019 93 5000 2.27 331 01:57 03.11.2019
5100 Mist 12 1019 93 5000 2.27 331 01:37 03.11.2019
5101 Mist 12 1019 93 5000 2.43 326 01:19 03.11.2019
5102 Mist 13 1019 87 5000 2.43 326 00:41 03.11.2019
5103 Mist 13 1019 87 5000 2.43 326 00:22 03.11.2019
5104 Mist 13 1019 87 5000 2.43 326 23:57 02.11.2019
5105 Mist 13 1019 87 5000 2.43 326 23:37 02.11.2019
5106 Mist 14 1019 87 5000 3.69 339 23:18 02.11.2019
5107 Mist 14 1019 87 5000 3.69 339 22:55 02.11.2019
5108 Mist 14 1019 87 5000 3.69 339 22:37 02.11.2019
5109 Mist 14 1019 87 5000 3.69 339 22:18 02.11.2019
5110 Mist 14 1019 87 5000 3.69 339 22:18 02.11.2019
5111 Clouds 15 1019 87 6000 3.69 339 21:55 02.11.2019
5112 Clouds 15 1019 87 6000 3.69 339 21:37 02.11.2019
5113 Clouds 15 1019 87 6000 3.69 339 21:18 02.11.2019
5114 Clouds 15 1019 82 6000 1.5 300 20:57 02.11.2019
5115 Clouds 15 1019 82 6000 1.5 300 20:38 02.11.2019
5116 Clouds 15 1019 82 6000 1.5 300 20:19 02.11.2019
5117 Haze 16 1018 82 5000 1.5 230 19:40 02.11.2019
5118 Haze 16 1018 82 5000 1.5 230 19:22 02.11.2019
5119 Haze 17 1018 82 5000 1.5 230 18:56 02.11.2019
5120 Haze 17 1018 82 5000 1.5 230 18:37 02.11.2019
5121 Haze 17 1018 82 5000 1.5 230 18:19 02.11.2019
5122 Haze 18 1018 72 5000 4.1 300 17:57 02.11.2019
5123 Haze 18 1018 72 5000 4.1 300 17:38 02.11.2019
5124 Haze 18 1018 72 5000 4.1 300 17:20 02.11.2019
5125 Haze 20 1017 60 5000 5.1 280 16:57 02.11.2019
5126 Haze 20 1017 60 5000 5.1 280 16:36 02.11.2019
5127 Clouds 21 1017 56 6000 4.1 270 16:18 02.11.2019
5128 Clouds 21 1017 56 6000 4.1 270 16:18 02.11.2019
5129 Clouds 21 1017 56 6000 4.1 270 16:18 02.11.2019
5130 Haze 21 1017 52 5000 4.6 280 15:41 02.11.2019
5131 Haze 21 1017 52 5000 4.6 280 15:20 02.11.2019
5132 Haze 22 1017 49 5000 4.6 300 14:43 02.11.2019
5133 Haze 22 1017 49 5000 4.6 300 14:24 02.11.2019
5134 Haze 23 1016 43 5000 4.1 280 13:58 02.11.2019
5135 Haze 23 1016 43 5000 4.1 280 13:39 02.11.2019
5136 Haze 23 1016 43 5000 4.1 280 13:19 02.11.2019
5137 Haze 23 1017 46 5000 1.5 300 12:41 02.11.2019
5138 Haze 23 1017 46 5000 1.5 300 12:41 02.11.2019
5139 Haze 23 1017 46 5000 1.5 300 12:23 02.11.2019
5140 Haze 22 1017 43 5000 4.1 320 11:59 02.11.2019
5141 Haze 22 1017 43 5000 4.1 320 11:40 02.11.2019
5142 Haze 22 1017 43 5000 4.1 320 11:22 02.11.2019
5143 Haze 21 1018 56 5000 4.1 300 10:51 02.11.2019
5144 Haze 21 1018 56 5000 4.1 300 10:29 02.11.2019
5145 Haze 19 1018 56 5000 3.6 300 09:59 02.11.2019
5146 Haze 19 1018 56 5000 3.6 300 09:40 02.11.2019
5147 Haze 19 1018 56 5000 3.6 300 09:21 02.11.2019
5148 Haze 18 1018 68 5000 4.1 300 08:50 02.11.2019
5149 Haze 18 1018 68 5000 4.1 300 08:23 02.11.2019
5150 Haze 15 1018 82 5000 1 110 07:52 02.11.2019
5151 Haze 15 1018 82 5000 1 110 07:33 02.11.2019
5152 Haze 13 1018 82 5000 2.6 310 06:59 02.11.2019
5153 Haze 13 1018 82 5000 2.6 310 06:41 02.11.2019
5154 Haze 13 1018 82 5000 2.6 310 06:20 02.11.2019
5155 Haze 13 1017 82 5000 3.1 270 05:33 02.11.2019
5156 Haze 12 1017 82 5000 3.1 230 04:23 02.11.2019
5157 Haze 12 1017 82 5000 2.1 130 03:51 02.11.2019
5158 Haze 15 1017 82 4000 1 290 02:50 02.11.2019
5159 Haze 13 1017 87 4000 1 20 01:57 02.11.2019
5160 Haze 13 1017 87 4000 1 20 01:27 02.11.2019
5161 Haze 13 1017 82 5000 4.1 310 00:55 02.11.2019
5162 Haze 13 1017 82 5000 4.1 310 00:29 02.11.2019
5163 Haze 14 1017 82 5000 4.1 310 23:55 01.11.2019
5164 Haze 14 1017 82 5000 4.1 310 23:37 01.11.2019
5165 Haze 14 1017 82 5000 4.1 310 23:37 01.11.2019
5166 Haze 14 1017 82 5000 4.1 310 23:18 01.11.2019
5167 Haze 14 1017 77 5000 1.5 330 22:41 01.11.2019
5168 Haze 14 1017 77 5000 1.5 330 22:41 01.11.2019
5169 Haze 14 1017 77 5000 1.5 330 22:20 01.11.2019
5170 Haze 14 1017 72 5000 5 324 21:43 01.11.2019
5171 Haze 14 1017 72 5000 5 324 21:24 01.11.2019
5172 Haze 15 1017 72 5000 1.5 300 20:59 01.11.2019
5173 Haze 15 1017 72 5000 1.5 300 20:41 01.11.2019
5174 Haze 15 1017 72 5000 1.5 300 20:22 01.11.2019
5175 Clear 16 1017 77 6000 2.6 300 19:59 01.11.2019
5176 Clear 16 1017 77 6000 2.6 300 19:40 01.11.2019
5177 Clear 16 1017 77 6000 2.6 300 19:21 01.11.2019
5178 Clouds 17 1017 72 6000 4.6 310 18:41 01.11.2019
5179 Clouds 17 1017 72 6000 4.6 310 18:21 01.11.2019
5180 Haze 19 1016 68 5000 4.6 310 17:59 01.11.2019
5181 Haze 19 1016 68 5000 4.6 310 17:41 01.11.2019
5182 Haze 19 1016 68 5000 4.6 310 17:22 01.11.2019
5183 Haze 20 1016 68 5000 5.1 310 16:40 01.11.2019
5184 Haze 20 1016 68 5000 5.1 310 16:20 01.11.2019
5185 Haze 22 1016 49 5000 5.7 280 15:58 01.11.2019
5186 Haze 22 1016 49 5000 5.7 280 15:40 01.11.2019
5187 Haze 22 1016 49 5000 5.7 280 15:22 01.11.2019
5188 Haze 23 1016 43 5000 6.2 300 14:44 01.11.2019
5189 Haze 23 1016 43 5000 6.2 300 14:26 01.11.2019
5190 Haze 24 1015 33 5000 6.2 280 14:00 01.11.2019
5191 Haze 24 1015 33 5000 6.2 280 13:41 01.11.2019
5192 Haze 24 1015 33 5000 6.2 280 13:22 01.11.2019
5193 Haze 24 1015 31 5000 4.1 280 12:56 01.11.2019
5194 Haze 24 1015 31 5000 4.1 280 12:56 01.11.2019
5195 Haze 24 1015 31 5000 4.1 280 12:37 01.11.2019
5196 Haze 24 1015 31 5000 4.1 280 12:19 01.11.2019
5197 Haze 25 1016 36 5000 5.4 254 11:42 01.11.2019
5198 Haze 25 1016 36 5000 5.4 254 11:24 01.11.2019
5199 Haze 23 1017 40 5000 2.2 233 10:56 01.11.2019
5200 Haze 23 1017 40 5000 2.2 233 10:38 01.11.2019
5201 Haze 23 1017 40 5000 2.2 233 10:19 01.11.2019
5202 Haze 21 1017 45 5000 2.2 233 09:42 01.11.2019
5203 Haze 21 1017 45 5000 2.2 233 09:23 01.11.2019
5204 Haze 19 1018 48 5000 2.1 140 08:57 01.11.2019
5205 Haze 19 1018 48 5000 2.1 140 08:39 01.11.2019
5206 Haze 19 1018 48 5000 2.1 140 08:20 01.11.2019
5207 Haze 19 1018 48 5000 2.1 140 08:20 01.11.2019
5208 Haze 15 1017 59 5000 0.44 297 07:46 01.11.2019
5209 Haze 15 1017 59 5000 0.44 297 07:23 01.11.2019
5210 Haze 13 1017 62 5000 0.44 297 06:56 01.11.2019
5211 Haze 13 1017 62 5000 0.44 297 06:23 01.11.2019
5212 Haze 11 1017 67 5000 0.44 297 05:59 01.11.2019
5213 Haze 11 1017 67 5000 0.44 297 05:38 01.11.2019
5214 Clear 12 1017 67 6000 2.1 150 03:33 01.11.2019
5215 Clear 13 1018 58 6000 1.5 150 01:49 01.11.2019
5216 Clear 13 1018 58 6000 1.5 150 01:26 01.11.2019
5217 Clear 13 1018 62 6000 1.5 150 00:21 01.11.2019
5218 Clear 14 1018 62 6000 1 150 23:55 31.10.2019
5219 Clear 14 1018 62 6000 1 150 23:36 31.10.2019
5220 Clear 14 1018 62 6000 1 150 23:18 31.10.2019
5221 Clear 15 1018 55 6000 1 150 22:42 31.10.2019
5222 Clear 15 1018 55 6000 1 150 22:23 31.10.2019
5223 Clear 15 1018 59 6000 1 150 21:57 31.10.2019
5224 Clear 15 1018 59 6000 1 150 21:39 31.10.2019
5225 Clear 15 1018 59 6000 1 150 21:18 31.10.2019
5226 Clear 15 1018 59 6000 1 150 20:41 31.10.2019
5227 Clear 15 1018 59 6000 1 150 20:22 31.10.2019
5228 Clear 16 1018 52 6000 1 150 19:58 31.10.2019
5229 Clear 16 1018 52 6000 1 150 19:38 31.10.2019
5230 Clear 16 1018 52 6000 1 150 19:19 31.10.2019
5231 Clear 17 1018 55 6000 3.21 353 18:44 31.10.2019
5232 Clear 17 1018 55 6000 3.21 353 18:25 31.10.2019
5233 Clear 19 1018 45 6000 3.21 353 17:58 31.10.2019
5234 Clear 19 1018 45 6000 3.21 353 17:40 31.10.2019
5235 Clear 19 1018 45 6000 1.79 318 17:20 31.10.2019
5236 Clear 22 1018 33 6000 3.6 280 16:55 31.10.2019
5237 Clear 22 1018 33 6000 3.6 280 16:37 31.10.2019
5238 Clear 22 1018 33 6000 3.6 280 16:18 31.10.2019
5239 Clear 21 1017 68 6000 3.6 280 15:40 31.10.2019
5240 Clear 21 1017 68 6000 3.6 280 15:40 31.10.2019
5241 Clear 21 1017 68 6000 3.6 280 15:21 31.10.2019
5242 Clear 21 1017 68 6000 3.6 280 15:21 31.10.2019
5243 Haze 22 1017 63 5000 1.5 170 14:58 31.10.2019
5244 Haze 22 1017 63 5000 1.5 170 14:40 31.10.2019
5245 Haze 22 1017 63 5000 1.5 170 14:22 31.10.2019
5246 Haze 25 1018 31 5000 3.1 260 13:59 31.10.2019
5247 Haze 25 1018 31 5000 3.1 260 13:39 31.10.2019
5248 Haze 25 1018 31 5000 3.1 260 13:19 31.10.2019
5249 Haze 24 1018 33 5000 1 190 12:57 31.10.2019
5250 Haze 24 1018 33 5000 1 190 12:38 31.10.2019
5251 Haze 24 1018 33 5000 1 190 12:18 31.10.2019
5252 Haze 23 1019 43 5000 1.5 250 11:45 31.10.2019
5253 Haze 23 1019 43 5000 1.5 250 11:21 31.10.2019
5254 Haze 22 1020 40 5000 3.1 130 10:58 31.10.2019
5255 Haze 22 1020 40 5000 3.1 130 10:58 31.10.2019
5256 Haze 22 1020 40 5000 3.1 130 10:39 31.10.2019
5257 Haze 22 1020 40 5000 3.1 130 10:21 31.10.2019
5258 Haze 21 1020 46 5000 2.1 160 09:56 31.10.2019
5259 Haze 21 1020 46 5000 2.1 160 09:37 31.10.2019
5260 Haze 21 1020 46 5000 2.1 160 09:18 31.10.2019
5261 Haze 20 1019 49 5000 3.05 141 08:44 31.10.2019
5262 Haze 20 1019 49 5000 3.6 134 08:26 31.10.2019
5263 Haze 18 1020 55 5000 4.1 111 07:48 31.10.2019
5264 Haze 16 1020 72 3000 4.1 111 07:27 31.10.2019
5265 Haze 13 1020 82 2500 4.1 111 06:55 31.10.2019
5266 Haze 13 1020 82 2500 4.1 111 06:32 31.10.2019
5267 Mist 13 1019 87 3000 4.1 111 05:28 31.10.2019
5268 Haze 14 1019 76 5000 1 180 03:20 31.10.2019
5269 Haze 14 1019 76 5000 2.33 104 02:30 31.10.2019
5270 Haze 14 1019 76 5000 1.59 78 01:25 31.10.2019
5271 Haze 14 1019 67 5000 1.59 78 00:34 31.10.2019
5272 Haze 15 1019 67 5000 1.59 78 23:53 30.10.2019
5273 Haze 15 1019 67 5000 1.59 78 23:27 30.10.2019
5274 Haze 14 1019 62 5000 2.15 9 22:43 30.10.2019
5275 Haze 14 1019 62 5000 2.15 9 22:21 30.10.2019
5276 Haze 15 1019 59 5000 2.15 9 21:55 30.10.2019
5277 Haze 15 1019 59 5000 2.15 9 21:37 30.10.2019
5278 Haze 15 1019 59 5000 2.15 9 21:18 30.10.2019
5279 Haze 15 1019 55 5000 2.15 9 20:58 30.10.2019
5280 Haze 15 1019 55 5000 2.15 9 20:40 30.10.2019
5281 Haze 15 1019 55 5000 3.42 340 20:22 30.10.2019
5282 Haze 16 1019 59 5000 3.42 340 19:58 30.10.2019
5283 Haze 16 1019 59 5000 3.42 340 19:38 30.10.2019
5284 Haze 16 1019 59 5000 3.42 340 19:19 30.10.2019
5285 Haze 17 1019 52 5000 2.1 260 18:57 30.10.2019
5286 Haze 17 1019 52 5000 2.1 260 18:36 30.10.2019
5287 Haze 17 1019 52 5000 2.1 260 18:18 30.10.2019
5288 Haze 18 1019 52 5000 2.1 290 17:41 30.10.2019
5289 Haze 18 1019 52 5000 2.1 290 17:19 30.10.2019
5290 Haze 18 1019 52 5000 2.1 290 17:19 30.10.2019
5291 Haze 20 1019 52 5000 3.6 310 16:56 30.10.2019
5292 Haze 20 1019 52 5000 3.6 310 16:38 30.10.2019
5293 Haze 20 1019 52 5000 3.6 310 16:20 30.10.2019
5294 Haze 22 1018 49 5000 1.48 294 15:57 30.10.2019
5295 Haze 22 1018 49 5000 1.48 294 15:38 30.10.2019
5296 Haze 22 1018 49 5000 1.48 294 15:19 30.10.2019
5297 Haze 22 1018 37 5000 2.1 20 14:56 30.10.2019
5298 Haze 22 1018 37 5000 2.1 20 14:38 30.10.2019
5299 Haze 22 1018 37 5000 2.1 20 14:18 30.10.2019
5300 Haze 23 1018 43 5000 2.57 297 13:42 30.10.2019
5301 Haze 23 1018 43 5000 2.32 290 13:21 30.10.2019
5302 Haze 22 1019 43 5000 1 50 12:59 30.10.2019
5303 Haze 22 1019 43 5000 1 50 12:41 30.10.2019
5304 Haze 22 1019 43 5000 1 50 12:22 30.10.2019
5305 Haze 21 1019 49 5000 1.5 90 11:43 30.10.2019
5306 Haze 21 1019 49 5000 1.5 90 11:25 30.10.2019
5307 Haze 20 1019 52 5000 1.5 100 10:59 30.10.2019
5308 Haze 20 1019 52 5000 1.5 100 10:41 30.10.2019
5309 Haze 20 1019 52 5000 1.5 100 10:22 30.10.2019
5310 Haze 20 1020 59 5000 1 190 09:41 30.10.2019
5311 Haze 20 1020 59 5000 1 190 09:22 30.10.2019
5312 Haze 16 1020 72 5000 1 80 08:56 30.10.2019
5313 Haze 16 1020 72 5000 1 80 08:38 30.10.2019
5314 Haze 16 1020 72 5000 1 80 08:18 30.10.2019
5315 Haze 14 1019 82 5000 2.63 330 07:43 30.10.2019
5316 Mist 12 1019 87 4000 2.63 330 06:59 30.10.2019
5317 Mist 12 1019 87 4000 2.63 330 06:40 30.10.2019
5318 Mist 12 1019 100 1300 2.63 330 05:58 30.10.2019
5319 Mist 11 1019 100 1300 2.63 330 05:39 30.10.2019
5320 Mist 12 1018 87 4000 2.19 348 04:26 30.10.2019
5321 Clouds 12 1018 87 6000 1 260 03:39 30.10.2019
5322 Clouds 12 1018 87 6000 1 260 02:49 30.10.2019
5323 Clouds 12 1018 82 6000 3.18 306 01:49 30.10.2019
5324 Clouds 13 1018 82 6000 3.57 303 00:49 30.10.2019
5325 Clouds 13 1018 82 6000 3.57 303 00:28 30.10.2019
5326 Clouds 14 1018 87 6000 3.57 303 23:41 29.10.2019
5327 Clear 15 1018 87 6000 3.1 330 23:22 29.10.2019
5328 Clouds 15 1018 82 6000 2.1 330 22:46 29.10.2019
5329 Clouds 15 1018 82 6000 2.1 330 22:20 29.10.2019
5330 Haze 15 1018 87 5000 1.5 260 21:56 29.10.2019
5331 Haze 15 1018 87 5000 1.5 260 21:38 29.10.2019
5332 Haze 15 1018 87 5000 1.5 260 21:20 29.10.2019
5333 Clear 15 1018 77 6000 4.11 325 20:56 29.10.2019
5334 Clear 15 1018 77 6000 4.11 325 20:37 29.10.2019
5335 Clouds 15 1018 77 6000 4.37 323 20:19 29.10.2019
5336 Haze 16 1018 72 5000 2.6 310 19:55 29.10.2019
5337 Haze 16 1018 72 5000 2.6 310 19:37 29.10.2019
5338 Haze 16 1018 72 5000 2.6 310 19:18 29.10.2019
5339 Haze 17 1017 68 5000 3.6 310 18:55 29.10.2019
5340 Haze 17 1017 68 5000 3.6 310 18:36 29.10.2019
5341 Haze 17 1017 68 5000 3.6 310 18:18 29.10.2019
5342 Haze 18 1017 68 5000 3.6 280 17:54 29.10.2019
5343 Haze 18 1017 68 5000 3.6 280 17:36 29.10.2019
5344 Haze 18 1017 68 5000 3.6 280 17:18 29.10.2019
5345 Haze 20 1016 63 5000 3.6 260 16:39 29.10.2019
5346 Haze 20 1016 63 5000 3.6 260 16:39 29.10.2019
5347 Haze 20 1016 63 5000 3.6 260 16:19 29.10.2019
5348 Haze 20 1016 63 4000 5.1 260 15:56 29.10.2019
5349 Haze 20 1016 63 4000 5.1 260 15:38 29.10.2019
5350 Haze 20 1016 63 4000 5.1 260 15:19 29.10.2019
5351 Haze 21 1016 56 4000 5.7 290 14:55 29.10.2019
5352 Haze 21 1016 56 4000 5.7 290 14:37 29.10.2019
5353 Haze 21 1016 56 4000 5.7 290 14:18 29.10.2019
5354 Haze 22 1015 46 5000 4.1 270 13:40 29.10.2019
5355 Haze 22 1015 46 5000 4.1 270 13:40 29.10.2019
5356 Haze 22 1015 46 5000 4.1 270 13:22 29.10.2019
5357 Haze 22 1015 52 5000 5.7 240 12:45 29.10.2019
5358 Haze 22 1015 52 5000 5.7 240 12:26 29.10.2019
5359 Haze 21 1015 56 5000 5.1 280 11:59 29.10.2019
5360 Haze 21 1015 56 5000 5.1 280 11:41 29.10.2019
5361 Haze 21 1015 56 5000 5.1 280 11:19 29.10.2019
5362 Haze 21 1015 56 5000 5.7 250 10:57 29.10.2019
5363 Haze 21 1015 56 5000 5.7 250 10:38 29.10.2019
5364 Haze 21 1015 56 5000 5.7 250 10:20 29.10.2019
5365 Haze 20 1016 56 5000 4.6 270 09:55 29.10.2019
5366 Haze 20 1016 56 5000 4.6 270 09:37 29.10.2019
5367 Haze 20 1016 56 5000 4.6 270 09:19 29.10.2019
5368 Haze 18 1016 63 5000 3.6 280 08:43 29.10.2019
5369 Haze 18 1016 63 5000 3.6 280 08:24 29.10.2019
5370 Haze 15 1015 77 5000 2.6 240 07:55 29.10.2019
5371 Haze 15 1015 77 5000 2.6 240 07:36 29.10.2019
5372 Haze 15 1015 77 5000 2.6 240 07:18 29.10.2019
5373 Haze 13 1015 82 5000 2.1 240 06:43 29.10.2019
5374 Haze 13 1015 82 5000 2.1 240 06:21 29.10.2019
5375 Haze 12 1014 82 5000 3.6 240 05:50 29.10.2019
5376 Haze 12 1014 82 5000 3.6 240 05:19 29.10.2019
5377 Haze 12 1014 82 5000 3.6 240 04:30 29.10.2019
5378 Clouds 13 1014 82 7000 2.1 240 02:32 29.10.2019
5379 Clear 15 1015 77 7000 3.1 240 01:46 29.10.2019
5380 Clear 13 1015 77 7000 3.1 240 01:18 29.10.2019
5381 Clear 13 1015 77 7000 2.1 240 00:32 29.10.2019
5382 Clear 15 1015 77 7000 2.6 240 23:43 28.10.2019
5383 Clear 15 1015 77 7000 2.6 240 23:21 28.10.2019
5384 Clear 15 1015 67 7000 4.1 250 22:58 28.10.2019
5385 Clear 15 1015 67 7000 4.1 250 22:37 28.10.2019
5386 Clear 15 1015 67 7000 4.1 250 22:18 28.10.2019
5387 Clear 16 1015 67 7000 3.1 240 21:56 28.10.2019
5388 Clear 16 1015 67 7000 3.1 240 21:38 28.10.2019
5389 Clear 16 1015 67 7000 3.1 240 21:38 28.10.2019
5390 Clear 16 1015 67 7000 3.1 240 21:19 28.10.2019
5391 Clear 16 1015 72 7000 4.1 250 20:45 28.10.2019
5392 Clear 16 1015 72 7000 4.1 250 20:25 28.10.2019
5393 Haze 17 1015 77 5000 5.1 250 19:59 28.10.2019
5394 Haze 17 1015 77 5000 5.1 250 19:39 28.10.2019
5395 Haze 17 1015 77 5000 5.1 250 19:21 28.10.2019
5396 Haze 18 1014 72 5000 6.7 270 18:59 28.10.2019
5397 Haze 18 1014 72 5000 6.7 270 18:59 28.10.2019
5398 Haze 18 1014 72 5000 6.7 270 18:40 28.10.2019
5399 Haze 18 1014 72 5000 6.7 270 18:21 28.10.2019
5400 Haze 19 1014 68 5000 6.2 250 17:57 28.10.2019
5401 Haze 19 1014 68 5000 6.2 250 17:38 28.10.2019
5402 Haze 19 1014 68 5000 6.2 250 17:19 28.10.2019
5403 Haze 20 1013 64 5000 5.7 300 16:57 28.10.2019
5404 Haze 20 1013 64 5000 5.7 300 16:39 28.10.2019
5405 Haze 20 1013 64 5000 5.7 300 16:21 28.10.2019
5406 Haze 23 1013 49 4000 6.7 250 15:58 28.10.2019
5407 Haze 23 1013 49 4000 6.7 250 15:39 28.10.2019
5408 Haze 23 1013 49 4000 6.7 250 15:20 28.10.2019
5409 Haze 24 1013 46 5000 6.2 250 14:57 28.10.2019
5410 Haze 24 1013 46 5000 6.2 250 14:38 28.10.2019
5411 Haze 24 1013 46 5000 6.2 250 14:18 28.10.2019
5412 Haze 25 1013 47 5000 5.1 250 13:56 28.10.2019
5413 Haze 25 1013 47 5000 5.1 250 13:38 28.10.2019
5414 Haze 25 1013 47 5000 5.1 250 13:18 28.10.2019
5415 Haze 24 1014 46 5000 3.6 230 12:42 28.10.2019
5416 Haze 24 1014 46 5000 3.6 230 12:21 28.10.2019
5417 Haze 24 1014 44 5000 3.6 230 11:40 28.10.2019
5418 Haze 24 1014 44 5000 3.6 230 11:22 28.10.2019
5419 Haze 23 1014 46 5000 3.6 230 10:58 28.10.2019
5420 Haze 23 1014 46 5000 3.6 230 10:39 28.10.2019
5421 Haze 23 1014 46 5000 3.6 230 10:21 28.10.2019
5422 Haze 22 1015 53 5000 1.5 220 09:57 28.10.2019
5423 Haze 22 1015 53 5000 1.5 220 09:38 28.10.2019
5424 Haze 22 1015 53 5000 1.5 220 09:19 28.10.2019
5425 Haze 19 1015 60 4000 1.6 207 08:57 28.10.2019
5426 Haze 19 1015 60 4000 1.6 207 08:38 28.10.2019
5427 Haze 19 1015 60 4000 1.6 207 08:38 28.10.2019
5428 Haze 19 1015 60 4000 2.1 317 08:19 28.10.2019
5429 Haze 17 1015 77 3000 2.1 317 07:55 28.10.2019
5430 Haze 17 1015 77 3000 2.1 317 07:36 28.10.2019
5431 Haze 17 1015 77 3000 2.1 317 07:18 28.10.2019
5432 Haze 14 1014 87 2000 2.1 317 06:39 28.10.2019
5433 Mist 13 1015 93 2500 2.1 317 05:40 28.10.2019
5434 Haze 14 1014 87 4000 1 240 03:45 28.10.2019
5435 Haze 15 1015 87 4000 1 240 02:46 28.10.2019
5436 Haze 15 1015 87 4000 2.18 317 01:55 28.10.2019
5437 Haze 16 1014 82 4000 2.88 326 00:56 28.10.2019
5438 Haze 16 1014 82 4000 2.88 326 00:33 28.10.2019
5439 Haze 16 1015 82 4000 2.88 326 23:47 27.10.2019
5440 Haze 16 1015 82 4000 2.88 326 23:24 27.10.2019
5441 Haze 16 1015 82 4000 2.57 4 22:58 27.10.2019
5442 Haze 16 1015 82 4000 2.57 4 22:40 27.10.2019
5443 Haze 17 1015 82 4000 2.57 4 22:21 27.10.2019
5444 Haze 17 1015 82 4000 2.57 4 22:21 27.10.2019
5445 Haze 18 1015 72 4000 2.1 310 21:57 27.10.2019
5446 Haze 18 1015 72 4000 2.1 310 21:39 27.10.2019
5447 Haze 18 1015 72 4000 2.1 310 21:39 27.10.2019
5448 Haze 18 1015 72 4000 2.1 310 21:39 27.10.2019
5449 Haze 18 1015 72 4000 2.1 310 21:21 27.10.2019
5450 Haze 18 1015 72 4000 2.1 310 20:57 27.10.2019
5451 Haze 18 1015 72 4000 2.1 310 20:38 27.10.2019
5452 Haze 18 1015 72 4000 2.1 310 20:20 27.10.2019
5453 Haze 18 1015 63 4000 3.1 280 19:55 27.10.2019
5454 Haze 18 1015 63 4000 3.1 280 19:36 27.10.2019
5455 Haze 18 1015 63 4000 3.1 280 19:18 27.10.2019
5456 Haze 19 1015 56 4000 4.1 270 18:55 27.10.2019
5457 Haze 19 1015 56 4000 4.1 270 18:36 27.10.2019
5458 Haze 19 1015 56 4000 4.1 270 18:18 27.10.2019
5459 Haze 21 1015 49 4000 3.1 290 17:40 27.10.2019
5460 Haze 21 1015 49 4000 3.1 290 17:20 27.10.2019
5461 Thunderstorm 22 1014 49 5000 3.6 320 16:58 27.10.2019
5462 Thunderstorm 22 1014 49 5000 3.6 320 16:40 27.10.2019
5463 Haze 22 1014 46 5000 3.6 320 16:22 27.10.2019
5464 -273 0 0 0 0 0 15:56 27.10.2019
5465 Clouds 24 1014 73 6000 4.1 340 15:38 27.10.2019
5466 Clouds 24 1014 73 6000 4.1 340 15:20 27.10.2019
5467 Clouds 24 1014 38 6000 3.1 330 14:43 27.10.2019
5468 Clouds 24 1014 38 6000 3.1 330 14:24 27.10.2019
5469 Rain 23 1014 46 6000 3.6 270 13:59 27.10.2019
5470 Rain 23 1014 46 6000 3.6 270 13:40 27.10.2019
5471 Rain 23 1014 46 6000 3.6 270 13:21 27.10.2019
5472 Rain 25 1014 41 5000 5.1 280 12:59 27.10.2019
5473 Rain 25 1014 41 5000 5.1 280 12:41 27.10.2019
5474 Clouds 25 1014 41 7000 2.6 90 12:23 27.10.2019
5475 Haze 24 1015 41 5000 1.5 0 11:42 27.10.2019
5476 Haze 24 1015 41 5000 1.5 0 11:24 27.10.2019
5477 Haze 24 1015 41 5000 1.5 0 11:24 27.10.2019
5478 Haze 23 1015 46 5000 2.1 60 10:57 27.10.2019
5479 Haze 23 1015 46 5000 2.1 60 10:38 27.10.2019
5480 Haze 23 1015 46 5000 2.1 60 10:38 27.10.2019
5481 Haze 23 1015 46 5000 2.1 60 10:19 27.10.2019
5482 Clouds 21 1016 52 6000 1.5 40 09:43 27.10.2019
5483 Clouds 21 1016 52 6000 1.5 40 09:19 27.10.2019
5484 Clouds 18 1015 55 6000 2.1 50 08:57 27.10.2019
5485 Clouds 18 1015 55 6000 2.1 50 08:37 27.10.2019
5486 Clouds 18 1015 55 6000 2.1 50 08:37 27.10.2019
5487 Clouds 18 1015 55 6000 2.1 50 08:19 27.10.2019
5488 Haze 17 1015 59 5000 1.5 20 07:46 27.10.2019
5489 Haze 17 1015 59 5000 1.5 20 07:46 27.10.2019
5490 Haze 17 1015 59 5000 1.5 20 07:27 27.10.2019
5491 Haze 16 1015 59 5000 1.5 40 06:55 27.10.2019
5492 Haze 16 1015 59 5000 1.5 40 06:29 27.10.2019
5493 Haze 15 1014 63 5000 1.5 70 05:57 27.10.2019
5494 Haze 15 1014 63 5000 1.5 70 05:36 27.10.2019
5495 Haze 16 1014 59 5000 5.14 319 04:25 27.10.2019
5496 Clouds 17 1015 63 6000 2.1 240 02:41 27.10.2019
5497 Clouds 17 1015 63 6000 2.6 250 01:28 27.10.2019
5498 Clouds 17 1015 68 6000 2.1 280 00:55 27.10.2019
5499 Clouds 17 1015 68 6000 2.1 280 00:36 27.10.2019
5500 Rain 18 1015 52 6000 2.1 280 23:58 26.10.2019
5501 Rain 18 1015 52 6000 2.1 280 23:40 26.10.2019
5502 Rain 18 1015 52 6000 2.1 280 23:21 26.10.2019
5503 Rain 19 1015 63 5000 2.6 330 22:58 26.10.2019
5504 Rain 19 1015 63 5000 2.6 330 22:39 26.10.2019
5505 Clouds 20 1015 59 6000 2.1 310 22:19 26.10.2019
5506 Rain 20 1015 59 6000 3.6 350 21:56 26.10.2019
5507 Rain 20 1015 59 6000 3.6 350 21:38 26.10.2019
5508 Rain 20 1015 59 6000 3.6 350 21:19 26.10.2019
5509 Clouds 21 1014 49 6000 5.1 30 20:43 26.10.2019
5510 Clouds 21 1014 49 6000 5.1 30 20:20 26.10.2019
5511 Clouds 22 1014 49 6000 4.1 30 19:56 26.10.2019
5512 Clouds 22 1014 49 6000 4.1 30 19:38 26.10.2019
5513 Clouds 22 1014 49 6000 4.1 30 19:19 26.10.2019
5514 Clouds 22 1013 37 6000 4.22 27 18:55 26.10.2019
5515 Clouds 22 1013 37 6000 4.22 27 18:36 26.10.2019
5516 Clouds 22 1013 37 6000 3.69 23 18:18 26.10.2019
5517 Clouds 23 1013 37 6000 3.69 23 17:39 26.10.2019
5518 Clouds 23 1013 37 6000 3.69 23 17:21 26.10.2019
5519 Clouds 23 1013 37 7000 3.69 23 16:58 26.10.2019
5520 Clouds 23 1013 37 7000 3.69 23 16:40 26.10.2019
5521 Clouds 23 1013 37 7000 3.69 23 16:21 26.10.2019
5522 Clouds 24 1013 35 7000 3.69 23 15:41 26.10.2019
5523 Clouds 24 1013 35 7000 0.12 28 15:19 26.10.2019
5524 Haze 23 1014 43 5000 3.1 80 14:41 26.10.2019
5525 Haze 23 1014 43 5000 3.1 80 14:22 26.10.2019
5526 Clouds 26 1010 25 0 0.41 308 13:59 26.10.2019
5527 Clouds 26 1010 25 0 0.41 308 13:41 26.10.2019
5528 Clouds 26 1010 25 0 0.41 308 13:21 26.10.2019
5529 Haze 23 1014 43 5000 3.1 60 12:48 26.10.2019
5530 Haze 23 1015 46 5000 4.1 50 12:25 26.10.2019
5531 Haze 23 1015 46 5000 4.1 50 12:25 26.10.2019
5532 Haze 23 1015 46 5000 4.1 50 11:50 26.10.2019
5533 Haze 23 1015 46 5000 4.1 50 11:29 26.10.2019
5534 Haze 22 1016 49 5000 3.6 50 10:57 26.10.2019
5535 Haze 22 1016 49 5000 3.6 50 10:39 26.10.2019
5536 Haze 22 1016 49 5000 3.6 50 10:21 26.10.2019
5537 Haze 21 1016 46 5000 3.1 50 09:44 26.10.2019
5538 Haze 21 1016 46 5000 3.1 50 09:26 26.10.2019
5539 Haze 18 1016 55 5000 1.69 326 08:44 26.10.2019
5540 Haze 18 1016 55 5000 1.69 326 08:25 26.10.2019
5541 Haze 16 1015 72 4000 1.69 326 07:56 26.10.2019
5542 Haze 16 1015 72 4000 1.69 326 07:31 26.10.2019
5543 Haze 15 1015 72 4000 1.69 326 06:46 26.10.2019
5544 Haze 15 1015 72 4000 1.69 326 06:28 26.10.2019
5545 Haze 14 1015 72 5000 2.24 267 05:21 26.10.2019
5546 Haze 15 1015 72 5000 2.24 267 04:32 26.10.2019
5547 Haze 15 1014 67 5000 0.86 341 02:57 26.10.2019
5548 Haze 16 1015 63 5000 1.32 309 01:57 26.10.2019
5549 Haze 16 1015 63 5000 1.32 309 01:34 26.10.2019
5550 Haze 15 1014 67 5000 1.32 309 00:27 26.10.2019
5551 Haze 16 1015 63 5000 3.32 4 23:47 25.10.2019
5552 Haze 16 1015 63 5000 3.32 4 23:21 25.10.2019
5553 Haze 17 1015 63 5000 2.6 40 22:43 25.10.2019
5554 Haze 17 1015 63 5000 2.6 40 22:25 25.10.2019
5555 Haze 17 1015 55 5000 3.1 50 21:58 25.10.2019
5556 Haze 17 1015 55 5000 3.1 50 21:40 25.10.2019
5557 Haze 17 1015 55 5000 3.1 50 21:22 25.10.2019
5558 Clear 17 1015 55 6000 2.84 292 20:59 25.10.2019
5559 Clear 17 1015 55 6000 2.84 292 20:41 25.10.2019
5560 Clear 17 1015 55 6000 2.84 292 20:19 25.10.2019
5561 Clear 17 1015 55 6000 2.84 292 20:19 25.10.2019
5562 Clouds 19 1014 49 6000 2.1 250 19:45 25.10.2019
5563 Clouds 19 1014 49 6000 2.1 250 19:27 25.10.2019
5564 Clouds 20 1014 43 6000 2.6 260 18:47 25.10.2019
5565 Clouds 20 1014 43 6000 2.6 260 18:28 25.10.2019
5566 Clouds 22 1014 33 6000 3.1 240 17:56 25.10.2019
5567 Clouds 22 1014 33 6000 3.1 240 17:36 25.10.2019
5568 Clouds 22 1014 33 6000 3.1 240 17:18 25.10.2019
5569 Clouds 24 1013 33 6000 3.1 240 16:43 25.10.2019
5570 Clouds 24 1013 33 6000 3.1 240 16:22 25.10.2019
5571 Haze 23 1013 33 5000 5.1 270 15:55 25.10.2019
5572 Haze 23 1013 33 5000 5.1 270 15:37 25.10.2019
5573 Haze 23 1013 33 5000 5.1 270 15:18 25.10.2019
5574 Haze 22 1014 63 5000 3.6 240 14:42 25.10.2019
5575 Haze 22 1014 63 5000 3.6 240 14:23 25.10.2019
5576 Haze 24 1014 36 5000 2.1 240 13:56 25.10.2019
5577 Haze 24 1014 36 5000 2.1 240 13:37 25.10.2019
5578 Haze 24 1014 36 5000 2.1 240 13:18 25.10.2019
5579 Haze 23 1014 53 5000 2.6 220 12:41 25.10.2019
5580 Haze 23 1014 53 5000 2.6 220 12:21 25.10.2019
5581 Haze 23 1015 50 5000 2.1 60 11:58 25.10.2019
5582 Haze 23 1015 50 5000 2.1 60 11:38 25.10.2019
5583 Haze 22 1015 50 5000 2.1 60 11:18 25.10.2019
5584 Haze 22 1015 47 5000 2.1 60 10:41 25.10.2019
5585 Haze 22 1015 47 5000 2.1 60 10:41 25.10.2019
5586 Haze 22 1015 47 5000 2.1 60 10:22 25.10.2019
5587 Haze 20 1015 52 5000 3.9 277 09:58 25.10.2019
5588 Haze 20 1015 52 5000 3.9 277 09:38 25.10.2019
5589 Haze 20 1015 52 5000 4.21 286 09:19 25.10.2019
5590 Haze 17 1014 72 5000 4.21 286 08:50 25.10.2019
5591 Haze 17 1014 72 5000 4.21 286 08:32 25.10.2019
5592 Haze 14 1015 67 5000 1 240 07:56 25.10.2019
5593 Haze 16 1015 67 5000 1 240 07:34 25.10.2019
5594 Haze 13 1014 72 5000 4.21 286 06:42 25.10.2019
5595 Haze 13 1014 72 5000 0.5 250 05:59 25.10.2019
5596 Haze 13 1014 72 5000 0.5 250 05:37 25.10.2019
5597 Haze 15 1014 62 5000 4.09 302 04:53 25.10.2019
5598 Haze 14 1014 58 5000 4.09 302 03:40 25.10.2019
5599 Haze 15 1014 63 5000 3.3 327 01:54 25.10.2019
5600 Haze 15 1014 63 5000 3.3 327 01:35 25.10.2019
5601 Haze 15 1014 67 5000 0.5 270 00:22 25.10.2019
5602 Haze 15 1015 67 5000 1 110 23:41 24.10.2019
5603 Haze 16 1015 67 5000 1 110 23:23 24.10.2019
5604 Haze 16 1015 59 5000 3.54 325 22:56 24.10.2019
5605 Haze 16 1015 59 5000 3.54 325 22:37 24.10.2019
5606 Haze 16 1015 59 5000 3.54 325 22:19 24.10.2019
5607 Haze 18 1015 52 5000 2.1 250 21:57 24.10.2019
5608 Haze 18 1015 52 5000 2.1 250 21:38 24.10.2019
5609 Haze 18 1015 52 5000 2.1 250 21:19 24.10.2019
5610 Haze 18 1014 48 5000 4.1 10 20:57 24.10.2019
5611 Haze 18 1014 48 5000 4.1 10 20:38 24.10.2019
5612 Haze 18 1014 48 5000 4.1 10 20:20 24.10.2019
5613 Haze 19 1014 45 5000 4.6 260 19:55 24.10.2019
5614 Haze 19 1014 45 5000 4.6 260 19:37 24.10.2019
5615 Haze 19 1014 45 5000 4.6 260 19:18 24.10.2019
5616 Haze 19 1014 42 5000 3.6 250 18:41 24.10.2019
5617 Clouds 20 1014 42 6000 2.6 270 18:23 24.10.2019
5618 Haze 22 1013 46 5000 5.1 50 17:59 24.10.2019
5619 Haze 22 1013 46 5000 5.1 50 17:40 24.10.2019
5620 Haze 22 1013 46 5000 5.1 50 17:20 24.10.2019
5621 Clouds 23 1013 33 6000 2.1 200 16:56 24.10.2019
5622 Clouds 23 1013 33 6000 2.1 200 16:37 24.10.2019
5623 Clouds 23 1013 33 6000 2.1 200 16:19 24.10.2019
5624 Haze 24 1013 40 5000 2.1 200 15:56 24.10.2019
5625 Haze 24 1013 40 5000 2.1 200 15:56 24.10.2019
5626 Haze 24 1013 40 5000 2.1 200 15:38 24.10.2019
5627 Haze 24 1013 40 5000 2.1 200 15:19 24.10.2019
5628 Haze 25 1013 41 5000 2.1 200 14:55 24.10.2019
5629 Haze 25 1013 41 5000 2.1 200 14:37 24.10.2019
5630 Haze 25 1013 41 5000 2.1 200 14:18 24.10.2019
5631 Haze 24 1013 43 5000 2.6 230 13:40 24.10.2019
5632 Haze 24 1013 43 5000 2.6 230 13:19 24.10.2019
5633 Haze 24 1013 43 5000 2.6 230 13:19 24.10.2019
5634 Haze 23 1014 38 5000 3.1 250 12:57 24.10.2019
5635 Haze 23 1014 38 5000 3.1 250 12:38 24.10.2019
5636 Haze 23 1014 38 5000 3.1 250 12:19 24.10.2019
5637 Haze 22 1014 40 5000 2.15 244 11:56 24.10.2019
5638 Haze 22 1014 40 5000 2.15 244 11:56 24.10.2019
5639 Haze 22 1014 40 5000 2.15 244 11:37 24.10.2019
5640 Haze 22 1014 40 5000 2.15 244 11:19 24.10.2019
5641 Haze 21 1014 60 5000 2.15 244 10:55 24.10.2019
5642 Haze 21 1014 60 5000 2.15 244 10:36 24.10.2019
5643 Haze 21 1014 60 5000 2.15 244 10:18 24.10.2019
5644 Haze 20 1014 68 5000 2.15 244 09:38 24.10.2019
5645 Haze 20 1014 68 5000 2.11 292 09:18 24.10.2019
5646 Haze 18 1014 77 5000 2.11 292 08:44 24.10.2019
5647 Haze 15 1014 77 5000 2.11 292 08:21 24.10.2019
5648 Mist 15 1014 87 2000 2.11 292 07:59 24.10.2019
5649 Mist 15 1014 87 2000 2.11 292 07:41 24.10.2019
5650 Mist 15 1014 87 2000 2.11 292 07:21 24.10.2019
5651 Mist 15 1014 87 2000 2.11 292 06:39 24.10.2019
5652 Mist 15 1014 87 2000 2.24 314 06:20 24.10.2019
5653 Mist 14 1014 87 4000 2.24 314 05:48 24.10.2019
5654 Mist 14 1014 87 4000 2.24 314 05:27 24.10.2019
5655 Haze 15 1013 82 5000 1.5 80 03:37 24.10.2019
5656 Haze 16 1013 82 5000 2.6 60 02:55 24.10.2019
5657 Haze 16 1013 82 5000 2.6 60 02:24 24.10.2019
5658 Haze 17 1013 72 5000 1 240 01:49 24.10.2019
5659 Haze 17 1013 72 5000 1 240 01:27 24.10.2019
5660 Mist 17 1014 88 5000 2.1 260 00:41 24.10.2019
5661 Mist 17 1014 88 5000 2.1 260 00:18 24.10.2019
5662 Haze 17 1014 77 5000 1.5 250 23:43 23.10.2019
5663 Haze 17 1014 77 5000 1.5 250 23:23 23.10.2019
5664 Haze 17 1014 82 5000 3.95 326 22:57 23.10.2019
5665 Haze 17 1014 82 5000 3.95 326 22:38 23.10.2019
5666 Haze 17 1014 82 5000 3.95 326 22:38 23.10.2019
5667 Haze 17 1014 82 5000 3.95 326 22:19 23.10.2019
5668 Haze 18 1013 77 5000 2.1 350 21:57 23.10.2019
5669 Haze 18 1013 77 5000 2.1 350 21:38 23.10.2019
5670 Haze 18 1013 77 5000 2.1 350 21:20 23.10.2019
5671 Haze 19 1013 72 5000 2.6 350 20:57 23.10.2019
5672 Haze 19 1013 72 5000 2.6 350 20:39 23.10.2019
5673 Haze 19 1013 72 5000 2.6 350 20:20 23.10.2019
5674 Haze 20 1012 72 5000 3.1 270 19:57 23.10.2019
5675 Haze 20 1012 72 5000 3.1 270 19:38 23.10.2019
5676 Haze 20 1012 72 5000 3.1 270 19:18 23.10.2019
5677 Haze 21 1012 64 5000 5.7 290 18:55 23.10.2019
5678 Haze 21 1012 64 5000 5.7 290 18:55 23.10.2019
5679 Haze 21 1012 64 5000 5.7 290 18:36 23.10.2019
5680 Haze 21 1012 64 5000 5.7 290 18:36 23.10.2019
5681 Haze 21 1012 64 5000 5.7 290 18:18 23.10.2019
5682 Haze 22 1011 40 5000 5.1 290 17:43 23.10.2019
5683 Haze 22 1011 40 5000 5.1 290 17:20 23.10.2019
5684 Haze 25 1011 31 5000 4.6 250 16:56 23.10.2019
5685 Haze 25 1011 31 5000 4.6 250 16:38 23.10.2019
5686 Haze 25 1011 31 5000 4.6 250 16:19 23.10.2019
5687 Haze 25 1011 31 5000 4.6 250 16:19 23.10.2019
5688 Haze 26 1011 36 5000 5.1 300 15:42 23.10.2019
5689 Haze 26 1011 36 5000 5.1 300 15:22 23.10.2019
5690 Haze 27 1011 32 5000 6.7 290 14:58 23.10.2019
5691 Haze 27 1011 32 5000 6.7 290 14:38 23.10.2019
5692 Haze 27 1011 32 5000 6.7 290 14:19 23.10.2019
5693 Haze 28 1011 28 5000 3.6 60 13:58 23.10.2019
5694 Haze 28 1011 28 5000 3.6 60 13:40 23.10.2019
5695 Haze 28 1011 28 5000 3.6 60 13:22 23.10.2019
5696 Haze 27 1012 36 5000 4.6 130 12:55 23.10.2019
5697 Haze 27 1012 36 5000 4.6 130 12:37 23.10.2019
5698 Haze 27 1012 36 5000 4.6 130 12:18 23.10.2019
5699 Haze 25 1013 41 5000 4.6 130 11:56 23.10.2019
5700 Haze 25 1013 41 5000 4.6 130 11:56 23.10.2019
5701 Haze 25 1013 41 5000 4.6 130 11:37 23.10.2019
5702 Haze 25 1013 41 5000 4.6 130 11:19 23.10.2019
5703 Haze 23 1014 49 5000 6.2 130 10:45 23.10.2019
5704 Haze 23 1014 49 5000 6.2 130 10:25 23.10.2019
5705 Haze 21 1014 56 5000 3.6 80 09:56 23.10.2019
5706 Haze 21 1014 56 5000 3.6 80 09:37 23.10.2019
5707 Haze 21 1014 56 5000 3.6 80 09:19 23.10.2019
5708 Haze 19 1014 68 5000 3.1 10 08:42 23.10.2019
5709 Haze 19 1014 68 5000 3.1 10 08:42 23.10.2019
5710 Haze 19 1014 68 5000 3.1 10 08:23 23.10.2019
5711 Haze 16 1014 67 5000 3.1 10 07:46 23.10.2019
5712 Haze 16 1014 67 5000 3.1 10 07:23 23.10.2019
5713 Haze 16 1014 72 5000 2.1 10 06:47 23.10.2019
5714 Haze 16 1014 72 5000 2.1 10 06:22 23.10.2019
5715 Haze 17 1014 77 5000 2.1 10 05:47 23.10.2019
5716 Thunderstorm 17 1014 67 5000 2.1 10 04:57 23.10.2019
5717 Thunderstorm 18 1013 63 4000 1 10 03:35 23.10.2019
5718 Rain 17 1013 55 6000 2.1 90 02:41 23.10.2019
5719 Haze 17 1013 48 5000 1.5 80 01:33 23.10.2019
5720 Haze 18 1014 48 5000 1 150 00:56 23.10.2019
5721 Haze 18 1014 48 5000 1 150 00:29 23.10.2019
5722 Rain 19 1014 45 6000 4.14 83 23:41 22.10.2019
5723 Rain 19 1014 45 6000 4.14 83 23:19 22.10.2019
5724 Haze 20 1014 40 5000 1.5 120 22:57 22.10.2019
5725 Haze 20 1014 40 5000 1.5 120 22:39 22.10.2019
5726 Haze 20 1014 40 5000 1.5 120 22:21 22.10.2019
5727 Haze 21 1014 43 5000 4.14 83 21:56 22.10.2019
5728 Haze 21 1014 43 5000 4.14 83 21:37 22.10.2019
5729 Haze 21 1014 43 5000 1.03 51 21:18 22.10.2019
5730 Haze 22 1014 43 5000 1.03 51 20:58 22.10.2019
5731 Haze 22 1014 43 5000 1.03 51 20:39 22.10.2019
5732 Haze 22 1014 43 5000 1.03 51 20:21 22.10.2019
5733 Haze 23 1013 40 5000 1.5 130 19:55 22.10.2019
5734 Haze 23 1013 40 5000 1.5 130 19:37 22.10.2019
5735 Haze 23 1013 40 5000 1.5 130 19:19 22.10.2019
5736 Clouds 24 1013 35 6000 1.5 90 18:41 22.10.2019
5737 Clouds 24 1013 35 6000 1.5 90 18:22 22.10.2019
5738 Haze 25 1014 33 5000 1.5 10 17:59 22.10.2019
5739 Haze 25 1014 33 5000 1.5 10 17:39 22.10.2019
5740 Haze 25 1014 33 5000 1.5 10 17:20 22.10.2019
5741 Haze 25 1013 29 5000 2.1 360 16:59 22.10.2019
5742 Haze 25 1013 29 5000 2.1 360 16:39 22.10.2019
5743 Haze 25 1013 29 5000 2.1 360 16:39 22.10.2019
5744 Haze 25 1013 29 5000 2.1 360 16:20 22.10.2019
5745 Haze 25 1013 29 5000 2.1 360 16:20 22.10.2019
5746 Haze 26 1013 31 5000 1.53 84 15:58 22.10.2019
5747 Haze 26 1013 31 5000 1.53 84 15:40 22.10.2019
5748 Haze 26 1013 31 5000 0.91 249 15:19 22.10.2019
5749 Haze 26 1014 31 5000 1.15 285 14:46 22.10.2019
5750 Haze 26 1014 31 5000 1.15 285 14:46 22.10.2019
5751 Haze 26 1014 31 5000 1.15 285 14:22 22.10.2019
5752 Haze 26 1014 31 5000 1.15 285 14:22 22.10.2019
5753 Haze 26 1014 31 5000 2.6 10 13:55 22.10.2019
5754 Haze 26 1014 31 5000 2.6 10 13:37 22.10.2019
5755 Haze 26 1014 31 5000 2.6 10 13:18 22.10.2019
5756 Haze 27 1014 32 5000 2.6 80 12:41 22.10.2019
5757 Haze 27 1014 32 5000 2.6 80 12:22 22.10.2019
5758 Haze 24 1015 49 5000 2.6 40 11:59 22.10.2019
5759 Haze 24 1015 49 5000 2.6 40 11:40 22.10.2019
5760 Haze 24 1015 49 5000 2.6 40 11:22 22.10.2019
5761 Haze 23 1015 53 5000 2.6 10 10:58 22.10.2019
5762 Haze 23 1015 53 5000 2.6 10 10:37 22.10.2019
5763 Haze 23 1015 53 5000 2.6 10 10:19 22.10.2019
5764 Haze 21 1015 53 4000 1 250 09:57 22.10.2019
5765 Haze 21 1015 53 4000 1 250 09:38 22.10.2019
5766 Haze 21 1015 53 4000 1 250 09:20 22.10.2019
5767 Smoke 18 1015 68 4000 1 250 08:43 22.10.2019
5768 Smoke 18 1015 68 4000 1 250 08:22 22.10.2019
5769 Smoke 14 1015 82 3500 1.5 0 07:57 22.10.2019
5770 Smoke 14 1015 82 3500 1.5 0 07:39 22.10.2019
5771 Smoke 14 1015 82 3500 1.5 0 07:20 22.10.2019
5772 Smoke 13 1014 82 3500 1 0 06:37 22.10.2019
5773 Smoke 13 1014 82 3500 1 0 06:19 22.10.2019
5774 Haze 14 1014 82 4000 1.53 300 05:27 22.10.2019
5775 Haze 16 1015 82 5000 1.53 300 03:53 22.10.2019
5776 Haze 16 1015 77 5000 1.94 314 02:29 22.10.2019
5777 Haze 16 1015 82 5000 1.94 314 01:37 22.10.2019
5778 Haze 16 1015 82 5000 1.94 314 01:18 22.10.2019
5779 Haze 17 1015 82 5000 1.94 314 00:42 22.10.2019
5780 Haze 16 1015 82 5000 3.56 343 00:24 22.10.2019
5781 Haze 17 1016 72 5000 3.56 343 23:58 21.10.2019
5782 Haze 17 1016 72 5000 3.56 343 23:38 21.10.2019
5783 Haze 17 1016 72 5000 3.56 343 23:19 21.10.2019
5784 Haze 18 1016 72 5000 3.56 343 22:57 21.10.2019
5785 Haze 18 1016 72 5000 3.56 343 22:38 21.10.2019
5786 Haze 18 1016 72 5000 3.56 343 22:20 21.10.2019
5787 Haze 18 1016 72 5000 2.1 250 21:56 21.10.2019
5788 Haze 18 1016 72 5000 2.1 250 21:37 21.10.2019
5789 Haze 18 1016 72 5000 2.1 250 21:37 21.10.2019
5790 Haze 19 1016 72 5000 2.1 250 21:19 21.10.2019
5791 Haze 19 1016 72 5000 2.1 250 21:19 21.10.2019
5792 Haze 19 1016 68 5000 2.1 250 20:57 21.10.2019
5793 Haze 19 1016 68 5000 2.1 250 20:57 21.10.2019
5794 Haze 19 1016 68 5000 2.1 250 20:38 21.10.2019
5795 Haze 19 1016 68 5000 2.1 250 20:38 21.10.2019
5796 Haze 19 1016 68 5000 2.1 250 20:19 21.10.2019
5797 Haze 20 1016 60 5000 3.1 310 19:55 21.10.2019
5798 Haze 20 1016 60 5000 3.1 310 19:36 21.10.2019
5799 Haze 20 1016 60 5000 3.1 310 19:18 21.10.2019
5800 Haze 21 1016 64 5000 4.6 330 18:55 21.10.2019
5801 Haze 21 1016 64 5000 4.6 330 18:36 21.10.2019
5802 Haze 21 1016 64 5000 4.6 330 18:18 21.10.2019
5803 Haze 24 1016 46 5000 3.6 340 17:39 21.10.2019
5804 Haze 24 1016 46 5000 3.6 340 17:39 21.10.2019
5805 Haze 24 1016 46 5000 3.6 340 17:19 21.10.2019
5806 Haze 25 1016 41 5000 4.1 330 16:58 21.10.2019
5807 Haze 25 1016 41 5000 4.1 330 16:40 21.10.2019
5808 Haze 25 1016 41 5000 4.1 330 16:22 21.10.2019
5809 Haze 26 1016 27 5000 5.1 320 15:58 21.10.2019
5810 Haze 26 1016 27 5000 5.1 320 15:39 21.10.2019
5811 Haze 26 1016 27 5000 5.1 320 15:19 21.10.2019
5812 Haze 26 1016 44 5000 4.1 280 14:40 21.10.2019
5813 Haze 26 1016 44 5000 4.1 280 14:22 21.10.2019
5814 Haze 26 1017 33 5000 4.6 10 13:59 21.10.2019
5815 Haze 26 1017 33 5000 4.6 10 13:41 21.10.2019
5816 Haze 26 1017 33 5000 4.6 10 13:20 21.10.2019
5817 Haze 25 1018 47 5000 4.2 302 12:58 21.10.2019
5818 Haze 25 1018 47 5000 4.2 302 12:40 21.10.2019
5819 Haze 25 1018 47 5000 3.16 292.316 12:20 21.10.2019
5820 Haze 24 1018 47 5000 1 20 11:55 21.10.2019
5821 Haze 24 1018 47 5000 1 20 11:36 21.10.2019
5822 Haze 24 1018 47 5000 1 20 11:18 21.10.2019
5823 Haze 23 1019 53 5000 1 20 10:54 21.10.2019
5824 Haze 23 1019 53 5000 1 20 10:54 21.10.2019
5825 Haze 23 1019 53 5000 1 20 10:54 21.10.2019
5826 Haze 23 1019 53 5000 1 20 10:36 21.10.2019
5827 Haze 23 1019 53 5000 1 20 10:18 21.10.2019
5828 Haze 20 1019 72 5000 2.6 20 09:41 21.10.2019
5829 Haze 20 1019 72 5000 2.6 20 09:22 21.10.2019
5830 Haze 17 1019 72 4000 2.1 250 08:43 21.10.2019
5831 Haze 17 1019 72 4000 2.1 250 08:23 21.10.2019
5832 Mist 14 1018 88 4000 1.5 240 07:58 21.10.2019
5833 Mist 14 1018 88 4000 1.5 240 07:37 21.10.2019
5834 Mist 14 1018 88 4000 1.5 240 07:18 21.10.2019
5835 Mist 13 1018 87 3500 2.4 311.296 06:50 21.10.2019
5836 Mist 13 1018 87 3500 2.4 311.296 06:31 21.10.2019
5837 Mist 14 1018 100 1500 1.5 40 05:43 21.10.2019
5838 Fog 14 1017 100 900 3.05 330.311 04:42 21.10.2019
5839 Clouds 15 1018 88 7000 2.1 40 02:41 21.10.2019
5840 Clouds 15 1018 88 7000 2.1 40 02:21 21.10.2019
5841 Clouds 15 1018 88 7000 2.1 40 02:21 21.10.2019
5842 Clouds 16 1019 77 7000 2.1 40 01:49 21.10.2019
5843 Clouds 16 1019 77 7000 2.1 40 01:49 21.10.2019
5844 Clouds 16 1019 77 7000 2.1 40 01:22 21.10.2019
5845 Clouds 18 1019 72 7000 1 140 00:42 21.10.2019
5846 Clouds 18 1019 72 7000 1 140 00:42 21.10.2019
5847 Clouds 17 1019 72 7000 1 140 00:23 21.10.2019
5848 Clouds 17 1019 72 7000 1 140 00:23 21.10.2019
5849 Clouds 17 1019 72 7000 1.5 230 23:40 20.10.2019
5850 Clouds 18 1019 72 7000 1.5 230 23:22 20.10.2019
5851 Clear 18 1019 68 7000 2.1 290 22:56 20.10.2019
5852 Clear 18 1019 68 7000 2.1 290 22:37 20.10.2019
5853 Clear 18 1019 68 7000 2.1 290 22:18 20.10.2019
5854 Clouds 18 1019 77 7000 2.6 300 21:57 20.10.2019
5855 Clouds 18 1019 77 7000 2.6 300 21:38 20.10.2019
5856 Clouds 18 1019 77 7000 2.6 300 21:20 20.10.2019
5857 Clouds 19 1019 77 7000 3.1 280 20:41 20.10.2019
5858 Clouds 19 1019 77 7000 3.1 280 20:18 20.10.2019
5859 Clear 20 1019 68 6000 4.1 300 19:56 20.10.2019
5860 Clear 20 1019 68 6000 4.1 300 19:37 20.10.2019
5861 Clear 22 1019 68 6000 4.1 300 19:19 20.10.2019
5862 Haze 22 1019 60 5000 4.1 320 18:55 20.10.2019
5863 Haze 22 1019 60 5000 4.1 320 18:36 20.10.2019
5864 Haze 22 1019 60 5000 4.1 320 18:18 20.10.2019
5865 Haze 23 1020 60 5000 6.2 300 17:42 20.10.2019
5866 Haze 23 1020 60 5000 6.2 300 17:23 20.10.2019
5867 Haze 25 1019 50 5000 6.2 300 16:59 20.10.2019
5868 Haze 25 1019 50 5000 6.2 300 16:41 20.10.2019
5869 Haze 25 1019 50 5000 6.2 300 16:22 20.10.2019
5870 Haze 25 1019 47 5000 6.2 320 15:57 20.10.2019
5871 Haze 25 1019 47 5000 6.2 320 15:38 20.10.2019
5872 Haze 25 1019 47 5000 6.2 320 15:19 20.10.2019
5873 Haze 26 1020 41 5000 6.2 330 14:56 20.10.2019
5874 Haze 26 1020 41 5000 6.2 330 14:37 20.10.2019
5875 Haze 26 1020 41 5000 6.2 330 14:19 20.10.2019
5876 Haze 26 1020 44 5000 5.7 320 13:55 20.10.2019
5877 Haze 26 1020 44 5000 5.7 320 13:36 20.10.2019
5878 Haze 26 1020 44 5000 5.7 320 13:18 20.10.2019
5879 Haze 26 1020 33 7000 6.2 320 12:55 20.10.2019
5880 Haze 26 1020 33 7000 6.2 320 12:37 20.10.2019
5881 Haze 26 1020 33 7000 6.2 320 12:37 20.10.2019
5882 Haze 26 1020 33 7000 6.2 320 12:19 20.10.2019
5883 Haze 25 1021 38 7000 2.6 20 11:41 20.10.2019
5884 Haze 25 1021 38 7000 2.6 20 11:23 20.10.2019
5885 Haze 23 1021 46 6000 2.6 330 10:59 20.10.2019
5886 Haze 23 1021 46 6000 2.6 330 10:40 20.10.2019
5887 Haze 23 1021 46 6000 2.6 330 10:22 20.10.2019
5888 Haze 21 1021 60 5000 2.1 340 09:57 20.10.2019
5889 Haze 21 1021 60 5000 2.1 340 09:39 20.10.2019
5890 Haze 21 1021 64 10000 2.1 340 09:20 20.10.2019
5891 Haze 18 1020 77 4000 1 280 08:45 20.10.2019
5892 Haze 18 1020 77 4000 1 280 08:22 20.10.2019
5893 Haze 15 1020 87 2500 3.75 308.426 07:50 20.10.2019
5894 Haze 15 1020 87 2500 3.75 308.426 07:30 20.10.2019
5895 Haze 15 1020 87 2500 3.75 308.426 07:30 20.10.2019
5896 Haze 14 1020 82 3000 1.5 160 06:34 20.10.2019
5897 Haze 14 1020 82 5000 3.05 329.429 05:58 20.10.2019
5898 Haze 15 1020 63 6000 3.05 329.429 04:27 20.10.2019
5899 Clear 15 1020 63 6000 1.5 250 03:43 20.10.2019
5900 Clouds 15 1020 63 6000 1.5 250 03:20 20.10.2019
5901 Clouds 16 1020 63 6000 3.1 250 02:38 20.10.2019
5902 Clouds 16 1021 63 6000 1.5 270 01:58 20.10.2019
5903 Clouds 16 1021 63 6000 1.5 270 01:23 20.10.2019
5904 Clouds 17 1021 55 6000 3.1 300 00:56 20.10.2019
5905 Clouds 17 1021 55 6000 3.1 300 00:38 20.10.2019
5906 Clouds 17 1021 55 6000 3.1 300 00:19 20.10.2019
5907 Clouds 18 1020 59 6000 3.1 290 23:42 19.10.2019
5908 Clouds 18 1020 59 6000 3.1 290 23:22 19.10.2019
5909 Clouds 18 1018 69 0 4.14 332.654 22:56 19.10.2019
5910 Clouds 18 1018 69 0 4.14 332.654 22:37 19.10.2019
5911 Clouds 18 1020 77 6000 4.1 310 22:19 19.10.2019
5912 Clouds 18 1020 77 6000 4.1 310 21:46 19.10.2019
5913 Clouds 19 1020 77 6000 4.1 310 21:23 19.10.2019
5914 Clouds 19 1020 77 6000 4.1 300 20:46 19.10.2019
5915 Clouds 19 1020 77 6000 4.1 300 20:23 19.10.2019
5916 Haze 21 1020 68 5000 5.1 300 19:59 19.10.2019
5917 Haze 21 1020 68 5000 5.1 300 19:40 19.10.2019
5918 Haze 21 1020 68 5000 5.1 300 19:22 19.10.2019
5919 Haze 22 1019 60 5000 7.2 330 18:43 19.10.2019
5920 Haze 22 1019 60 5000 7.2 330 18:24 19.10.2019
5921 Haze 22 1019 60 5000 7.2 330 18:24 19.10.2019
5922 Haze 23 1019 53 5000 7.2 330 17:57 19.10.2019
5923 Haze 23 1019 53 5000 7.2 330 17:37 19.10.2019
5924 Haze 23 1019 53 5000 7.2 330 17:19 19.10.2019
5925 Haze 24 1019 53 5000 7.2 330 16:39 19.10.2019
5926 Haze 24 1019 53 5000 7.2 330 16:39 19.10.2019
5927 Haze 24 1019 53 5000 7.2 330 16:20 19.10.2019
5928 Haze 25 1019 47 5000 6.2 300 15:59 19.10.2019
5929 Haze 25 1019 47 5000 6.2 300 15:39 19.10.2019
5930 Haze 25 1019 47 5000 6.2 300 15:21 19.10.2019
5931 Haze 26 1018 31 5000 6.2 300 14:38 19.10.2019
5932 Haze 26 1018 31 5000 6.2 300 14:20 19.10.2019
5933 Haze 26 1018 36 7000 5.7 300 13:56 19.10.2019
5934 Haze 26 1018 36 7000 5.7 300 13:38 19.10.2019
5935 Haze 26 1018 36 7000 5.7 300 13:18 19.10.2019
5936 Haze 25 1019 47 7000 5.1 320 12:42 19.10.2019
5937 Haze 25 1019 47 7000 5.1 320 12:23 19.10.2019
5938 Haze 24 1020 53 7000 5.7 320 11:59 19.10.2019
5939 Haze 24 1020 53 7000 5.7 320 11:40 19.10.2019
5940 Haze 24 1020 53 7000 5.7 320 11:22 19.10.2019
5941 Haze 23 1020 60 5000 1 260 10:55 19.10.2019
5942 Haze 23 1020 60 5000 1 260 10:37 19.10.2019
5943 Haze 23 1020 60 5000 1 260 10:19 19.10.2019
5944 Haze 21 1020 73 5000 1 210 09:41 19.10.2019
5945 Haze 21 1020 73 5000 1 210 09:23 19.10.2019
5946 Haze 21 1020 73 5000 1 210 09:23 19.10.2019
5947 Haze 18 1020 82 5000 4.1 310 08:58 19.10.2019
5948 Haze 18 1020 82 5000 4.1 310 08:58 19.10.2019
5949 Haze 18 1020 82 5000 4.1 310 08:39 19.10.2019
5950 Haze 18 1020 82 5000 4.1 310 08:20 19.10.2019
5951 Haze 16 1020 82 5000 2.1 320 07:44 19.10.2019
5952 Haze 16 1020 82 5000 2.1 320 07:24 19.10.2019
5953 Haze 16 1020 82 5000 2.1 320 07:24 19.10.2019
5954 Haze 16 1020 82 5000 2.1 320 07:24 19.10.2019
5955 Haze 14 1020 88 5000 1.5 320 06:46 19.10.2019
5956 Haze 14 1020 88 5000 2.1 320 05:57 19.10.2019
5957 Haze 14 1020 88 5000 2.1 320 05:28 19.10.2019
5958 Mist 15 1019 88 5000 3.6 300 03:59 19.10.2019
5959 Haze 16 1019 82 5000 1 10 02:44 19.10.2019
5960 Haze 16 1019 82 5000 2.1 320 01:53 19.10.2019
5961 Haze 16 1019 82 5000 2.1 320 01:20 19.10.2019
5962 Haze 16 1019 82 5000 2.1 320 00:47 19.10.2019
5963 Haze 16 1019 82 5000 2.1 320 00:25 19.10.2019
5964 Haze 17 1019 72 5000 2.1 320 23:43 18.10.2019
5965 Haze 17 1019 72 5000 2.1 320 23:25 18.10.2019
5966 Haze 17 1019 77 5000 2.6 310 22:56 18.10.2019
5967 Haze 17 1019 77 5000 2.6 310 22:38 18.10.2019
5968 Haze 17 1019 77 5000 2.6 310 22:20 18.10.2019
5969 Haze 17 1019 77 5000 2.6 310 22:20 18.10.2019
5970 Haze 18 1019 72 5000 3.6 300 21:57 18.10.2019
5971 Haze 18 1019 72 5000 3.6 300 21:38 18.10.2019
5972 Haze 18 1019 72 5000 3.6 300 21:20 18.10.2019
5973 Haze 19 1019 72 5000 3.1 290 20:56 18.10.2019
5974 Haze 19 1019 72 5000 3.1 290 20:38 18.10.2019
5975 Haze 19 1019 72 5000 3.1 290 20:20 18.10.2019
5976 Clouds 21 1018 68 7000 4.1 330 19:55 18.10.2019
5977 Clouds 21 1018 68 7000 4.1 330 19:37 18.10.2019
5978 Clouds 21 1018 68 7000 4.1 330 19:19 18.10.2019
5979 Clouds 22 1018 68 7000 5.1 320 18:55 18.10.2019
5980 Clouds 22 1018 68 7000 5.1 320 18:37 18.10.2019
5981 Clouds 22 1018 68 7000 5.1 320 18:19 18.10.2019
5982 Haze 24 1018 56 5000 4.6 330 17:39 18.10.2019
5983 Haze 24 1018 56 5000 4.6 330 17:20 18.10.2019
5984 Haze 26 1017 31 5000 4.1 330 16:56 18.10.2019
5985 Haze 26 1017 31 5000 4.1 330 16:37 18.10.2019
5986 Haze 26 1017 31 5000 4.1 330 16:19 18.10.2019
5987 Haze 26 1017 31 5000 4.1 330 16:19 18.10.2019
5988 Clouds 27 1018 22 7000 4.1 260 15:41 18.10.2019
5989 Clouds 27 1018 22 7000 4.1 260 15:21 18.10.2019
5990 Haze 28 1018 34 7000 3.6 290 14:59 18.10.2019
5991 Haze 28 1018 34 7000 3.6 290 14:41 18.10.2019
5992 Haze 28 1018 34 7000 3.6 290 14:22 18.10.2019
5993 Haze 27 1018 39 5000 3.6 250 13:59 18.10.2019
5994 Haze 27 1018 39 5000 3.6 250 13:59 18.10.2019
5995 Haze 27 1018 39 5000 3.6 250 13:41 18.10.2019
5996 Haze 27 1018 39 5000 3.6 250 13:41 18.10.2019
5997 Haze 27 1018 39 5000 3.6 250 13:23 18.10.2019
5998 Dust 27 1020 44 5000 4.46 276.387 12:57 18.10.2019
5999 Dust 27 1020 44 5000 4.46 276.387 12:38 18.10.2019
6000 Dust 27 1020 44 5000 3.55 299.683 12:20 18.10.2019
6001 Haze 26 1019 47 5000 2.1 40 11:56 18.10.2019
6002 Haze 26 1019 47 5000 2.1 40 11:38 18.10.2019
6003 Dust 26 1019 50 4000 2.1 40 11:19 18.10.2019
6004 -273 0 0 0 0 0 10:56 18.10.2019
6005 Dust 25 1020 57 4000 3.55 299.683 10:55 18.10.2019
6006 Dust 25 1020 57 4000 3.55 299.683 10:36 18.10.2019
6007 Dust 25 1020 57 4000 3.55 299.683 10:18 18.10.2019
6008 Dust 23 1020 60 3000 2.1 30 09:54 18.10.2019
6009 Dust 23 1020 60 3000 2.1 30 09:54 18.10.2019
6010 -273 0 0 0 0 0 09:54 18.10.2019
6011 Dust 23 1020 60 3000 2.1 30 09:36 18.10.2019
6012 Dust 23 1020 60 3000 2.1 30 09:18 18.10.2019
6013 Mist 20 1020 82 2500 2.79 294.959 08:42 18.10.2019
6014 Mist 20 1020 82 2500 2.79 294.959 08:21 18.10.2019
6015 Mist 18 1020 93 3000 2.79 294.959 07:43 18.10.2019
6016 Mist 18 1020 93 3000 2.79 294.959 07:25 18.10.2019
6017 Mist 17 1020 100 3000 2.79 294.959 06:40 18.10.2019
6018 Mist 17 1020 100 3000 4.41 325.311 06:22 18.10.2019
6019 Mist 17 1020 100 3000 4.41 325.311 06:22 18.10.2019
6020 Mist 18 1020 93 4000 4.41 325.311 05:57 18.10.2019
6021 Mist 18 1020 93 4000 4.41 325.311 05:24 18.10.2019
6022 Mist 18 1019 88 5000 4.41 325.311 04:47 18.10.2019
6023 Haze 18 1019 88 5000 4.41 325.311 03:33 18.10.2019
6024 Haze 18 1020 82 5000 5 327.805 02:35 18.10.2019
6025 Haze 19 1020 72 5000 5 327.805 01:55 18.10.2019
6026 Haze 19 1020 72 5000 5.01 333.619 01:30 18.10.2019
6027 Haze 19 1020 83 5000 5.01 333.619 00:46 18.10.2019
6028 Haze 19 1020 83 5000 5.14 319.358 00:21 18.10.2019
6029 Haze 20 1020 83 5000 5.14 319.358 23:59 17.10.2019
6030 Haze 20 1020 83 5000 5.14 319.358 23:38 17.10.2019
6031 Haze 20 1020 83 5000 5.14 319.358 23:19 17.10.2019
6032 Haze 22 1021 73 5000 5.14 319.358 22:55 17.10.2019
6033 Haze 22 1021 73 5000 5.14 319.358 22:55 17.10.2019
6034 Haze 22 1021 73 5000 5.14 319.358 22:55 17.10.2019
6035 Haze 22 1021 73 5000 5.14 319.358 22:37 17.10.2019
6036 Haze 22 1021 73 5000 5.14 319.358 22:37 17.10.2019
6037 Haze 22 1021 73 5000 5.14 319.358 22:18 17.10.2019
6038 Haze 22 1020 73 5000 5.14 319.358 21:56 17.10.2019
6039 Haze 22 1020 73 5000 5.14 319.358 21:37 17.10.2019
6040 Haze 22 1020 73 5000 5.36 340.767 21:19 17.10.2019
6041 Haze 22 1020 73 5000 5.32 343.337 20:56 17.10.2019
6042 Haze 22 1020 73 5000 5.32 343.337 20:38 17.10.2019
6043 Haze 22 1020 73 5000 5.32 343.337 20:19 17.10.2019
6044 Haze 22 1020 73 5000 1.5 320 19:56 17.10.2019
6045 Haze 22 1020 73 5000 1.5 320 19:37 17.10.2019
6046 Haze 22 1020 73 5000 1.5 320 19:18 17.10.2019
6047 Haze 23 1019 64 5000 3.6 340 18:42 17.10.2019
6048 Haze 23 1019 64 5000 3.6 340 18:21 17.10.2019
6049 Haze 26 1019 42 5000 3.6 270 17:58 17.10.2019
6050 Haze 26 1019 42 5000 3.6 270 17:40 17.10.2019
6051 Haze 26 1019 42 5000 3.6 270 17:22 17.10.2019
6052 Haze 28 1019 34 5000 3.6 260 16:55 17.10.2019
6053 Haze 28 1019 34 5000 3.6 260 16:37 17.10.2019
6054 Haze 28 1019 34 5000 3.6 260 16:18 17.10.2019
6055 Haze 30 1019 32 5000 4.6 260 15:55 17.10.2019
6056 Haze 30 1019 32 5000 4.6 260 15:37 17.10.2019
6057 Haze 30 1019 32 5000 4.6 260 15:18 17.10.2019
6058 Haze 30 1019 35 5000 6.2 280 14:42 17.10.2019
6059 Haze 30 1019 35 5000 6.2 280 14:23 17.10.2019
6060 Haze 30 1019 32 5000 3.6 80 13:54 17.10.2019
6061 Haze 30 1019 32 5000 3.6 80 13:36 17.10.2019
6062 Haze 30 1019 32 5000 3.6 80 13:18 17.10.2019
6063 Haze 28 1020 34 5000 1.5 180 12:41 17.10.2019
6064 Haze 28 1020 34 5000 1.5 180 12:20 17.10.2019
6065 Haze 27 1020 39 5000 3.1 170 11:58 17.10.2019
6066 Haze 27 1020 39 5000 3.1 170 11:40 17.10.2019
6067 Haze 27 1020 39 5000 3.1 170 11:19 17.10.2019
6068 Smoke 26 1020 44 4000 1.5 50 10:55 17.10.2019
6069 Smoke 26 1020 44 4000 1.5 50 10:36 17.10.2019
6070 Smoke 26 1020 44 4000 1.5 50 10:18 17.10.2019
6071 Smoke 26 1020 44 4000 1.5 50 10:18 17.10.2019
6072 Smoke 24 1020 50 4000 0.5 350 09:42 17.10.2019
6073 Smoke 24 1020 50 4000 0.5 350 09:22 17.10.2019
6074 Smoke 21 1020 56 3000 0.913 320 08:59 17.10.2019
6075 Smoke 21 1020 56 3000 0.913 320 08:41 17.10.2019
6076 Smoke 21 1020 56 3000 0.913 320 08:21 17.10.2019
6077 Haze 18 1020 68 3000 0.913 320 07:56 17.10.2019
6078 Haze 18 1020 68 3000 0.913 320 07:37 17.10.2019
6079 Haze 18 1020 68 3000 0.913 320 07:18 17.10.2019
6080 -273 0 0 0 0 0 07:18 17.10.2019
6081 Haze 17 1019 72 3000 0.913 320 06:40 17.10.2019
6082 Haze 17 1019 72 3000 1.72 204 06:21 17.10.2019
6083 Haze 18 1019 77 5000 1.72 204 05:54 17.10.2019
6084 Haze 18 1019 77 5000 1.72 204 05:32 17.10.2019
6085 Haze 18 1019 72 5000 2.1 320 04:55 17.10.2019
6086 Haze 18 1019 68 5000 1.72 204 03:55 17.10.2019
6087 Haze 19 1019 68 5000 4.464 71 02:50 17.10.2019
6088 Haze 19 1019 77 5000 1 320 01:39 17.10.2019
6089 Haze 20 1019 64 5000 1.5 330 00:40 17.10.2019
6090 Haze 22 1018 77 5000 5.1 60 00:19 17.10.2019
6091 Haze 21 1019 69 5000 5.1 160 23:42 16.10.2019
6092 Haze 21 1019 69 5000 5.1 160 23:21 16.10.2019
6093 Rain 21 1020 53 5000 3.1 220 22:56 16.10.2019
6094 Rain 21 1020 53 5000 3.1 220 22:38 16.10.2019
6095 Rain 21 1020 53 5000 3.1 220 22:19 16.10.2019
6096 Rain 21 1020 53 5000 3.1 220 22:19 16.10.2019
6097 Clouds 21 1020 49 6000 5.1 200 21:58 16.10.2019
6098 Clouds 21 1020 49 6000 5.1 200 21:38 16.10.2019
6099 Rain 21 1019 49 5000 2.1 100 21:20 16.10.2019
6100 Thunderstorm 21 1017 60 5000 4.1 70 20:58 16.10.2019
6101 Thunderstorm 21 1017 60 5000 4.1 70 20:40 16.10.2019
6102 Clouds 21 1018 49 6000 2.1 100 20:21 16.10.2019
6103 Rain 22 1017 64 5000 3.6 350 19:59 16.10.2019
6104 Rain 22 1017 64 5000 3.6 350 19:39 16.10.2019
6105 Rain 22 1017 64 5000 3.6 350 19:39 16.10.2019
6106 Rain 22 1017 64 5000 3.6 350 19:21 16.10.2019
6107 -273 0 0 0 0 0 18:56 16.10.2019
6108 Clouds 23 1017 44 6000 4.726 19 18:56 16.10.2019
6109 Clouds 23 1017 44 6000 4.726 19 18:37 16.10.2019
6110 Clouds 23 1017 44 6000 3.756 233 18:18 16.10.2019
6111 Rain 24 1017 39 5000 2.1 120 17:54 16.10.2019
6112 Rain 24 1017 39 5000 2.1 120 17:36 16.10.2019
6113 Rain 24 1017 39 5000 2.1 120 17:18 16.10.2019
6114 Rain 25 1017 56 4000 5.1 30 16:43 16.10.2019
6115 Rain 24 1017 34 5000 3.1 120 16:22 16.10.2019
6116 Haze 29 1017 30 5000 3.1 120 15:59 16.10.2019
6117 Haze 29 1017 30 5000 3.1 120 15:39 16.10.2019
6118 Haze 29 1017 30 5000 3.1 120 15:39 16.10.2019
6119 Haze 27 1018 36 5000 4.6 180 15:19 16.10.2019
6120 Haze 27 1018 36 5000 4.6 180 14:58 16.10.2019
6121 Haze 27 1018 36 5000 4.6 180 14:39 16.10.2019
6122 Haze 27 1018 36 5000 4.6 180 14:20 16.10.2019
6123 Rain 26 1019 30 6000 3.6 120 13:57 16.10.2019
6124 Rain 26 1019 30 6000 3.6 120 13:39 16.10.2019
6125 Rain 26 1019 30 6000 3.6 120 13:21 16.10.2019
6126 Clouds 27 1019 37 6000 5.7 110 12:42 16.10.2019
6127 Clouds 27 1019 37 6000 5.7 110 12:42 16.10.2019
6128 Clouds 27 1019 37 6000 5.7 110 12:20 16.10.2019
6129 Clouds 26 1019 39 6000 6.2 110 11:55 16.10.2019
6130 Clouds 26 1019 39 6000 6.2 110 11:37 16.10.2019
6131 Haze 25 1019 44 4000 5.1 100 11:18 16.10.2019
6132 Clouds 25 1020 47 6000 2.6 140 10:36 16.10.2019
6133 Clouds 25 1020 47 6000 2.6 140 10:18 16.10.2019
6134 Rain 22 1020 60 5000 4.1 120 09:40 16.10.2019
6135 Rain 22 1020 60 5000 4.1 120 09:40 16.10.2019
6136 Rain 22 1020 60 5000 4.1 120 09:22 16.10.2019
6137 Rain 21 1020 60 3000 5.1 100 08:57 16.10.2019
6138 Haze 20 1020 60 5000 4.6 130 08:39 16.10.2019
6139 Haze 20 1020 60 5000 4.6 130 08:39 16.10.2019
6140 Haze 20 1020 60 5000 4.6 130 08:20 16.10.2019
6141 Rain 21 1019 60 4000 5.1 120 07:43 16.10.2019
6142 Thunderstorm 21 1019 60 3000 4.1 120 07:24 16.10.2019
6143 Haze 21 1018 49 4000 3.1 90 06:51 16.10.2019
6144 Haze 21 1018 49 4000 3.1 90 06:30 16.10.2019
6145 Rain 22 1018 56 3000 5.1 50 05:22 16.10.2019
6146 Haze 22 1020 49 5000 2.1 300 02:53 16.10.2019
6147 Haze 21 1018 56 5000 1.78 168 01:39 16.10.2019
6148 Haze 21 1018 56 5000 1.78 168 01:18 16.10.2019
6149 Haze 22 1018 60 5000 1.78 168 00:45 16.10.2019
6150 Haze 23 1019 64 5000 1.841 147 23:59 15.10.2019
6151 Haze 23 1019 64 5000 1.841 147 23:39 15.10.2019
6152 Haze 23 1019 64 5000 1.841 147 23:21 15.10.2019
6153 Haze 23 1019 64 5000 1.841 147 23:21 15.10.2019
6154 Haze 23 1019 64 5000 1.841 147 22:55 15.10.2019
6155 Haze 23 1019 60 5000 1.841 147 22:37 15.10.2019
6156 Haze 23 1019 60 5000 1.841 147 22:19 15.10.2019
6157 Haze 23 1019 60 5000 1.841 147 21:55 15.10.2019
6158 Haze 24 1019 56 5000 3.453 149 21:37 15.10.2019
6159 Haze 24 1019 56 5000 9.161 155 21:19 15.10.2019
6160 Haze 24 1019 56 5000 9.161 155 20:57 15.10.2019
6161 Haze 25 1018 41 5000 3.1 50 20:39 15.10.2019
6162 Haze 25 1018 41 5000 3.1 50 20:20 15.10.2019
6163 Haze 26 1018 41 5000 3.1 50 19:57 15.10.2019
6164 Haze 26 1018 36 5000 1 170 19:39 15.10.2019
6165 Haze 26 1018 36 5000 1 170 19:19 15.10.2019
6166 Haze 26 1018 36 5000 1 170 19:19 15.10.2019
6167 Haze 27 1018 26 5000 1.5 160 18:47 15.10.2019
6168 Haze 27 1018 26 5000 1.5 160 18:28 15.10.2019
6169 Haze 28 1018 34 5000 3.1 250 17:58 15.10.2019
6170 Haze 28 1018 34 5000 3.1 250 17:39 15.10.2019
6171 Haze 28 1018 34 5000 3.1 250 17:20 15.10.2019
6172 Haze 28 1018 34 4000 5.1 230 16:55 15.10.2019
6173 Haze 29 1018 30 4000 4.6 250 16:37 15.10.2019
6174 Haze 29 1018 30 4000 4.6 250 16:19 15.10.2019
6175 Dust 30 1018 25 4000 8.7 230 15:41 15.10.2019
6176 Dust 30 1018 25 4000 8.7 230 15:41 15.10.2019
6177 Dust 30 1018 25 4000 8.7 230 15:20 15.10.2019
6178 Rain 31 1018 27 3000 9.3 220 14:58 15.10.2019
6179 Dust 32 1017 22 2500 8.2 200 14:38 15.10.2019
6180 Dust 32 1017 22 2500 8.2 200 14:20 15.10.2019
6181 Haze 32 1018 21 5000 1.5 130 13:55 15.10.2019
6182 Haze 32 1018 20 5000 2.6 160 13:37 15.10.2019
6183 Haze 32 1018 20 5000 2.6 160 13:18 15.10.2019
6184 Haze 32 1019 25 5000 2.6 130 12:41 15.10.2019
6185 Haze 32 1019 25 5000 2.6 130 12:21 15.10.2019
6186 Haze 30 1020 30 5000 5.1 110 11:56 15.10.2019
6187 Haze 30 1020 30 5000 5.1 110 11:37 15.10.2019
6188 Haze 30 1020 30 5000 5.1 110 11:19 15.10.2019
6189 Dust 29 1020 26 2500 9.3 100 10:44 15.10.2019
6190 Dust 29 1020 26 2500 9.3 100 10:44 15.10.2019
6191 Haze 29 1020 26 2500 9.3 100 10:21 15.10.2019
6192 Haze 27 1021 36 5000 2.6 90 09:58 15.10.2019
6193 Haze 27 1021 36 5000 2.6 90 09:38 15.10.2019
6194 Haze 27 1021 36 5000 2.6 90 09:19 15.10.2019
6195 -273 0 0 0 0 0 08:55 15.10.2019
6196 Haze 25 1021 44 4000 2.6 90 08:36 15.10.2019
6197 Haze 25 1021 44 4000 2.6 90 08:36 15.10.2019
6198 Haze 25 1021 44 4000 2.6 90 08:18 15.10.2019
6199 Haze 23 1021 64 4000 6.28 110.673 07:41 15.10.2019
6200 Haze 23 1021 64 4000 6.28 110.673 07:21 15.10.2019
6201 Thunderstorm 21 1021 68 4000 4.1 280 06:47 15.10.2019
6202 Thunderstorm 21 1021 68 4000 4.1 280 06:29 15.10.2019
6203 Thunderstorm 22 1021 64 3000 4.1 280 05:48 15.10.2019
6204 Thunderstorm 22 1021 64 3000 4.1 280 05:29 15.10.2019
6205 Thunderstorm 22 1020 60 4000 2.1 100 04:39 15.10.2019
6206 Thunderstorm 22 1020 60 4000 2.1 100 03:57 15.10.2019
6207 Thunderstorm 22 1020 64 4000 1 100 03:27 15.10.2019
6208 Thunderstorm 23 1020 60 4000 2.1 60 01:51 15.10.2019
6209 Thunderstorm 23 1020 60 4000 2.1 60 01:24 15.10.2019
6210 Thunderstorm 24 1022 49 4000 5.1 240 00:52 15.10.2019
6211 -273 0 0 0 0 0 00:24 15.10.2019
6212 Thunderstorm 26 1020 41 4000 5.1 100 23:55 14.10.2019
6213 Thunderstorm 26 1021 34 4000 2.1 130 23:36 14.10.2019
6214 Thunderstorm 26 1021 34 4000 2.1 130 23:18 14.10.2019
6215 Dust 27 1020 28 4000 4.1 100 22:39 14.10.2019
6216 Dust 27 1020 28 4000 4.1 100 22:19 14.10.2019
6217 Haze 27 1019 32 4000 7.7 90 21:57 14.10.2019
6218 Haze 27 1019 28 5000 4.1 100 21:39 14.10.2019
6219 Haze 27 1019 28 5000 4.1 100 21:20 14.10.2019
6220 Haze 28 1019 25 5000 3.1 110 20:57 14.10.2019
6221 Haze 28 1019 25 5000 3.1 110 20:38 14.10.2019
6222 Haze 28 1019 25 5000 3.1 110 20:19 14.10.2019
6223 Haze 29 1019 26 5000 2.1 100 19:44 14.10.2019
6224 Haze 29 1019 26 5000 2.1 100 19:25 14.10.2019
6225 Haze 29 1018 27 5000 1.5 90 18:59 14.10.2019
6226 Haze 29 1018 27 5000 1.5 90 18:40 14.10.2019
6227 Haze 29 1018 27 5000 1.5 90 18:21 14.10.2019
6228 Haze 32 1018 25 5000 1.5 90 17:59 14.10.2019
6229 Haze 32 1018 25 5000 1.5 90 17:41 14.10.2019
6230 Haze 32 1018 25 5000 1.5 90 17:22 14.10.2019
6231 Haze 34 1018 20 6000 2.6 120 16:45 14.10.2019
6232 Haze 34 1018 20 6000 2.6 120 16:22 14.10.2019
6233 Haze 34 1018 15 6000 2.1 100 15:59 14.10.2019
6234 Haze 34 1018 15 6000 2.1 100 15:40 14.10.2019
6235 Haze 34 1018 15 6000 2.1 100 15:21 14.10.2019
6236 Haze 34 1019 15 6000 2.1 350 14:44 14.10.2019
6237 Haze 34 1019 15 6000 2.1 350 14:25 14.10.2019
6238 Haze 34 1019 17 6000 1.5 130 13:57 14.10.2019
6239 Haze 34 1019 17 6000 1.5 130 13:39 14.10.2019
6240 Haze 34 1019 16 6000 1.5 130 13:20 14.10.2019
6241 Haze 33 1020 19 6000 4.1 130 12:41 14.10.2019
6242 Haze 33 1020 19 6000 4.1 130 12:20 14.10.2019
6243 Haze 32 1021 22 5000 3.1 90 11:55 14.10.2019
6244 Haze 32 1021 22 5000 3.1 90 11:36 14.10.2019
6245 Haze 32 1021 22 5000 3.1 90 11:18 14.10.2019
6246 Haze 30 1021 26 5000 3.1 50 10:43 14.10.2019
6247 Haze 30 1021 26 5000 3.1 50 10:43 14.10.2019
6248 Haze 28 1021 26 5000 3.1 50 10:21 14.10.2019
6249 Haze 28 1021 30 4000 2.1 50 09:59 14.10.2019
6250 Haze 28 1021 30 4000 2.1 50 09:59 14.10.2019
6251 Haze 28 1021 30 4000 2.1 50 09:38 14.10.2019
6252 Haze 28 1021 30 4000 2.1 50 09:20 14.10.2019
6253 Haze 25 1020 41 3000 4.61 115.621 08:48 14.10.2019
6254 Haze 25 1020 41 3000 4.61 115.621 08:23 14.10.2019
6255 Smoke 21 1020 52 4000 4.61 115.621 07:44 14.10.2019
6256 Smoke 21 1020 52 4000 4.61 115.621 07:22 14.10.2019
6257 Haze 18 1019 42 4000 1 50 06:56 14.10.2019
6258 Haze 19 1019 43 5000 3.6 240 06:28 14.10.2019
6259 Haze 21 1019 40 5000 3.6 240 05:53 14.10.2019
6260 Haze 22 1018 36 6000 3.6 240 04:53 14.10.2019
6261 Clouds 22 1018 29 7000 3.6 170 03:49 14.10.2019
6262 Clouds 22 1018 29 7000 3.6 170 03:22 14.10.2019
6263 Clouds 24 1019 27 6000 3.6 160 01:56 14.10.2019
6264 Clouds 23 1019 27 6000 3.6 160 01:18 14.10.2019
6265 Clouds 23 1019 27 6000 4.6 130 00:41 14.10.2019
6266 Rain 23 1019 27 6000 4.6 130 00:18 14.10.2019
6267 Rain 25 1018 31 6000 4.07 125.068 23:40 13.10.2019
6268 Rain 25 1018 31 6000 4.07 125.068 23:19 13.10.2019
6269 Rain 24 1018 31 6000 4.07 125.068 22:56 13.10.2019
6270 Rain 24 1018 31 6000 4.07 125.068 22:38 13.10.2019
6271 Rain 24 1018 31 6000 4.07 125.068 22:19 13.10.2019
6272 Haze 25 1018 34 5000 4.07 125.068 21:56 13.10.2019
6273 Haze 25 1018 34 5000 4.07 125.068 21:36 13.10.2019
6274 Haze 25 1018 34 5000 4.07 125.068 21:36 13.10.2019
6275 Haze 25 1018 34 5000 2.75 72.309 21:18 13.10.2019
6276 Haze 25 1018 34 5000 2.75 72.309 21:18 13.10.2019
6277 Haze 25 1017 30 5000 2.75 72.309 20:55 13.10.2019
6278 Haze 25 1017 30 5000 5.25 53.846 20:37 13.10.2019
6279 Haze 25 1017 30 5000 5.25 53.846 20:18 13.10.2019
6280 Haze 27 1017 30 5000 5.25 53.846 19:54 13.10.2019
6281 Haze 27 1017 30 5000 5.25 53.846 19:36 13.10.2019
6282 Haze 27 1017 30 5000 5.25 53.846 19:18 13.10.2019
6283 Haze 29 1016 28 5000 5.25 53.846 18:41 13.10.2019
6284 Haze 29 1016 28 5000 1.74 108.945 18:21 13.10.2019
6285 Haze 32 1016 23 5000 1.5 80 17:59 13.10.2019
6286 Haze 32 1016 23 5000 1.5 80 17:41 13.10.2019
6287 Haze 32 1016 23 5000 1.5 80 17:41 13.10.2019
6288 Haze 32 1016 23 5000 1.5 80 17:23 13.10.2019
6289 Haze 33 1016 19 5000 1.5 80 16:44 13.10.2019
6290 Haze 33 1016 19 5000 1.5 80 16:20 13.10.2019
6291 Haze 33 1016 19 5000 1.5 80 16:20 13.10.2019
6292 Haze 33 1016 17 5000 2.6 80 15:58 13.10.2019
6293 Haze 33 1016 17 5000 2.6 80 15:58 13.10.2019
6294 Haze 33 1016 17 5000 2.6 80 15:39 13.10.2019
6295 Haze 33 1016 17 5000 2.6 80 15:21 13.10.2019
6296 Haze 33 1016 16 5000 2.6 130 14:58 13.10.2019
6297 Haze 33 1016 16 5000 2.6 130 14:40 13.10.2019
6298 Haze 33 1016 16 5000 2.6 130 14:21 13.10.2019
6299 Haze 33 1017 16 4500 4.1 80 13:58 13.10.2019
6300 Haze 33 1017 16 4500 4.1 80 13:38 13.10.2019
6301 Haze 33 1017 16 4500 4.1 80 13:20 13.10.2019
6302 Haze 33 1017 18 5000 3.1 80 12:56 13.10.2019
6303 Haze 33 1017 18 5000 3.1 80 12:38 13.10.2019
6304 Haze 33 1017 18 5000 3.1 80 12:18 13.10.2019
6305 Haze 30 1018 20 5000 4.1 100 11:55 13.10.2019
6306 Haze 30 1018 20 5000 4.1 100 11:55 13.10.2019
6307 Haze 30 1018 20 5000 4.1 100 11:37 13.10.2019
6308 Haze 30 1018 20 5000 4.1 100 11:18 13.10.2019
6309 Haze 27 1018 20 6000 2.6 60 10:41 13.10.2019
6310 Haze 27 1018 20 6000 2.6 60 10:23 13.10.2019
6311 Haze 25 1018 28 5000 2.6 90 09:56 13.10.2019
6312 Haze 25 1018 28 5000 2.6 90 09:37 13.10.2019
6313 Haze 25 1018 28 5000 2.6 90 09:19 13.10.2019
6314 Smoke 21 1018 49 4000 0.35 148.424 08:43 13.10.2019
6315 Smoke 21 1018 49 4000 0.35 148.424 08:21 13.10.2019
6316 Haze 19 1017 60 2500 0.35 148.424 07:46 13.10.2019
6317 Haze 19 1017 60 2500 0.35 148.424 07:23 13.10.2019
6318 Haze 16 1017 72 3000 0.35 148.424 06:46 13.10.2019
6319 Haze 16 1017 64 5000 2.75 305.741 05:50 13.10.2019
6320 Haze 17 1017 64 5000 1 140 04:52 13.10.2019
6321 Haze 17 1017 64 5000 1 140 04:32 13.10.2019
6322 Haze 18 1017 68 5000 0.5 180 02:47 13.10.2019
6323 Haze 18 1017 68 5000 0.5 180 02:18 13.10.2019
6324 Haze 17 1017 77 5000 3.83 306.774 01:31 13.10.2019
6325 Haze 17 1017 77 5000 3.83 306.774 01:31 13.10.2019
6326 Haze 18 1017 72 5000 3.35 306.479 00:50 13.10.2019
6327 Haze 19 1017 72 5000 3.7 308.616 00:22 13.10.2019
6328 Haze 19 1017 68 5000 1.5 300 23:58 12.10.2019
6329 Haze 19 1017 68 5000 1.5 300 23:39 12.10.2019
6330 Haze 19 1017 68 5000 1.5 300 23:21 12.10.2019
6331 Clear 20 1017 73 6000 1 300 22:58 12.10.2019
6332 Clear 20 1017 73 6000 1 300 22:39 12.10.2019
6333 Clear 20 1017 73 6000 1 300 22:20 12.10.2019
6334 Clear 21 1017 68 6000 1 250 21:55 12.10.2019
6335 Clear 21 1017 68 6000 1 250 21:37 12.10.2019
6336 Clear 21 1017 68 6000 1 250 21:19 12.10.2019
6337 Clear 21 1017 68 6000 2.1 250 20:43 12.10.2019
6338 Clear 21 1017 68 6000 2.1 250 20:25 12.10.2019
6339 Clear 24 1017 64 6000 3.1 290 19:40 12.10.2019
6340 Clear 24 1017 64 6000 3.1 290 19:22 12.10.2019
6341 Clear 24 1017 64 6000 3.1 290 19:22 12.10.2019
6342 Clear 24 1017 64 6000 4.6 320 18:59 12.10.2019
6343 Clear 24 1017 64 6000 4.6 320 18:41 12.10.2019
6344 Clear 24 1017 64 6000 4.6 320 18:23 12.10.2019
6345 Haze 26 1016 50 6000 5.1 290 17:45 12.10.2019
6346 Haze 26 1016 50 6000 5.1 290 17:20 12.10.2019
6347 Haze 28 1016 39 6000 5.1 320 16:56 12.10.2019
6348 Haze 28 1016 39 6000 5.1 320 16:38 12.10.2019
6349 Haze 28 1016 39 6000 5.1 320 16:19 12.10.2019
6350 Haze 29 1016 34 5000 6.2 310 15:44 12.10.2019
6351 Haze 29 1016 34 5000 6.2 310 15:25 12.10.2019
6352 Haze 29 1016 34 5000 6.2 310 15:25 12.10.2019
6353 Haze 30 1016 32 6000 4.6 320 14:59 12.10.2019
6354 Haze 30 1016 32 6000 4.6 320 14:38 12.10.2019
6355 Haze 30 1016 32 6000 4.6 320 14:19 12.10.2019
6356 Haze 29 1016 34 6000 4.1 320 13:45 12.10.2019
6357 Haze 29 1016 34 6000 4.1 320 13:27 12.10.2019
6358 Haze 29 1017 34 6000 3.1 360 12:55 12.10.2019
6359 Haze 29 1017 34 6000 3.1 360 12:36 12.10.2019
6360 Haze 29 1017 34 6000 3.1 360 12:18 12.10.2019
6361 Haze 28 1017 39 6000 3.1 350 11:40 12.10.2019
6362 Haze 28 1017 39 6000 3.1 350 11:22 12.10.2019
6363 Haze 26 1017 47 6000 2.6 30 10:56 12.10.2019
6364 Haze 26 1017 47 6000 2.6 30 10:37 12.10.2019
6365 Haze 24 1017 47 6000 2.6 30 10:19 12.10.2019
6366 -273 0 0 0 0 0 09:56 12.10.2019
6367 Haze 23 1017 64 5000 2.1 340 09:37 12.10.2019
6368 Haze 23 1017 64 5000 2.1 340 09:19 12.10.2019
6369 Haze 19 1017 64 5000 2.6 350 08:43 12.10.2019
6370 Haze 19 1017 64 5000 2.6 350 08:23 12.10.2019
6371 Haze 17 1017 77 5000 2.1 280 07:49 12.10.2019
6372 Haze 17 1017 77 5000 2.1 280 07:30 12.10.2019
6373 Haze 15 1017 82 5000 4.83 313.188 05:54 12.10.2019
6374 Haze 15 1017 82 5000 4.83 313.188 05:26 12.10.2019
6375 Haze 16 1017 82 5000 4.83 313.188 04:31 12.10.2019
6376 Haze 16 1017 72 5000 2.1 260 03:53 12.10.2019
6377 Haze 17 1017 72 5000 1.5 240 02:37 12.10.2019
6378 Haze 18 1017 68 5000 2.6 240 01:32 12.10.2019
6379 Haze 19 1016 64 5000 4.6 250 00:55 12.10.2019
6380 Haze 19 1016 64 5000 4.6 250 00:37 12.10.2019
6381 Haze 20 1017 60 5000 3.6 250 23:55 11.10.2019
6382 Haze 20 1017 60 5000 3.6 250 23:36 11.10.2019
6383 Haze 20 1017 60 5000 3.6 250 23:18 11.10.2019
6384 Haze 22 1017 64 5000 3.1 240 22:37 11.10.2019
6385 Haze 22 1017 64 5000 3.1 240 22:19 11.10.2019
6386 Haze 23 1016 64 5000 2.6 240 21:42 11.10.2019
6387 Haze 23 1016 64 5000 2.6 240 21:21 11.10.2019
6388 Haze 23 1016 64 5000 2.6 240 21:21 11.10.2019
6389 Haze 23 1016 57 5000 2.1 280 20:57 11.10.2019
6390 Haze 23 1016 57 5000 2.1 280 20:38 11.10.2019
6391 Haze 23 1016 57 5000 2.1 280 20:20 11.10.2019
6392 Clouds 24 1016 60 6000 3.1 330 19:55 11.10.2019
6393 Clouds 24 1016 60 6000 3.1 330 19:37 11.10.2019
6394 Clouds 24 1016 60 6000 3.1 330 19:18 11.10.2019
6395 Clouds 24 1016 60 6000 3.1 330 19:18 11.10.2019
6396 Clouds 24 1016 60 6000 3.1 330 19:18 11.10.2019
6397 Clouds 24 1016 60 6000 3.1 330 19:18 11.10.2019
6398 Clouds 24 1016 60 6000 3.1 330 19:18 11.10.2019
6399 Haze 26 1015 57 5000 5.1 310 18:56 11.10.2019
6400 Haze 26 1015 57 5000 5.1 310 18:37 11.10.2019
6401 Haze 26 1015 57 5000 5.1 310 18:18 11.10.2019
6402 Haze 28 1015 32 4000 5.7 320 17:55 11.10.2019
6403 Haze 28 1015 32 4000 5.7 320 17:36 11.10.2019
6404 Haze 28 1015 32 4000 5.7 320 17:18 11.10.2019
6405 Haze 30 1016 20 5000 4.6 340 16:40 11.10.2019
6406 Haze 30 1016 20 5000 4.6 340 16:20 11.10.2019
6407 Haze 32 1016 29 5000 3.6 250 15:59 11.10.2019
6408 Haze 32 1016 29 5000 3.6 250 15:59 11.10.2019
6409 Haze 32 1016 29 5000 3.6 250 15:38 11.10.2019
6410 Haze 32 1016 29 5000 3.6 250 15:19 11.10.2019
6411 Haze 32 1016 19 5000 2.1 320 14:47 11.10.2019
6412 Haze 32 1016 19 5000 2.1 320 14:29 11.10.2019
6413 Haze 32 1016 16 5000 1.5 40 13:57 11.10.2019
6414 Haze 32 1016 16 5000 1.5 40 13:38 11.10.2019
6415 Haze 32 1016 16 5000 1.5 40 13:19 11.10.2019
6416 Haze 31 1017 20 5000 3.1 240 12:56 11.10.2019
6417 Haze 31 1017 20 5000 3.1 240 12:38 11.10.2019
6418 Haze 31 1017 20 5000 3.1 240 12:18 11.10.2019
6419 Haze 30 1018 19 5000 3.1 32 11:41 11.10.2019
6420 Haze 30 1018 19 5000 3.1 32 11:22 11.10.2019
6421 Haze 30 1018 16 5000 3.55 301.766 10:58 11.10.2019
6422 Haze 30 1018 16 5000 3.55 301.766 10:58 11.10.2019
6423 Haze 30 1018 16 5000 3.55 301.766 10:40 11.10.2019
6424 Haze 30 1018 16 5000 3.55 301.766 10:22 11.10.2019
6425 Haze 26 1018 15 5000 1.5 30 09:56 11.10.2019
6426 Haze 26 1018 15 5000 1.5 30 09:37 11.10.2019
6427 Haze 26 1018 15 5000 1.5 30 09:19 11.10.2019
6428 Haze 24 1018 31 5000 2.1 240 08:55 11.10.2019
6429 Haze 24 1018 31 5000 2.1 240 08:37 11.10.2019
6430 Haze 24 1018 31 5000 2.1 240 08:19 11.10.2019
6431 Haze 20 1017 64 5000 4.84 307.637 07:44 11.10.2019
6432 Haze 20 1017 64 5000 4.84 307.637 07:25 11.10.2019
6433 Haze 18 1017 60 5000 4.84 307.637 06:49 11.10.2019
6434 Haze 18 1017 60 5000 4.11 308.721 06:24 11.10.2019
6435 Haze 18 1017 56 5000 4.11 308.721 05:41 11.10.2019
6436 Haze 19 1018 52 5000 1.5 230 04:59 11.10.2019
6437 Haze 19 1018 52 5000 1.5 230 04:25 11.10.2019
6438 Haze 21 1017 53 5000 3.1 240 02:40 11.10.2019
6439 Haze 22 1017 53 5000 3.1 240 00:51 11.10.2019
6440 Haze 22 1017 53 5000 3.1 240 00:29 11.10.2019
6441 Haze 22 1018 47 5000 3.1 250 23:46 10.10.2019
6442 Haze 22 1018 47 5000 3.1 250 23:23 10.10.2019
6443 Haze 22 1018 47 5000 1.5 340 22:58 10.10.2019
6444 Haze 22 1018 47 5000 1.5 340 22:39 10.10.2019
6445 Haze 22 1018 47 5000 1.5 340 22:21 10.10.2019
6446 Haze 23 1018 47 5000 5.67 321.784 21:58 10.10.2019
6447 Haze 23 1018 47 5000 5.67 321.784 21:40 10.10.2019
6448 Haze 25 1018 47 5000 3.9 325.401 21:21 10.10.2019
6449 Haze 25 1018 47 5000 1 140 20:57 10.10.2019
6450 Haze 25 1018 47 5000 1 140 20:38 10.10.2019
6451 Haze 25 1018 47 5000 1 140 20:18 10.10.2019
6452 Haze 26 1017 41 6000 2.6 330 19:54 10.10.2019
6453 Haze 26 1017 41 6000 2.6 330 19:36 10.10.2019
6454 Haze 26 1017 41 6000 2.6 330 19:18 10.10.2019
6455 Haze 27 1017 36 5000 1.5 300 18:41 10.10.2019
6456 Haze 27 1017 36 5000 1.5 300 18:20 10.10.2019
6457 Haze 30 1017 23 5000 3.1 250 17:55 10.10.2019
6458 Haze 30 1017 23 5000 3.1 250 17:37 10.10.2019
6459 Haze 30 1017 23 5000 3.1 250 17:18 10.10.2019
6460 Haze 32 1017 25 5000 3.6 250 16:47 10.10.2019
6461 Haze 32 1017 25 5000 3.6 250 16:26 10.10.2019
6462 Haze 33 1017 22 5000 4.1 250 15:58 10.10.2019
6463 Haze 33 1017 22 5000 4.1 250 15:38 10.10.2019
6464 Haze 33 1017 22 5000 4.1 250 15:20 10.10.2019
6465 Haze 34 1017 20 5000 1 290 14:55 10.10.2019
6466 Haze 34 1017 20 5000 1 290 14:36 10.10.2019
6467 Haze 34 1017 20 5000 1 290 14:18 10.10.2019
6468 Haze 34 1018 17 5000 1.5 50 13:46 10.10.2019
6469 Haze 34 1018 17 5000 1.5 50 13:27 10.10.2019
6470 Haze 32 1019 20 5000 2.1 80 12:59 10.10.2019
6471 Haze 32 1019 20 5000 2.1 80 12:40 10.10.2019
6472 Haze 32 1019 20 5000 2.1 80 12:20 10.10.2019
6473 Haze 31 1019 28 5000 2.1 70 11:58 10.10.2019
6474 Haze 31 1019 28 5000 2.1 70 11:38 10.10.2019
6475 Haze 31 1019 28 5000 2.1 70 11:19 10.10.2019
6476 Haze 29 1020 20 5000 1.28 296.045 10:45 10.10.2019
6477 Haze 29 1020 20 5000 1.28 296.045 10:26 10.10.2019
6478 Smoke 26 1019 27 5000 1.28 296.045 09:58 10.10.2019
6479 Smoke 26 1019 27 5000 1.28 296.045 09:39 10.10.2019
6480 Smoke 26 1019 27 5000 2.87 307.586 09:21 10.10.2019
6481 Smoke 22 1019 40 5000 1 90 08:57 10.10.2019
6482 Smoke 22 1019 40 5000 1 90 08:38 10.10.2019
6483 -273 0 0 0 0 0 08:19 10.10.2019
6484 Haze 19 1020 45 2500 3.42 321.28 07:45 10.10.2019
6485 Haze 19 1020 45 2500 3.42 321.28 07:22 10.10.2019
6486 Haze 17 1019 52 2500 2.1 60 06:48 10.10.2019
6487 Haze 17 1019 52 2500 2.1 60 06:29 10.10.2019
6488 Haze 18 1019 46 5000 1.5 230 05:28 10.10.2019
6489 Haze 17 1019 37 5000 1.5 210 04:48 10.10.2019
6490 Haze 17 1019 37 5000 1.5 210 04:26 10.10.2019
6491 Haze 19 1020 37 5000 1 240 01:46 10.10.2019
6492 Haze 19 1020 37 5000 1 240 01:26 10.10.2019
6493 Clear 20 1020 37 6000 4.2 319.002 00:59 10.10.2019
6494 Clear 20 1020 37 6000 4.42 312.626 00:23 10.10.2019
6495 Haze 21 1020 33 6000 4.42 312.626 23:40 09.10.2019
6496 Haze 21 1020 33 6000 4.42 312.626 23:22 09.10.2019
6497 Haze 22 1020 31 6000 2.1 180 22:59 09.10.2019
6498 Haze 22 1020 31 6000 2.1 180 22:40 09.10.2019
6499 Haze 22 1020 31 6000 2.1 180 22:22 09.10.2019
6500 Haze 23 1020 31 6000 4.42 312.626 21:41 09.10.2019
6501 Haze 23 1020 31 6000 5.28 325.519 21:21 09.10.2019
6502 Haze 24 1020 36 6000 4.64 328.291 20:56 09.10.2019
6503 Haze 24 1020 36 6000 4.64 328.291 20:38 09.10.2019
6504 Haze 24 1020 36 6000 4.64 328.291 20:38 09.10.2019
6505 Haze 24 1020 36 6000 4.64 328.291 20:19 09.10.2019
6506 Haze 23 1020 64 6000 2.1 320 19:58 09.10.2019
6507 Haze 23 1020 64 6000 2.1 320 19:40 09.10.2019
6508 Haze 23 1020 64 6000 2.1 320 19:22 09.10.2019
6509 Haze 23 1020 64 6000 2.1 320 19:22 09.10.2019
6510 Clear 24 1016 35 0 4.64 328.291 18:38 09.10.2019
6511 Haze 29 1019 18 5000 3.6 310 18:20 09.10.2019
6512 Haze 29 1019 18 5000 3.6 310 17:58 09.10.2019
6513 Haze 29 1019 18 5000 3.6 310 17:58 09.10.2019
6514 Haze 29 1019 18 5000 3.6 310 17:39 09.10.2019
6515 Haze 29 1019 18 5000 3.6 310 17:21 09.10.2019
6516 Haze 32 1018 19 5000 3.1 350 16:56 09.10.2019
6517 Haze 32 1018 19 5000 3.1 350 16:56 09.10.2019
6518 Haze 32 1018 19 5000 3.1 350 16:56 09.10.2019
6519 Haze 32 1018 19 5000 3.1 350 16:37 09.10.2019
6520 Haze 32 1018 19 5000 3.1 350 16:19 09.10.2019
6521 Haze 33 1019 21 5000 4.1 350 15:55 09.10.2019
6522 Haze 33 1019 21 5000 4.1 350 15:37 09.10.2019
6523 Haze 33 1019 21 5000 4.1 350 15:18 09.10.2019
6524 -273 0 0 0 0 0 14:45 09.10.2019
6525 Haze 33 1019 18 5000 2.1 20 14:19 09.10.2019
6526 Haze 33 1019 15 5000 4.1 10 13:59 09.10.2019
6527 Haze 33 1019 15 5000 4.1 10 13:38 09.10.2019
6528 Haze 33 1019 15 5000 4.1 10 13:18 09.10.2019
6529 Haze 33 1020 18 5000 3.18 292.635 12:44 09.10.2019
6530 Haze 33 1020 18 5000 3.18 300.374 12:23 09.10.2019
6531 Haze 31 1020 20 5000 3.18 300.374 11:58 09.10.2019
6532 Haze 31 1020 20 5000 3.18 300.374 11:40 09.10.2019
6533 Haze 31 1020 20 5000 3.18 300.374 11:20 09.10.2019
6534 Haze 30 1021 23 5000 3.18 300.374 10:59 09.10.2019
6535 Haze 30 1021 23 5000 3.18 300.374 10:40 09.10.2019
6536 Haze 30 1021 23 5000 3.18 300.374 10:19 09.10.2019
6537 Haze 30 1021 23 5000 3.18 300.374 10:19 09.10.2019
6538 Smoke 27 1021 36 5000 3.18 300.374 09:43 09.10.2019
6539 Smoke 27 1021 36 5000 3.53 305.741 09:21 09.10.2019
6540 Smoke 23 1021 38 5000 3.53 305.741 08:58 09.10.2019
6541 Smoke 23 1021 38 5000 3.18 309.198 08:39 09.10.2019
6542 Smoke 23 1021 38 5000 3.18 309.198 08:19 09.10.2019
6543 Smoke 23 1021 38 5000 3.18 309.198 08:19 09.10.2019
6544 Smoke 19 1020 56 3500 3.18 309.198 07:47 09.10.2019
6545 Smoke 19 1020 56 3500 3.18 309.198 07:25 09.10.2019
6546 Smoke 18 1020 55 3500 1.5 360 06:58 09.10.2019
6547 Smoke 18 1020 55 3500 1.5 360 06:35 09.10.2019
6548 Haze 18 1020 59 5000 3.86 328.369 05:52 09.10.2019
6549 Haze 19 1020 64 6000 2.6 300 04:56 09.10.2019
6550 Haze 18 1020 64 6000 2.6 300 03:48 09.10.2019
6551 Haze 19 1020 64 6000 2.6 300 02:27 09.10.2019
6552 Haze 20 1020 64 6000 2.6 300 01:39 09.10.2019
6553 Haze 20 1020 64 6000 2.6 300 01:18 09.10.2019
6554 Haze 21 1020 60 6000 2.6 300 00:41 09.10.2019
6555 Haze 21 1020 60 6000 2.6 300 00:23 09.10.2019
6556 Haze 21 1020 64 6000 2.86 319.301 23:58 08.10.2019
6557 Haze 21 1020 64 6000 2.86 319.301 23:38 08.10.2019
6558 Haze 21 1020 64 6000 2.86 319.301 23:18 08.10.2019
6559 Haze 21 1020 64 6000 2.86 319.301 23:18 08.10.2019
6560 Haze 22 1020 60 5000 1.5 320 22:55 08.10.2019
6561 Haze 22 1020 60 5000 1.5 320 22:36 08.10.2019
6562 Haze 22 1020 60 5000 1.5 320 22:18 08.10.2019
6563 Haze 23 1020 56 5000 1 320 21:55 08.10.2019
6564 Haze 23 1020 56 5000 1 320 21:36 08.10.2019
6565 Haze 23 1020 56 5000 1 320 21:18 08.10.2019
6566 Haze 24 1019 53 5000 3.1 320 20:55 08.10.2019
6567 -273 0 0 0 0 0 20:55 08.10.2019
6568 Haze 24 1019 53 5000 3.1 320 20:36 08.10.2019
6569 Haze 24 1019 53 5000 3.1 320 20:18 08.10.2019
6570 Haze 25 1019 41 5000 2.6 330 19:54 08.10.2019
6571 Haze 25 1019 41 5000 2.6 330 19:36 08.10.2019
6572 Haze 25 1019 41 5000 2.6 330 19:18 08.10.2019
6573 Haze 27 1018 41 5000 2.1 320 18:41 08.10.2019
6574 Haze 27 1018 41 5000 2.1 320 18:23 08.10.2019
6575 Haze 30 1017 30 5000 5.1 330 17:57 08.10.2019
6576 Haze 30 1017 30 5000 5.1 330 17:57 08.10.2019
6577 Haze 30 1017 30 5000 5.1 330 17:39 08.10.2019
6578 Haze 30 1017 30 5000 5.1 330 17:19 08.10.2019
6579 Clouds 31 1017 18 6000 4.6 270 16:56 08.10.2019
6580 Clouds 31 1017 18 6000 4.6 270 16:37 08.10.2019
6581 Clouds 31 1017 18 6000 4.6 270 16:18 08.10.2019
6582 Clouds 32 1017 18 6000 4.6 250 15:38 08.10.2019
6583 Clouds 32 1017 18 6000 4.6 250 15:20 08.10.2019
6584 Haze 32 1017 22 6000 4.6 250 14:56 08.10.2019
6585 Haze 32 1017 22 6000 4.6 250 14:37 08.10.2019
6586 Haze 32 1017 22 6000 4.6 250 14:19 08.10.2019
6587 -273 0 0 0 0 0 13:55 08.10.2019
6588 Haze 33 1017 21 6000 3.1 230 13:37 08.10.2019
6589 Haze 33 1017 21 6000 3.1 230 13:18 08.10.2019
6590 Haze 33 1017 21 6000 3.1 230 13:18 08.10.2019
6591 Haze 31 1017 30 5000 1.5 250 12:41 08.10.2019
6592 Haze 31 1017 30 5000 1.5 250 12:20 08.10.2019
6593 Haze 30 1018 28 5000 2.1 150 11:58 08.10.2019
6594 Haze 30 1018 28 5000 2.1 150 11:39 08.10.2019
6595 Haze 30 1018 28 5000 2.1 150 11:21 08.10.2019
6596 Haze 30 1018 28 5000 2.1 150 11:21 08.10.2019
6597 -273 0 0 0 0 0 10:54 08.10.2019
6598 Haze 28 1018 30 5000 1.5 90 10:54 08.10.2019
6599 Haze 28 1018 30 5000 1.5 90 10:36 08.10.2019
6600 Haze 28 1018 30 5000 1.5 90 10:18 08.10.2019
6601 Smoke 26 1018 34 5000 2.88 152.572 09:40 08.10.2019
6602 Smoke 26 1018 34 5000 0.29 227.416 09:22 08.10.2019
6603 Smoke 24 1018 43 4000 0.29 227.416 08:45 08.10.2019
6604 Smoke 24 1018 43 4000 0.35 301.885 08:25 08.10.2019
6605 Smoke 19 1017 60 4000 0.35 301.885 07:58 08.10.2019
6606 Smoke 19 1017 60 4000 0.35 301.885 07:40 08.10.2019
6607 Smoke 19 1017 60 4000 0.35 301.885 07:19 08.10.2019
6608 Haze 18 1016 59 5000 0.35 301.885 06:46 08.10.2019
6609 Haze 18 1016 59 5000 1.96 312.868 06:23 08.10.2019
6610 Haze 18 1016 63 5000 1.96 312.868 05:43 08.10.2019
6611 Haze 18 1016 63 5000 1.96 312.868 05:43 08.10.2019
6612 Haze 18 1016 63 5000 1.96 312.868 05:21 08.10.2019
6613 Clear 20 1016 63 6000 1.96 312.868 03:32 08.10.2019
6614 Clear 20 1016 59 6000 2.18 303.748 02:44 08.10.2019
6615 Clear 20 1016 59 6000 2.18 303.748 02:25 08.10.2019
6616 Clear 19 1016 56 6000 2.18 303.748 01:42 08.10.2019
6617 Clear 19 1016 56 6000 1.86 315.807 00:57 08.10.2019
6618 Clear 19 1016 56 6000 1.86 315.807 00:57 08.10.2019
6619 Clear 19 1016 56 6000 1.86 315.807 00:36 08.10.2019
6620 Clear 19 1016 56 6000 2.21 304.488 00:18 08.10.2019
6621 Clear 20 1016 60 6000 2.21 304.488 23:38 07.10.2019
6622 Clear 20 1016 60 6000 2.21 304.488 23:19 07.10.2019
6623 Clear 20 1016 56 7000 2.21 304.488 22:55 07.10.2019
6624 Clear 20 1016 56 7000 2.21 304.488 22:37 07.10.2019
6625 Clear 20 1016 56 7000 2.21 304.488 22:19 07.10.2019
6626 Haze 21 1016 73 5000 2.21 304.488 21:55 07.10.2019
6627 Haze 21 1016 73 5000 2.21 304.488 21:37 07.10.2019
6628 Haze 21 1016 73 5000 3.74 347.533 21:18 07.10.2019
6629 Haze 22 1015 46 5000 4.08 341.955 20:56 07.10.2019
6630 Haze 22 1015 46 5000 4.08 341.955 20:38 07.10.2019
6631 Haze 22 1015 46 5000 4.08 341.955 20:19 07.10.2019
6632 Haze 23 1015 44 5000 2.6 320 19:54 07.10.2019
6633 Haze 23 1015 44 5000 2.6 320 19:36 07.10.2019
6634 Haze 23 1015 44 5000 2.6 320 19:18 07.10.2019
6635 Haze 26 1015 29 5000 2.6 290 18:42 07.10.2019
6636 Haze 26 1015 29 5000 2.6 290 18:19 07.10.2019
6637 Haze 28 1015 22 5000 2.1 280 17:59 07.10.2019
6638 Haze 28 1015 22 5000 2.1 280 17:41 07.10.2019
6639 Haze 28 1015 22 5000 2.1 280 17:19 07.10.2019
6640 Haze 29 1014 21 6000 3.1 260 16:55 07.10.2019
6641 Haze 29 1014 21 6000 3.1 260 16:55 07.10.2019
6642 Haze 29 1014 21 6000 3.1 260 16:37 07.10.2019
6643 Haze 29 1014 21 6000 3.1 260 16:18 07.10.2019
6644 Haze 30 1015 18 7000 4.6 280 15:41 07.10.2019
6645 Haze 30 1015 18 7000 4.6 280 15:41 07.10.2019
6646 Haze 30 1015 18 7000 4.6 280 15:22 07.10.2019
6647 Haze 30 1015 21 7000 3.6 250 14:42 07.10.2019
6648 Haze 30 1015 21 7000 3.6 250 14:23 07.10.2019
6649 Haze 29 1015 23 7000 2.6 250 13:59 07.10.2019
6650 Haze 29 1015 23 7000 2.6 250 13:40 07.10.2019
6651 Haze 29 1015 23 7000 2.6 250 13:18 07.10.2019
6652 Haze 28 1015 21 6000 3.6 270 12:54 07.10.2019
6653 Haze 28 1015 21 6000 3.6 270 12:36 07.10.2019
6654 Haze 28 1015 21 6000 3.6 270 12:36 07.10.2019
6655 Haze 28 1015 21 6000 3.6 270 12:18 07.10.2019
6656 Haze 27 1015 36 6000 1.5 140 11:56 07.10.2019
6657 Haze 27 1015 36 6000 1.5 140 11:36 07.10.2019
6658 Haze 27 1015 36 6000 1.5 140 11:18 07.10.2019
6659 Haze 24 1016 44 10000 1.5 120 10:40 07.10.2019
6660 Haze 24 1016 44 10000 1.5 120 10:20 07.10.2019
6661 Haze 22 1016 53 6000 2.57 269.176 09:42 07.10.2019
6662 Haze 22 1016 53 6000 3.66 319.477 09:23 07.10.2019
6663 Haze 20 1016 64 5000 2.6 280 08:55 07.10.2019
6664 Haze 20 1016 64 5000 2.6 280 08:37 07.10.2019
6665 Haze 20 1016 64 5000 2.6 280 08:18 07.10.2019
6666 Mist 17 1015 88 4000 3.61 321.625 07:40 07.10.2019
6667 Mist 17 1015 88 4000 3.61 321.625 07:20 07.10.2019
6668 Mist 16 1014 88 5000 3.61 321.625 06:48 07.10.2019
6669 Mist 16 1014 88 5000 3.61 321.625 06:27 07.10.2019
6670 Mist 15 1014 88 5000 4.19 326.386 05:42 07.10.2019
6671 Mist 15 1014 88 5000 4.19 326.386 05:21 07.10.2019
6672 Mist 17 1014 93 4000 4.19 326.386 04:23 07.10.2019
6673 Mist 17 1014 88 5000 4.19 326.386 03:44 07.10.2019
6674 Mist 17 1014 88 5000 3.08 325.603 03:19 07.10.2019
6675 Mist 16 1014 88 5000 3.08 325.603 02:20 07.10.2019
6676 Mist 17 1014 82 5000 3.08 325.603 01:50 07.10.2019
6677 Mist 17 1014 82 5000 3 321.889 01:21 07.10.2019
6678 Haze 18 1014 82 5000 3 321.889 00:39 07.10.2019
6679 Haze 19 1015 77 6000 3.1 280 00:20 07.10.2019
6680 Haze 19 1014 82 5000 4.32 329.036 23:42 06.10.2019
6681 Haze 19 1014 82 5000 4.32 329.036 23:22 06.10.2019
6682 Clear 19 1015 72 6000 3.1 320 22:59 06.10.2019
6683 Clear 19 1015 72 6000 3.1 320 22:41 06.10.2019
6684 Clear 19 1015 72 6000 3.1 320 22:22 06.10.2019
6685 Clear 20 1015 72 6000 3.1 320 21:58 06.10.2019
6686 Clear 20 1015 72 6000 3.1 320 21:38 06.10.2019
6687 Clear 20 1015 72 6000 3.1 320 21:19 06.10.2019
6688 Haze 21 1014 73 5000 4.1 300 20:58 06.10.2019
6689 Haze 21 1014 73 5000 4.1 300 20:40 06.10.2019
6690 Haze 21 1014 73 5000 4.1 300 20:40 06.10.2019
6691 Haze 21 1014 73 5000 4.1 300 20:21 06.10.2019
6692 Haze 23 1014 68 5000 5.1 320 19:57 06.10.2019
6693 Haze 23 1014 68 5000 5.1 320 19:37 06.10.2019
6694 Haze 23 1014 68 5000 5.1 320 19:19 06.10.2019
6695 Haze 24 1014 41 5000 6.7 320 18:57 06.10.2019
6696 Haze 24 1014 41 5000 6.7 320 18:39 06.10.2019
6697 Haze 24 1014 41 5000 6.7 320 18:19 06.10.2019
6698 Haze 26 1014 34 5000 5.7 300 17:58 06.10.2019
6699 Haze 26 1014 34 5000 5.7 300 17:39 06.10.2019
6700 Haze 26 1014 34 5000 5.7 300 17:19 06.10.2019
6701 Dust 28 1014 32 6000 7.2 280 16:42 06.10.2019
6702 Dust 28 1014 32 6000 7.2 280 16:24 06.10.2019
6703 Dust 30 1014 25 6000 7.7 270 15:58 06.10.2019
6704 Dust 30 1014 25 6000 7.7 270 15:39 06.10.2019
6705 Dust 30 1014 25 6000 7.7 270 15:18 06.10.2019
6706 Dust 30 1014 25 6000 7.7 270 15:18 06.10.2019
6707 Dust 30 1014 25 6000 6.7 300 14:43 06.10.2019
6708 Dust 30 1014 25 6000 6.7 300 14:24 06.10.2019
6709 Haze 30 1014 19 6000 7.2 280 13:58 06.10.2019
6710 Haze 30 1014 19 6000 7.2 280 13:39 06.10.2019
6711 Haze 30 1014 19 6000 7.2 280 13:39 06.10.2019
6712 Haze 30 1014 19 6000 7.2 280 13:21 06.10.2019
6713 Haze 30 1014 19 6000 7.2 280 13:20 06.10.2019
6714 Haze 30 1014 23 5000 4.6 280 12:57 06.10.2019
6715 Haze 30 1014 23 5000 4.6 280 12:39 06.10.2019
6716 Haze 30 1014 23 5000 4.6 280 12:20 06.10.2019
6717 Haze 30 1014 23 5000 4.6 280 12:20 06.10.2019
6718 Haze 29 1015 23 5000 1.5 230 11:57 06.10.2019
6719 Haze 29 1015 23 5000 1.5 230 11:38 06.10.2019
6720 Haze 29 1015 23 5000 1.5 230 11:20 06.10.2019
6721 Haze 26 1015 22 5000 1.5 230 10:44 06.10.2019
6722 Haze 26 1015 22 5000 1.5 230 10:44 06.10.2019
6723 Haze 26 1015 22 5000 1.5 230 10:26 06.10.2019
6724 Haze 24 1015 23 5000 3.1 250 09:58 06.10.2019
6725 Haze 24 1015 23 5000 3.1 250 09:39 06.10.2019
6726 Haze 24 1015 23 5000 3.1 250 09:19 06.10.2019
6727 Haze 22 1015 20 5000 3.6 250 08:43 06.10.2019
6728 Haze 22 1015 20 5000 3.6 250 08:21 06.10.2019
6729 Haze 18 1015 27 5000 2.1 260 07:56 06.10.2019
6730 Haze 18 1015 27 5000 2.1 260 07:56 06.10.2019
6731 Haze 18 1015 27 5000 2.1 260 07:33 06.10.2019
6732 Haze 17 1014 18 5000 3.66 314.17 06:23 06.10.2019
6733 Haze 17 1014 18 5000 3.66 314.17 05:35 06.10.2019
6734 Clouds 17 1014 13 6000 3.66 314.17 04:26 06.10.2019
6735 Clouds 19 1014 16 7000 3.1 270 02:46 06.10.2019
6736 Clouds 19 1014 16 7000 3.1 270 02:27 06.10.2019
6737 Clouds 19 1014 19 7000 2.6 230 01:46 06.10.2019
6738 Clouds 19 1014 19 7000 2.6 230 01:27 06.10.2019
6739 Clouds 20 1014 33 7000 2.6 220 00:57 06.10.2019
6740 Clouds 20 1014 33 7000 2.6 220 00:57 06.10.2019
6741 Clouds 20 1014 33 7000 2.6 220 00:28 06.10.2019
6742 Haze 20 1014 56 7000 5.59 333.091 23:45 05.10.2019
6743 Haze 20 1014 56 7000 5.59 333.091 23:23 05.10.2019
6744 Haze 21 1014 49 7000 5.59 333.091 22:59 05.10.2019
6745 Haze 21 1014 49 7000 5.59 333.091 22:40 05.10.2019
6746 Haze 21 1014 49 7000 5.59 333.091 22:21 05.10.2019
6747 Haze 22 1014 60 7000 5.59 333.091 21:59 05.10.2019
6748 Haze 22 1014 60 7000 5.59 333.091 21:40 05.10.2019
6749 Haze 22 1014 60 7000 4.68 301.413 21:21 05.10.2019
6750 Rain 22 1014 49 6000 2.1 250 20:56 05.10.2019
6751 Rain 22 1014 49 6000 2.1 250 20:38 05.10.2019
6752 Rain 22 1014 49 6000 2.1 250 20:38 05.10.2019
6753 Rain 22 1014 49 6000 2.1 250 20:19 05.10.2019
6754 Rain 24 1014 38 5000 3.6 280 19:40 05.10.2019
6755 Rain 24 1014 38 5000 3.6 280 19:22 05.10.2019
6756 Haze 24 1013 29 6000 4.32 318.606 18:57 05.10.2019
6757 Haze 24 1013 29 6000 4.32 318.606 1